<?xml version="1.0" encoding="utf-8"?>
<gpx xmlns:xsi="http://www.w3.org/2001/XMLSchema-instance" xmlns:xsd="http://www.w3.org/2001/XMLSchema" version="1.1" creator="Shapelink.com" xmlns="http://www.topografix.com/GPX/1/1" xmlns:gpxtpx="http://www.garmin.com/xmlschemas/TrackPointExtension/v1">
  <metadata>
    <name>Löpning 6.59 km, 2017-11-26</name>
    <desc></desc>
    <author><name>Bengt-Åke Forslund</name></author> 
    <time>2017-11-26T11:01:32Z</time>
  </metadata>
  <trk>
    <name>Löpning 6.59 km, 2017-11-26</name>
    <trkseg>
      <trkpt lat="62.636559542174" lon="17.914350639771">
        <ele>139.8</ele>
        <time>2017-11-26T11:01:32Z</time>
      </trkpt>
      <trkpt lat="62.636570690101" lon="17.914337731645">
        <ele>136.8</ele>
        <time>2017-11-26T11:01:33Z</time>
      </trkpt>
      <trkpt lat="62.636581335114" lon="17.914325242614">
        <ele>136.8</ele>
        <time>2017-11-26T11:01:34Z</time>
      </trkpt>
      <trkpt lat="62.636592063946" lon="17.914312753583">
        <ele>136.8</ele>
        <time>2017-11-26T11:01:35Z</time>
      </trkpt>
      <trkpt lat="62.636595668163" lon="17.914324991157">
        <ele>136.8</ele>
        <time>2017-11-26T11:01:36Z</time>
      </trkpt>
      <trkpt lat="62.636680912086" lon="17.914300180733">
        <ele>133.2</ele>
        <time>2017-11-26T11:01:37Z</time>
      </trkpt>
      <trkpt lat="62.636721145206" lon="17.914279393621">
        <ele>133.4</ele>
        <time>2017-11-26T11:01:39Z</time>
      </trkpt>
      <trkpt lat="62.636740507395" lon="17.914262126907">
        <ele>133.4</ele>
        <time>2017-11-26T11:01:40Z</time>
      </trkpt>
      <trkpt lat="62.636754002254" lon="17.914251733351">
        <ele>133.6</ele>
        <time>2017-11-26T11:01:41Z</time>
      </trkpt>
      <trkpt lat="62.636773448262" lon="17.914243770546">
        <ele>133.6</ele>
        <time>2017-11-26T11:01:42Z</time>
      </trkpt>
      <trkpt lat="62.636793816279" lon="17.914231113877">
        <ele>133.8</ele>
        <time>2017-11-26T11:01:43Z</time>
      </trkpt>
      <trkpt lat="62.636805634758" lon="17.914207728376">
        <ele>134</ele>
        <time>2017-11-26T11:01:44Z</time>
      </trkpt>
      <trkpt lat="62.636824577852" lon="17.91418895292">
        <ele>134.2</ele>
        <time>2017-11-26T11:01:45Z</time>
      </trkpt>
      <trkpt lat="62.636840503462" lon="17.914172272939">
        <ele>134.4</ele>
        <time>2017-11-26T11:01:46Z</time>
      </trkpt>
      <trkpt lat="62.636853327769" lon="17.914157017881">
        <ele>134.8</ele>
        <time>2017-11-26T11:01:47Z</time>
      </trkpt>
      <trkpt lat="62.636870594483" lon="17.914139667348">
        <ele>135</ele>
        <time>2017-11-26T11:01:48Z</time>
      </trkpt>
      <trkpt lat="62.636888867025" lon="17.914133967656">
        <ele>135.2</ele>
        <time>2017-11-26T11:01:49Z</time>
      </trkpt>
      <trkpt lat="62.636904457359" lon="17.914120137521">
        <ele>135.6</ele>
        <time>2017-11-26T11:01:50Z</time>
      </trkpt>
      <trkpt lat="62.63692365191" lon="17.914108905775">
        <ele>135.8</ele>
        <time>2017-11-26T11:01:51Z</time>
      </trkpt>
      <trkpt lat="62.636938823149" lon="17.914094069812">
        <ele>136</ele>
        <time>2017-11-26T11:01:52Z</time>
      </trkpt>
      <trkpt lat="62.636949719619" lon="17.914078395659">
        <ele>136.2</ele>
        <time>2017-11-26T11:01:53Z</time>
      </trkpt>
      <trkpt lat="62.636970842007" lon="17.914064816981">
        <ele>136.4</ele>
        <time>2017-11-26T11:01:54Z</time>
      </trkpt>
      <trkpt lat="62.636985342694" lon="17.914052244131">
        <ele>136.6</ele>
        <time>2017-11-26T11:01:55Z</time>
      </trkpt>
      <trkpt lat="62.637000513933" lon="17.914034893598">
        <ele>136.8</ele>
        <time>2017-11-26T11:01:56Z</time>
      </trkpt>
      <trkpt lat="62.63701920557" lon="17.914025170594">
        <ele>137</ele>
        <time>2017-11-26T11:01:57Z</time>
      </trkpt>
      <trkpt lat="62.637036137008" lon="17.914011508097">
        <ele>137.2</ele>
        <time>2017-11-26T11:01:58Z</time>
      </trkpt>
      <trkpt lat="62.637048039306" lon="17.914001365998">
        <ele>137.6</ele>
        <time>2017-11-26T11:01:59Z</time>
      </trkpt>
      <trkpt lat="62.637071676264" lon="17.913986530035">
        <ele>137.8</ele>
        <time>2017-11-26T11:02:00Z</time>
      </trkpt>
      <trkpt lat="62.637089278254" lon="17.913982422904">
        <ele>138</ele>
        <time>2017-11-26T11:02:01Z</time>
      </trkpt>
      <trkpt lat="62.637108305167" lon="17.913976807031">
        <ele>138.2</ele>
        <time>2017-11-26T11:02:02Z</time>
      </trkpt>
      <trkpt lat="62.637126996804" lon="17.913963815086">
        <ele>138.4</ele>
        <time>2017-11-26T11:02:03Z</time>
      </trkpt>
      <trkpt lat="62.637144431156" lon="17.91395006877">
        <ele>138.6</ele>
        <time>2017-11-26T11:02:04Z</time>
      </trkpt>
      <trkpt lat="62.637163793345" lon="17.913937579739">
        <ele>138.8</ele>
        <time>2017-11-26T11:02:05Z</time>
      </trkpt>
      <trkpt lat="62.637181227697" lon="17.913917295541">
        <ele>138.8</ele>
        <time>2017-11-26T11:02:06Z</time>
      </trkpt>
      <trkpt lat="62.637198997325" lon="17.913904135958">
        <ele>138.8</ele>
        <time>2017-11-26T11:02:07Z</time>
      </trkpt>
      <trkpt lat="62.637219365342" lon="17.91389223366">
        <ele>139.2</ele>
        <time>2017-11-26T11:02:08Z</time>
      </trkpt>
      <trkpt lat="62.637236380599" lon="17.913884438493">
        <ele>139.2</ele>
        <time>2017-11-26T11:02:09Z</time>
      </trkpt>
      <trkpt lat="62.637254988417" lon="17.913869099616">
        <ele>139.2</ele>
        <time>2017-11-26T11:02:10Z</time>
      </trkpt>
      <trkpt lat="62.637274937339" lon="17.913861388268">
        <ele>139.4</ele>
        <time>2017-11-26T11:02:11Z</time>
      </trkpt>
      <trkpt lat="62.637293209881" lon="17.913840517337">
        <ele>139.4</ele>
        <time>2017-11-26T11:02:12Z</time>
      </trkpt>
      <trkpt lat="62.637311398604" lon="17.913819478768">
        <ele>139.2</ele>
        <time>2017-11-26T11:02:13Z</time>
      </trkpt>
      <trkpt lat="62.637329754965" lon="17.913801457683">
        <ele>139.4</ele>
        <time>2017-11-26T11:02:14Z</time>
      </trkpt>
      <trkpt lat="62.63735112881" lon="17.913790896489">
        <ele>139.4</ele>
        <time>2017-11-26T11:02:15Z</time>
      </trkpt>
      <trkpt lat="62.63737208356" lon="17.91377656344">
        <ele>139.4</ele>
        <time>2017-11-26T11:02:16Z</time>
      </trkpt>
      <trkpt lat="62.637394211776" lon="17.913768852092">
        <ele>139.6</ele>
        <time>2017-11-26T11:02:17Z</time>
      </trkpt>
      <trkpt lat="62.637412149042" lon="17.913749406084">
        <ele>139.6</ele>
        <time>2017-11-26T11:02:18Z</time>
      </trkpt>
      <trkpt lat="62.637431343593" lon="17.913737000872">
        <ele>139.6</ele>
        <time>2017-11-26T11:02:19Z</time>
      </trkpt>
      <trkpt lat="62.637454896732" lon="17.913723925108">
        <ele>139.8</ele>
        <time>2017-11-26T11:02:20Z</time>
      </trkpt>
      <trkpt lat="62.637471911989" lon="17.913701210159">
        <ele>139.8</ele>
        <time>2017-11-26T11:02:21Z</time>
      </trkpt>
      <trkpt lat="62.637494710757" lon="17.913682350884">
        <ele>139.8</ele>
        <time>2017-11-26T11:02:22Z</time>
      </trkpt>
      <trkpt lat="62.637512145109" lon="17.913666006179">
        <ele>140</ele>
        <time>2017-11-26T11:02:23Z</time>
      </trkpt>
      <trkpt lat="62.637529914737" lon="17.913647565999">
        <ele>140</ele>
        <time>2017-11-26T11:02:24Z</time>
      </trkpt>
      <trkpt lat="62.637552126772" lon="17.913633903502">
        <ele>140</ele>
        <time>2017-11-26T11:02:25Z</time>
      </trkpt>
      <trkpt lat="62.637572662427" lon="17.913619738091">
        <ele>140.2</ele>
        <time>2017-11-26T11:02:26Z</time>
      </trkpt>
      <trkpt lat="62.63759839486" lon="17.913606829965">
        <ele>140.2</ele>
        <time>2017-11-26T11:02:27Z</time>
      </trkpt>
      <trkpt lat="62.637619265791" lon="17.913591910183">
        <ele>140.2</ele>
        <time>2017-11-26T11:02:28Z</time>
      </trkpt>
      <trkpt lat="62.637636197229" lon="17.913577158039">
        <ele>140.4</ele>
        <time>2017-11-26T11:02:29Z</time>
      </trkpt>
      <trkpt lat="62.63766880282" lon="17.91356785413">
        <ele>140.6</ele>
        <time>2017-11-26T11:02:30Z</time>
      </trkpt>
      <trkpt lat="62.637687913552" lon="17.913562908809">
        <ele>140.4</ele>
        <time>2017-11-26T11:02:31Z</time>
      </trkpt>
      <trkpt lat="62.637707946293" lon="17.913554610728">
        <ele>140.4</ele>
        <time>2017-11-26T11:02:32Z</time>
      </trkpt>
      <trkpt lat="62.637734600735" lon="17.913556035651">
        <ele>140.6</ele>
        <time>2017-11-26T11:02:33Z</time>
      </trkpt>
      <trkpt lat="62.637754214381" lon="17.913544468629">
        <ele>140.6</ele>
        <time>2017-11-26T11:02:34Z</time>
      </trkpt>
      <trkpt lat="62.637777599882" lon="17.913526196087">
        <ele>140.6</ele>
        <time>2017-11-26T11:02:35Z</time>
      </trkpt>
      <trkpt lat="62.637798135537" lon="17.913509851382">
        <ele>140.8</ele>
        <time>2017-11-26T11:02:36Z</time>
      </trkpt>
      <trkpt lat="62.637817916821" lon="17.913485543872">
        <ele>140.8</ele>
        <time>2017-11-26T11:02:37Z</time>
      </trkpt>
      <trkpt lat="62.637841134684" lon="17.913464672941">
        <ele>140.8</ele>
        <time>2017-11-26T11:02:38Z</time>
      </trkpt>
      <trkpt lat="62.63785907195" lon="17.913454530842">
        <ele>141</ele>
        <time>2017-11-26T11:02:39Z</time>
      </trkpt>
      <trkpt lat="62.6378800267" lon="17.913436090662">
        <ele>141</ele>
        <time>2017-11-26T11:02:40Z</time>
      </trkpt>
      <trkpt lat="62.637903076925" lon="17.913429301323">
        <ele>141</ele>
        <time>2017-11-26T11:02:41Z</time>
      </trkpt>
      <trkpt lat="62.637924953684" lon="17.913419829776">
        <ele>141.2</ele>
        <time>2017-11-26T11:02:42Z</time>
      </trkpt>
      <trkpt lat="62.637943142407" lon="17.913401557234">
        <ele>141.2</ele>
        <time>2017-11-26T11:02:43Z</time>
      </trkpt>
      <trkpt lat="62.637962839872" lon="17.913386050719">
        <ele>141</ele>
        <time>2017-11-26T11:02:44Z</time>
      </trkpt>
      <trkpt lat="62.637982202061" lon="17.913364257779">
        <ele>141.2</ele>
        <time>2017-11-26T11:02:45Z</time>
      </trkpt>
      <trkpt lat="62.638004581734" lon="17.913351852567">
        <ele>141.4</ele>
        <time>2017-11-26T11:02:46Z</time>
      </trkpt>
      <trkpt lat="62.638021764629" lon="17.913333747663">
        <ele>141.2</ele>
        <time>2017-11-26T11:02:47Z</time>
      </trkpt>
      <trkpt lat="62.638044731035" lon="17.91331639713">
        <ele>141.4</ele>
        <time>2017-11-26T11:02:48Z</time>
      </trkpt>
      <trkpt lat="62.638065350509" lon="17.913300974434">
        <ele>141.6</ele>
        <time>2017-11-26T11:02:49Z</time>
      </trkpt>
      <trkpt lat="62.638082449585" lon="17.913279181494">
        <ele>141.4</ele>
        <time>2017-11-26T11:02:50Z</time>
      </trkpt>
      <trkpt lat="62.638103069059" lon="17.913268368843">
        <ele>141.6</ele>
        <time>2017-11-26T11:02:51Z</time>
      </trkpt>
      <trkpt lat="62.638124191447" lon="17.913250766853">
        <ele>141.8</ele>
        <time>2017-11-26T11:02:52Z</time>
      </trkpt>
      <trkpt lat="62.63814070379" lon="17.913232913406">
        <ele>141.8</ele>
        <time>2017-11-26T11:02:53Z</time>
      </trkpt>
      <trkpt lat="62.638161323264" lon="17.913209611724">
        <ele>141.8</ele>
        <time>2017-11-26T11:02:54Z</time>
      </trkpt>
      <trkpt lat="62.638181020729" lon="17.913186561499">
        <ele>142</ele>
        <time>2017-11-26T11:02:55Z</time>
      </trkpt>
      <trkpt lat="62.638199880004" lon="17.91316887569">
        <ele>142</ele>
        <time>2017-11-26T11:02:56Z</time>
      </trkpt>
      <trkpt lat="62.638226115351" lon="17.913155799926">
        <ele>142</ele>
        <time>2017-11-26T11:02:57Z</time>
      </trkpt>
      <trkpt lat="62.638246231911" lon="17.913141131601">
        <ele>142</ele>
        <time>2017-11-26T11:02:58Z</time>
      </trkpt>
      <trkpt lat="62.638263163349" lon="17.913123697249">
        <ele>142.2</ele>
        <time>2017-11-26T11:02:59Z</time>
      </trkpt>
      <trkpt lat="62.6382907398" lon="17.913106095259">
        <ele>142</ele>
        <time>2017-11-26T11:03:00Z</time>
      </trkpt>
      <trkpt lat="62.638308593247" lon="17.91308924764">
        <ele>142</ele>
        <time>2017-11-26T11:03:01Z</time>
      </trkpt>
      <trkpt lat="62.638329464178" lon="17.913075166048">
        <ele>142.2</ele>
        <time>2017-11-26T11:03:02Z</time>
      </trkpt>
      <trkpt lat="62.638349832195" lon="17.913055049488">
        <ele>142.2</ele>
        <time>2017-11-26T11:03:03Z</time>
      </trkpt>
      <trkpt lat="62.638368440013" lon="17.913034094738">
        <ele>142.2</ele>
        <time>2017-11-26T11:03:04Z</time>
      </trkpt>
      <trkpt lat="62.638389897677" lon="17.913011212151">
        <ele>142.4</ele>
        <time>2017-11-26T11:03:05Z</time>
      </trkpt>
      <trkpt lat="62.638410349513" lon="17.912993610161">
        <ele>142.4</ele>
        <time>2017-11-26T11:03:06Z</time>
      </trkpt>
      <trkpt lat="62.638432813005" lon="17.91297441561">
        <ele>142.4</ele>
        <time>2017-11-26T11:03:07Z</time>
      </trkpt>
      <trkpt lat="62.638452594289" lon="17.912948850815">
        <ele>142.4</ele>
        <time>2017-11-26T11:03:08Z</time>
      </trkpt>
      <trkpt lat="62.638470699193" lon="17.912936026508">
        <ele>142.4</ele>
        <time>2017-11-26T11:03:09Z</time>
      </trkpt>
      <trkpt lat="62.638488636459" lon="17.912918675975">
        <ele>142.4</ele>
        <time>2017-11-26T11:03:10Z</time>
      </trkpt>
      <trkpt lat="62.638508585381" lon="17.912900151976">
        <ele>142.4</ele>
        <time>2017-11-26T11:03:11Z</time>
      </trkpt>
      <trkpt lat="62.63852962395" lon="17.912877353208">
        <ele>142.6</ele>
        <time>2017-11-26T11:03:12Z</time>
      </trkpt>
      <trkpt lat="62.638549153777" lon="17.912856985191">
        <ele>142.6</ele>
        <time>2017-11-26T11:03:13Z</time>
      </trkpt>
      <trkpt lat="62.638567677776" lon="17.912837036269">
        <ele>142.6</ele>
        <time>2017-11-26T11:03:14Z</time>
      </trkpt>
      <trkpt lat="62.638587207603" lon="17.912819015184">
        <ele>142.8</ele>
        <time>2017-11-26T11:03:15Z</time>
      </trkpt>
      <trkpt lat="62.63860338467" lon="17.912798228072">
        <ele>142.8</ele>
        <time>2017-11-26T11:03:16Z</time>
      </trkpt>
      <trkpt lat="62.638626518714" lon="17.912773417648">
        <ele>143</ele>
        <time>2017-11-26T11:03:17Z</time>
      </trkpt>
      <trkpt lat="62.638646383817" lon="17.912756653848">
        <ele>143.2</ele>
        <time>2017-11-26T11:03:18Z</time>
      </trkpt>
      <trkpt lat="62.638666500377" lon="17.912744248636">
        <ele>143.2</ele>
        <time>2017-11-26T11:03:19Z</time>
      </trkpt>
      <trkpt lat="62.638687371308" lon="17.912722036601">
        <ele>143.4</ele>
        <time>2017-11-26T11:03:20Z</time>
      </trkpt>
      <trkpt lat="62.638706901135" lon="17.912703512602">
        <ele>143.4</ele>
        <time>2017-11-26T11:03:21Z</time>
      </trkpt>
      <trkpt lat="62.638726933876" lon="17.912684820965">
        <ele>143.6</ele>
        <time>2017-11-26T11:03:22Z</time>
      </trkpt>
      <trkpt lat="62.638745709332" lon="17.91267182902">
        <ele>143.4</ele>
        <time>2017-11-26T11:03:23Z</time>
      </trkpt>
      <trkpt lat="62.638769011014" lon="17.912655149039">
        <ele>143.6</ele>
        <time>2017-11-26T11:03:24Z</time>
      </trkpt>
      <trkpt lat="62.63879030104" lon="17.91263830142">
        <ele>143.6</ele>
        <time>2017-11-26T11:03:25Z</time>
      </trkpt>
      <trkpt lat="62.638812261618" lon="17.912619525964">
        <ele>143.6</ele>
        <time>2017-11-26T11:03:26Z</time>
      </trkpt>
      <trkpt lat="62.638834808929" lon="17.912600415232">
        <ele>143.6</ele>
        <time>2017-11-26T11:03:27Z</time>
      </trkpt>
      <trkpt lat="62.638855176946" lon="17.912584824898">
        <ele>143.6</ele>
        <time>2017-11-26T11:03:28Z</time>
      </trkpt>
      <trkpt lat="62.638861295733" lon="17.912578454654">
        <ele>143.6</ele>
        <time>2017-11-26T11:03:29Z</time>
      </trkpt>
      <trkpt lat="62.638894823333" lon="17.91255280604">
        <ele>143.6</ele>
        <time>2017-11-26T11:03:30Z</time>
      </trkpt>
      <trkpt lat="62.638918125015" lon="17.912534868774">
        <ele>143.6</ele>
        <time>2017-11-26T11:03:31Z</time>
      </trkpt>
      <trkpt lat="62.638940588507" lon="17.912525229589">
        <ele>143.4</ele>
        <time>2017-11-26T11:03:32Z</time>
      </trkpt>
      <trkpt lat="62.638963387275" lon="17.912515422766">
        <ele>143.6</ele>
        <time>2017-11-26T11:03:33Z</time>
      </trkpt>
      <trkpt lat="62.638980821627" lon="17.912499413337">
        <ele>143.6</ele>
        <time>2017-11-26T11:03:34Z</time>
      </trkpt>
      <trkpt lat="62.638997250151" lon="17.912472675076">
        <ele>143.4</ele>
        <time>2017-11-26T11:03:35Z</time>
      </trkpt>
      <trkpt lat="62.639021892937" lon="17.912462113882">
        <ele>143.6</ele>
        <time>2017-11-26T11:03:36Z</time>
      </trkpt>
      <trkpt lat="62.639038153823" lon="17.912448535204">
        <ele>143.4</ele>
        <time>2017-11-26T11:03:37Z</time>
      </trkpt>
      <trkpt lat="62.639058438021" lon="17.912434453612">
        <ele>143.4</ele>
        <time>2017-11-26T11:03:38Z</time>
      </trkpt>
      <trkpt lat="62.639069083034" lon="17.912425484979">
        <ele>143.6</ele>
        <time>2017-11-26T11:03:39Z</time>
      </trkpt>
      <trkpt lat="62.639087523214" lon="17.912412576853">
        <ele>143.4</ele>
        <time>2017-11-26T11:03:40Z</time>
      </trkpt>
      <trkpt lat="62.639111243991" lon="17.91241701926">
        <ele>143.4</ele>
        <time>2017-11-26T11:03:41Z</time>
      </trkpt>
      <trkpt lat="62.639130187085" lon="17.912406625704">
        <ele>143.4</ele>
        <time>2017-11-26T11:03:42Z</time>
      </trkpt>
      <trkpt lat="62.639152650577" lon="17.912401009831">
        <ele>143.4</ele>
        <time>2017-11-26T11:03:43Z</time>
      </trkpt>
      <trkpt lat="62.639171258395" lon="17.912401680383">
        <ele>143.2</ele>
        <time>2017-11-26T11:03:44Z</time>
      </trkpt>
      <trkpt lat="62.639194224801" lon="17.912392376474">
        <ele>143.2</ele>
        <time>2017-11-26T11:03:45Z</time>
      </trkpt>
      <trkpt lat="62.639214928094" lon="17.912390532456">
        <ele>143.2</ele>
        <time>2017-11-26T11:03:46Z</time>
      </trkpt>
      <trkpt lat="62.639229596419" lon="17.912389945723">
        <ele>143.2</ele>
        <time>2017-11-26T11:03:47Z</time>
      </trkpt>
      <trkpt lat="62.639250132074" lon="17.912398243804">
        <ele>143.4</ele>
        <time>2017-11-26T11:03:48Z</time>
      </trkpt>
      <trkpt lat="62.63926639296" lon="17.912404530229">
        <ele>143.6</ele>
        <time>2017-11-26T11:03:49Z</time>
      </trkpt>
      <trkpt lat="62.639289191728" lon="17.912406877161">
        <ele>143.6</ele>
        <time>2017-11-26T11:03:50Z</time>
      </trkpt>
      <trkpt lat="62.639310230297" lon="17.912420707296">
        <ele>143.8</ele>
        <time>2017-11-26T11:03:51Z</time>
      </trkpt>
      <trkpt lat="62.639329005753" lon="17.912433280146">
        <ele>144</ele>
        <time>2017-11-26T11:03:52Z</time>
      </trkpt>
      <trkpt lat="62.639342416793" lon="17.912450043946">
        <ele>144.2</ele>
        <time>2017-11-26T11:03:53Z</time>
      </trkpt>
      <trkpt lat="62.639362449534" lon="17.912466221013">
        <ele>144.2</ele>
        <time>2017-11-26T11:03:54Z</time>
      </trkpt>
      <trkpt lat="62.639380638257" lon="17.912475776379">
        <ele>144.4</ele>
        <time>2017-11-26T11:03:55Z</time>
      </trkpt>
      <trkpt lat="62.639401928283" lon="17.912503269011">
        <ele>144.6</ele>
        <time>2017-11-26T11:03:56Z</time>
      </trkpt>
      <trkpt lat="62.639421039015" lon="17.912520200449">
        <ele>144.6</ele>
        <time>2017-11-26T11:03:57Z</time>
      </trkpt>
      <trkpt lat="62.639436796987" lon="17.912534784955">
        <ele>144.6</ele>
        <time>2017-11-26T11:03:58Z</time>
      </trkpt>
      <trkpt lat="62.639456745909" lon="17.912550542927">
        <ele>144.6</ele>
        <time>2017-11-26T11:03:59Z</time>
      </trkpt>
      <trkpt lat="62.639478957944" lon="17.912564708338">
        <ele>144.6</ele>
        <time>2017-11-26T11:04:00Z</time>
      </trkpt>
      <trkpt lat="62.639497984857" lon="17.912572252048">
        <ele>144.6</ele>
        <time>2017-11-26T11:04:01Z</time>
      </trkpt>
      <trkpt lat="62.639518939607" lon="17.912569988935">
        <ele>144.6</ele>
        <time>2017-11-26T11:04:02Z</time>
      </trkpt>
      <trkpt lat="62.639537798882" lon="17.912560182112">
        <ele>144.6</ele>
        <time>2017-11-26T11:04:03Z</time>
      </trkpt>
      <trkpt lat="62.639559340365" lon="17.912543334493">
        <ele>144.6</ele>
        <time>2017-11-26T11:04:04Z</time>
      </trkpt>
      <trkpt lat="62.639578283459" lon="17.91252346939">
        <ele>144.6</ele>
        <time>2017-11-26T11:04:05Z</time>
      </trkpt>
      <trkpt lat="62.639598651476" lon="17.912508633427">
        <ele>144.6</ele>
        <time>2017-11-26T11:04:06Z</time>
      </trkpt>
      <trkpt lat="62.639620695873" lon="17.912489774152">
        <ele>144.6</ele>
        <time>2017-11-26T11:04:07Z</time>
      </trkpt>
      <trkpt lat="62.639635699474" lon="17.912465047547">
        <ele>144.4</ele>
        <time>2017-11-26T11:04:08Z</time>
      </trkpt>
      <trkpt lat="62.639649278152" lon="17.912433112508">
        <ele>144.6</ele>
        <time>2017-11-26T11:04:09Z</time>
      </trkpt>
      <trkpt lat="62.639666628685" lon="17.912397154157">
        <ele>144.6</ele>
        <time>2017-11-26T11:04:10Z</time>
      </trkpt>
      <trkpt lat="62.639675597318" lon="17.912367733688">
        <ele>144.4</ele>
        <time>2017-11-26T11:04:11Z</time>
      </trkpt>
      <trkpt lat="62.639689846548" lon="17.912324315446">
        <ele>144.6</ele>
        <time>2017-11-26T11:04:12Z</time>
      </trkpt>
      <trkpt lat="62.639702838493" lon="17.912296738995">
        <ele>144.6</ele>
        <time>2017-11-26T11:04:13Z</time>
      </trkpt>
      <trkpt lat="62.639715998076" lon="17.912277376806">
        <ele>144.4</ele>
        <time>2017-11-26T11:04:14Z</time>
      </trkpt>
      <trkpt lat="62.639730582582" lon="17.912247788699">
        <ele>144.4</ele>
        <time>2017-11-26T11:04:15Z</time>
      </trkpt>
      <trkpt lat="62.639747262563" lon="17.91222758832">
        <ele>144.4</ele>
        <time>2017-11-26T11:04:16Z</time>
      </trkpt>
      <trkpt lat="62.63976679239" lon="17.912206046837">
        <ele>144.4</ele>
        <time>2017-11-26T11:04:17Z</time>
      </trkpt>
      <trkpt lat="62.63978690895" lon="17.912180984956">
        <ele>144.4</ele>
        <time>2017-11-26T11:04:18Z</time>
      </trkpt>
      <trkpt lat="62.63980031999" lon="17.912156593627">
        <ele>144.6</ele>
        <time>2017-11-26T11:04:19Z</time>
      </trkpt>
      <trkpt lat="62.639824795138" lon="17.91213957837">
        <ele>144.6</ele>
        <time>2017-11-26T11:04:20Z</time>
      </trkpt>
      <trkpt lat="62.639835607789" lon="17.912108146245">
        <ele>144.6</ele>
        <time>2017-11-26T11:04:21Z</time>
      </trkpt>
      <trkpt lat="62.639851617218" lon="17.912068835134">
        <ele>144.6</ele>
        <time>2017-11-26T11:04:22Z</time>
      </trkpt>
      <trkpt lat="62.639861256403" lon="17.912037486828">
        <ele>144.6</ele>
        <time>2017-11-26T11:04:23Z</time>
      </trkpt>
      <trkpt lat="62.639874751262" lon="17.912010413291">
        <ele>144.4</ele>
        <time>2017-11-26T11:04:24Z</time>
      </trkpt>
      <trkpt lat="62.639892856166" lon="17.911976885691">
        <ele>144.6</ele>
        <time>2017-11-26T11:04:25Z</time>
      </trkpt>
      <trkpt lat="62.639906686301" lon="17.91194679467">
        <ele>144.6</ele>
        <time>2017-11-26T11:04:26Z</time>
      </trkpt>
      <trkpt lat="62.63992018116" lon="17.911923157712">
        <ele>144.6</ele>
        <time>2017-11-26T11:04:27Z</time>
      </trkpt>
      <trkpt lat="62.63993778315" lon="17.911889127198">
        <ele>144.8</ele>
        <time>2017-11-26T11:04:28Z</time>
      </trkpt>
      <trkpt lat="62.639945829774" lon="17.911869345914">
        <ele>144.8</ele>
        <time>2017-11-26T11:04:29Z</time>
      </trkpt>
      <trkpt lat="62.639967706533" lon="17.911826430586">
        <ele>144.8</ele>
        <time>2017-11-26T11:04:30Z</time>
      </trkpt>
      <trkpt lat="62.639986314351" lon="17.911790304597">
        <ele>145</ele>
        <time>2017-11-26T11:04:31Z</time>
      </trkpt>
      <trkpt lat="62.639999976848" lon="17.911758872472">
        <ele>145</ele>
        <time>2017-11-26T11:04:32Z</time>
      </trkpt>
      <trkpt lat="62.640015818639" lon="17.911724339044">
        <ele>145.2</ele>
        <time>2017-11-26T11:04:33Z</time>
      </trkpt>
      <trkpt lat="62.640032833896" lon="17.911696259679">
        <ele>145.4</ele>
        <time>2017-11-26T11:04:34Z</time>
      </trkpt>
      <trkpt lat="62.64005010061" lon="17.911666168658">
        <ele>145.4</ele>
        <time>2017-11-26T11:04:35Z</time>
      </trkpt>
      <trkpt lat="62.640068289333" lon="17.91162912066">
        <ele>145.4</ele>
        <time>2017-11-26T11:04:36Z</time>
      </trkpt>
      <trkpt lat="62.640088154436" lon="17.9116006222">
        <ele>145.6</ele>
        <time>2017-11-26T11:04:37Z</time>
      </trkpt>
      <trkpt lat="62.640104666779" lon="17.911567597514">
        <ele>145.4</ele>
        <time>2017-11-26T11:04:38Z</time>
      </trkpt>
      <trkpt lat="62.640119502742" lon="17.911532561172">
        <ele>145.4</ele>
        <time>2017-11-26T11:04:39Z</time>
      </trkpt>
      <trkpt lat="62.640132578506" lon="17.911497776287">
        <ele>145.6</ele>
        <time>2017-11-26T11:04:40Z</time>
      </trkpt>
      <trkpt lat="62.640141882415" lon="17.911475983347">
        <ele>145.6</ele>
        <time>2017-11-26T11:04:41Z</time>
      </trkpt>
      <trkpt lat="62.640160322595" lon="17.911440024996">
        <ele>145.6</ele>
        <time>2017-11-26T11:04:42Z</time>
      </trkpt>
      <trkpt lat="62.640173985092" lon="17.911418567332">
        <ele>145.6</ele>
        <time>2017-11-26T11:04:43Z</time>
      </trkpt>
      <trkpt lat="62.640189491607" lon="17.911389314501">
        <ele>145.8</ele>
        <time>2017-11-26T11:04:44Z</time>
      </trkpt>
      <trkpt lat="62.640202232095" lon="17.911364168801">
        <ele>145.8</ele>
        <time>2017-11-26T11:04:45Z</time>
      </trkpt>
      <trkpt lat="62.640216565144" lon="17.911339861291">
        <ele>145.8</ele>
        <time>2017-11-26T11:04:46Z</time>
      </trkpt>
      <trkpt lat="62.640230646736" lon="17.911308764442">
        <ele>146.2</ele>
        <time>2017-11-26T11:04:47Z</time>
      </trkpt>
      <trkpt lat="62.640242297577" lon="17.911278254326">
        <ele>146.4</ele>
        <time>2017-11-26T11:04:48Z</time>
      </trkpt>
      <trkpt lat="62.640257301178" lon="17.911247828029">
        <ele>146.6</ele>
        <time>2017-11-26T11:04:49Z</time>
      </trkpt>
      <trkpt lat="62.640271634227" lon="17.911209355108">
        <ele>147</ele>
        <time>2017-11-26T11:04:50Z</time>
      </trkpt>
      <trkpt lat="62.640282195421" lon="17.911177922983">
        <ele>147.2</ele>
        <time>2017-11-26T11:04:51Z</time>
      </trkpt>
      <trkpt lat="62.640298875402" lon="17.911140958804">
        <ele>147.2</ele>
        <time>2017-11-26T11:04:52Z</time>
      </trkpt>
      <trkpt lat="62.640310693881" lon="17.911113969086">
        <ele>147.4</ele>
        <time>2017-11-26T11:04:53Z</time>
      </trkpt>
      <trkpt lat="62.640324607835" lon="17.911086308816">
        <ele>147.6</ele>
        <time>2017-11-26T11:04:54Z</time>
      </trkpt>
      <trkpt lat="62.640343048015" lon="17.911050685741">
        <ele>147.6</ele>
        <time>2017-11-26T11:04:55Z</time>
      </trkpt>
      <trkpt lat="62.640361739652" lon="17.911023193109">
        <ele>147.8</ele>
        <time>2017-11-26T11:04:56Z</time>
      </trkpt>
      <trkpt lat="62.640376743253" lon="17.910991090432">
        <ele>148</ele>
        <time>2017-11-26T11:04:57Z</time>
      </trkpt>
      <trkpt lat="62.640390824845" lon="17.910959071574">
        <ele>148</ele>
        <time>2017-11-26T11:04:58Z</time>
      </trkpt>
      <trkpt lat="62.640403481514" lon="17.910933171503">
        <ele>148</ele>
        <time>2017-11-26T11:04:59Z</time>
      </trkpt>
      <trkpt lat="62.640422424608" lon="17.910896039686">
        <ele>148.2</ele>
        <time>2017-11-26T11:05:00Z</time>
      </trkpt>
      <trkpt lat="62.640435751829" lon="17.910869804339">
        <ele>148.2</ele>
        <time>2017-11-26T11:05:01Z</time>
      </trkpt>
      <trkpt lat="62.64045075543" lon="17.910839126585">
        <ele>148.4</ele>
        <time>2017-11-26T11:05:02Z</time>
      </trkpt>
      <trkpt lat="62.640469530886" lon="17.910820351129">
        <ele>148.6</ele>
        <time>2017-11-26T11:05:03Z</time>
      </trkpt>
      <trkpt lat="62.640482103736" lon="17.910799647836">
        <ele>148.8</ele>
        <time>2017-11-26T11:05:04Z</time>
      </trkpt>
      <trkpt lat="62.640501633563" lon="17.910779866552">
        <ele>148.8</ele>
        <time>2017-11-26T11:05:05Z</time>
      </trkpt>
      <trkpt lat="62.640518565001" lon="17.910763354209">
        <ele>149.2</ele>
        <time>2017-11-26T11:05:06Z</time>
      </trkpt>
      <trkpt lat="62.64053373624" lon="17.91074399202">
        <ele>149.4</ele>
        <time>2017-11-26T11:05:07Z</time>
      </trkpt>
      <trkpt lat="62.640557037922" lon="17.910714823008">
        <ele>149.6</ele>
        <time>2017-11-26T11:05:08Z</time>
      </trkpt>
      <trkpt lat="62.640569275496" lon="17.910691102231">
        <ele>149.8</ele>
        <time>2017-11-26T11:05:09Z</time>
      </trkpt>
      <trkpt lat="62.640586458391" lon="17.910665705074">
        <ele>150</ele>
        <time>2017-11-26T11:05:10Z</time>
      </trkpt>
      <trkpt lat="62.640602635458" lon="17.910642151935">
        <ele>150</ele>
        <time>2017-11-26T11:05:11Z</time>
      </trkpt>
      <trkpt lat="62.640623087294" lon="17.910620442814">
        <ele>150.2</ele>
        <time>2017-11-26T11:05:12Z</time>
      </trkpt>
      <trkpt lat="62.640641778931" lon="17.910595213295">
        <ele>150.4</ele>
        <time>2017-11-26T11:05:13Z</time>
      </trkpt>
      <trkpt lat="62.640659632378" lon="17.910577695124">
        <ele>150.6</ele>
        <time>2017-11-26T11:05:14Z</time>
      </trkpt>
      <trkpt lat="62.640676899092" lon="17.910557327107">
        <ele>150.6</ele>
        <time>2017-11-26T11:05:15Z</time>
      </trkpt>
      <trkpt lat="62.640698608213" lon="17.910535785624">
        <ele>150.8</ele>
        <time>2017-11-26T11:05:16Z</time>
      </trkpt>
      <trkpt lat="62.640709923778" lon="17.910524302421">
        <ele>151</ele>
        <time>2017-11-26T11:05:17Z</time>
      </trkpt>
      <trkpt lat="62.64073741641" lon="17.910496893608">
        <ele>151</ele>
        <time>2017-11-26T11:05:18Z</time>
      </trkpt>
      <trkpt lat="62.64075753297" lon="17.91047996217">
        <ele>151</ele>
        <time>2017-11-26T11:05:19Z</time>
      </trkpt>
      <trkpt lat="62.64077848772" lon="17.910461941085">
        <ele>151.2</ele>
        <time>2017-11-26T11:05:20Z</time>
      </trkpt>
      <trkpt lat="62.640795754434" lon="17.910436460109">
        <ele>151.4</ele>
        <time>2017-11-26T11:05:21Z</time>
      </trkpt>
      <trkpt lat="62.640819475211" lon="17.910411984961">
        <ele>151.4</ele>
        <time>2017-11-26T11:05:22Z</time>
      </trkpt>
      <trkpt lat="62.640837244839" lon="17.910393041867">
        <ele>151.4</ele>
        <time>2017-11-26T11:05:23Z</time>
      </trkpt>
      <trkpt lat="62.640857445218" lon="17.910374098773">
        <ele>151.6</ele>
        <time>2017-11-26T11:05:24Z</time>
      </trkpt>
      <trkpt lat="62.640878986701" lon="17.910354904222">
        <ele>151.8</ele>
        <time>2017-11-26T11:05:25Z</time>
      </trkpt>
      <trkpt lat="62.640898851804" lon="17.91033746987">
        <ele>151.8</ele>
        <time>2017-11-26T11:05:26Z</time>
      </trkpt>
      <trkpt lat="62.640921566753" lon="17.91032070607">
        <ele>152</ele>
        <time>2017-11-26T11:05:27Z</time>
      </trkpt>
      <trkpt lat="62.640944197883" lon="17.910301930614">
        <ele>152</ele>
        <time>2017-11-26T11:05:28Z</time>
      </trkpt>
      <trkpt lat="62.640956519276" lon="17.910284747719">
        <ele>152</ele>
        <time>2017-11-26T11:05:29Z</time>
      </trkpt>
      <trkpt lat="62.640983760451" lon="17.910262284227">
        <ele>152</ele>
        <time>2017-11-26T11:05:30Z</time>
      </trkpt>
      <trkpt lat="62.641002619726" lon="17.910242586762">
        <ele>151.8</ele>
        <time>2017-11-26T11:05:31Z</time>
      </trkpt>
      <trkpt lat="62.641022317191" lon="17.910224817134">
        <ele>152</ele>
        <time>2017-11-26T11:05:32Z</time>
      </trkpt>
      <trkpt lat="62.641047798167" lon="17.910206376954">
        <ele>152</ele>
        <time>2017-11-26T11:05:33Z</time>
      </trkpt>
      <trkpt lat="62.641062131216" lon="17.91018743386">
        <ele>151.8</ele>
        <time>2017-11-26T11:05:34Z</time>
      </trkpt>
      <trkpt lat="62.641082331595" lon="17.910168323128">
        <ele>152</ele>
        <time>2017-11-26T11:05:35Z</time>
      </trkpt>
      <trkpt lat="62.6411070582" lon="17.910147703654">
        <ele>152</ele>
        <time>2017-11-26T11:05:36Z</time>
      </trkpt>
      <trkpt lat="62.641126252751" lon="17.910123228506">
        <ele>152</ele>
        <time>2017-11-26T11:05:37Z</time>
      </trkpt>
      <trkpt lat="62.641147542777" lon="17.910103363403">
        <ele>152</ele>
        <time>2017-11-26T11:05:38Z</time>
      </trkpt>
      <trkpt lat="62.641166234414" lon="17.910085677594">
        <ele>152</ele>
        <time>2017-11-26T11:05:39Z</time>
      </trkpt>
      <trkpt lat="62.641182914395" lon="17.910056508582">
        <ele>152</ele>
        <time>2017-11-26T11:05:40Z</time>
      </trkpt>
      <trkpt lat="62.641205042611" lon="17.910032201072">
        <ele>152</ele>
        <time>2017-11-26T11:05:41Z</time>
      </trkpt>
      <trkpt lat="62.641225662085" lon="17.910009150847">
        <ele>152.2</ele>
        <time>2017-11-26T11:05:42Z</time>
      </trkpt>
      <trkpt lat="62.641247538844" lon="17.909982412586">
        <ele>152.2</ele>
        <time>2017-11-26T11:05:43Z</time>
      </trkpt>
      <trkpt lat="62.641268996508" lon="17.909966486976">
        <ele>152</ele>
        <time>2017-11-26T11:05:44Z</time>
      </trkpt>
      <trkpt lat="62.64129062181" lon="17.90995022609">
        <ele>152.2</ele>
        <time>2017-11-26T11:05:45Z</time>
      </trkpt>
      <trkpt lat="62.641311660379" lon="17.909929941892">
        <ele>152.2</ele>
        <time>2017-11-26T11:05:46Z</time>
      </trkpt>
      <trkpt lat="62.641325322876" lon="17.909923823105">
        <ele>152</ele>
        <time>2017-11-26T11:05:47Z</time>
      </trkpt>
      <trkpt lat="62.641354743345" lon="17.90990077288">
        <ele>152.2</ele>
        <time>2017-11-26T11:05:48Z</time>
      </trkpt>
      <trkpt lat="62.641375279" lon="17.90988400908">
        <ele>152.2</ele>
        <time>2017-11-26T11:05:49Z</time>
      </trkpt>
      <trkpt lat="62.641397742492" lon="17.909866071814">
        <ele>152.2</ele>
        <time>2017-11-26T11:05:50Z</time>
      </trkpt>
      <trkpt lat="62.641422804373" lon="17.909849727109">
        <ele>152.2</ele>
        <time>2017-11-26T11:05:51Z</time>
      </trkpt>
      <trkpt lat="62.641449710272" lon="17.909833801499">
        <ele>152.2</ele>
        <time>2017-11-26T11:05:52Z</time>
      </trkpt>
      <trkpt lat="62.641467144624" lon="17.909818043527">
        <ele>152.2</ele>
        <time>2017-11-26T11:05:53Z</time>
      </trkpt>
      <trkpt lat="62.641493128514" lon="17.909802369374">
        <ele>152</ele>
        <time>2017-11-26T11:05:54Z</time>
      </trkpt>
      <trkpt lat="62.64151358035" lon="17.909779319149">
        <ele>152.2</ele>
        <time>2017-11-26T11:05:55Z</time>
      </trkpt>
      <trkpt lat="62.641535708566" lon="17.909750988327">
        <ele>152.2</ele>
        <time>2017-11-26T11:05:56Z</time>
      </trkpt>
      <trkpt lat="62.64155884261" lon="17.909730787948">
        <ele>152.2</ele>
        <time>2017-11-26T11:05:57Z</time>
      </trkpt>
      <trkpt lat="62.641580551731" lon="17.909715197614">
        <ele>152.2</ele>
        <time>2017-11-26T11:05:58Z</time>
      </trkpt>
      <trkpt lat="62.641600081558" lon="17.909695500149">
        <ele>152.2</ele>
        <time>2017-11-26T11:05:59Z</time>
      </trkpt>
      <trkpt lat="62.641627155095" lon="17.90967446158">
        <ele>152.2</ele>
        <time>2017-11-26T11:06:00Z</time>
      </trkpt>
      <trkpt lat="62.641647104017" lon="17.909655518486">
        <ele>152</ele>
        <time>2017-11-26T11:06:01Z</time>
      </trkpt>
      <trkpt lat="62.641671662984" lon="17.909639676695">
        <ele>152</ele>
        <time>2017-11-26T11:06:02Z</time>
      </trkpt>
      <trkpt lat="62.641696557227" lon="17.909631378614">
        <ele>152</ele>
        <time>2017-11-26T11:06:03Z</time>
      </trkpt>
      <trkpt lat="62.641718014891" lon="17.909618805764">
        <ele>152</ele>
        <time>2017-11-26T11:06:04Z</time>
      </trkpt>
      <trkpt lat="62.64174324441" lon="17.909600784679">
        <ele>151.8</ele>
        <time>2017-11-26T11:06:05Z</time>
      </trkpt>
      <trkpt lat="62.641765121169" lon="17.909581925404">
        <ele>151.8</ele>
        <time>2017-11-26T11:06:06Z</time>
      </trkpt>
      <trkpt lat="62.641789093403" lon="17.909558875179">
        <ele>151.6</ele>
        <time>2017-11-26T11:06:07Z</time>
      </trkpt>
      <trkpt lat="62.641812311266" lon="17.909544206854">
        <ele>151.4</ele>
        <time>2017-11-26T11:06:08Z</time>
      </trkpt>
      <trkpt lat="62.64183293074" lon="17.90952610195">
        <ele>151.4</ele>
        <time>2017-11-26T11:06:09Z</time>
      </trkpt>
      <trkpt lat="62.641855813327" lon="17.909504811924">
        <ele>151.2</ele>
        <time>2017-11-26T11:06:10Z</time>
      </trkpt>
      <trkpt lat="62.641877941543" lon="17.90949089797">
        <ele>151.2</ele>
        <time>2017-11-26T11:06:11Z</time>
      </trkpt>
      <trkpt lat="62.641899063931" lon="17.909468518297">
        <ele>151</ele>
        <time>2017-11-26T11:06:12Z</time>
      </trkpt>
      <trkpt lat="62.641922952346" lon="17.909448401737">
        <ele>151</ele>
        <time>2017-11-26T11:06:13Z</time>
      </trkpt>
      <trkpt lat="62.64194357182" lon="17.909430632109">
        <ele>150.8</ele>
        <time>2017-11-26T11:06:14Z</time>
      </trkpt>
      <trkpt lat="62.641966957321" lon="17.909409425902">
        <ele>150.6</ele>
        <time>2017-11-26T11:06:15Z</time>
      </trkpt>
      <trkpt lat="62.641993192668" lon="17.909390231351">
        <ele>150.6</ele>
        <time>2017-11-26T11:06:16Z</time>
      </trkpt>
      <trkpt lat="62.642009621192" lon="17.909376149759">
        <ele>150.4</ele>
        <time>2017-11-26T11:06:17Z</time>
      </trkpt>
      <trkpt lat="62.642033425788" lon="17.909354189181">
        <ele>150.2</ele>
        <time>2017-11-26T11:06:18Z</time>
      </trkpt>
      <trkpt lat="62.642056811289" lon="17.909337425381">
        <ele>150</ele>
        <time>2017-11-26T11:06:19Z</time>
      </trkpt>
      <trkpt lat="62.6420793586" lon="17.909314542794">
        <ele>149.8</ele>
        <time>2017-11-26T11:06:20Z</time>
      </trkpt>
      <trkpt lat="62.642099894255" lon="17.909296018795">
        <ele>149.8</ele>
        <time>2017-11-26T11:06:21Z</time>
      </trkpt>
      <trkpt lat="62.642126045783" lon="17.909280093185">
        <ele>149.4</ele>
        <time>2017-11-26T11:06:22Z</time>
      </trkpt>
      <trkpt lat="62.642145659429" lon="17.909263999937">
        <ele>149.2</ele>
        <time>2017-11-26T11:06:23Z</time>
      </trkpt>
      <trkpt lat="62.642168625835" lon="17.909244973024">
        <ele>149</ele>
        <time>2017-11-26T11:06:24Z</time>
      </trkpt>
      <trkpt lat="62.642193855354" lon="17.909230556156">
        <ele>148.8</ele>
        <time>2017-11-26T11:06:25Z</time>
      </trkpt>
      <trkpt lat="62.642212463172" lon="17.909208511759">
        <ele>148.6</ele>
        <time>2017-11-26T11:06:26Z</time>
      </trkpt>
      <trkpt lat="62.642235094302" lon="17.909191245045">
        <ele>148.4</ele>
        <time>2017-11-26T11:06:27Z</time>
      </trkpt>
      <trkpt lat="62.642254959405" lon="17.909172804865">
        <ele>148.2</ele>
        <time>2017-11-26T11:06:28Z</time>
      </trkpt>
      <trkpt lat="62.642266023513" lon="17.909160734929">
        <ele>148</ele>
        <time>2017-11-26T11:06:29Z</time>
      </trkpt>
      <trkpt lat="62.642298210009" lon="17.909137014152">
        <ele>147.8</ele>
        <time>2017-11-26T11:06:30Z</time>
      </trkpt>
      <trkpt lat="62.642319248578" lon="17.909116646135">
        <ele>147.6</ele>
        <time>2017-11-26T11:06:31Z</time>
      </trkpt>
      <trkpt lat="62.642339951871" lon="17.909095104652">
        <ele>147.4</ele>
        <time>2017-11-26T11:06:32Z</time>
      </trkpt>
      <trkpt lat="62.642364007924" lon="17.909079849594">
        <ele>147.2</ele>
        <time>2017-11-26T11:06:33Z</time>
      </trkpt>
      <trkpt lat="62.642383537751" lon="17.909065851821">
        <ele>147</ele>
        <time>2017-11-26T11:06:34Z</time>
      </trkpt>
      <trkpt lat="62.642403821949" lon="17.909046405813">
        <ele>146.8</ele>
        <time>2017-11-26T11:06:35Z</time>
      </trkpt>
      <trkpt lat="62.642424357604" lon="17.909030983117">
        <ele>146.6</ele>
        <time>2017-11-26T11:06:36Z</time>
      </trkpt>
      <trkpt lat="62.642445731449" lon="17.909016817706">
        <ele>146.4</ele>
        <time>2017-11-26T11:06:37Z</time>
      </trkpt>
      <trkpt lat="62.642467105294" lon="17.908996533508">
        <ele>146.2</ele>
        <time>2017-11-26T11:06:38Z</time>
      </trkpt>
      <trkpt lat="62.642487640949" lon="17.908982619554">
        <ele>146</ele>
        <time>2017-11-26T11:06:39Z</time>
      </trkpt>
      <trkpt lat="62.6425068355" lon="17.908963257365">
        <ele>145.8</ele>
        <time>2017-11-26T11:06:40Z</time>
      </trkpt>
      <trkpt lat="62.642524521309" lon="17.908945655375">
        <ele>145.8</ele>
        <time>2017-11-26T11:06:41Z</time>
      </trkpt>
      <trkpt lat="62.64254958319" lon="17.908926460824">
        <ele>145.6</ele>
        <time>2017-11-26T11:06:42Z</time>
      </trkpt>
      <trkpt lat="62.64256718518" lon="17.908910367576">
        <ele>145.4</ele>
        <time>2017-11-26T11:06:43Z</time>
      </trkpt>
      <trkpt lat="62.642580680039" lon="17.908886060066">
        <ele>145.2</ele>
        <time>2017-11-26T11:06:44Z</time>
      </trkpt>
      <trkpt lat="62.642586882645" lon="17.908854963217">
        <ele>145</ele>
        <time>2017-11-26T11:06:45Z</time>
      </trkpt>
      <trkpt lat="62.642598282029" lon="17.908816406477">
        <ele>144.8</ele>
        <time>2017-11-26T11:06:46Z</time>
      </trkpt>
      <trkpt lat="62.642603730264" lon="17.9087926857">
        <ele>144.8</ele>
        <time>2017-11-26T11:06:47Z</time>
      </trkpt>
      <trkpt lat="62.642616303114" lon="17.908744238318">
        <ele>144.8</ele>
        <time>2017-11-26T11:06:48Z</time>
      </trkpt>
      <trkpt lat="62.642623595367" lon="17.908708363786">
        <ele>144.6</ele>
        <time>2017-11-26T11:06:49Z</time>
      </trkpt>
      <trkpt lat="62.642620242607" lon="17.90866192806">
        <ele>144.6</ele>
        <time>2017-11-26T11:06:50Z</time>
      </trkpt>
      <trkpt lat="62.642614794372" lon="17.908629993021">
        <ele>144.2</ele>
        <time>2017-11-26T11:06:51Z</time>
      </trkpt>
      <trkpt lat="62.642604484635" lon="17.908572744644">
        <ele>144.2</ele>
        <time>2017-11-26T11:06:52Z</time>
      </trkpt>
      <trkpt lat="62.642602305341" lon="17.908565284753">
        <ele>144</ele>
        <time>2017-11-26T11:06:53Z</time>
      </trkpt>
      <trkpt lat="62.642590151586" lon="17.908507365824">
        <ele>144</ele>
        <time>2017-11-26T11:06:54Z</time>
      </trkpt>
      <trkpt lat="62.642579590392" lon="17.908448105791">
        <ele>144</ele>
        <time>2017-11-26T11:06:55Z</time>
      </trkpt>
      <trkpt lat="62.642571627587" lon="17.908409381413">
        <ele>143.8</ele>
        <time>2017-11-26T11:06:56Z</time>
      </trkpt>
      <trkpt lat="62.642561569307" lon="17.90836017966">
        <ele>143.8</ele>
        <time>2017-11-26T11:06:57Z</time>
      </trkpt>
      <trkpt lat="62.642551846303" lon="17.908311061726">
        <ele>143.8</ele>
        <time>2017-11-26T11:06:58Z</time>
      </trkpt>
      <trkpt lat="62.642546984801" lon="17.908281473619">
        <ele>143.8</ele>
        <time>2017-11-26T11:06:59Z</time>
      </trkpt>
      <trkpt lat="62.642538016168" lon="17.908222884138">
        <ele>143.8</ele>
        <time>2017-11-26T11:07:00Z</time>
      </trkpt>
      <trkpt lat="62.642530640096" lon="17.908176783688">
        <ele>143.6</ele>
        <time>2017-11-26T11:07:01Z</time>
      </trkpt>
      <trkpt lat="62.642522342015" lon="17.90813135379">
        <ele>143.6</ele>
        <time>2017-11-26T11:07:02Z</time>
      </trkpt>
      <trkpt lat="62.642513289563" lon="17.908079637467">
        <ele>143.6</ele>
        <time>2017-11-26T11:07:03Z</time>
      </trkpt>
      <trkpt lat="62.642505829672" lon="17.908037057415">
        <ele>143.4</ele>
        <time>2017-11-26T11:07:04Z</time>
      </trkpt>
      <trkpt lat="62.642498537419" lon="17.907989364404">
        <ele>143.4</ele>
        <time>2017-11-26T11:07:05Z</time>
      </trkpt>
      <trkpt lat="62.642494095012" lon="17.907936558434">
        <ele>143.4</ele>
        <time>2017-11-26T11:07:06Z</time>
      </trkpt>
      <trkpt lat="62.642492250994" lon="17.907890541803">
        <ele>143.2</ele>
        <time>2017-11-26T11:07:07Z</time>
      </trkpt>
      <trkpt lat="62.642488730596" lon="17.907836227091">
        <ele>143.2</ele>
        <time>2017-11-26T11:07:08Z</time>
      </trkpt>
      <trkpt lat="62.642485126379" lon="17.907786941519">
        <ele>143.2</ele>
        <time>2017-11-26T11:07:09Z</time>
      </trkpt>
      <trkpt lat="62.642482695628" lon="17.907739751422">
        <ele>143</ele>
        <time>2017-11-26T11:07:10Z</time>
      </trkpt>
      <trkpt lat="62.642480097239" lon="17.907692728963">
        <ele>143</ele>
        <time>2017-11-26T11:07:11Z</time>
      </trkpt>
      <trkpt lat="62.64247749885" lon="17.90764101264">
        <ele>143</ele>
        <time>2017-11-26T11:07:12Z</time>
      </trkpt>
      <trkpt lat="62.642472972624" lon="17.907593738724">
        <ele>142.8</ele>
        <time>2017-11-26T11:07:13Z</time>
      </trkpt>
      <trkpt lat="62.642475235737" lon="17.907550991034">
        <ele>142.8</ele>
        <time>2017-11-26T11:07:14Z</time>
      </trkpt>
      <trkpt lat="62.642474816642" lon="17.907506818421">
        <ele>142.8</ele>
        <time>2017-11-26T11:07:15Z</time>
      </trkpt>
      <trkpt lat="62.642470625692" lon="17.907461723799">
        <ele>142.6</ele>
        <time>2017-11-26T11:07:16Z</time>
      </trkpt>
      <trkpt lat="62.64246995514" lon="17.907419395204">
        <ele>142.6</ele>
        <time>2017-11-26T11:07:17Z</time>
      </trkpt>
      <trkpt lat="62.642469871321" lon="17.907371031641">
        <ele>142.6</ele>
        <time>2017-11-26T11:07:18Z</time>
      </trkpt>
      <trkpt lat="62.642470877149" lon="17.907329876512">
        <ele>142.6</ele>
        <time>2017-11-26T11:07:19Z</time>
      </trkpt>
      <trkpt lat="62.642472302072" lon="17.907281848225">
        <ele>142.4</ele>
        <time>2017-11-26T11:07:20Z</time>
      </trkpt>
      <trkpt lat="62.642472218253" lon="17.907250835195">
        <ele>142.4</ele>
        <time>2017-11-26T11:07:21Z</time>
      </trkpt>
      <trkpt lat="62.64247414609" lon="17.907203058365">
        <ele>142.2</ele>
        <time>2017-11-26T11:07:22Z</time>
      </trkpt>
      <trkpt lat="62.642483282361" lon="17.907180259597">
        <ele>142</ele>
        <time>2017-11-26T11:07:23Z</time>
      </trkpt>
      <trkpt lat="62.642499878523" lon="17.907158634295">
        <ele>142</ele>
        <time>2017-11-26T11:07:24Z</time>
      </trkpt>
      <trkpt lat="62.6425068355" lon="17.907132147491">
        <ele>142</ele>
        <time>2017-11-26T11:07:25Z</time>
      </trkpt>
      <trkpt lat="62.642506667862" lon="17.907101469737">
        <ele>141.8</ele>
        <time>2017-11-26T11:07:26Z</time>
      </trkpt>
      <trkpt lat="62.642508344242" lon="17.907065427567">
        <ele>142</ele>
        <time>2017-11-26T11:07:27Z</time>
      </trkpt>
      <trkpt lat="62.642511613183" lon="17.907015974357">
        <ele>142</ele>
        <time>2017-11-26T11:07:28Z</time>
      </trkpt>
      <trkpt lat="62.642514546848" lon="17.906982530576">
        <ele>142.2</ele>
        <time>2017-11-26T11:07:29Z</time>
      </trkpt>
      <trkpt lat="62.642515636495" lon="17.906929473149">
        <ele>142.2</ele>
        <time>2017-11-26T11:07:30Z</time>
      </trkpt>
      <trkpt lat="62.642518318703" lon="17.906871721858">
        <ele>142.2</ele>
        <time>2017-11-26T11:07:31Z</time>
      </trkpt>
      <trkpt lat="62.642518486341" lon="17.906825621408">
        <ele>142.2</ele>
        <time>2017-11-26T11:07:32Z</time>
      </trkpt>
      <trkpt lat="62.64252108473" lon="17.906786813211">
        <ele>142.4</ele>
        <time>2017-11-26T11:07:33Z</time>
      </trkpt>
      <trkpt lat="62.642527287336" lon="17.906748927023">
        <ele>142.2</ele>
        <time>2017-11-26T11:07:34Z</time>
      </trkpt>
      <trkpt lat="62.642530640096" lon="17.906715315604">
        <ele>142.2</ele>
        <time>2017-11-26T11:07:35Z</time>
      </trkpt>
      <trkpt lat="62.642536507426" lon="17.906677261778">
        <ele>142.2</ele>
        <time>2017-11-26T11:07:36Z</time>
      </trkpt>
      <trkpt lat="62.642540614557" lon="17.906635100821">
        <ele>142.4</ele>
        <time>2017-11-26T11:07:37Z</time>
      </trkpt>
      <trkpt lat="62.642544302593" lon="17.906598555737">
        <ele>142.4</ele>
        <time>2017-11-26T11:07:38Z</time>
      </trkpt>
      <trkpt lat="62.642552684493" lon="17.906566620698">
        <ele>142.4</ele>
        <time>2017-11-26T11:07:39Z</time>
      </trkpt>
      <trkpt lat="62.642557881271" lon="17.906539211885">
        <ele>142.4</ele>
        <time>2017-11-26T11:07:40Z</time>
      </trkpt>
      <trkpt lat="62.642562323678" lon="17.906529237424">
        <ele>142.6</ele>
        <time>2017-11-26T11:07:41Z</time>
      </trkpt>
      <trkpt lat="62.642565341162" lon="17.906543319016">
        <ele>142.6</ele>
        <time>2017-11-26T11:07:42Z</time>
      </trkpt>
      <trkpt lat="62.6425822726" lon="17.906494703996">
        <ele>142.8</ele>
        <time>2017-11-26T11:07:43Z</time>
      </trkpt>
      <trkpt lat="62.642589313396" lon="17.90644743008">
        <ele>142.8</ele>
        <time>2017-11-26T11:07:44Z</time>
      </trkpt>
      <trkpt lat="62.642596940925" lon="17.906393702101">
        <ele>142.8</ele>
        <time>2017-11-26T11:07:45Z</time>
      </trkpt>
      <trkpt lat="62.642607837395" lon="17.906342907787">
        <ele>143</ele>
        <time>2017-11-26T11:07:46Z</time>
      </trkpt>
      <trkpt lat="62.642613117992" lon="17.906300160097">
        <ele>143</ele>
        <time>2017-11-26T11:07:47Z</time>
      </trkpt>
      <trkpt lat="62.642621248435" lon="17.906250203973">
        <ele>143.2</ele>
        <time>2017-11-26T11:07:48Z</time>
      </trkpt>
      <trkpt lat="62.642629378878" lon="17.906204606437">
        <ele>143.2</ele>
        <time>2017-11-26T11:07:49Z</time>
      </trkpt>
      <trkpt lat="62.642636084398" lon="17.906154482675">
        <ele>143.4</ele>
        <time>2017-11-26T11:07:50Z</time>
      </trkpt>
      <trkpt lat="62.642646142678" lon="17.906115339202">
        <ele>143.6</ele>
        <time>2017-11-26T11:07:51Z</time>
      </trkpt>
      <trkpt lat="62.642656787691" lon="17.906069322571">
        <ele>143.6</ele>
        <time>2017-11-26T11:07:52Z</time>
      </trkpt>
      <trkpt lat="62.642664247582" lon="17.906031017288">
        <ele>143.6</ele>
        <time>2017-11-26T11:07:53Z</time>
      </trkpt>
      <trkpt lat="62.642679167364" lon="17.905990951806">
        <ele>143.8</ele>
        <time>2017-11-26T11:07:54Z</time>
      </trkpt>
      <trkpt lat="62.642690063834" lon="17.905949461401">
        <ele>144</ele>
        <time>2017-11-26T11:07:55Z</time>
      </trkpt>
      <trkpt lat="62.642700289752" lon="17.905905707883">
        <ele>144</ele>
        <time>2017-11-26T11:07:56Z</time>
      </trkpt>
      <trkpt lat="62.642713616973" lon="17.90586237346">
        <ele>144.2</ele>
        <time>2017-11-26T11:07:57Z</time>
      </trkpt>
      <trkpt lat="62.642724681081" lon="17.905823732901">
        <ele>144.4</ele>
        <time>2017-11-26T11:07:58Z</time>
      </trkpt>
      <trkpt lat="62.64273901413" lon="17.905791294948">
        <ele>144.6</ele>
        <time>2017-11-26T11:07:59Z</time>
      </trkpt>
      <trkpt lat="62.642750413514" lon="17.905745362136">
        <ele>144.6</ele>
        <time>2017-11-26T11:08:00Z</time>
      </trkpt>
      <trkpt lat="62.642762818726" lon="17.905704123188">
        <ele>145</ele>
        <time>2017-11-26T11:08:01Z</time>
      </trkpt>
      <trkpt lat="62.642777989965" lon="17.905656681634">
        <ele>145.2</ele>
        <time>2017-11-26T11:08:02Z</time>
      </trkpt>
      <trkpt lat="62.642788970254" lon="17.905617119066">
        <ele>145.2</ele>
        <time>2017-11-26T11:08:03Z</time>
      </trkpt>
      <trkpt lat="62.642801459285" lon="17.905579987249">
        <ele>145.6</ele>
        <time>2017-11-26T11:08:04Z</time>
      </trkpt>
      <trkpt lat="62.64281277485" lon="17.905538748301">
        <ele>145.6</ele>
        <time>2017-11-26T11:08:05Z</time>
      </trkpt>
      <trkpt lat="62.642823419863" lon="17.905498347543">
        <ele>145.6</ele>
        <time>2017-11-26T11:08:06Z</time>
      </trkpt>
      <trkpt lat="62.642835908894" lon="17.905442524089">
        <ele>145.8</ele>
        <time>2017-11-26T11:08:07Z</time>
      </trkpt>
      <trkpt lat="62.642844458432" lon="17.905399357304">
        <ele>146</ele>
        <time>2017-11-26T11:08:08Z</time>
      </trkpt>
      <trkpt lat="62.642854013798" lon="17.905357280166">
        <ele>146</ele>
        <time>2017-11-26T11:08:09Z</time>
      </trkpt>
      <trkpt lat="62.642866670467" lon="17.9053058153">
        <ele>146</ele>
        <time>2017-11-26T11:08:10Z</time>
      </trkpt>
      <trkpt lat="62.642871699607" lon="17.905266252732">
        <ele>146.2</ele>
        <time>2017-11-26T11:08:11Z</time>
      </trkpt>
      <trkpt lat="62.642884523914" lon="17.905213362943">
        <ele>146.4</ele>
        <time>2017-11-26T11:08:12Z</time>
      </trkpt>
      <trkpt lat="62.642892319081" lon="17.905175728212">
        <ele>146.4</ele>
        <time>2017-11-26T11:08:13Z</time>
      </trkpt>
      <trkpt lat="62.642898689325" lon="17.905133651074">
        <ele>146.4</ele>
        <time>2017-11-26T11:08:14Z</time>
      </trkpt>
      <trkpt lat="62.642908077053" lon="17.90508369495">
        <ele>146.4</ele>
        <time>2017-11-26T11:08:15Z</time>
      </trkpt>
      <trkpt lat="62.642911932727" lon="17.905040779622">
        <ele>146.6</ele>
        <time>2017-11-26T11:08:16Z</time>
      </trkpt>
      <trkpt lat="62.6429175486" lon="17.905005575642">
        <ele>146.6</ele>
        <time>2017-11-26T11:08:17Z</time>
      </trkpt>
      <trkpt lat="62.642925511405" lon="17.904942543754">
        <ele>146.6</ele>
        <time>2017-11-26T11:08:18Z</time>
      </trkpt>
      <trkpt lat="62.642929953812" lon="17.904901137168">
        <ele>146.8</ele>
        <time>2017-11-26T11:08:19Z</time>
      </trkpt>
      <trkpt lat="62.642937162246" lon="17.904844894619">
        <ele>146.8</ele>
        <time>2017-11-26T11:08:20Z</time>
      </trkpt>
      <trkpt lat="62.642939928273" lon="17.904803571852">
        <ele>147</ele>
        <time>2017-11-26T11:08:21Z</time>
      </trkpt>
      <trkpt lat="62.642945041232" lon="17.904747832217">
        <ele>147.2</ele>
        <time>2017-11-26T11:08:22Z</time>
      </trkpt>
      <trkpt lat="62.642948477811" lon="17.904700558301">
        <ele>147.2</ele>
        <time>2017-11-26T11:08:23Z</time>
      </trkpt>
      <trkpt lat="62.642953004037" lon="17.904658145887">
        <ele>147.2</ele>
        <time>2017-11-26T11:08:24Z</time>
      </trkpt>
      <trkpt lat="62.642957697901" lon="17.904596036008">
        <ele>147.4</ele>
        <time>2017-11-26T11:08:25Z</time>
      </trkpt>
      <trkpt lat="62.642958452272" lon="17.904549013549">
        <ele>147.6</ele>
        <time>2017-11-26T11:08:26Z</time>
      </trkpt>
      <trkpt lat="62.642960463928" lon="17.904504924755">
        <ele>147.6</ele>
        <time>2017-11-26T11:08:27Z</time>
      </trkpt>
      <trkpt lat="62.642960044833" lon="17.904447760197">
        <ele>147.6</ele>
        <time>2017-11-26T11:08:28Z</time>
      </trkpt>
      <trkpt lat="62.642959374281" lon="17.904406102154">
        <ele>147.8</ele>
        <time>2017-11-26T11:08:29Z</time>
      </trkpt>
      <trkpt lat="62.642960547747" lon="17.904341812981">
        <ele>147.8</ele>
        <time>2017-11-26T11:08:30Z</time>
      </trkpt>
      <trkpt lat="62.642958871367" lon="17.904287246812">
        <ele>147.8</ele>
        <time>2017-11-26T11:08:31Z</time>
      </trkpt>
      <trkpt lat="62.642958284634" lon="17.904237458326">
        <ele>147.8</ele>
        <time>2017-11-26T11:08:32Z</time>
      </trkpt>
      <trkpt lat="62.642958536091" lon="17.904179120302">
        <ele>148</ele>
        <time>2017-11-26T11:08:33Z</time>
      </trkpt>
      <trkpt lat="62.642957697901" lon="17.904133271309">
        <ele>148</ele>
        <time>2017-11-26T11:08:34Z</time>
      </trkpt>
      <trkpt lat="62.642956524435" lon="17.904074011276">
        <ele>147.8</ele>
        <time>2017-11-26T11:08:35Z</time>
      </trkpt>
      <trkpt lat="62.642955853883" lon="17.904020367116">
        <ele>147.8</ele>
        <time>2017-11-26T11:08:36Z</time>
      </trkpt>
      <trkpt lat="62.642952165847" lon="17.903962699644">
        <ele>148</ele>
        <time>2017-11-26T11:08:37Z</time>
      </trkpt>
      <trkpt lat="62.642950573286" lon="17.903902349964">
        <ele>147.8</ele>
        <time>2017-11-26T11:08:38Z</time>
      </trkpt>
      <trkpt lat="62.64294772344" lon="17.903859518455">
        <ele>147.8</ele>
        <time>2017-11-26T11:08:39Z</time>
      </trkpt>
      <trkpt lat="62.642942778119" lon="17.903799420232">
        <ele>148</ele>
        <time>2017-11-26T11:08:40Z</time>
      </trkpt>
      <trkpt lat="62.642938838626" lon="17.903746698081">
        <ele>148</ele>
        <time>2017-11-26T11:08:41Z</time>
      </trkpt>
      <trkpt lat="62.642938084255" lon="17.903714846861">
        <ele>148</ele>
        <time>2017-11-26T11:08:42Z</time>
      </trkpt>
      <trkpt lat="62.642936072599" lon="17.903643265435">
        <ele>147.8</ele>
        <time>2017-11-26T11:08:43Z</time>
      </trkpt>
      <trkpt lat="62.642935485866" lon="17.903594734234">
        <ele>147.8</ele>
        <time>2017-11-26T11:08:44Z</time>
      </trkpt>
      <trkpt lat="62.642932300744" lon="17.903535977115">
        <ele>147.8</ele>
        <time>2017-11-26T11:08:45Z</time>
      </trkpt>
      <trkpt lat="62.642929534717" lon="17.903480069842">
        <ele>147.8</ele>
        <time>2017-11-26T11:08:46Z</time>
      </trkpt>
      <trkpt lat="62.642927020147" lon="17.90343748979">
        <ele>147.8</ele>
        <time>2017-11-26T11:08:47Z</time>
      </trkpt>
      <trkpt lat="62.642923751206" lon="17.903377726843">
        <ele>147.8</ele>
        <time>2017-11-26T11:08:48Z</time>
      </trkpt>
      <trkpt lat="62.642922745378" lon="17.903332296945">
        <ele>147.8</ele>
        <time>2017-11-26T11:08:49Z</time>
      </trkpt>
      <trkpt lat="62.642918973523" lon="17.903273372188">
        <ele>148</ele>
        <time>2017-11-26T11:08:50Z</time>
      </trkpt>
      <trkpt lat="62.642918638247" lon="17.903224673349">
        <ele>148</ele>
        <time>2017-11-26T11:08:51Z</time>
      </trkpt>
      <trkpt lat="62.64291671041" lon="17.903170358637">
        <ele>148</ele>
        <time>2017-11-26T11:08:52Z</time>
      </trkpt>
      <trkpt lat="62.64291419584" lon="17.903123336178">
        <ele>148</ele>
        <time>2017-11-26T11:08:53Z</time>
      </trkpt>
      <trkpt lat="62.642916375134" lon="17.903072122769">
        <ele>148</ele>
        <time>2017-11-26T11:08:54Z</time>
      </trkpt>
      <trkpt lat="62.64291419584" lon="17.903014874392">
        <ele>148</ele>
        <time>2017-11-26T11:08:55Z</time>
      </trkpt>
      <trkpt lat="62.642915620763" lon="17.902961062594">
        <ele>148</ele>
        <time>2017-11-26T11:08:56Z</time>
      </trkpt>
      <trkpt lat="62.642913944383" lon="17.902912112298">
        <ele>148</ele>
        <time>2017-11-26T11:08:57Z</time>
      </trkpt>
      <trkpt lat="62.642911848908" lon="17.902860228337">
        <ele>148</ele>
        <time>2017-11-26T11:08:58Z</time>
      </trkpt>
      <trkpt lat="62.642913106193" lon="17.902814630801">
        <ele>148</ele>
        <time>2017-11-26T11:08:59Z</time>
      </trkpt>
      <trkpt lat="62.642910172528" lon="17.902757550062">
        <ele>148</ele>
        <time>2017-11-26T11:09:00Z</time>
      </trkpt>
      <trkpt lat="62.642911094537" lon="17.90270072078">
        <ele>148</ele>
        <time>2017-11-26T11:09:01Z</time>
      </trkpt>
      <trkpt lat="62.642909501976" lon="17.902651099932">
        <ele>148.2</ele>
        <time>2017-11-26T11:09:02Z</time>
      </trkpt>
      <trkpt lat="62.642908831424" lon="17.902601395265">
        <ele>148.2</ele>
        <time>2017-11-26T11:09:03Z</time>
      </trkpt>
      <trkpt lat="62.642912184184" lon="17.902550349494">
        <ele>148.2</ele>
        <time>2017-11-26T11:09:04Z</time>
      </trkpt>
      <trkpt lat="62.642911429813" lon="17.902498297895">
        <ele>148.2</ele>
        <time>2017-11-26T11:09:05Z</time>
      </trkpt>
      <trkpt lat="62.642913692926" lon="17.902446581572">
        <ele>148.2</ele>
        <time>2017-11-26T11:09:06Z</time>
      </trkpt>
      <trkpt lat="62.642914614935" lon="17.902389165557">
        <ele>148.2</ele>
        <time>2017-11-26T11:09:07Z</time>
      </trkpt>
      <trkpt lat="62.642914447297" lon="17.902340131442">
        <ele>148</ele>
        <time>2017-11-26T11:09:08Z</time>
      </trkpt>
      <trkpt lat="62.642916039858" lon="17.902288582757">
        <ele>148.2</ele>
        <time>2017-11-26T11:09:09Z</time>
      </trkpt>
      <trkpt lat="62.642916542772" lon="17.902228316896">
        <ele>148.2</ele>
        <time>2017-11-26T11:09:10Z</time>
      </trkpt>
      <trkpt lat="62.642917716238" lon="17.902181964989">
        <ele>148.2</ele>
        <time>2017-11-26T11:09:11Z</time>
      </trkpt>
      <trkpt lat="62.642918889704" lon="17.90211985511">
        <ele>148</ele>
        <time>2017-11-26T11:09:12Z</time>
      </trkpt>
      <trkpt lat="62.642918889704" lon="17.902069982805">
        <ele>148</ele>
        <time>2017-11-26T11:09:13Z</time>
      </trkpt>
      <trkpt lat="62.642920230808" lon="17.902019188491">
        <ele>148</ele>
        <time>2017-11-26T11:09:14Z</time>
      </trkpt>
      <trkpt lat="62.642919308799" lon="17.901961018105">
        <ele>148</ele>
        <time>2017-11-26T11:09:15Z</time>
      </trkpt>
      <trkpt lat="62.642920230808" lon="17.901913576551">
        <ele>148</ele>
        <time>2017-11-26T11:09:16Z</time>
      </trkpt>
      <trkpt lat="62.642921404274" lon="17.901875522725">
        <ele>147.8</ele>
        <time>2017-11-26T11:09:17Z</time>
      </trkpt>
      <trkpt lat="62.642922326283" lon="17.901810311543">
        <ele>148</ele>
        <time>2017-11-26T11:09:18Z</time>
      </trkpt>
      <trkpt lat="62.642924589396" lon="17.901765636016">
        <ele>147.8</ele>
        <time>2017-11-26T11:09:19Z</time>
      </trkpt>
      <trkpt lat="62.64292676869" lon="17.901711405123">
        <ele>148</ele>
        <time>2017-11-26T11:09:20Z</time>
      </trkpt>
      <trkpt lat="62.642926098138" lon="17.901670501451">
        <ele>148</ele>
        <time>2017-11-26T11:09:21Z</time>
      </trkpt>
      <trkpt lat="62.642930205269" lon="17.901617527843">
        <ele>148</ele>
        <time>2017-11-26T11:09:22Z</time>
      </trkpt>
      <trkpt lat="62.642931462554" lon="17.901572684678">
        <ele>148</ele>
        <time>2017-11-26T11:09:23Z</time>
      </trkpt>
      <trkpt lat="62.642935318228" lon="17.901523818201">
        <ele>148</ele>
        <time>2017-11-26T11:09:24Z</time>
      </trkpt>
      <trkpt lat="62.64293682697" lon="17.901461959779">
        <ele>147.8</ele>
        <time>2017-11-26T11:09:25Z</time>
      </trkpt>
      <trkpt lat="62.642937497522" lon="17.901414015311">
        <ele>147.8</ele>
        <time>2017-11-26T11:09:26Z</time>
      </trkpt>
      <trkpt lat="62.642942275205" lon="17.901365567929">
        <ele>147.8</ele>
        <time>2017-11-26T11:09:27Z</time>
      </trkpt>
      <trkpt lat="62.642944789775" lon="17.901312510502">
        <ele>147.8</ele>
        <time>2017-11-26T11:09:28Z</time>
      </trkpt>
      <trkpt lat="62.64294353249" lon="17.901265488043">
        <ele>147.8</ele>
        <time>2017-11-26T11:09:29Z</time>
      </trkpt>
      <trkpt lat="62.64294688525" lon="17.901200193042">
        <ele>148</ele>
        <time>2017-11-26T11:09:30Z</time>
      </trkpt>
      <trkpt lat="62.642949148363" lon="17.901154176411">
        <ele>148</ele>
        <time>2017-11-26T11:09:31Z</time>
      </trkpt>
      <trkpt lat="62.642951411476" lon="17.901103633554">
        <ele>148</ele>
        <time>2017-11-26T11:09:32Z</time>
      </trkpt>
      <trkpt lat="62.642955518607" lon="17.901053845068">
        <ele>148</ele>
        <time>2017-11-26T11:09:33Z</time>
      </trkpt>
      <trkpt lat="62.642957697901" lon="17.901016713251">
        <ele>148</ele>
        <time>2017-11-26T11:09:34Z</time>
      </trkpt>
      <trkpt lat="62.642959877195" lon="17.900966338032">
        <ele>148</ele>
        <time>2017-11-26T11:09:35Z</time>
      </trkpt>
      <trkpt lat="62.642962978498" lon="17.900913532062">
        <ele>148</ele>
        <time>2017-11-26T11:09:36Z</time>
      </trkpt>
      <trkpt lat="62.642964068145" lon="17.900857205694">
        <ele>148</ele>
        <time>2017-11-26T11:09:37Z</time>
      </trkpt>
      <trkpt lat="62.642966666534" lon="17.900800627869">
        <ele>148</ele>
        <time>2017-11-26T11:09:38Z</time>
      </trkpt>
      <trkpt lat="62.642969013466" lon="17.900751174659">
        <ele>148</ele>
        <time>2017-11-26T11:09:39Z</time>
      </trkpt>
      <trkpt lat="62.642970186932" lon="17.900699625974">
        <ele>148</ele>
        <time>2017-11-26T11:09:40Z</time>
      </trkpt>
      <trkpt lat="62.642972450045" lon="17.900650843316">
        <ele>148</ele>
        <time>2017-11-26T11:09:41Z</time>
      </trkpt>
      <trkpt lat="62.642976389538" lon="17.900605078142">
        <ele>148</ele>
        <time>2017-11-26T11:09:42Z</time>
      </trkpt>
      <trkpt lat="62.642977982099" lon="17.900551350163">
        <ele>148</ele>
        <time>2017-11-26T11:09:43Z</time>
      </trkpt>
      <trkpt lat="62.642978904108" lon="17.900502735143">
        <ele>148.2</ele>
        <time>2017-11-26T11:09:44Z</time>
      </trkpt>
      <trkpt lat="62.642980580488" lon="17.900449761535">
        <ele>148.2</ele>
        <time>2017-11-26T11:09:45Z</time>
      </trkpt>
      <trkpt lat="62.642984519981" lon="17.900394943909">
        <ele>148</ele>
        <time>2017-11-26T11:09:46Z</time>
      </trkpt>
      <trkpt lat="62.642984687619" lon="17.90035378878">
        <ele>148.2</ele>
        <time>2017-11-26T11:09:47Z</time>
      </trkpt>
      <trkpt lat="62.642985693447" lon="17.900296708041">
        <ele>148.2</ele>
        <time>2017-11-26T11:09:48Z</time>
      </trkpt>
      <trkpt lat="62.642988040379" lon="17.900244237347">
        <ele>148</ele>
        <time>2017-11-26T11:09:49Z</time>
      </trkpt>
      <trkpt lat="62.642990387311" lon="17.90019034173">
        <ele>148</ele>
        <time>2017-11-26T11:09:50Z</time>
      </trkpt>
      <trkpt lat="62.642991644596" lon="17.900147426402">
        <ele>148</ele>
        <time>2017-11-26T11:09:51Z</time>
      </trkpt>
      <trkpt lat="62.642992231329" lon="17.900088334007">
        <ele>148</ele>
        <time>2017-11-26T11:09:52Z</time>
      </trkpt>
      <trkpt lat="62.642993404795" lon="17.900044161394">
        <ele>148</ele>
        <time>2017-11-26T11:09:53Z</time>
      </trkpt>
      <trkpt lat="62.642996506098" lon="17.899986074827">
        <ele>148</ele>
        <time>2017-11-26T11:09:54Z</time>
      </trkpt>
      <trkpt lat="62.642997344288" lon="17.899927569165">
        <ele>148</ele>
        <time>2017-11-26T11:09:55Z</time>
      </trkpt>
      <trkpt lat="62.642997260469" lon="17.89987518229">
        <ele>148</ele>
        <time>2017-11-26T11:09:56Z</time>
      </trkpt>
      <trkpt lat="62.643000780867" lon="17.899815419343">
        <ele>148</ele>
        <time>2017-11-26T11:09:57Z</time>
      </trkpt>
      <trkpt lat="62.643001786695" lon="17.899766133771">
        <ele>148</ele>
        <time>2017-11-26T11:09:58Z</time>
      </trkpt>
      <trkpt lat="62.643003714532" lon="17.899721122968">
        <ele>148</ele>
        <time>2017-11-26T11:09:59Z</time>
      </trkpt>
      <trkpt lat="62.64300555855" lon="17.899656330881">
        <ele>148</ele>
        <time>2017-11-26T11:10:00Z</time>
      </trkpt>
      <trkpt lat="62.643005726188" lon="17.899606710033">
        <ele>148</ele>
        <time>2017-11-26T11:10:01Z</time>
      </trkpt>
      <trkpt lat="62.643008827491" lon="17.899553149692">
        <ele>148</ele>
        <time>2017-11-26T11:10:02Z</time>
      </trkpt>
      <trkpt lat="62.643010252414" lon="17.899496739505">
        <ele>148</ele>
        <time>2017-11-26T11:10:03Z</time>
      </trkpt>
      <trkpt lat="62.643011006785" lon="17.899451309607">
        <ele>148</ele>
        <time>2017-11-26T11:10:04Z</time>
      </trkpt>
      <trkpt lat="62.64301142588" lon="17.899389115909">
        <ele>147.8</ele>
        <time>2017-11-26T11:10:05Z</time>
      </trkpt>
      <trkpt lat="62.643012515527" lon="17.899337399586">
        <ele>147.8</ele>
        <time>2017-11-26T11:10:06Z</time>
      </trkpt>
      <trkpt lat="62.643015868287" lon="17.89927503825">
        <ele>148</ele>
        <time>2017-11-26T11:10:07Z</time>
      </trkpt>
      <trkpt lat="62.643017041753" lon="17.899215275303">
        <ele>148</ele>
        <time>2017-11-26T11:10:08Z</time>
      </trkpt>
      <trkpt lat="62.643018801952" lon="17.899169342491">
        <ele>147.8</ele>
        <time>2017-11-26T11:10:09Z</time>
      </trkpt>
      <trkpt lat="62.643021148884" lon="17.899097761065">
        <ele>148</ele>
        <time>2017-11-26T11:10:10Z</time>
      </trkpt>
      <trkpt lat="62.643024334006" lon="17.899050654787">
        <ele>148</ele>
        <time>2017-11-26T11:10:11Z</time>
      </trkpt>
      <trkpt lat="62.643026345662" lon="17.898990221288">
        <ele>148</ele>
        <time>2017-11-26T11:10:12Z</time>
      </trkpt>
      <trkpt lat="62.643027686766" lon="17.898930123065">
        <ele>147.8</ele>
        <time>2017-11-26T11:10:13Z</time>
      </trkpt>
      <trkpt lat="62.643028441137" lon="17.898887962108">
        <ele>148</ele>
        <time>2017-11-26T11:10:14Z</time>
      </trkpt>
      <trkpt lat="62.643030955707" lon="17.89882409203">
        <ele>148</ele>
        <time>2017-11-26T11:10:15Z</time>
      </trkpt>
      <trkpt lat="62.643032548268" lon="17.898767598024">
        <ele>147.8</ele>
        <time>2017-11-26T11:10:16Z</time>
      </trkpt>
      <trkpt lat="62.643035062838" lon="17.898724012144">
        <ele>148</ele>
        <time>2017-11-26T11:10:17Z</time>
      </trkpt>
      <trkpt lat="62.64303908615" lon="17.898659387695">
        <ele>148</ele>
        <time>2017-11-26T11:10:18Z</time>
      </trkpt>
      <trkpt lat="62.643039169969" lon="17.898615717996">
        <ele>147.8</ele>
        <time>2017-11-26T11:10:19Z</time>
      </trkpt>
      <trkpt lat="62.643040511073" lon="17.898557966705">
        <ele>148</ele>
        <time>2017-11-26T11:10:20Z</time>
      </trkpt>
      <trkpt lat="62.643042690367" lon="17.898507507667">
        <ele>148</ele>
        <time>2017-11-26T11:10:21Z</time>
      </trkpt>
      <trkpt lat="62.643044199109" lon="17.898450007833">
        <ele>147.8</ele>
        <time>2017-11-26T11:10:22Z</time>
      </trkpt>
      <trkpt lat="62.643046126946" lon="17.898396196035">
        <ele>147.8</ele>
        <time>2017-11-26T11:10:23Z</time>
      </trkpt>
      <trkpt lat="62.643048054783" lon="17.898342719513">
        <ele>148</ele>
        <time>2017-11-26T11:10:24Z</time>
      </trkpt>
      <trkpt lat="62.643048809154" lon="17.898284968222">
        <ele>148</ele>
        <time>2017-11-26T11:10:25Z</time>
      </trkpt>
      <trkpt lat="62.643051659" lon="17.898231240243">
        <ele>147.8</ele>
        <time>2017-11-26T11:10:26Z</time>
      </trkpt>
      <trkpt lat="62.643053083923" lon="17.898178350454">
        <ele>147.8</ele>
        <time>2017-11-26T11:10:27Z</time>
      </trkpt>
      <trkpt lat="62.643054844122" lon="17.898126382674">
        <ele>147.8</ele>
        <time>2017-11-26T11:10:28Z</time>
      </trkpt>
      <trkpt lat="62.643056436683" lon="17.898079360215">
        <ele>147.8</ele>
        <time>2017-11-26T11:10:29Z</time>
      </trkpt>
      <trkpt lat="62.643061046728" lon="17.898023704399">
        <ele>147.8</ele>
        <time>2017-11-26T11:10:30Z</time>
      </trkpt>
      <trkpt lat="62.643065740592" lon="17.897966288384">
        <ele>147.8</ele>
        <time>2017-11-26T11:10:31Z</time>
      </trkpt>
      <trkpt lat="62.643066159687" lon="17.897912644224">
        <ele>147.8</ele>
        <time>2017-11-26T11:10:32Z</time>
      </trkpt>
      <trkpt lat="62.643065656773" lon="17.89785765896">
        <ele>147.6</ele>
        <time>2017-11-26T11:10:33Z</time>
      </trkpt>
      <trkpt lat="62.643068255162" lon="17.897807283741">
        <ele>147.8</ele>
        <time>2017-11-26T11:10:34Z</time>
      </trkpt>
      <trkpt lat="62.6430684228" lon="17.897753639581">
        <ele>147.8</ele>
        <time>2017-11-26T11:10:35Z</time>
      </trkpt>
      <trkpt lat="62.64307093737" lon="17.897697899946">
        <ele>147.8</ele>
        <time>2017-11-26T11:10:36Z</time>
      </trkpt>
      <trkpt lat="62.64307177556" lon="17.897633107859">
        <ele>147.8</ele>
        <time>2017-11-26T11:10:37Z</time>
      </trkpt>
      <trkpt lat="62.643070518275" lon="17.897584576658">
        <ele>147.8</ele>
        <time>2017-11-26T11:10:38Z</time>
      </trkpt>
      <trkpt lat="62.643072949026" lon="17.897534788172">
        <ele>147.6</ele>
        <time>2017-11-26T11:10:39Z</time>
      </trkpt>
      <trkpt lat="62.643074793044" lon="17.897476031053">
        <ele>147.8</ele>
        <time>2017-11-26T11:10:40Z</time>
      </trkpt>
      <trkpt lat="62.643074038673" lon="17.897428086585">
        <ele>147.8</ele>
        <time>2017-11-26T11:10:41Z</time>
      </trkpt>
      <trkpt lat="62.643079403089" lon="17.897364551783">
        <ele>147.6</ele>
        <time>2017-11-26T11:10:42Z</time>
      </trkpt>
      <trkpt lat="62.643078983994" lon="17.897305878483">
        <ele>147.8</ele>
        <time>2017-11-26T11:10:43Z</time>
      </trkpt>
      <trkpt lat="62.643080660374" lon="17.897254413617">
        <ele>147.8</ele>
        <time>2017-11-26T11:10:44Z</time>
      </trkpt>
      <trkpt lat="62.643084013134" lon="17.897193644842">
        <ele>148</ele>
        <time>2017-11-26T11:10:45Z</time>
      </trkpt>
      <trkpt lat="62.643082588211" lon="17.897140671234">
        <ele>148</ele>
        <time>2017-11-26T11:10:46Z</time>
      </trkpt>
      <trkpt lat="62.643081414745" lon="17.897102785046">
        <ele>148</ele>
        <time>2017-11-26T11:10:47Z</time>
      </trkpt>
      <trkpt lat="62.643081414745" lon="17.897019804236">
        <ele>148.2</ele>
        <time>2017-11-26T11:10:48Z</time>
      </trkpt>
      <trkpt lat="62.643080492736" lon="17.896972865596">
        <ele>148</ele>
        <time>2017-11-26T11:10:49Z</time>
      </trkpt>
      <trkpt lat="62.643081330926" lon="17.896907905871">
        <ele>148</ele>
        <time>2017-11-26T11:10:50Z</time>
      </trkpt>
      <trkpt lat="62.643080325098" lon="17.896860631955">
        <ele>148</ele>
        <time>2017-11-26T11:10:51Z</time>
      </trkpt>
      <trkpt lat="62.643082336754" lon="17.896802042474">
        <ele>148</ele>
        <time>2017-11-26T11:10:52Z</time>
      </trkpt>
      <trkpt lat="62.643080911831" lon="17.896753678911">
        <ele>147.8</ele>
        <time>2017-11-26T11:10:53Z</time>
      </trkpt>
      <trkpt lat="62.643079486908" lon="17.896700872941">
        <ele>148</ele>
        <time>2017-11-26T11:10:54Z</time>
      </trkpt>
      <trkpt lat="62.643081079469" lon="17.896634153017">
        <ele>148</ele>
        <time>2017-11-26T11:10:55Z</time>
      </trkpt>
      <trkpt lat="62.643078564899" lon="17.896585621816">
        <ele>147.8</ele>
        <time>2017-11-26T11:10:56Z</time>
      </trkpt>
      <trkpt lat="62.643080241279" lon="17.896538515538">
        <ele>148</ele>
        <time>2017-11-26T11:10:57Z</time>
      </trkpt>
      <trkpt lat="62.643079067813" lon="17.896485877206">
        <ele>148</ele>
        <time>2017-11-26T11:10:58Z</time>
      </trkpt>
      <trkpt lat="62.643076385605" lon="17.896441285498">
        <ele>147.8</ele>
        <time>2017-11-26T11:10:59Z</time>
      </trkpt>
      <trkpt lat="62.64307512832" lon="17.896373643565">
        <ele>147.8</ele>
        <time>2017-11-26T11:11:00Z</time>
      </trkpt>
      <trkpt lat="62.643073787216" lon="17.896317736292">
        <ele>148</ele>
        <time>2017-11-26T11:11:01Z</time>
      </trkpt>
      <trkpt lat="62.643072529931" lon="17.896266187607">
        <ele>148</ele>
        <time>2017-11-26T11:11:02Z</time>
      </trkpt>
      <trkpt lat="62.643072781388" lon="17.896211202343">
        <ele>148</ele>
        <time>2017-11-26T11:11:03Z</time>
      </trkpt>
      <trkpt lat="62.643070769732" lon="17.896166359178">
        <ele>148</ele>
        <time>2017-11-26T11:11:04Z</time>
      </trkpt>
      <trkpt lat="62.643070266818" lon="17.896112463561">
        <ele>148.2</ele>
        <time>2017-11-26T11:11:05Z</time>
      </trkpt>
      <trkpt lat="62.643070182999" lon="17.896054796089">
        <ele>148.2</ele>
        <time>2017-11-26T11:11:06Z</time>
      </trkpt>
      <trkpt lat="62.643067165515" lon="17.895999475549">
        <ele>148</ele>
        <time>2017-11-26T11:11:07Z</time>
      </trkpt>
      <trkpt lat="62.643067500791" lon="17.895942059534">
        <ele>148.2</ele>
        <time>2017-11-26T11:11:08Z</time>
      </trkpt>
      <trkpt lat="62.643064734764" lon="17.895895037075">
        <ele>148.2</ele>
        <time>2017-11-26T11:11:09Z</time>
      </trkpt>
      <trkpt lat="62.643061046728" lon="17.895840051811">
        <ele>148.2</ele>
        <time>2017-11-26T11:11:10Z</time>
      </trkpt>
      <trkpt lat="62.643061214366" lon="17.895788586945">
        <ele>148.2</ele>
        <time>2017-11-26T11:11:11Z</time>
      </trkpt>
      <trkpt lat="62.643057107235" lon="17.895733517862">
        <ele>148.2</ele>
        <time>2017-11-26T11:11:12Z</time>
      </trkpt>
      <trkpt lat="62.643052832466" lon="17.89568087953">
        <ele>148.2</ele>
        <time>2017-11-26T11:11:13Z</time>
      </trkpt>
      <trkpt lat="62.643052329552" lon="17.895630336673">
        <ele>148.2</ele>
        <time>2017-11-26T11:11:14Z</time>
      </trkpt>
      <trkpt lat="62.643047719507" lon="17.895575183771">
        <ele>148.2</ele>
        <time>2017-11-26T11:11:15Z</time>
      </trkpt>
      <trkpt lat="62.643046294584" lon="17.89552078524">
        <ele>148.2</ele>
        <time>2017-11-26T11:11:16Z</time>
      </trkpt>
      <trkpt lat="62.643045707851" lon="17.895474600971">
        <ele>148.2</ele>
        <time>2017-11-26T11:11:17Z</time>
      </trkpt>
      <trkpt lat="62.643041852177" lon="17.895418274603">
        <ele>148.2</ele>
        <time>2017-11-26T11:11:18Z</time>
      </trkpt>
      <trkpt lat="62.643039840521" lon="17.895367983203">
        <ele>148.2</ele>
        <time>2017-11-26T11:11:19Z</time>
      </trkpt>
      <trkpt lat="62.643035062838" lon="17.895313249396">
        <ele>148.2</ele>
        <time>2017-11-26T11:11:20Z</time>
      </trkpt>
      <trkpt lat="62.643032212992" lon="17.895264802014">
        <ele>148.4</ele>
        <time>2017-11-26T11:11:21Z</time>
      </trkpt>
      <trkpt lat="62.643029195508" lon="17.895202608316">
        <ele>148.4</ele>
        <time>2017-11-26T11:11:22Z</time>
      </trkpt>
      <trkpt lat="62.643026597119" lon="17.895159776807">
        <ele>148.4</ele>
        <time>2017-11-26T11:11:23Z</time>
      </trkpt>
      <trkpt lat="62.643023495816" lon="17.895103953353">
        <ele>148.4</ele>
        <time>2017-11-26T11:11:24Z</time>
      </trkpt>
      <trkpt lat="62.643020143056" lon="17.895051817935">
        <ele>148.6</ele>
        <time>2017-11-26T11:11:25Z</time>
      </trkpt>
      <trkpt lat="62.643015113916" lon="17.895002280906">
        <ele>148.4</ele>
        <time>2017-11-26T11:11:26Z</time>
      </trkpt>
      <trkpt lat="62.643013353717" lon="17.894946122176">
        <ele>148.6</ele>
        <time>2017-11-26T11:11:27Z</time>
      </trkpt>
      <trkpt lat="62.643010168595" lon="17.894901279011">
        <ele>148.6</ele>
        <time>2017-11-26T11:11:28Z</time>
      </trkpt>
      <trkpt lat="62.643006899654" lon="17.894858531321">
        <ele>148.6</ele>
        <time>2017-11-26T11:11:29Z</time>
      </trkpt>
      <trkpt lat="62.643004301265" lon="17.894797259632">
        <ele>148.6</ele>
        <time>2017-11-26T11:11:30Z</time>
      </trkpt>
      <trkpt lat="62.643001032324" lon="17.894752081191">
        <ele>148.6</ele>
        <time>2017-11-26T11:11:31Z</time>
      </trkpt>
      <trkpt lat="62.64299717665" lon="17.894697431203">
        <ele>148.6</ele>
        <time>2017-11-26T11:11:32Z</time>
      </trkpt>
      <trkpt lat="62.642992901881" lon="17.894643451767">
        <ele>148.8</ele>
        <time>2017-11-26T11:11:33Z</time>
      </trkpt>
      <trkpt lat="62.642989549121" lon="17.894602548095">
        <ele>148.8</ele>
        <time>2017-11-26T11:11:34Z</time>
      </trkpt>
      <trkpt lat="62.642986363999" lon="17.894546724641">
        <ele>149</ele>
        <time>2017-11-26T11:11:35Z</time>
      </trkpt>
      <trkpt lat="62.642981670135" lon="17.894495092137">
        <ele>149</ele>
        <time>2017-11-26T11:11:36Z</time>
      </trkpt>
      <trkpt lat="62.642975467529" lon="17.894440190692">
        <ele>149.2</ele>
        <time>2017-11-26T11:11:37Z</time>
      </trkpt>
      <trkpt lat="62.642973036778" lon="17.894381349754">
        <ele>149.2</ele>
        <time>2017-11-26T11:11:38Z</time>
      </trkpt>
      <trkpt lat="62.642968762009" lon="17.894340110806">
        <ele>149.2</ele>
        <time>2017-11-26T11:11:39Z</time>
      </trkpt>
      <trkpt lat="62.642964906335" lon="17.89428445499">
        <ele>149.2</ele>
        <time>2017-11-26T11:11:40Z</time>
      </trkpt>
      <trkpt lat="62.642962140308" lon="17.894236426703">
        <ele>149.2</ele>
        <time>2017-11-26T11:11:41Z</time>
      </trkpt>
      <trkpt lat="62.642959709557" lon="17.894183453095">
        <ele>149.2</ele>
        <time>2017-11-26T11:11:42Z</time>
      </trkpt>
      <trkpt lat="62.642953423132" lon="17.894128886926">
        <ele>149.4</ele>
        <time>2017-11-26T11:11:43Z</time>
      </trkpt>
      <trkpt lat="62.642949316001" lon="17.8940824512">
        <ele>149.4</ele>
        <time>2017-11-26T11:11:44Z</time>
      </trkpt>
      <trkpt lat="62.642941437015" lon="17.894028723221">
        <ele>149.4</ele>
        <time>2017-11-26T11:11:45Z</time>
      </trkpt>
      <trkpt lat="62.642936156418" lon="17.893971474844">
        <ele>149.4</ele>
        <time>2017-11-26T11:11:46Z</time>
      </trkpt>
      <trkpt lat="62.642930708183" lon="17.89392738605">
        <ele>149.4</ele>
        <time>2017-11-26T11:11:47Z</time>
      </trkpt>
      <trkpt lat="62.64292341593" lon="17.893871730234">
        <ele>149.4</ele>
        <time>2017-11-26T11:11:48Z</time>
      </trkpt>
      <trkpt lat="62.642918638247" lon="17.89382093592">
        <ele>149.4</ele>
        <time>2017-11-26T11:11:49Z</time>
      </trkpt>
      <trkpt lat="62.642916039858" lon="17.893768549045">
        <ele>149.4</ele>
        <time>2017-11-26T11:11:50Z</time>
      </trkpt>
      <trkpt lat="62.642907574139" lon="17.893720269301">
        <ele>149.6</ele>
        <time>2017-11-26T11:11:51Z</time>
      </trkpt>
      <trkpt lat="62.642902293542" lon="17.893659416707">
        <ele>149.6</ele>
        <time>2017-11-26T11:11:52Z</time>
      </trkpt>
      <trkpt lat="62.642895001289" lon="17.893614489723">
        <ele>149.6</ele>
        <time>2017-11-26T11:11:53Z</time>
      </trkpt>
      <trkpt lat="62.642888463407" lon="17.893557492803">
        <ele>149.6</ele>
        <time>2017-11-26T11:11:54Z</time>
      </trkpt>
      <trkpt lat="62.642885865018" lon="17.893499573874">
        <ele>149.8</ele>
        <time>2017-11-26T11:11:55Z</time>
      </trkpt>
      <trkpt lat="62.642876309652" lon="17.893452467596">
        <ele>149.8</ele>
        <time>2017-11-26T11:11:56Z</time>
      </trkpt>
      <trkpt lat="62.642872118702" lon="17.89339597359">
        <ele>149.8</ele>
        <time>2017-11-26T11:11:57Z</time>
      </trkpt>
      <trkpt lat="62.64286558082" lon="17.893346939475">
        <ele>149.8</ele>
        <time>2017-11-26T11:11:58Z</time>
      </trkpt>
      <trkpt lat="62.642859294395" lon="17.893311148762">
        <ele>149.8</ele>
        <time>2017-11-26T11:11:59Z</time>
      </trkpt>
      <trkpt lat="62.642853510884" lon="17.893253397471">
        <ele>149.8</ele>
        <time>2017-11-26T11:12:00Z</time>
      </trkpt>
      <trkpt lat="62.642846637726" lon="17.893204950089">
        <ele>149.8</ele>
        <time>2017-11-26T11:12:01Z</time>
      </trkpt>
      <trkpt lat="62.642840267482" lon="17.893152982309">
        <ele>150</ele>
        <time>2017-11-26T11:12:02Z</time>
      </trkpt>
      <trkpt lat="62.642834400152" lon="17.893096991217">
        <ele>149.8</ele>
        <time>2017-11-26T11:12:03Z</time>
      </trkpt>
      <trkpt lat="62.642830628297" lon="17.893064385626">
        <ele>150</ele>
        <time>2017-11-26T11:12:04Z</time>
      </trkpt>
      <trkpt lat="62.642821911121" lon="17.893009651819">
        <ele>150</ele>
        <time>2017-11-26T11:12:05Z</time>
      </trkpt>
      <trkpt lat="62.64281445123" lon="17.892958186953">
        <ele>150</ele>
        <time>2017-11-26T11:12:06Z</time>
      </trkpt>
      <trkpt lat="62.642810595556" lon="17.892905800078">
        <ele>150</ele>
        <time>2017-11-26T11:12:07Z</time>
      </trkpt>
      <trkpt lat="62.642805985511" lon="17.89285534104">
        <ele>150</ele>
        <time>2017-11-26T11:12:08Z</time>
      </trkpt>
      <trkpt lat="62.642800118181" lon="17.892816616662">
        <ele>150.2</ele>
        <time>2017-11-26T11:12:09Z</time>
      </trkpt>
      <trkpt lat="62.642797100697" lon="17.892761799036">
        <ele>150.2</ele>
        <time>2017-11-26T11:12:10Z</time>
      </trkpt>
      <trkpt lat="62.6427918201" lon="17.892712345826">
        <ele>150.2</ele>
        <time>2017-11-26T11:12:11Z</time>
      </trkpt>
      <trkpt lat="62.642787545331" lon="17.892665323367">
        <ele>150.2</ele>
        <time>2017-11-26T11:12:12Z</time>
      </trkpt>
      <trkpt lat="62.642782013277" lon="17.892612768854">
        <ele>150.2</ele>
        <time>2017-11-26T11:12:13Z</time>
      </trkpt>
      <trkpt lat="62.642774553386" lon="17.892562477454">
        <ele>150.4</ele>
        <time>2017-11-26T11:12:14Z</time>
      </trkpt>
      <trkpt lat="62.642767009676" lon="17.892512269873">
        <ele>150.4</ele>
        <time>2017-11-26T11:12:15Z</time>
      </trkpt>
      <trkpt lat="62.64276415983" lon="17.89245887717">
        <ele>150.4</ele>
        <time>2017-11-26T11:12:16Z</time>
      </trkpt>
      <trkpt lat="62.642759801242" lon="17.892416548575">
        <ele>150.4</ele>
        <time>2017-11-26T11:12:17Z</time>
      </trkpt>
      <trkpt lat="62.642754017731" lon="17.892367765917">
        <ele>150.6</ele>
        <time>2017-11-26T11:12:18Z</time>
      </trkpt>
      <trkpt lat="62.642751670799" lon="17.892308505884">
        <ele>150.6</ele>
        <time>2017-11-26T11:12:19Z</time>
      </trkpt>
      <trkpt lat="62.642745216736" lon="17.892256119009">
        <ele>150.4</ele>
        <time>2017-11-26T11:12:20Z</time>
      </trkpt>
      <trkpt lat="62.642738259759" lon="17.89221244931">
        <ele>150.6</ele>
        <time>2017-11-26T11:12:21Z</time>
      </trkpt>
      <trkpt lat="62.642729961678" lon="17.892151429078">
        <ele>150.6</ele>
        <time>2017-11-26T11:12:22Z</time>
      </trkpt>
      <trkpt lat="62.642723759072" lon="17.892111447415">
        <ele>150.6</ele>
        <time>2017-11-26T11:12:23Z</time>
      </trkpt>
      <trkpt lat="62.642718813751" lon="17.892057467979">
        <ele>150.6</ele>
        <time>2017-11-26T11:12:24Z</time>
      </trkpt>
      <trkpt lat="62.642710934765" lon="17.891999800507">
        <ele>150.8</ele>
        <time>2017-11-26T11:12:25Z</time>
      </trkpt>
      <trkpt lat="62.642704480702" lon="17.891950766392">
        <ele>150.8</ele>
        <time>2017-11-26T11:12:26Z</time>
      </trkpt>
      <trkpt lat="62.64270045739" lon="17.891899050069">
        <ele>150.6</ele>
        <time>2017-11-26T11:12:27Z</time>
      </trkpt>
      <trkpt lat="62.642696517897" lon="17.891855631827">
        <ele>150.8</ele>
        <time>2017-11-26T11:12:28Z</time>
      </trkpt>
      <trkpt lat="62.642693416594" lon="17.891812800318">
        <ele>150.8</ele>
        <time>2017-11-26T11:12:29Z</time>
      </trkpt>
      <trkpt lat="62.642688219816" lon="17.891747756774">
        <ele>150.8</ele>
        <time>2017-11-26T11:12:30Z</time>
      </trkpt>
      <trkpt lat="62.642682101029" lon="17.891698471202">
        <ele>150.6</ele>
        <time>2017-11-26T11:12:31Z</time>
      </trkpt>
      <trkpt lat="62.642676568975" lon="17.891639881721">
        <ele>150.6</ele>
        <time>2017-11-26T11:12:32Z</time>
      </trkpt>
      <trkpt lat="62.642670450188" lon="17.891582717163">
        <ele>150.8</ele>
        <time>2017-11-26T11:12:33Z</time>
      </trkpt>
      <trkpt lat="62.64266441522" lon="17.891539466559">
        <ele>150.6</ele>
        <time>2017-11-26T11:12:34Z</time>
      </trkpt>
      <trkpt lat="62.642662235926" lon="17.891515829601">
        <ele>150.6</ele>
        <time>2017-11-26T11:12:35Z</time>
      </trkpt>
      <trkpt lat="62.642651339456" lon="17.89144299089">
        <ele>150.6</ele>
        <time>2017-11-26T11:12:36Z</time>
      </trkpt>
      <trkpt lat="62.642643376651" lon="17.891377779708">
        <ele>150.6</ele>
        <time>2017-11-26T11:12:37Z</time>
      </trkpt>
      <trkpt lat="62.642636922588" lon="17.891321788616">
        <ele>150.6</ele>
        <time>2017-11-26T11:12:38Z</time>
      </trkpt>
      <trkpt lat="62.642632564" lon="17.89128205841">
        <ele>150.4</ele>
        <time>2017-11-26T11:12:39Z</time>
      </trkpt>
      <trkpt lat="62.642626109937" lon="17.891218439789">
        <ele>150.6</ele>
        <time>2017-11-26T11:12:40Z</time>
      </trkpt>
      <trkpt lat="62.642621080797" lon="17.891169321855">
        <ele>150.6</ele>
        <time>2017-11-26T11:12:41Z</time>
      </trkpt>
      <trkpt lat="62.642614626734" lon="17.891114923324">
        <ele>150.6</ele>
        <time>2017-11-26T11:12:42Z</time>
      </trkpt>
      <trkpt lat="62.642607083024" lon="17.89105993806">
        <ele>150.6</ele>
        <time>2017-11-26T11:12:43Z</time>
      </trkpt>
      <trkpt lat="62.642602221522" lon="17.891016435999">
        <ele>150.6</ele>
        <time>2017-11-26T11:12:44Z</time>
      </trkpt>
      <trkpt lat="62.642594593993" lon="17.890959103803">
        <ele>150.6</ele>
        <time>2017-11-26T11:12:45Z</time>
      </trkpt>
      <trkpt lat="62.642589145758" lon="17.890904118539">
        <ele>150.6</ele>
        <time>2017-11-26T11:12:46Z</time>
      </trkpt>
      <trkpt lat="62.642584954808" lon="17.890874027518">
        <ele>150.4</ele>
        <time>2017-11-26T11:12:47Z</time>
      </trkpt>
      <trkpt lat="62.642574645071" lon="17.890797668409">
        <ele>150.4</ele>
        <time>2017-11-26T11:12:48Z</time>
      </trkpt>
      <trkpt lat="62.642568358646" lon="17.890751567959">
        <ele>150.4</ele>
        <time>2017-11-26T11:12:49Z</time>
      </trkpt>
      <trkpt lat="62.642560647298" lon="17.890694403401">
        <ele>150.2</ele>
        <time>2017-11-26T11:12:50Z</time>
      </trkpt>
      <trkpt lat="62.642555115244" lon="17.890643525268">
        <ele>150.2</ele>
        <time>2017-11-26T11:12:51Z</time>
      </trkpt>
      <trkpt lat="62.642546565706" lon="17.890588623823">
        <ele>150.2</ele>
        <time>2017-11-26T11:12:52Z</time>
      </trkpt>
      <trkpt lat="62.642540279281" lon="17.890544115934">
        <ele>150.2</ele>
        <time>2017-11-26T11:12:53Z</time>
      </trkpt>
      <trkpt lat="62.642531729743" lon="17.890484688263">
        <ele>150</ele>
        <time>2017-11-26T11:12:54Z</time>
      </trkpt>
      <trkpt lat="62.642522425834" lon="17.890432301388">
        <ele>150</ele>
        <time>2017-11-26T11:12:55Z</time>
      </trkpt>
      <trkpt lat="62.642513792477" lon="17.890380585065">
        <ele>150</ele>
        <time>2017-11-26T11:12:56Z</time>
      </trkpt>
      <trkpt lat="62.642509014794" lon="17.890327862914">
        <ele>150</ele>
        <time>2017-11-26T11:12:57Z</time>
      </trkpt>
      <trkpt lat="62.642503147464" lon="17.890281343369">
        <ele>149.8</ele>
        <time>2017-11-26T11:12:58Z</time>
      </trkpt>
      <trkpt lat="62.642498285962" lon="17.890237086937">
        <ele>150</ele>
        <time>2017-11-26T11:12:59Z</time>
      </trkpt>
      <trkpt lat="62.64249090989" lon="17.890176150524">
        <ele>149.8</ele>
        <time>2017-11-26T11:13:00Z</time>
      </trkpt>
      <trkpt lat="62.642483701456" lon="17.890127451685">
        <ele>149.8</ele>
        <time>2017-11-26T11:13:01Z</time>
      </trkpt>
      <trkpt lat="62.642474313728" lon="17.89007171205">
        <ele>149.8</ele>
        <time>2017-11-26T11:13:02Z</time>
      </trkpt>
      <trkpt lat="62.64246827876" lon="17.890020498641">
        <ele>149.8</ele>
        <time>2017-11-26T11:13:03Z</time>
      </trkpt>
      <trkpt lat="62.642462746706" lon="17.889976745123">
        <ele>149.8</ele>
        <time>2017-11-26T11:13:04Z</time>
      </trkpt>
      <trkpt lat="62.642456795557" lon="17.889922430411">
        <ele>149.6</ele>
        <time>2017-11-26T11:13:05Z</time>
      </trkpt>
      <trkpt lat="62.642451850236" lon="17.889877084332">
        <ele>149.6</ele>
        <time>2017-11-26T11:13:06Z</time>
      </trkpt>
      <trkpt lat="62.642443803612" lon="17.889817069928">
        <ele>149.6</ele>
        <time>2017-11-26T11:13:07Z</time>
      </trkpt>
      <trkpt lat="62.642437852463" lon="17.889764431596">
        <ele>149.6</ele>
        <time>2017-11-26T11:13:08Z</time>
      </trkpt>
      <trkpt lat="62.642431314581" lon="17.88972302501">
        <ele>149.6</ele>
        <time>2017-11-26T11:13:09Z</time>
      </trkpt>
      <trkpt lat="62.642422345948" lon="17.889656808">
        <ele>149.6</ele>
        <time>2017-11-26T11:13:10Z</time>
      </trkpt>
      <trkpt lat="62.642415891885" lon="17.88961154574">
        <ele>149.4</ele>
        <time>2017-11-26T11:13:11Z</time>
      </trkpt>
      <trkpt lat="62.642406420338" lon="17.889551028422">
        <ele>149.4</ele>
        <time>2017-11-26T11:13:12Z</time>
      </trkpt>
      <trkpt lat="62.642402564664" lon="17.889498976823">
        <ele>149.4</ele>
        <time>2017-11-26T11:13:13Z</time>
      </trkpt>
      <trkpt lat="62.642395691506" lon="17.889452205821">
        <ele>149.2</ele>
        <time>2017-11-26T11:13:14Z</time>
      </trkpt>
      <trkpt lat="62.642386722873" lon="17.88939110177">
        <ele>149.2</ele>
        <time>2017-11-26T11:13:15Z</time>
      </trkpt>
      <trkpt lat="62.642379346801" lon="17.88933661942">
        <ele>149.2</ele>
        <time>2017-11-26T11:13:16Z</time>
      </trkpt>
      <trkpt lat="62.642372389824" lon="17.88929219535">
        <ele>149</ele>
        <time>2017-11-26T11:13:17Z</time>
      </trkpt>
      <trkpt lat="62.642365265209" lon="17.889225223969">
        <ele>149</ele>
        <time>2017-11-26T11:13:18Z</time>
      </trkpt>
      <trkpt lat="62.642359062603" lon="17.889179710252">
        <ele>149</ele>
        <time>2017-11-26T11:13:19Z</time>
      </trkpt>
      <trkpt lat="62.642349004323" lon="17.889121036952">
        <ele>149</ele>
        <time>2017-11-26T11:13:20Z</time>
      </trkpt>
      <trkpt lat="62.642340957699" lon="17.889071332285">
        <ele>149</ele>
        <time>2017-11-26T11:13:21Z</time>
      </trkpt>
      <trkpt lat="62.642331569971" lon="17.88901894541">
        <ele>148.8</ele>
        <time>2017-11-26T11:13:22Z</time>
      </trkpt>
      <trkpt lat="62.642322936614" lon="17.888971252399">
        <ele>148.8</ele>
        <time>2017-11-26T11:13:23Z</time>
      </trkpt>
      <trkpt lat="62.64231488999" lon="17.888916853868">
        <ele>148.8</ele>
        <time>2017-11-26T11:13:24Z</time>
      </trkpt>
      <trkpt lat="62.642305753719" lon="17.888862371518">
        <ele>148.6</ele>
        <time>2017-11-26T11:13:25Z</time>
      </trkpt>
      <trkpt lat="62.642296198353" lon="17.888805123141">
        <ele>148.6</ele>
        <time>2017-11-26T11:13:26Z</time>
      </trkpt>
      <trkpt lat="62.642287648815" lon="17.888749467325">
        <ele>148.4</ele>
        <time>2017-11-26T11:13:27Z</time>
      </trkpt>
      <trkpt lat="62.642278680182" lon="17.888703450694">
        <ele>148.4</ele>
        <time>2017-11-26T11:13:28Z</time>
      </trkpt>
      <trkpt lat="62.642270298282" lon="17.88865852371">
        <ele>148.2</ele>
        <time>2017-11-26T11:13:29Z</time>
      </trkpt>
      <trkpt lat="62.64225956945" lon="17.888598844582">
        <ele>148.2</ele>
        <time>2017-11-26T11:13:30Z</time>
      </trkpt>
      <trkpt lat="62.642251941921" lon="17.888550481019">
        <ele>148</ele>
        <time>2017-11-26T11:13:31Z</time>
      </trkpt>
      <trkpt lat="62.64224196746" lon="17.88849759123">
        <ele>148</ele>
        <time>2017-11-26T11:13:32Z</time>
      </trkpt>
      <trkpt lat="62.642233669379" lon="17.888448305658">
        <ele>148</ele>
        <time>2017-11-26T11:13:33Z</time>
      </trkpt>
      <trkpt lat="62.642225538936" lon="17.888400947923">
        <ele>148</ele>
        <time>2017-11-26T11:13:34Z</time>
      </trkpt>
      <trkpt lat="62.642214391009" lon="17.888352835817">
        <ele>148</ele>
        <time>2017-11-26T11:13:35Z</time>
      </trkpt>
      <trkpt lat="62.642204584186" lon="17.888310088127">
        <ele>148</ele>
        <time>2017-11-26T11:13:36Z</time>
      </trkpt>
      <trkpt lat="62.642192011336" lon="17.888248900257">
        <ele>147.8</ele>
        <time>2017-11-26T11:13:37Z</time>
      </trkpt>
      <trkpt lat="62.642182958884" lon="17.888197938305">
        <ele>147.8</ele>
        <time>2017-11-26T11:13:38Z</time>
      </trkpt>
      <trkpt lat="62.642175834269" lon="17.888159968298">
        <ele>147.8</ele>
        <time>2017-11-26T11:13:39Z</time>
      </trkpt>
      <trkpt lat="62.642164267247" lon="17.888098026057">
        <ele>147.6</ele>
        <time>2017-11-26T11:13:40Z</time>
      </trkpt>
      <trkpt lat="62.642155382433" lon="17.8880558651">
        <ele>147.6</ele>
        <time>2017-11-26T11:13:41Z</time>
      </trkpt>
      <trkpt lat="62.64214222285" lon="17.888003226768">
        <ele>147.6</ele>
        <time>2017-11-26T11:13:42Z</time>
      </trkpt>
      <trkpt lat="62.64213048819" lon="17.887955449938">
        <ele>147.6</ele>
        <time>2017-11-26T11:13:43Z</time>
      </trkpt>
      <trkpt lat="62.642120094634" lon="17.887919156311">
        <ele>147.6</ele>
        <time>2017-11-26T11:13:44Z</time>
      </trkpt>
      <trkpt lat="62.642108359974" lon="17.887865679789">
        <ele>147.6</ele>
        <time>2017-11-26T11:13:45Z</time>
      </trkpt>
      <trkpt lat="62.6420961224" lon="17.887823099737">
        <ele>147.6</ele>
        <time>2017-11-26T11:13:46Z</time>
      </trkpt>
      <trkpt lat="62.642086231758" lon="17.88778177697">
        <ele>147.6</ele>
        <time>2017-11-26T11:13:47Z</time>
      </trkpt>
      <trkpt lat="62.642069803234" lon="17.887726204973">
        <ele>147.6</ele>
        <time>2017-11-26T11:13:48Z</time>
      </trkpt>
      <trkpt lat="62.64206091842" lon="17.887690330441">
        <ele>147.6</ele>
        <time>2017-11-26T11:13:49Z</time>
      </trkpt>
      <trkpt lat="62.642046250095" lon="17.887643559439">
        <ele>147.6</ele>
        <time>2017-11-26T11:13:50Z</time>
      </trkpt>
      <trkpt lat="62.642032922874" lon="17.887598883912">
        <ele>147.8</ele>
        <time>2017-11-26T11:13:51Z</time>
      </trkpt>
      <trkpt lat="62.642018925101" lon="17.887561416819">
        <ele>147.8</ele>
        <time>2017-11-26T11:13:52Z</time>
      </trkpt>
      <trkpt lat="62.642006184613" lon="17.887514897274">
        <ele>147.6</ele>
        <time>2017-11-26T11:13:53Z</time>
      </trkpt>
      <trkpt lat="62.641991516288" lon="17.887471227575">
        <ele>147.8</ele>
        <time>2017-11-26T11:13:54Z</time>
      </trkpt>
      <trkpt lat="62.641974752488" lon="17.887426887324">
        <ele>147.8</ele>
        <time>2017-11-26T11:13:55Z</time>
      </trkpt>
      <trkpt lat="62.641961425267" lon="17.887374165173">
        <ele>147.6</ele>
        <time>2017-11-26T11:13:56Z</time>
      </trkpt>
      <trkpt lat="62.641949522969" lon="17.887331166026">
        <ele>147.8</ele>
        <time>2017-11-26T11:13:57Z</time>
      </trkpt>
      <trkpt lat="62.641936111929" lon="17.887291854915">
        <ele>147.8</ele>
        <time>2017-11-26T11:13:58Z</time>
      </trkpt>
      <trkpt lat="62.641921946518" lon="17.88724868813">
        <ele>147.8</ele>
        <time>2017-11-26T11:13:59Z</time>
      </trkpt>
      <trkpt lat="62.64190585327" lon="17.887201498033">
        <ele>147.8</ele>
        <time>2017-11-26T11:14:00Z</time>
      </trkpt>
      <trkpt lat="62.641888502737" lon="17.88716151637">
        <ele>147.8</ele>
        <time>2017-11-26T11:14:01Z</time>
      </trkpt>
      <trkpt lat="62.641871990394" lon="17.887122875811">
        <ele>147.8</ele>
        <time>2017-11-26T11:14:02Z</time>
      </trkpt>
      <trkpt lat="62.641858495535" lon="17.887084989623">
        <ele>147.8</ele>
        <time>2017-11-26T11:14:03Z</time>
      </trkpt>
      <trkpt lat="62.641845755047" lon="17.887042996304">
        <ele>147.8</ele>
        <time>2017-11-26T11:14:04Z</time>
      </trkpt>
      <trkpt lat="62.641831002903" lon="17.88700645122">
        <ele>147.8</ele>
        <time>2017-11-26T11:14:05Z</time>
      </trkpt>
      <trkpt lat="62.641814993474" lon="17.886971917792">
        <ele>148</ele>
        <time>2017-11-26T11:14:06Z</time>
      </trkpt>
      <trkpt lat="62.641797559122" lon="17.88692849955">
        <ele>148</ele>
        <time>2017-11-26T11:14:07Z</time>
      </trkpt>
      <trkpt lat="62.64178347753" lon="17.886895558683">
        <ele>148.2</ele>
        <time>2017-11-26T11:14:08Z</time>
      </trkpt>
      <trkpt lat="62.641768557748" lon="17.886863372187">
        <ele>148.2</ele>
        <time>2017-11-26T11:14:09Z</time>
      </trkpt>
      <trkpt lat="62.641751039577" lon="17.886823222886">
        <ele>148.2</ele>
        <time>2017-11-26T11:14:10Z</time>
      </trkpt>
      <trkpt lat="62.641736957985" lon="17.886790030562">
        <ele>148.2</ele>
        <time>2017-11-26T11:14:11Z</time>
      </trkpt>
      <trkpt lat="62.641719020719" lon="17.88674912689">
        <ele>148.4</ele>
        <time>2017-11-26T11:14:12Z</time>
      </trkpt>
      <trkpt lat="62.641705106765" lon="17.886716353661">
        <ele>148.4</ele>
        <time>2017-11-26T11:14:13Z</time>
      </trkpt>
      <trkpt lat="62.641687420956" lon="17.886693135798">
        <ele>148.4</ele>
        <time>2017-11-26T11:14:14Z</time>
      </trkpt>
      <trkpt lat="62.641668561681" lon="17.886650388108">
        <ele>148.4</ele>
        <time>2017-11-26T11:14:15Z</time>
      </trkpt>
      <trkpt lat="62.641656156469" lon="17.88661836925">
        <ele>148.4</ele>
        <time>2017-11-26T11:14:16Z</time>
      </trkpt>
      <trkpt lat="62.641640566135" lon="17.886588781143">
        <ele>148.6</ele>
        <time>2017-11-26T11:14:17Z</time>
      </trkpt>
      <trkpt lat="62.64162170686" lon="17.88654628491">
        <ele>148.6</ele>
        <time>2017-11-26T11:14:18Z</time>
      </trkpt>
      <trkpt lat="62.641608379639" lon="17.8865219774">
        <ele>148.6</ele>
        <time>2017-11-26T11:14:19Z</time>
      </trkpt>
      <trkpt lat="62.641587508708" lon="17.886483588298">
        <ele>148.6</ele>
        <time>2017-11-26T11:14:20Z</time>
      </trkpt>
      <trkpt lat="62.641572924202" lon="17.886450395974">
        <ele>148.8</ele>
        <time>2017-11-26T11:14:21Z</time>
      </trkpt>
      <trkpt lat="62.641553897289" lon="17.886419299125">
        <ele>148.8</ele>
        <time>2017-11-26T11:14:22Z</time>
      </trkpt>
      <trkpt lat="62.641536965851" lon="17.88638535243">
        <ele>148.8</ele>
        <time>2017-11-26T11:14:23Z</time>
      </trkpt>
      <trkpt lat="62.641520788784" lon="17.886353836486">
        <ele>149</ele>
        <time>2017-11-26T11:14:24Z</time>
      </trkpt>
      <trkpt lat="62.641498828206" lon="17.886321063257">
        <ele>149</ele>
        <time>2017-11-26T11:14:25Z</time>
      </trkpt>
      <trkpt lat="62.64147753818" lon="17.88628057868">
        <ele>149.2</ele>
        <time>2017-11-26T11:14:26Z</time>
      </trkpt>
      <trkpt lat="62.641457253982" lon="17.886257779912">
        <ele>149.2</ele>
        <time>2017-11-26T11:14:27Z</time>
      </trkpt>
      <trkpt lat="62.64144065782" lon="17.886230035823">
        <ele>149.4</ele>
        <time>2017-11-26T11:14:28Z</time>
      </trkpt>
      <trkpt lat="62.641422133821" lon="17.886199609526">
        <ele>149.4</ele>
        <time>2017-11-26T11:14:29Z</time>
      </trkpt>
      <trkpt lat="62.641402855451" lon="17.88616909941">
        <ele>149.4</ele>
        <time>2017-11-26T11:14:30Z</time>
      </trkpt>
      <trkpt lat="62.641381230149" lon="17.88613473362">
        <ele>149.6</ele>
        <time>2017-11-26T11:14:31Z</time>
      </trkpt>
      <trkpt lat="62.641364131073" lon="17.886103888228">
        <ele>149.6</ele>
        <time>2017-11-26T11:14:32Z</time>
      </trkpt>
      <trkpt lat="62.641345271798" lon="17.886079161623">
        <ele>149.8</ele>
        <time>2017-11-26T11:14:33Z</time>
      </trkpt>
      <trkpt lat="62.641328927093" lon="17.886047729498">
        <ele>149.8</ele>
        <time>2017-11-26T11:14:34Z</time>
      </trkpt>
      <trkpt lat="62.641312247112" lon="17.886023086712">
        <ele>149.8</ele>
        <time>2017-11-26T11:14:35Z</time>
      </trkpt>
      <trkpt lat="62.641291292362" lon="17.885994672071">
        <ele>149.8</ele>
        <time>2017-11-26T11:14:36Z</time>
      </trkpt>
      <trkpt lat="62.641270421431" lon="17.885971118932">
        <ele>150</ele>
        <time>2017-11-26T11:14:37Z</time>
      </trkpt>
      <trkpt lat="62.641251143061" lon="17.885944799766">
        <ele>150</ele>
        <time>2017-11-26T11:14:38Z</time>
      </trkpt>
      <trkpt lat="62.641233038157" lon="17.88591596603">
        <ele>150</ele>
        <time>2017-11-26T11:14:39Z</time>
      </trkpt>
      <trkpt lat="62.641213256873" lon="17.885893837814">
        <ele>150.2</ele>
        <time>2017-11-26T11:14:40Z</time>
      </trkpt>
      <trkpt lat="62.641196241616" lon="17.885870033218">
        <ele>150.2</ele>
        <time>2017-11-26T11:14:41Z</time>
      </trkpt>
      <trkpt lat="62.641175957418" lon="17.885837595265">
        <ele>150.4</ele>
        <time>2017-11-26T11:14:42Z</time>
      </trkpt>
      <trkpt lat="62.641159780351" lon="17.88582041237">
        <ele>150.4</ele>
        <time>2017-11-26T11:14:43Z</time>
      </trkpt>
      <trkpt lat="62.641140166705" lon="17.885795518127">
        <ele>150.6</ele>
        <time>2017-11-26T11:14:44Z</time>
      </trkpt>
      <trkpt lat="62.641116362109" lon="17.885768863685">
        <ele>150.8</ele>
        <time>2017-11-26T11:14:45Z</time>
      </trkpt>
      <trkpt lat="62.641096832282" lon="17.885751429333">
        <ele>150.8</ele>
        <time>2017-11-26T11:14:46Z</time>
      </trkpt>
      <trkpt lat="62.64107939793" lon="17.885724774891">
        <ele>150.8</ele>
        <time>2017-11-26T11:14:47Z</time>
      </trkpt>
      <trkpt lat="62.641058275542" lon="17.885693510404">
        <ele>151</ele>
        <time>2017-11-26T11:14:48Z</time>
      </trkpt>
      <trkpt lat="62.641041008828" lon="17.885676495147">
        <ele>151</ele>
        <time>2017-11-26T11:14:49Z</time>
      </trkpt>
      <trkpt lat="62.641018042422" lon="17.885645565936">
        <ele>151.2</ele>
        <time>2017-11-26T11:14:50Z</time>
      </trkpt>
      <trkpt lat="62.641002871183" lon="17.885624778824">
        <ele>151.4</ele>
        <time>2017-11-26T11:14:51Z</time>
      </trkpt>
      <trkpt lat="62.640981413519" lon="17.885599633124">
        <ele>151.4</ele>
        <time>2017-11-26T11:14:52Z</time>
      </trkpt>
      <trkpt lat="62.640964062986" lon="17.885574655062">
        <ele>151.4</ele>
        <time>2017-11-26T11:14:53Z</time>
      </trkpt>
      <trkpt lat="62.640946460996" lon="17.88555386795">
        <ele>151.6</ele>
        <time>2017-11-26T11:14:54Z</time>
      </trkpt>
      <trkpt lat="62.640922488762" lon="17.885528219336">
        <ele>151.6</ele>
        <time>2017-11-26T11:14:55Z</time>
      </trkpt>
      <trkpt lat="62.640903964763" lon="17.885502319265">
        <ele>151.8</ele>
        <time>2017-11-26T11:14:56Z</time>
      </trkpt>
      <trkpt lat="62.64088829061" lon="17.88548178361">
        <ele>151.8</ele>
        <time>2017-11-26T11:14:57Z</time>
      </trkpt>
      <trkpt lat="62.640870604801" lon="17.885452614598">
        <ele>151.8</ele>
        <time>2017-11-26T11:14:58Z</time>
      </trkpt>
      <trkpt lat="62.640855685019" lon="17.885428810002">
        <ele>151.8</ele>
        <time>2017-11-26T11:14:59Z</time>
      </trkpt>
      <trkpt lat="62.640832886251" lon="17.88540299375">
        <ele>151.8</ele>
        <time>2017-11-26T11:15:00Z</time>
      </trkpt>
      <trkpt lat="62.640810758035" lon="17.885375836394">
        <ele>152</ele>
        <time>2017-11-26T11:15:01Z</time>
      </trkpt>
      <trkpt lat="62.64079441333" lon="17.885351780341">
        <ele>152</ele>
        <time>2017-11-26T11:15:02Z</time>
      </trkpt>
      <trkpt lat="62.640775218779" lon="17.885326299365">
        <ele>152</ele>
        <time>2017-11-26T11:15:03Z</time>
      </trkpt>
      <trkpt lat="62.640757281513" lon="17.885301069846">
        <ele>152.2</ele>
        <time>2017-11-26T11:15:04Z</time>
      </trkpt>
      <trkpt lat="62.640740182437" lon="17.885277600526">
        <ele>152.2</ele>
        <time>2017-11-26T11:15:05Z</time>
      </trkpt>
      <trkpt lat="62.640718892411" lon="17.885249185885">
        <ele>152.4</ele>
        <time>2017-11-26T11:15:06Z</time>
      </trkpt>
      <trkpt lat="62.640703218258" lon="17.885218843407">
        <ele>152.6</ele>
        <time>2017-11-26T11:15:07Z</time>
      </trkpt>
      <trkpt lat="62.640684778078" lon="17.885193949164">
        <ele>152.8</ele>
        <time>2017-11-26T11:15:08Z</time>
      </trkpt>
      <trkpt lat="62.640666505536" lon="17.885166121256">
        <ele>153</ele>
        <time>2017-11-26T11:15:09Z</time>
      </trkpt>
      <trkpt lat="62.640647143347" lon="17.885138460986">
        <ele>153</ele>
        <time>2017-11-26T11:15:10Z</time>
      </trkpt>
      <trkpt lat="62.640631050099" lon="17.885115243123">
        <ele>153.2</ele>
        <time>2017-11-26T11:15:11Z</time>
      </trkpt>
      <trkpt lat="62.640610598263" lon="17.885080206781">
        <ele>153.2</ele>
        <time>2017-11-26T11:15:12Z</time>
      </trkpt>
      <trkpt lat="62.640592912454" lon="17.885058162384">
        <ele>153.2</ele>
        <time>2017-11-26T11:15:13Z</time>
      </trkpt>
      <trkpt lat="62.640577070663" lon="17.885027903725">
        <ele>153.4</ele>
        <time>2017-11-26T11:15:14Z</time>
      </trkpt>
      <trkpt lat="62.640555864456" lon="17.884995801048">
        <ele>153.6</ele>
        <time>2017-11-26T11:15:15Z</time>
      </trkpt>
      <trkpt lat="62.64053876538" lon="17.884969062787">
        <ele>153.6</ele>
        <time>2017-11-26T11:15:16Z</time>
      </trkpt>
      <trkpt lat="62.640521833942" lon="17.884938133576">
        <ele>153.6</ele>
        <time>2017-11-26T11:15:17Z</time>
      </trkpt>
      <trkpt lat="62.640501214468" lon="17.884906030899">
        <ele>153.4</ele>
        <time>2017-11-26T11:15:18Z</time>
      </trkpt>
      <trkpt lat="62.640485540315" lon="17.884879544095">
        <ele>153.6</ele>
        <time>2017-11-26T11:15:19Z</time>
      </trkpt>
      <trkpt lat="62.640462741547" lon="17.884841909364">
        <ele>153.6</ele>
        <time>2017-11-26T11:15:20Z</time>
      </trkpt>
      <trkpt lat="62.640447318851" lon="17.884818356225">
        <ele>153.6</ele>
        <time>2017-11-26T11:15:21Z</time>
      </trkpt>
      <trkpt lat="62.640423765712" lon="17.884784074254">
        <ele>153.6</ele>
        <time>2017-11-26T11:15:22Z</time>
      </trkpt>
      <trkpt lat="62.640404990256" lon="17.884759599106">
        <ele>153.8</ele>
        <time>2017-11-26T11:15:23Z</time>
      </trkpt>
      <trkpt lat="62.640386885352" lon="17.884733447578">
        <ele>153.8</ele>
        <time>2017-11-26T11:15:24Z</time>
      </trkpt>
      <trkpt lat="62.640361823471" lon="17.88469723777">
        <ele>154</ele>
        <time>2017-11-26T11:15:25Z</time>
      </trkpt>
      <trkpt lat="62.64034346711" lon="17.88466622474">
        <ele>154</ele>
        <time>2017-11-26T11:15:26Z</time>
      </trkpt>
      <trkpt lat="62.64032418874" lon="17.884640324669">
        <ele>154.2</ele>
        <time>2017-11-26T11:15:27Z</time>
      </trkpt>
      <trkpt lat="62.640303904542" lon="17.884601767929">
        <ele>154.2</ele>
        <time>2017-11-26T11:15:28Z</time>
      </trkpt>
      <trkpt lat="62.640288817122" lon="17.88458156755">
        <ele>154.2</ele>
        <time>2017-11-26T11:15:29Z</time>
      </trkpt>
      <trkpt lat="62.640264006698" lon="17.884539741869">
        <ele>154.2</ele>
        <time>2017-11-26T11:15:30Z</time>
      </trkpt>
      <trkpt lat="62.640243051948" lon="17.88451115959">
        <ele>154.2</ele>
        <time>2017-11-26T11:15:31Z</time>
      </trkpt>
      <trkpt lat="62.64022528232" lon="17.884482158216">
        <ele>154.2</ele>
        <time>2017-11-26T11:15:32Z</time>
      </trkpt>
      <trkpt lat="62.640204662846" lon="17.884444020571">
        <ele>154.2</ele>
        <time>2017-11-26T11:15:33Z</time>
      </trkpt>
      <trkpt lat="62.640187060856" lon="17.884421640898">
        <ele>154.4</ele>
        <time>2017-11-26T11:15:34Z</time>
      </trkpt>
      <trkpt lat="62.640165603192" lon="17.884397752483">
        <ele>154.4</ele>
        <time>2017-11-26T11:15:35Z</time>
      </trkpt>
      <trkpt lat="62.640146660098" lon="17.884360369209">
        <ele>154.4</ele>
        <time>2017-11-26T11:15:36Z</time>
      </trkpt>
      <trkpt lat="62.640128471375" lon="17.884325751962">
        <ele>154.4</ele>
        <time>2017-11-26T11:15:37Z</time>
      </trkpt>
      <trkpt lat="62.640111707575" lon="17.88428652467">
        <ele>154.6</ele>
        <time>2017-11-26T11:15:38Z</time>
      </trkpt>
      <trkpt lat="62.640095865784" lon="17.884255930735">
        <ele>154.6</ele>
        <time>2017-11-26T11:15:39Z</time>
      </trkpt>
      <trkpt lat="62.640074827215" lon="17.884223911877">
        <ele>154.6</ele>
        <time>2017-11-26T11:15:40Z</time>
      </trkpt>
      <trkpt lat="62.640058314872" lon="17.884189797544">
        <ele>154.6</ele>
        <time>2017-11-26T11:15:41Z</time>
      </trkpt>
      <trkpt lat="62.640038449769" lon="17.884149564424">
        <ele>154.6</ele>
        <time>2017-11-26T11:15:42Z</time>
      </trkpt>
      <trkpt lat="62.640023529987" lon="17.884117880842">
        <ele>154.8</ele>
        <time>2017-11-26T11:15:43Z</time>
      </trkpt>
      <trkpt lat="62.640006179454" lon="17.884079072645">
        <ele>154.8</ele>
        <time>2017-11-26T11:15:44Z</time>
      </trkpt>
      <trkpt lat="62.639987152541" lon="17.884034061842">
        <ele>154.8</ele>
        <time>2017-11-26T11:15:45Z</time>
      </trkpt>
      <trkpt lat="62.639969131456" lon="17.883990392143">
        <ele>154.8</ele>
        <time>2017-11-26T11:15:46Z</time>
      </trkpt>
      <trkpt lat="62.639955049864" lon="17.883955355801">
        <ele>154.8</ele>
        <time>2017-11-26T11:15:47Z</time>
      </trkpt>
      <trkpt lat="62.639941638824" lon="17.883923672219">
        <ele>154.8</ele>
        <time>2017-11-26T11:15:48Z</time>
      </trkpt>
      <trkpt lat="62.639922276635" lon="17.883874638104">
        <ele>154.8</ele>
        <time>2017-11-26T11:15:49Z</time>
      </trkpt>
      <trkpt lat="62.639903668817" lon="17.883837003373">
        <ele>154.8</ele>
        <time>2017-11-26T11:15:50Z</time>
      </trkpt>
      <trkpt lat="62.639892772347" lon="17.883802972859">
        <ele>154.8</ele>
        <time>2017-11-26T11:15:51Z</time>
      </trkpt>
      <trkpt lat="62.639876176185" lon="17.88375678859">
        <ele>155</ele>
        <time>2017-11-26T11:15:52Z</time>
      </trkpt>
      <trkpt lat="62.639864609163" lon="17.883723847723">
        <ele>155</ele>
        <time>2017-11-26T11:15:53Z</time>
      </trkpt>
      <trkpt lat="62.63985144958" lon="17.883684452793">
        <ele>155</ele>
        <time>2017-11-26T11:15:54Z</time>
      </trkpt>
      <trkpt lat="62.63983468578" lon="17.88363692742">
        <ele>155</ele>
        <time>2017-11-26T11:15:55Z</time>
      </trkpt>
      <trkpt lat="62.639822448206" lon="17.883599376508">
        <ele>155</ele>
        <time>2017-11-26T11:15:56Z</time>
      </trkpt>
      <trkpt lat="62.639806606415" lon="17.883555874447">
        <ele>155</ele>
        <time>2017-11-26T11:15:57Z</time>
      </trkpt>
      <trkpt lat="62.639793363013" lon="17.883517652983">
        <ele>155</ele>
        <time>2017-11-26T11:15:58Z</time>
      </trkpt>
      <trkpt lat="62.639777856498" lon="17.883479263881">
        <ele>155</ele>
        <time>2017-11-26T11:15:59Z</time>
      </trkpt>
      <trkpt lat="62.639757656119" lon="17.883428050472">
        <ele>155</ele>
        <time>2017-11-26T11:16:00Z</time>
      </trkpt>
      <trkpt lat="62.639745502364" lon="17.883380106004">
        <ele>154.8</ele>
        <time>2017-11-26T11:16:01Z</time>
      </trkpt>
      <trkpt lat="62.639731336953" lon="17.883333418821">
        <ele>155</ele>
        <time>2017-11-26T11:16:02Z</time>
      </trkpt>
      <trkpt lat="62.639715578981" lon="17.883288072742">
        <ele>154.8</ele>
        <time>2017-11-26T11:16:03Z</time>
      </trkpt>
      <trkpt lat="62.639705520701" lon="17.883247588165">
        <ele>154.8</ele>
        <time>2017-11-26T11:16:04Z</time>
      </trkpt>
      <trkpt lat="62.639694288955" lon="17.883196123299">
        <ele>154.8</ele>
        <time>2017-11-26T11:16:05Z</time>
      </trkpt>
      <trkpt lat="62.63968129701" lon="17.883147089184">
        <ele>154.8</ele>
        <time>2017-11-26T11:16:06Z</time>
      </trkpt>
      <trkpt lat="62.63966788597" lon="17.883097719793">
        <ele>154.8</ele>
        <time>2017-11-26T11:16:07Z</time>
      </trkpt>
      <trkpt lat="62.639653972016" lon="17.883041980158">
        <ele>154.8</ele>
        <time>2017-11-26T11:16:08Z</time>
      </trkpt>
      <trkpt lat="62.63964274027" lon="17.883002669047">
        <ele>154.8</ele>
        <time>2017-11-26T11:16:09Z</time>
      </trkpt>
      <trkpt lat="62.639628071945" lon="17.882946761774">
        <ele>154.8</ele>
        <time>2017-11-26T11:16:10Z</time>
      </trkpt>
      <trkpt lat="62.639616588742" lon="17.882896218917">
        <ele>154.8</ele>
        <time>2017-11-26T11:16:11Z</time>
      </trkpt>
      <trkpt lat="62.63960418353" lon="17.882841988024">
        <ele>154.8</ele>
        <time>2017-11-26T11:16:12Z</time>
      </trkpt>
      <trkpt lat="62.639592281232" lon="17.882799156515">
        <ele>154.8</ele>
        <time>2017-11-26T11:16:13Z</time>
      </trkpt>
      <trkpt lat="62.63957819964" lon="17.882739058292">
        <ele>154.8</ele>
        <time>2017-11-26T11:16:14Z</time>
      </trkpt>
      <trkpt lat="62.639565040057" lon="17.882691532919">
        <ele>154.8</ele>
        <time>2017-11-26T11:16:15Z</time>
      </trkpt>
      <trkpt lat="62.639553473035" lon="17.88263864313">
        <ele>154.8</ele>
        <time>2017-11-26T11:16:16Z</time>
      </trkpt>
      <trkpt lat="62.639543498574" lon="17.882592710318">
        <ele>154.8</ele>
        <time>2017-11-26T11:16:17Z</time>
      </trkpt>
      <trkpt lat="62.639533859389" lon="17.882536048674">
        <ele>154.8</ele>
        <time>2017-11-26T11:16:18Z</time>
      </trkpt>
      <trkpt lat="62.639524639299" lon="17.882484583808">
        <ele>154.8</ele>
        <time>2017-11-26T11:16:19Z</time>
      </trkpt>
      <trkpt lat="62.639512150268" lon="17.882431777838">
        <ele>154.6</ele>
        <time>2017-11-26T11:16:20Z</time>
      </trkpt>
      <trkpt lat="62.639502594902" lon="17.882379307144">
        <ele>154.6</ele>
        <time>2017-11-26T11:16:21Z</time>
      </trkpt>
      <trkpt lat="62.639491446975" lon="17.882319208921">
        <ele>154.6</ele>
        <time>2017-11-26T11:16:22Z</time>
      </trkpt>
      <trkpt lat="62.639484825274" lon="17.882275874498">
        <ele>154.4</ele>
        <time>2017-11-26T11:16:23Z</time>
      </trkpt>
      <trkpt lat="62.639475269908" lon="17.882221056872">
        <ele>154.4</ele>
        <time>2017-11-26T11:16:24Z</time>
      </trkpt>
      <trkpt lat="62.639465211628" lon="17.882164562866">
        <ele>154.4</ele>
        <time>2017-11-26T11:16:25Z</time>
      </trkpt>
      <trkpt lat="62.639456494452" lon="17.882110248154">
        <ele>154.2</ele>
        <time>2017-11-26T11:16:26Z</time>
      </trkpt>
      <trkpt lat="62.639447777276" lon="17.882050736664">
        <ele>154.2</ele>
        <time>2017-11-26T11:16:27Z</time>
      </trkpt>
      <trkpt lat="62.639438808643" lon="17.882002540739">
        <ele>154.2</ele>
        <time>2017-11-26T11:16:28Z</time>
      </trkpt>
      <trkpt lat="62.639434282417" lon="17.881950237683">
        <ele>154</ele>
        <time>2017-11-26T11:16:29Z</time>
      </trkpt>
      <trkpt lat="62.639425565241" lon="17.881887038157">
        <ele>154</ele>
        <time>2017-11-26T11:16:30Z</time>
      </trkpt>
      <trkpt lat="62.639416512789" lon="17.88183398073">
        <ele>154</ele>
        <time>2017-11-26T11:16:31Z</time>
      </trkpt>
      <trkpt lat="62.639409639631" lon="17.881773211955">
        <ele>154</ele>
        <time>2017-11-26T11:16:32Z</time>
      </trkpt>
      <trkpt lat="62.639401676826" lon="17.88172669241">
        <ele>154</ele>
        <time>2017-11-26T11:16:33Z</time>
      </trkpt>
      <trkpt lat="62.639394133116" lon="17.881678831761">
        <ele>154</ele>
        <time>2017-11-26T11:16:34Z</time>
      </trkpt>
      <trkpt lat="62.639387008501" lon="17.881625774334">
        <ele>154</ele>
        <time>2017-11-26T11:16:35Z</time>
      </trkpt>
      <trkpt lat="62.639379045696" lon="17.881575985848">
        <ele>153.8</ele>
        <time>2017-11-26T11:16:36Z</time>
      </trkpt>
      <trkpt lat="62.63936865214" lon="17.881512702503">
        <ele>153.8</ele>
        <time>2017-11-26T11:16:37Z</time>
      </trkpt>
      <trkpt lat="62.639361527525" lon="17.88146266256">
        <ele>153.8</ele>
        <time>2017-11-26T11:16:38Z</time>
      </trkpt>
      <trkpt lat="62.639356414566" lon="17.881419663413">
        <ele>153.8</ele>
        <time>2017-11-26T11:16:39Z</time>
      </trkpt>
      <trkpt lat="62.639349038494" lon="17.881352105299">
        <ele>153.6</ele>
        <time>2017-11-26T11:16:40Z</time>
      </trkpt>
      <trkpt lat="62.639343925535" lon="17.881309441428">
        <ele>153.6</ele>
        <time>2017-11-26T11:16:41Z</time>
      </trkpt>
      <trkpt lat="62.639337136196" lon="17.881248253558">
        <ele>153.4</ele>
        <time>2017-11-26T11:16:42Z</time>
      </trkpt>
      <trkpt lat="62.639333531979" lon="17.88119025081">
        <ele>153.4</ele>
        <time>2017-11-26T11:16:43Z</time>
      </trkpt>
      <trkpt lat="62.63932925721" lon="17.881148592767">
        <ele>153.4</ele>
        <time>2017-11-26T11:16:44Z</time>
      </trkpt>
      <trkpt lat="62.639323222242" lon="17.881083549223">
        <ele>153.2</ele>
        <time>2017-11-26T11:16:45Z</time>
      </trkpt>
      <trkpt lat="62.639317857826" lon="17.881031413805">
        <ele>153.2</ele>
        <time>2017-11-26T11:16:46Z</time>
      </trkpt>
      <trkpt lat="62.639314002152" lon="17.880984978079">
        <ele>153.2</ele>
        <time>2017-11-26T11:16:47Z</time>
      </trkpt>
      <trkpt lat="62.639312828686" lon="17.88091951544">
        <ele>153</ele>
        <time>2017-11-26T11:16:48Z</time>
      </trkpt>
      <trkpt lat="62.639308889193" lon="17.880872828257">
        <ele>153</ele>
        <time>2017-11-26T11:16:49Z</time>
      </trkpt>
      <trkpt lat="62.639306374623" lon="17.880814574052">
        <ele>153</ele>
        <time>2017-11-26T11:16:50Z</time>
      </trkpt>
      <trkpt lat="62.639304195329" lon="17.880759672607">
        <ele>153</ele>
        <time>2017-11-26T11:16:51Z</time>
      </trkpt>
      <trkpt lat="62.639302686587" lon="17.880699155289">
        <ele>153</ele>
        <time>2017-11-26T11:16:52Z</time>
      </trkpt>
      <trkpt lat="62.639305452614" lon="17.880645259672">
        <ele>153</ele>
        <time>2017-11-26T11:16:53Z</time>
      </trkpt>
      <trkpt lat="62.639305284976" lon="17.880588262752">
        <ele>152.8</ele>
        <time>2017-11-26T11:16:54Z</time>
      </trkpt>
      <trkpt lat="62.639298998551" lon="17.880527410158">
        <ele>152.8</ele>
        <time>2017-11-26T11:16:55Z</time>
      </trkpt>
      <trkpt lat="62.639294639963" lon="17.880473933636">
        <ele>152.8</ele>
        <time>2017-11-26T11:16:56Z</time>
      </trkpt>
      <trkpt lat="62.639290197556" lon="17.880417774906">
        <ele>152.6</ele>
        <time>2017-11-26T11:16:57Z</time>
      </trkpt>
      <trkpt lat="62.639282989122" lon="17.88036631004">
        <ele>152.6</ele>
        <time>2017-11-26T11:16:58Z</time>
      </trkpt>
      <trkpt lat="62.639280306914" lon="17.880309229301">
        <ele>152.4</ele>
        <time>2017-11-26T11:16:59Z</time>
      </trkpt>
      <trkpt lat="62.639273685213" lon="17.880264637593">
        <ele>152.2</ele>
        <time>2017-11-26T11:17:00Z</time>
      </trkpt>
      <trkpt lat="62.639266057684" lon="17.880198252945">
        <ele>152.2</ele>
        <time>2017-11-26T11:17:01Z</time>
      </trkpt>
      <trkpt lat="62.639263375476" lon="17.880145614613">
        <ele>152</ele>
        <time>2017-11-26T11:17:02Z</time>
      </trkpt>
      <trkpt lat="62.639259435983" lon="17.880094317385">
        <ele>152</ele>
        <time>2017-11-26T11:17:03Z</time>
      </trkpt>
      <trkpt lat="62.639258262517" lon="17.880045199451">
        <ele>152</ele>
        <time>2017-11-26T11:17:04Z</time>
      </trkpt>
      <trkpt lat="62.639253065739" lon="17.879985855599">
        <ele>152</ele>
        <time>2017-11-26T11:17:05Z</time>
      </trkpt>
      <trkpt lat="62.639247785142" lon="17.879934893647">
        <ele>151.8</ele>
        <time>2017-11-26T11:17:06Z</time>
      </trkpt>
      <trkpt lat="62.639243007459" lon="17.879870436836">
        <ele>151.8</ele>
        <time>2017-11-26T11:17:07Z</time>
      </trkpt>
      <trkpt lat="62.639237559224" lon="17.879819726341">
        <ele>151.8</ele>
        <time>2017-11-26T11:17:08Z</time>
      </trkpt>
      <trkpt lat="62.639235128473" lon="17.879777313927">
        <ele>151.8</ele>
        <time>2017-11-26T11:17:09Z</time>
      </trkpt>
      <trkpt lat="62.639230099333" lon="17.87971419822">
        <ele>151.8</ele>
        <time>2017-11-26T11:17:10Z</time>
      </trkpt>
      <trkpt lat="62.639225489288" lon="17.87967061234">
        <ele>151.6</ele>
        <time>2017-11-26T11:17:11Z</time>
      </trkpt>
      <trkpt lat="62.639219873415" lon="17.879604143873">
        <ele>151.6</ele>
        <time>2017-11-26T11:17:12Z</time>
      </trkpt>
      <trkpt lat="62.639215933922" lon="17.87955578031">
        <ele>151.6</ele>
        <time>2017-11-26T11:17:13Z</time>
      </trkpt>
      <trkpt lat="62.639213335533" lon="17.879506243281">
        <ele>151.6</ele>
        <time>2017-11-26T11:17:14Z</time>
      </trkpt>
      <trkpt lat="62.639205875642" lon="17.879434075122">
        <ele>151.4</ele>
        <time>2017-11-26T11:17:15Z</time>
      </trkpt>
      <trkpt lat="62.639200427407" lon="17.87937892222">
        <ele>151.4</ele>
        <time>2017-11-26T11:17:16Z</time>
      </trkpt>
      <trkpt lat="62.639199170122" lon="17.87932695444">
        <ele>151.2</ele>
        <time>2017-11-26T11:17:17Z</time>
      </trkpt>
      <trkpt lat="62.639194057163" lon="17.879262078534">
        <ele>151.2</ele>
        <time>2017-11-26T11:17:18Z</time>
      </trkpt>
      <trkpt lat="62.639191039679" lon="17.879218492654">
        <ele>151</ele>
        <time>2017-11-26T11:17:19Z</time>
      </trkpt>
      <trkpt lat="62.639187267824" lon="17.879154203481">
        <ele>150.8</ele>
        <time>2017-11-26T11:17:20Z</time>
      </trkpt>
      <trkpt lat="62.639182406322" lon="17.879104331176">
        <ele>150.8</ele>
        <time>2017-11-26T11:17:21Z</time>
      </trkpt>
      <trkpt lat="62.639179388838" lon="17.879044149134">
        <ele>150.8</ele>
        <time>2017-11-26T11:17:22Z</time>
      </trkpt>
      <trkpt lat="62.639175449345" lon="17.878995366476">
        <ele>150.8</ele>
        <time>2017-11-26T11:17:23Z</time>
      </trkpt>
      <trkpt lat="62.639168408549" lon="17.878942057592">
        <ele>150.6</ele>
        <time>2017-11-26T11:17:24Z</time>
      </trkpt>
      <trkpt lat="62.639161032477" lon="17.878881707912">
        <ele>150.6</ele>
        <time>2017-11-26T11:17:25Z</time>
      </trkpt>
      <trkpt lat="62.639155668061" lon="17.878824375716">
        <ele>150.4</ele>
        <time>2017-11-26T11:17:26Z</time>
      </trkpt>
      <trkpt lat="62.639151896206" lon="17.878773497583">
        <ele>150.2</ele>
        <time>2017-11-26T11:17:27Z</time>
      </trkpt>
      <trkpt lat="62.639146028876" lon="17.878719099052">
        <ele>150.2</ele>
        <time>2017-11-26T11:17:28Z</time>
      </trkpt>
      <trkpt lat="62.639139490994" lon="17.878674088249">
        <ele>150.2</ele>
        <time>2017-11-26T11:17:29Z</time>
      </trkpt>
      <trkpt lat="62.639131695827" lon="17.878612397465">
        <ele>150.2</ele>
        <time>2017-11-26T11:17:30Z</time>
      </trkpt>
      <trkpt lat="62.639123230108" lon="17.878549281758">
        <ele>150</ele>
        <time>2017-11-26T11:17:31Z</time>
      </trkpt>
      <trkpt lat="62.639115183484" lon="17.878496727245">
        <ele>150</ele>
        <time>2017-11-26T11:17:32Z</time>
      </trkpt>
      <trkpt lat="62.639108729421" lon="17.878442244895">
        <ele>150</ele>
        <time>2017-11-26T11:17:33Z</time>
      </trkpt>
      <trkpt lat="62.639103365005" lon="17.878390444753">
        <ele>149.8</ele>
        <time>2017-11-26T11:17:34Z</time>
      </trkpt>
      <trkpt lat="62.639097581494" lon="17.878340237172">
        <ele>149.8</ele>
        <time>2017-11-26T11:17:35Z</time>
      </trkpt>
      <trkpt lat="62.639091630345" lon="17.878284329899">
        <ele>149.6</ele>
        <time>2017-11-26T11:17:36Z</time>
      </trkpt>
      <trkpt lat="62.639086098291" lon="17.878221884744">
        <ele>149.6</ele>
        <time>2017-11-26T11:17:37Z</time>
      </trkpt>
      <trkpt lat="62.639078303124" lon="17.878170503697">
        <ele>149.4</ele>
        <time>2017-11-26T11:17:38Z</time>
      </trkpt>
      <trkpt lat="62.639072938708" lon="17.878120966668">
        <ele>149.4</ele>
        <time>2017-11-26T11:17:39Z</time>
      </trkpt>
      <trkpt lat="62.639064472989" lon="17.878063299196">
        <ele>149.4</ele>
        <time>2017-11-26T11:17:40Z</time>
      </trkpt>
      <trkpt lat="62.639058018926" lon="17.87801770166">
        <ele>149.2</ele>
        <time>2017-11-26T11:17:41Z</time>
      </trkpt>
      <trkpt lat="62.639050391397" lon="17.877958609265">
        <ele>149.2</ele>
        <time>2017-11-26T11:17:42Z</time>
      </trkpt>
      <trkpt lat="62.639043685877" lon="17.877908569322">
        <ele>149.2</ele>
        <time>2017-11-26T11:17:43Z</time>
      </trkpt>
      <trkpt lat="62.639036896538" lon="17.877858697017">
        <ele>149.2</ele>
        <time>2017-11-26T11:17:44Z</time>
      </trkpt>
      <trkpt lat="62.639029688104" lon="17.877796168043">
        <ele>149</ele>
        <time>2017-11-26T11:17:45Z</time>
      </trkpt>
      <trkpt lat="62.639021557661" lon="17.877745876643">
        <ele>149</ele>
        <time>2017-11-26T11:17:46Z</time>
      </trkpt>
      <trkpt lat="62.639016025607" lon="17.877696255795">
        <ele>149</ele>
        <time>2017-11-26T11:17:47Z</time>
      </trkpt>
      <trkpt lat="62.639006637879" lon="17.877638755961">
        <ele>149</ele>
        <time>2017-11-26T11:17:48Z</time>
      </trkpt>
      <trkpt lat="62.638999177988" lon="17.877597936108">
        <ele>148.8</ele>
        <time>2017-11-26T11:17:49Z</time>
      </trkpt>
      <trkpt lat="62.638989538803" lon="17.877532976383">
        <ele>148.8</ele>
        <time>2017-11-26T11:17:50Z</time>
      </trkpt>
      <trkpt lat="62.638982665645" lon="17.877491821254">
        <ele>148.8</ele>
        <time>2017-11-26T11:17:51Z</time>
      </trkpt>
      <trkpt lat="62.638972272089" lon="17.877434740515">
        <ele>148.8</ele>
        <time>2017-11-26T11:17:52Z</time>
      </trkpt>
      <trkpt lat="62.638964057827" lon="17.877383024192">
        <ele>148.8</ele>
        <time>2017-11-26T11:17:53Z</time>
      </trkpt>
      <trkpt lat="62.638954753918" lon="17.87733709138">
        <ele>148.6</ele>
        <time>2017-11-26T11:17:54Z</time>
      </trkpt>
      <trkpt lat="62.638941259059" lon="17.87727925627">
        <ele>148.6</ele>
        <time>2017-11-26T11:17:55Z</time>
      </trkpt>
      <trkpt lat="62.638931536055" lon="17.877222426988">
        <ele>148.6</ele>
        <time>2017-11-26T11:17:56Z</time>
      </trkpt>
      <trkpt lat="62.638922148327" lon="17.877174985434">
        <ele>148.4</ele>
        <time>2017-11-26T11:17:57Z</time>
      </trkpt>
      <trkpt lat="62.638911419495" lon="17.877118659066">
        <ele>148.4</ele>
        <time>2017-11-26T11:17:58Z</time>
      </trkpt>
      <trkpt lat="62.6389026185" lon="17.877078845041">
        <ele>148.2</ele>
        <time>2017-11-26T11:17:59Z</time>
      </trkpt>
      <trkpt lat="62.638891219116" lon="17.877020674655">
        <ele>148.2</ele>
        <time>2017-11-26T11:18:00Z</time>
      </trkpt>
      <trkpt lat="62.63888082556" lon="17.876965186477">
        <ele>148.2</ele>
        <time>2017-11-26T11:18:01Z</time>
      </trkpt>
      <trkpt lat="62.638871856927" lon="17.876916152362">
        <ele>148</ele>
        <time>2017-11-26T11:18:02Z</time>
      </trkpt>
      <trkpt lat="62.638860541362" lon="17.876862005288">
        <ele>148</ele>
        <time>2017-11-26T11:18:03Z</time>
      </trkpt>
      <trkpt lat="62.638850231625" lon="17.876817832675">
        <ele>147.8</ele>
        <time>2017-11-26T11:18:04Z</time>
      </trkpt>
      <trkpt lat="62.638839083698" lon="17.87676796037">
        <ele>147.8</ele>
        <time>2017-11-26T11:18:05Z</time>
      </trkpt>
      <trkpt lat="62.638828606323" lon="17.876710209079">
        <ele>147.8</ele>
        <time>2017-11-26T11:18:06Z</time>
      </trkpt>
      <trkpt lat="62.638818380405" lon="17.87664977558">
        <ele>147.6</ele>
        <time>2017-11-26T11:18:07Z</time>
      </trkpt>
      <trkpt lat="62.638809327953" lon="17.87659696961">
        <ele>147.6</ele>
        <time>2017-11-26T11:18:08Z</time>
      </trkpt>
      <trkpt lat="62.638798347664" lon="17.876549779513">
        <ele>147.6</ele>
        <time>2017-11-26T11:18:09Z</time>
      </trkpt>
      <trkpt lat="62.638785104262" lon="17.876497560276">
        <ele>147.6</ele>
        <time>2017-11-26T11:18:10Z</time>
      </trkpt>
      <trkpt lat="62.638776470905" lon="17.876449867265">
        <ele>147.4</ele>
        <time>2017-11-26T11:18:11Z</time>
      </trkpt>
      <trkpt lat="62.638763227503" lon="17.87638993668">
        <ele>147.4</ele>
        <time>2017-11-26T11:18:12Z</time>
      </trkpt>
      <trkpt lat="62.638751157567" lon="17.8763463508">
        <ele>147.4</ele>
        <time>2017-11-26T11:18:13Z</time>
      </trkpt>
      <trkpt lat="62.638739087631" lon="17.876298322513">
        <ele>147.4</ele>
        <time>2017-11-26T11:18:14Z</time>
      </trkpt>
      <trkpt lat="62.638728777894" lon="17.876241996145">
        <ele>147.2</ele>
        <time>2017-11-26T11:18:15Z</time>
      </trkpt>
      <trkpt lat="62.638716624139" lon="17.876196063333">
        <ele>147.2</ele>
        <time>2017-11-26T11:18:16Z</time>
      </trkpt>
      <trkpt lat="62.638705308574" lon="17.876149627607">
        <ele>147</ele>
        <time>2017-11-26T11:18:17Z</time>
      </trkpt>
      <trkpt lat="62.638693238638" lon="17.876097576008">
        <ele>146.8</ele>
        <time>2017-11-26T11:18:18Z</time>
      </trkpt>
      <trkpt lat="62.638681420159" lon="17.876052732843">
        <ele>146.8</ele>
        <time>2017-11-26T11:18:19Z</time>
      </trkpt>
      <trkpt lat="62.638668595852" lon="17.875995065371">
        <ele>146.6</ele>
        <time>2017-11-26T11:18:20Z</time>
      </trkpt>
      <trkpt lat="62.638658956667" lon="17.875955083708">
        <ele>146.6</ele>
        <time>2017-11-26T11:18:21Z</time>
      </trkpt>
      <trkpt lat="62.638644875075" lon="17.875897332417">
        <ele>146.6</ele>
        <time>2017-11-26T11:18:22Z</time>
      </trkpt>
      <trkpt lat="62.638634146243" lon="17.875856177288">
        <ele>146.6</ele>
        <time>2017-11-26T11:18:23Z</time>
      </trkpt>
      <trkpt lat="62.638622998316" lon="17.875808484277">
        <ele>146.6</ele>
        <time>2017-11-26T11:18:24Z</time>
      </trkpt>
      <trkpt lat="62.638608832905" lon="17.875752493185">
        <ele>146.4</ele>
        <time>2017-11-26T11:18:25Z</time>
      </trkpt>
      <trkpt lat="62.638598774625" lon="17.875709745495">
        <ele>146.4</ele>
        <time>2017-11-26T11:18:26Z</time>
      </trkpt>
      <trkpt lat="62.638585950318" lon="17.875670099108">
        <ele>146.4</ele>
        <time>2017-11-26T11:18:27Z</time>
      </trkpt>
      <trkpt lat="62.638575472943" lon="17.875615197663">
        <ele>146.4</ele>
        <time>2017-11-26T11:18:28Z</time>
      </trkpt>
      <trkpt lat="62.638565498482" lon="17.875584268452">
        <ele>146.4</ele>
        <time>2017-11-26T11:18:29Z</time>
      </trkpt>
      <trkpt lat="62.63855225508" lon="17.875529199369">
        <ele>146.4</ele>
        <time>2017-11-26T11:18:30Z</time>
      </trkpt>
      <trkpt lat="62.638541442429" lon="17.87548133872">
        <ele>146.4</ele>
        <time>2017-11-26T11:18:31Z</time>
      </trkpt>
      <trkpt lat="62.638532389977" lon="17.875444877455">
        <ele>146.2</ele>
        <time>2017-11-26T11:18:32Z</time>
      </trkpt>
      <trkpt lat="62.638518978937" lon="17.875394753693">
        <ele>146.2</ele>
        <time>2017-11-26T11:18:33Z</time>
      </trkpt>
      <trkpt lat="62.638509172114" lon="17.875354352935">
        <ele>146.2</ele>
        <time>2017-11-26T11:18:34Z</time>
      </trkpt>
      <trkpt lat="62.638498275644" lon="17.87531370072">
        <ele>146</ele>
        <time>2017-11-26T11:18:35Z</time>
      </trkpt>
      <trkpt lat="62.638489809925" lon="17.875267851727">
        <ele>146</ele>
        <time>2017-11-26T11:18:36Z</time>
      </trkpt>
      <trkpt lat="62.638477488532" lon="17.875217811784">
        <ele>146</ele>
        <time>2017-11-26T11:18:37Z</time>
      </trkpt>
      <trkpt lat="62.638464412768" lon="17.875177746302">
        <ele>145.8</ele>
        <time>2017-11-26T11:18:38Z</time>
      </trkpt>
      <trkpt lat="62.638453264841" lon="17.875129466558">
        <ele>145.8</ele>
        <time>2017-11-26T11:18:39Z</time>
      </trkpt>
      <trkpt lat="62.638442871285" lon="17.875072469638">
        <ele>145.8</ele>
        <time>2017-11-26T11:18:40Z</time>
      </trkpt>
      <trkpt lat="62.63843239391" lon="17.875033242346">
        <ele>145.8</ele>
        <time>2017-11-26T11:18:41Z</time>
      </trkpt>
      <trkpt lat="62.638418815232" lon="17.874977083616">
        <ele>145.6</ele>
        <time>2017-11-26T11:18:42Z</time>
      </trkpt>
      <trkpt lat="62.638407834943" lon="17.874932156632">
        <ele>145.6</ele>
        <time>2017-11-26T11:18:43Z</time>
      </trkpt>
      <trkpt lat="62.63839635174" lon="17.87488622382">
        <ele>145.6</ele>
        <time>2017-11-26T11:18:44Z</time>
      </trkpt>
      <trkpt lat="62.638383024519" lon="17.87483090328">
        <ele>145.4</ele>
        <time>2017-11-26T11:18:45Z</time>
      </trkpt>
      <trkpt lat="62.63837120604" lon="17.874785892477">
        <ele>145.4</ele>
        <time>2017-11-26T11:18:46Z</time>
      </trkpt>
      <trkpt lat="62.63836282414" lon="17.874734176154">
        <ele>145.4</ele>
        <time>2017-11-26T11:18:47Z</time>
      </trkpt>
      <trkpt lat="62.63835360405" lon="17.874696457604">
        <ele>145.2</ele>
        <time>2017-11-26T11:18:48Z</time>
      </trkpt>
      <trkpt lat="62.638339271001" lon="17.874641556159">
        <ele>145.2</ele>
        <time>2017-11-26T11:18:49Z</time>
      </trkpt>
      <trkpt lat="62.63832594378" lon="17.874580033013">
        <ele>145.2</ele>
        <time>2017-11-26T11:18:50Z</time>
      </trkpt>
      <trkpt lat="62.638317813337" lon="17.874539799893">
        <ele>145.2</ele>
        <time>2017-11-26T11:18:51Z</time>
      </trkpt>
      <trkpt lat="62.638304821392" lon="17.874480456041">
        <ele>145</ele>
        <time>2017-11-26T11:18:52Z</time>
      </trkpt>
      <trkpt lat="62.638294846931" lon="17.874435109962">
        <ele>145</ele>
        <time>2017-11-26T11:18:53Z</time>
      </trkpt>
      <trkpt lat="62.638283699004" lon="17.87438833896">
        <ele>145</ele>
        <time>2017-11-26T11:18:54Z</time>
      </trkpt>
      <trkpt lat="62.638271293792" lon="17.874326731995">
        <ele>145</ele>
        <time>2017-11-26T11:18:55Z</time>
      </trkpt>
      <trkpt lat="62.63826056496" lon="17.874276775871">
        <ele>144.8</ele>
        <time>2017-11-26T11:18:56Z</time>
      </trkpt>
      <trkpt lat="62.638251177232" lon="17.874224556634">
        <ele>144.8</ele>
        <time>2017-11-26T11:18:57Z</time>
      </trkpt>
      <trkpt lat="62.638239107296" lon="17.874170996293">
        <ele>144.8</ele>
        <time>2017-11-26T11:18:58Z</time>
      </trkpt>
      <trkpt lat="62.638227959369" lon="17.874136295227">
        <ele>144.6</ele>
        <time>2017-11-26T11:18:59Z</time>
      </trkpt>
      <trkpt lat="62.638215805614" lon="17.87407653228">
        <ele>144.6</ele>
        <time>2017-11-26T11:19:00Z</time>
      </trkpt>
      <trkpt lat="62.638205663515" lon="17.874024648319">
        <ele>144.4</ele>
        <time>2017-11-26T11:19:01Z</time>
      </trkpt>
      <trkpt lat="62.638196359606" lon="17.873983409371">
        <ele>144.4</ele>
        <time>2017-11-26T11:19:02Z</time>
      </trkpt>
      <trkpt lat="62.638186049869" lon="17.87392984903">
        <ele>144.2</ele>
        <time>2017-11-26T11:19:03Z</time>
      </trkpt>
      <trkpt lat="62.638177416512" lon="17.873886011693">
        <ele>144.2</ele>
        <time>2017-11-26T11:19:04Z</time>
      </trkpt>
      <trkpt lat="62.638165178938" lon="17.873840665614">
        <ele>144.2</ele>
        <time>2017-11-26T11:19:05Z</time>
      </trkpt>
      <trkpt lat="62.638155875029" lon="17.873789536024">
        <ele>144</ele>
        <time>2017-11-26T11:19:06Z</time>
      </trkpt>
      <trkpt lat="62.638146068206" lon="17.873734215484">
        <ele>143.8</ele>
        <time>2017-11-26T11:19:07Z</time>
      </trkpt>
      <trkpt lat="62.638136177564" lon="17.873690378147">
        <ele>143.8</ele>
        <time>2017-11-26T11:19:08Z</time>
      </trkpt>
      <trkpt lat="62.638128801492" lon="17.87364654081">
        <ele>143.8</ele>
        <time>2017-11-26T11:19:09Z</time>
      </trkpt>
      <trkpt lat="62.638117737384" lon="17.873593315745">
        <ele>143.6</ele>
        <time>2017-11-26T11:19:10Z</time>
      </trkpt>
      <trkpt lat="62.638108349656" lon="17.873548137304">
        <ele>143.6</ele>
        <time>2017-11-26T11:19:11Z</time>
      </trkpt>
      <trkpt lat="62.638098123738" lon="17.873488206719">
        <ele>143.4</ele>
        <time>2017-11-26T11:19:12Z</time>
      </trkpt>
      <trkpt lat="62.638088065458" lon="17.873449817617">
        <ele>143.4</ele>
        <time>2017-11-26T11:19:13Z</time>
      </trkpt>
      <trkpt lat="62.63808203049" lon="17.873398185113">
        <ele>143.4</ele>
        <time>2017-11-26T11:19:14Z</time>
      </trkpt>
      <trkpt lat="62.638070631106" lon="17.87334143965">
        <ele>143.2</ele>
        <time>2017-11-26T11:19:15Z</time>
      </trkpt>
      <trkpt lat="62.63805856117" lon="17.87328444273">
        <ele>143</ele>
        <time>2017-11-26T11:19:16Z</time>
      </trkpt>
      <trkpt lat="62.638051939469" lon="17.873237252633">
        <ele>143</ele>
        <time>2017-11-26T11:19:17Z</time>
      </trkpt>
      <trkpt lat="62.63804347375" lon="17.873183440835">
        <ele>142.8</ele>
        <time>2017-11-26T11:19:18Z</time>
      </trkpt>
      <trkpt lat="62.638035846221" lon="17.87313692129">
        <ele>142.8</ele>
        <time>2017-11-26T11:19:19Z</time>
      </trkpt>
      <trkpt lat="62.638024111561" lon="17.873077325981">
        <ele>142.6</ele>
        <time>2017-11-26T11:19:20Z</time>
      </trkpt>
      <trkpt lat="62.63801497529" lon="17.873037092861">
        <ele>142.6</ele>
        <time>2017-11-26T11:19:21Z</time>
      </trkpt>
      <trkpt lat="62.638003743544" lon="17.872977749009">
        <ele>142.4</ele>
        <time>2017-11-26T11:19:22Z</time>
      </trkpt>
      <trkpt lat="62.637998379128" lon="17.872930558912">
        <ele>142.4</ele>
        <time>2017-11-26T11:19:23Z</time>
      </trkpt>
      <trkpt lat="62.637990416323" lon="17.872883117358">
        <ele>142.4</ele>
        <time>2017-11-26T11:19:24Z</time>
      </trkpt>
      <trkpt lat="62.637981950604" lon="17.87281924728">
        <ele>142.4</ele>
        <time>2017-11-26T11:19:25Z</time>
      </trkpt>
      <trkpt lat="62.637972981971" lon="17.872770296984">
        <ele>142.2</ele>
        <time>2017-11-26T11:19:26Z</time>
      </trkpt>
      <trkpt lat="62.63796552208" lon="17.872717491014">
        <ele>142.2</ele>
        <time>2017-11-26T11:19:27Z</time>
      </trkpt>
      <trkpt lat="62.637958146008" lon="17.872660410275">
        <ele>142</ele>
        <time>2017-11-26T11:19:28Z</time>
      </trkpt>
      <trkpt lat="62.63795127285" lon="17.872620512431">
        <ele>142</ele>
        <time>2017-11-26T11:19:29Z</time>
      </trkpt>
      <trkpt lat="62.637940292561" lon="17.872559073104">
        <ele>142</ele>
        <time>2017-11-26T11:19:30Z</time>
      </trkpt>
      <trkpt lat="62.637935263421" lon="17.872503501107">
        <ele>141.8</ele>
        <time>2017-11-26T11:19:31Z</time>
      </trkpt>
      <trkpt lat="62.637929060815" lon="17.87245379644">
        <ele>141.8</ele>
        <time>2017-11-26T11:19:32Z</time>
      </trkpt>
      <trkpt lat="62.637923109666" lon="17.872393782036">
        <ele>141.6</ele>
        <time>2017-11-26T11:19:33Z</time>
      </trkpt>
      <trkpt lat="62.637917242336" lon="17.872342149532">
        <ele>141.6</ele>
        <time>2017-11-26T11:19:34Z</time>
      </trkpt>
      <trkpt lat="62.637910452997" lon="17.872289092105">
        <ele>141.4</ele>
        <time>2017-11-26T11:19:35Z</time>
      </trkpt>
      <trkpt lat="62.637901987278" lon="17.872226563131">
        <ele>141.2</ele>
        <time>2017-11-26T11:19:36Z</time>
      </trkpt>
      <trkpt lat="62.63789511412" lon="17.872172583695">
        <ele>141</ele>
        <time>2017-11-26T11:19:37Z</time>
      </trkpt>
      <trkpt lat="62.637888240962" lon="17.872121118829">
        <ele>141</ele>
        <time>2017-11-26T11:19:38Z</time>
      </trkpt>
      <trkpt lat="62.637884636745" lon="17.872064624823">
        <ele>141</ele>
        <time>2017-11-26T11:19:39Z</time>
      </trkpt>
      <trkpt lat="62.637877595949" lon="17.872013327595">
        <ele>140.8</ele>
        <time>2017-11-26T11:19:40Z</time>
      </trkpt>
      <trkpt lat="62.637871812438" lon="17.871957923236">
        <ele>140.8</ele>
        <time>2017-11-26T11:19:41Z</time>
      </trkpt>
      <trkpt lat="62.637866280384" lon="17.871900423402">
        <ele>140.6</ele>
        <time>2017-11-26T11:19:42Z</time>
      </trkpt>
      <trkpt lat="62.637860329235" lon="17.871850802554">
        <ele>140.4</ele>
        <time>2017-11-26T11:19:43Z</time>
      </trkpt>
      <trkpt lat="62.637856389742" lon="17.871797409851">
        <ele>140.4</ele>
        <time>2017-11-26T11:19:44Z</time>
      </trkpt>
      <trkpt lat="62.637851695878" lon="17.871743681872">
        <ele>140.2</ele>
        <time>2017-11-26T11:19:45Z</time>
      </trkpt>
      <trkpt lat="62.637843900711" lon="17.871687858418">
        <ele>140.2</ele>
        <time>2017-11-26T11:19:46Z</time>
      </trkpt>
      <trkpt lat="62.637840883227" lon="17.871635723">
        <ele>140.2</ele>
        <time>2017-11-26T11:19:47Z</time>
      </trkpt>
      <trkpt lat="62.637834848259" lon="17.871589287274">
        <ele>140</ele>
        <time>2017-11-26T11:19:48Z</time>
      </trkpt>
      <trkpt lat="62.637829819119" lon="17.871535726933">
        <ele>140</ele>
        <time>2017-11-26T11:19:49Z</time>
      </trkpt>
      <trkpt lat="62.637823700332" lon="17.871479484384">
        <ele>140</ele>
        <time>2017-11-26T11:19:50Z</time>
      </trkpt>
      <trkpt lat="62.637820263753" lon="17.871432964839">
        <ele>139.8</ele>
        <time>2017-11-26T11:19:51Z</time>
      </trkpt>
      <trkpt lat="62.637817581545" lon="17.871371441693">
        <ele>139.6</ele>
        <time>2017-11-26T11:19:52Z</time>
      </trkpt>
      <trkpt lat="62.637813306776" lon="17.871321317931">
        <ele>139.4</ele>
        <time>2017-11-26T11:19:53Z</time>
      </trkpt>
      <trkpt lat="62.637807774722" lon="17.871271529445">
        <ele>139.4</ele>
        <time>2017-11-26T11:19:54Z</time>
      </trkpt>
      <trkpt lat="62.637804338143" lon="17.8712082461">
        <ele>139</ele>
        <time>2017-11-26T11:19:55Z</time>
      </trkpt>
      <trkpt lat="62.637801655935" lon="17.87115544013">
        <ele>138.8</ele>
        <time>2017-11-26T11:19:56Z</time>
      </trkpt>
      <trkpt lat="62.637796794433" lon="17.871100622504">
        <ele>138.8</ele>
        <time>2017-11-26T11:19:57Z</time>
      </trkpt>
      <trkpt lat="62.637793274035" lon="17.871041697747">
        <ele>138.6</ele>
        <time>2017-11-26T11:19:58Z</time>
      </trkpt>
      <trkpt lat="62.637790675646" lon="17.870993501822">
        <ele>138.6</ele>
        <time>2017-11-26T11:19:59Z</time>
      </trkpt>
      <trkpt lat="62.637786652334" lon="17.870928039183">
        <ele>138.4</ele>
        <time>2017-11-26T11:20:00Z</time>
      </trkpt>
      <trkpt lat="62.637782293746" lon="17.870872718643">
        <ele>138.4</ele>
        <time>2017-11-26T11:20:01Z</time>
      </trkpt>
      <trkpt lat="62.637777264606" lon="17.870814129162">
        <ele>138.2</ele>
        <time>2017-11-26T11:20:02Z</time>
      </trkpt>
      <trkpt lat="62.637773660389" lon="17.870753779482">
        <ele>138</ele>
        <time>2017-11-26T11:20:03Z</time>
      </trkpt>
      <trkpt lat="62.637772151647" lon="17.870702733711">
        <ele>137.8</ele>
        <time>2017-11-26T11:20:04Z</time>
      </trkpt>
      <trkpt lat="62.637769637077" lon="17.870649508646">
        <ele>137.8</ele>
        <time>2017-11-26T11:20:05Z</time>
      </trkpt>
      <trkpt lat="62.63776687105" lon="17.870586728215">
        <ele>137.6</ele>
        <time>2017-11-26T11:20:06Z</time>
      </trkpt>
      <trkpt lat="62.637764607937" lon="17.870530820942">
        <ele>137.4</ele>
        <time>2017-11-26T11:20:07Z</time>
      </trkpt>
      <trkpt lat="62.637762596281" lon="17.870470135986">
        <ele>137.2</ele>
        <time>2017-11-26T11:20:08Z</time>
      </trkpt>
      <trkpt lat="62.637760081711" lon="17.870410624496">
        <ele>137.2</ele>
        <time>2017-11-26T11:20:09Z</time>
      </trkpt>
      <trkpt lat="62.63775765096" lon="17.870351448282">
        <ele>137</ele>
        <time>2017-11-26T11:20:10Z</time>
      </trkpt>
      <trkpt lat="62.637757399503" lon="17.870300402511">
        <ele>137</ele>
        <time>2017-11-26T11:20:11Z</time>
      </trkpt>
      <trkpt lat="62.637755555485" lon="17.870237370623">
        <ele>136.8</ele>
        <time>2017-11-26T11:20:12Z</time>
      </trkpt>
      <trkpt lat="62.63775346001" lon="17.87018313973">
        <ele>136.6</ele>
        <time>2017-11-26T11:20:13Z</time>
      </trkpt>
      <trkpt lat="62.637753627648" lon="17.870125807534">
        <ele>136.4</ele>
        <time>2017-11-26T11:20:14Z</time>
      </trkpt>
      <trkpt lat="62.637751699811" lon="17.870067804786">
        <ele>136.2</ele>
        <time>2017-11-26T11:20:15Z</time>
      </trkpt>
      <trkpt lat="62.637749185241" lon="17.870015417911">
        <ele>136</ele>
        <time>2017-11-26T11:20:16Z</time>
      </trkpt>
      <trkpt lat="62.637751113078" lon="17.869960265009">
        <ele>136</ele>
        <time>2017-11-26T11:20:17Z</time>
      </trkpt>
      <trkpt lat="62.63775010725" lon="17.869906201754">
        <ele>135.8</ele>
        <time>2017-11-26T11:20:18Z</time>
      </trkpt>
      <trkpt lat="62.637748263232" lon="17.869853563422">
        <ele>135.8</ele>
        <time>2017-11-26T11:20:19Z</time>
      </trkpt>
      <trkpt lat="62.637750777802" lon="17.869796063588">
        <ele>135.6</ele>
        <time>2017-11-26T11:20:20Z</time>
      </trkpt>
      <trkpt lat="62.637748849965" lon="17.869747448568">
        <ele>135.6</ele>
        <time>2017-11-26T11:20:21Z</time>
      </trkpt>
      <trkpt lat="62.637748766146" lon="17.869687266526">
        <ele>135.4</ele>
        <time>2017-11-26T11:20:22Z</time>
      </trkpt>
      <trkpt lat="62.637748095594" lon="17.869633538547">
        <ele>135.2</ele>
        <time>2017-11-26T11:20:23Z</time>
      </trkpt>
      <trkpt lat="62.637747676499" lon="17.869580145844">
        <ele>135.2</ele>
        <time>2017-11-26T11:20:24Z</time>
      </trkpt>
      <trkpt lat="62.637749436698" lon="17.869514599386">
        <ele>135</ele>
        <time>2017-11-26T11:20:25Z</time>
      </trkpt>
      <trkpt lat="62.637749855793" lon="17.869464894719">
        <ele>135</ele>
        <time>2017-11-26T11:20:26Z</time>
      </trkpt>
      <trkpt lat="62.637748011775" lon="17.869404545039">
        <ele>134.8</ele>
        <time>2017-11-26T11:20:27Z</time>
      </trkpt>
      <trkpt lat="62.637750274888" lon="17.869346542291">
        <ele>134.8</ele>
        <time>2017-11-26T11:20:28Z</time>
      </trkpt>
      <trkpt lat="62.637750358707" lon="17.869302453497">
        <ele>134.6</ele>
        <time>2017-11-26T11:20:29Z</time>
      </trkpt>
      <trkpt lat="62.63775094544" lon="17.869238415781">
        <ele>134.6</ele>
        <time>2017-11-26T11:20:30Z</time>
      </trkpt>
      <trkpt lat="62.637753124734" lon="17.869179155748">
        <ele>134.4</ele>
        <time>2017-11-26T11:20:31Z</time>
      </trkpt>
      <trkpt lat="62.637753208553" lon="17.869124170484">
        <ele>134.4</ele>
        <time>2017-11-26T11:20:32Z</time>
      </trkpt>
      <trkpt lat="62.637754717295" lon="17.869060216587">
        <ele>134.2</ele>
        <time>2017-11-26T11:20:33Z</time>
      </trkpt>
      <trkpt lat="62.637756058399" lon="17.869006237151">
        <ele>134.2</ele>
        <time>2017-11-26T11:20:34Z</time>
      </trkpt>
      <trkpt lat="62.637756561313" lon="17.868948402041">
        <ele>134</ele>
        <time>2017-11-26T11:20:35Z</time>
      </trkpt>
      <trkpt lat="62.637757064227" lon="17.868885453972">
        <ele>133.8</ele>
        <time>2017-11-26T11:20:36Z</time>
      </trkpt>
      <trkpt lat="62.637757315684" lon="17.868827367405">
        <ele>133.6</ele>
        <time>2017-11-26T11:20:37Z</time>
      </trkpt>
      <trkpt lat="62.637759243521" lon="17.868768442648">
        <ele>133.4</ele>
        <time>2017-11-26T11:20:38Z</time>
      </trkpt>
      <trkpt lat="62.637762261005" lon="17.868713289746">
        <ele>133.2</ele>
        <time>2017-11-26T11:20:39Z</time>
      </trkpt>
      <trkpt lat="62.63776519467" lon="17.868654029713">
        <ele>133.2</ele>
        <time>2017-11-26T11:20:40Z</time>
      </trkpt>
      <trkpt lat="62.637767290145" lon="17.86859225511">
        <ele>133</ele>
        <time>2017-11-26T11:20:41Z</time>
      </trkpt>
      <trkpt lat="62.637768798887" lon="17.868532240706">
        <ele>133</ele>
        <time>2017-11-26T11:20:42Z</time>
      </trkpt>
      <trkpt lat="62.637770978181" lon="17.868476752528">
        <ele>132.8</ele>
        <time>2017-11-26T11:20:43Z</time>
      </trkpt>
      <trkpt lat="62.637774330941" lon="17.868416402848">
        <ele>132.8</ele>
        <time>2017-11-26T11:20:44Z</time>
      </trkpt>
      <trkpt lat="62.637778102796" lon="17.868360830851">
        <ele>132.6</ele>
        <time>2017-11-26T11:20:45Z</time>
      </trkpt>
      <trkpt lat="62.637782545203" lon="17.868306264682">
        <ele>132.6</ele>
        <time>2017-11-26T11:20:46Z</time>
      </trkpt>
      <trkpt lat="62.637785814144" lon="17.868248345753">
        <ele>132.4</ele>
        <time>2017-11-26T11:20:47Z</time>
      </trkpt>
      <trkpt lat="62.637785143592" lon="17.868193528127">
        <ele>132.4</ele>
        <time>2017-11-26T11:20:48Z</time>
      </trkpt>
      <trkpt lat="62.63778531123" lon="17.86813460337">
        <ele>132.2</ele>
        <time>2017-11-26T11:20:49Z</time>
      </trkpt>
      <trkpt lat="62.637788077257" lon="17.868071822939">
        <ele>132</ele>
        <time>2017-11-26T11:20:50Z</time>
      </trkpt>
      <trkpt lat="62.637789921275" lon="17.868020944806">
        <ele>132</ele>
        <time>2017-11-26T11:20:51Z</time>
      </trkpt>
      <trkpt lat="62.63779285494" lon="17.867953973425">
        <ele>131.8</ele>
        <time>2017-11-26T11:20:52Z</time>
      </trkpt>
      <trkpt lat="62.637794782777" lon="17.86790242474">
        <ele>131.6</ele>
        <time>2017-11-26T11:20:53Z</time>
      </trkpt>
      <trkpt lat="62.637797632623" lon="17.867848696761">
        <ele>131.6</ele>
        <time>2017-11-26T11:20:54Z</time>
      </trkpt>
      <trkpt lat="62.637799979555" lon="17.867782731208">
        <ele>131.4</ele>
        <time>2017-11-26T11:20:55Z</time>
      </trkpt>
      <trkpt lat="62.637801907392" lon="17.867731014885">
        <ele>131.2</ele>
        <time>2017-11-26T11:20:56Z</time>
      </trkpt>
      <trkpt lat="62.637802829401" lon="17.867672928318">
        <ele>131.2</ele>
        <time>2017-11-26T11:20:57Z</time>
      </trkpt>
      <trkpt lat="62.637808277636" lon="17.867611153715">
        <ele>131</ele>
        <time>2017-11-26T11:20:58Z</time>
      </trkpt>
      <trkpt lat="62.637811714215" lon="17.867570920595">
        <ele>130.8</ele>
        <time>2017-11-26T11:20:59Z</time>
      </trkpt>
      <trkpt lat="62.637814731699" lon="17.867498584798">
        <ele>130.8</ele>
        <time>2017-11-26T11:21:00Z</time>
      </trkpt>
      <trkpt lat="62.63781800064" lon="17.867439827679">
        <ele>130.8</ele>
        <time>2017-11-26T11:21:01Z</time>
      </trkpt>
      <trkpt lat="62.637820850486" lon="17.867390709745">
        <ele>130.6</ele>
        <time>2017-11-26T11:21:02Z</time>
      </trkpt>
      <trkpt lat="62.637827556006" lon="17.867330360065">
        <ele>130.4</ele>
        <time>2017-11-26T11:21:03Z</time>
      </trkpt>
      <trkpt lat="62.637829986757" lon="17.867281158312">
        <ele>130.4</ele>
        <time>2017-11-26T11:21:04Z</time>
      </trkpt>
      <trkpt lat="62.637832585146" lon="17.867230028722">
        <ele>130</ele>
        <time>2017-11-26T11:21:05Z</time>
      </trkpt>
      <trkpt lat="62.637837865743" lon="17.867170181956">
        <ele>130</ele>
        <time>2017-11-26T11:21:06Z</time>
      </trkpt>
      <trkpt lat="62.637840296494" lon="17.867112598303">
        <ele>130</ele>
        <time>2017-11-26T11:21:07Z</time>
      </trkpt>
      <trkpt lat="62.637843816892" lon="17.867054344098">
        <ele>129.8</ele>
        <time>2017-11-26T11:21:08Z</time>
      </trkpt>
      <trkpt lat="62.637847924023" lon="17.867006148173">
        <ele>129.8</ele>
        <time>2017-11-26T11:21:09Z</time>
      </trkpt>
      <trkpt lat="62.637850857688" lon="17.866949067434">
        <ele>129.6</ele>
        <time>2017-11-26T11:21:10Z</time>
      </trkpt>
      <trkpt lat="62.637852198792" lon="17.86691336054">
        <ele>129.6</ele>
        <time>2017-11-26T11:21:11Z</time>
      </trkpt>
      <trkpt lat="62.637856976475" lon="17.866835744146">
        <ele>129.6</ele>
        <time>2017-11-26T11:21:12Z</time>
      </trkpt>
      <trkpt lat="62.637858149941" lon="17.866783189633">
        <ele>129.4</ele>
        <time>2017-11-26T11:21:13Z</time>
      </trkpt>
      <trkpt lat="62.637863430538" lon="17.866732646776">
        <ele>129.4</ele>
        <time>2017-11-26T11:21:14Z</time>
      </trkpt>
      <trkpt lat="62.637869381687" lon="17.866671626544">
        <ele>129.2</ele>
        <time>2017-11-26T11:21:15Z</time>
      </trkpt>
      <trkpt lat="62.637871141886" lon="17.866618820574">
        <ele>129.2</ele>
        <time>2017-11-26T11:21:16Z</time>
      </trkpt>
      <trkpt lat="62.637876254845" lon="17.866566266061">
        <ele>129.2</ele>
        <time>2017-11-26T11:21:17Z</time>
      </trkpt>
      <trkpt lat="62.637878182682" lon="17.866509604417">
        <ele>129</ele>
        <time>2017-11-26T11:21:18Z</time>
      </trkpt>
      <trkpt lat="62.637879691424" lon="17.866462581958">
        <ele>129</ele>
        <time>2017-11-26T11:21:19Z</time>
      </trkpt>
      <trkpt lat="62.637882876546" lon="17.866396364948">
        <ele>129</ele>
        <time>2017-11-26T11:21:20Z</time>
      </trkpt>
      <trkpt lat="62.63788589403" lon="17.866353617258">
        <ele>128.8</ele>
        <time>2017-11-26T11:21:21Z</time>
      </trkpt>
      <trkpt lat="62.637887821867" lon="17.866293519035">
        <ele>128.8</ele>
        <time>2017-11-26T11:21:22Z</time>
      </trkpt>
      <trkpt lat="62.637891090808" lon="17.86624197035">
        <ele>128.8</ele>
        <time>2017-11-26T11:21:23Z</time>
      </trkpt>
      <trkpt lat="62.637893605378" lon="17.866191343674">
        <ele>128.8</ele>
        <time>2017-11-26T11:21:24Z</time>
      </trkpt>
      <trkpt lat="62.637897125776" lon="17.866128982338">
        <ele>128.6</ele>
        <time>2017-11-26T11:21:25Z</time>
      </trkpt>
      <trkpt lat="62.637899975622" lon="17.866071985418">
        <ele>128.6</ele>
        <time>2017-11-26T11:21:26Z</time>
      </trkpt>
      <trkpt lat="62.637903831296" lon="17.866024711502">
        <ele>128.4</ele>
        <time>2017-11-26T11:21:27Z</time>
      </trkpt>
      <trkpt lat="62.637907351694" lon="17.865966541116">
        <ele>128.4</ele>
        <time>2017-11-26T11:21:28Z</time>
      </trkpt>
      <trkpt lat="62.637910452997" lon="17.865920273028">
        <ele>128.4</ele>
        <time>2017-11-26T11:21:29Z</time>
      </trkpt>
      <trkpt lat="62.6379135543" lon="17.865857576416">
        <ele>128.4</ele>
        <time>2017-11-26T11:21:30Z</time>
      </trkpt>
      <trkpt lat="62.637918751078" lon="17.86579940603">
        <ele>128.4</ele>
        <time>2017-11-26T11:21:31Z</time>
      </trkpt>
      <trkpt lat="62.637919924544" lon="17.865745929508">
        <ele>128.4</ele>
        <time>2017-11-26T11:21:32Z</time>
      </trkpt>
      <trkpt lat="62.637922271476" lon="17.865695721927">
        <ele>128.2</ele>
        <time>2017-11-26T11:21:33Z</time>
      </trkpt>
      <trkpt lat="62.637924786046" lon="17.865643083595">
        <ele>128.2</ele>
        <time>2017-11-26T11:21:34Z</time>
      </trkpt>
      <trkpt lat="62.637927132978" lon="17.865596228774">
        <ele>128.2</ele>
        <time>2017-11-26T11:21:35Z</time>
      </trkpt>
      <trkpt lat="62.637930066643" lon="17.86553286161">
        <ele>128.2</ele>
        <time>2017-11-26T11:21:36Z</time>
      </trkpt>
      <trkpt lat="62.637933419403" lon="17.865467818066">
        <ele>128.2</ele>
        <time>2017-11-26T11:21:37Z</time>
      </trkpt>
      <trkpt lat="62.637934928145" lon="17.865415682648">
        <ele>128</ele>
        <time>2017-11-26T11:21:38Z</time>
      </trkpt>
      <trkpt lat="62.637936939801" lon="17.865368492551">
        <ele>128</ele>
        <time>2017-11-26T11:21:39Z</time>
      </trkpt>
      <trkpt lat="62.637940460199" lon="17.865305209206">
        <ele>128</ele>
        <time>2017-11-26T11:21:40Z</time>
      </trkpt>
      <trkpt lat="62.637942388036" lon="17.865266065733">
        <ele>128</ele>
        <time>2017-11-26T11:21:41Z</time>
      </trkpt>
      <trkpt lat="62.637945824615" lon="17.865193562298">
        <ele>128</ele>
        <time>2017-11-26T11:21:42Z</time>
      </trkpt>
      <trkpt lat="62.637948003909" lon="17.865145198735">
        <ele>128</ele>
        <time>2017-11-26T11:21:43Z</time>
      </trkpt>
      <trkpt lat="62.63794959647" lon="17.865099014466">
        <ele>128</ele>
        <time>2017-11-26T11:21:44Z</time>
      </trkpt>
      <trkpt lat="62.637952362497" lon="17.86503749132">
        <ele>128</ele>
        <time>2017-11-26T11:21:45Z</time>
      </trkpt>
      <trkpt lat="62.63795462561" lon="17.864991139413">
        <ele>127.8</ele>
        <time>2017-11-26T11:21:46Z</time>
      </trkpt>
      <trkpt lat="62.637955966714" lon="17.864946296248">
        <ele>127.8</ele>
        <time>2017-11-26T11:21:47Z</time>
      </trkpt>
      <trkpt lat="62.637959068017" lon="17.864902626549">
        <ele>127.8</ele>
        <time>2017-11-26T11:21:48Z</time>
      </trkpt>
      <trkpt lat="62.637962923691" lon="17.864842695964">
        <ele>127.8</ele>
        <time>2017-11-26T11:21:49Z</time>
      </trkpt>
      <trkpt lat="62.637966863184" lon="17.864783100655">
        <ele>127.8</ele>
        <time>2017-11-26T11:21:50Z</time>
      </trkpt>
      <trkpt lat="62.637970635039" lon="17.864734234178">
        <ele>127.8</ele>
        <time>2017-11-26T11:21:51Z</time>
      </trkpt>
      <trkpt lat="62.637973820161" lon="17.86468042238">
        <ele>127.8</ele>
        <time>2017-11-26T11:21:52Z</time>
      </trkpt>
      <trkpt lat="62.63797809493" lon="17.86463096917">
        <ele>127.8</ele>
        <time>2017-11-26T11:21:53Z</time>
      </trkpt>
      <trkpt lat="62.637980693319" lon="17.864582521788">
        <ele>127.6</ele>
        <time>2017-11-26T11:21:54Z</time>
      </trkpt>
      <trkpt lat="62.637983878441" lon="17.864523597031">
        <ele>127.6</ele>
        <time>2017-11-26T11:21:55Z</time>
      </trkpt>
      <trkpt lat="62.637987734115" lon="17.864468695586">
        <ele>127.6</ele>
        <time>2017-11-26T11:21:56Z</time>
      </trkpt>
      <trkpt lat="62.637988739943" lon="17.864420248204">
        <ele>127.6</ele>
        <time>2017-11-26T11:21:57Z</time>
      </trkpt>
      <trkpt lat="62.637991086875" lon="17.864365514397">
        <ele>127.6</ele>
        <time>2017-11-26T11:21:58Z</time>
      </trkpt>
      <trkpt lat="62.637994355816" lon="17.864324023992">
        <ele>127.8</ele>
        <time>2017-11-26T11:21:59Z</time>
      </trkpt>
      <trkpt lat="62.637997457119" lon="17.864264177226">
        <ele>127.6</ele>
        <time>2017-11-26T11:22:00Z</time>
      </trkpt>
      <trkpt lat="62.637995361644" lon="17.864210700704">
        <ele>127.6</ele>
        <time>2017-11-26T11:22:01Z</time>
      </trkpt>
      <trkpt lat="62.637988907581" lon="17.864168875023">
        <ele>127.8</ele>
        <time>2017-11-26T11:22:02Z</time>
      </trkpt>
      <trkpt lat="62.637972479057" lon="17.864140041287">
        <ele>127.6</ele>
        <time>2017-11-26T11:22:03Z</time>
      </trkpt>
      <trkpt lat="62.637953368325" lon="17.864118415985">
        <ele>127.6</ele>
        <time>2017-11-26T11:22:04Z</time>
      </trkpt>
      <trkpt lat="62.637932497394" lon="17.864107435696">
        <ele>127.6</ele>
        <time>2017-11-26T11:22:05Z</time>
      </trkpt>
      <trkpt lat="62.637911626463" lon="17.864098299425">
        <ele>127.6</ele>
        <time>2017-11-26T11:22:06Z</time>
      </trkpt>
      <trkpt lat="62.637886480763" lon="17.86410123309">
        <ele>127.6</ele>
        <time>2017-11-26T11:22:07Z</time>
      </trkpt>
      <trkpt lat="62.637866531841" lon="17.864107770972">
        <ele>127.6</ele>
        <time>2017-11-26T11:22:08Z</time>
      </trkpt>
      <trkpt lat="62.637844990358" lon="17.864126714066">
        <ele>127.6</ele>
        <time>2017-11-26T11:22:09Z</time>
      </trkpt>
      <trkpt lat="62.637822862142" lon="17.864156972725">
        <ele>127.4</ele>
        <time>2017-11-26T11:22:10Z</time>
      </trkpt>
      <trkpt lat="62.637810624568" lon="17.864181028778">
        <ele>127.4</ele>
        <time>2017-11-26T11:22:11Z</time>
      </trkpt>
      <trkpt lat="62.637792268207" lon="17.864228302694">
        <ele>127.2</ele>
        <time>2017-11-26T11:22:12Z</time>
      </trkpt>
      <trkpt lat="62.637782377565" lon="17.864278845551">
        <ele>127.2</ele>
        <time>2017-11-26T11:22:13Z</time>
      </trkpt>
      <trkpt lat="62.637778354253" lon="17.864329807503">
        <ele>127</ele>
        <time>2017-11-26T11:22:14Z</time>
      </trkpt>
      <trkpt lat="62.637775923502" lon="17.86439543778">
        <ele>126.8</ele>
        <time>2017-11-26T11:22:15Z</time>
      </trkpt>
      <trkpt lat="62.637778018977" lon="17.864446902646">
        <ele>126.6</ele>
        <time>2017-11-26T11:22:16Z</time>
      </trkpt>
      <trkpt lat="62.637779862995" lon="17.864500295349">
        <ele>126.6</ele>
        <time>2017-11-26T11:22:17Z</time>
      </trkpt>
      <trkpt lat="62.637785395049" lon="17.864556202622">
        <ele>126.4</ele>
        <time>2017-11-26T11:22:18Z</time>
      </trkpt>
      <trkpt lat="62.637789334542" lon="17.864598782674">
        <ele>126.2</ele>
        <time>2017-11-26T11:22:19Z</time>
      </trkpt>
      <trkpt lat="62.637795118053" lon="17.864661646924">
        <ele>126.2</ele>
        <time>2017-11-26T11:22:20Z</time>
      </trkpt>
      <trkpt lat="62.637798973727" lon="17.864706490089">
        <ele>126</ele>
        <time>2017-11-26T11:22:21Z</time>
      </trkpt>
      <trkpt lat="62.637805595428" lon="17.864755775661">
        <ele>125.8</ele>
        <time>2017-11-26T11:22:22Z</time>
      </trkpt>
      <trkpt lat="62.637809283464" lon="17.864805564147">
        <ele>125.8</ele>
        <time>2017-11-26T11:22:23Z</time>
      </trkpt>
      <trkpt lat="62.637813139138" lon="17.864851916054">
        <ele>125.8</ele>
        <time>2017-11-26T11:22:24Z</time>
      </trkpt>
      <trkpt lat="62.637820766667" lon="17.864908158603">
        <ele>125.8</ele>
        <time>2017-11-26T11:22:25Z</time>
      </trkpt>
      <trkpt lat="62.637823784151" lon="17.864959036736">
        <ele>125.8</ele>
        <time>2017-11-26T11:22:26Z</time>
      </trkpt>
      <trkpt lat="62.63782805892" lon="17.865005472462">
        <ele>125.8</ele>
        <time>2017-11-26T11:22:27Z</time>
      </trkpt>
      <trkpt lat="62.637831914594" lon="17.865060625364">
        <ele>125.8</ele>
        <time>2017-11-26T11:22:28Z</time>
      </trkpt>
      <trkpt lat="62.637836524639" lon="17.865101612855">
        <ele>125.8</ele>
        <time>2017-11-26T11:22:29Z</time>
      </trkpt>
      <trkpt lat="62.637840128856" lon="17.865157771585">
        <ele>126</ele>
        <time>2017-11-26T11:22:30Z</time>
      </trkpt>
      <trkpt lat="62.637844487444" lon="17.865215522876">
        <ele>125.8</ele>
        <time>2017-11-26T11:22:31Z</time>
      </trkpt>
      <trkpt lat="62.637847588747" lon="17.865261790964">
        <ele>126</ele>
        <time>2017-11-26T11:22:32Z</time>
      </trkpt>
      <trkpt lat="62.63785069005" lon="17.865313842563">
        <ele>126</ele>
        <time>2017-11-26T11:22:33Z</time>
      </trkpt>
      <trkpt lat="62.637851779697" lon="17.865363798687">
        <ele>126</ele>
        <time>2017-11-26T11:22:34Z</time>
      </trkpt>
      <trkpt lat="62.63785404281" lon="17.865410653508">
        <ele>126</ele>
        <time>2017-11-26T11:22:35Z</time>
      </trkpt>
      <trkpt lat="62.637857814665" lon="17.865467566609">
        <ele>126</ele>
        <time>2017-11-26T11:22:36Z</time>
      </trkpt>
      <trkpt lat="62.637861418882" lon="17.865523976796">
        <ele>126</ele>
        <time>2017-11-26T11:22:37Z</time>
      </trkpt>
      <trkpt lat="62.637864436366" lon="17.865569406694">
        <ele>126</ele>
        <time>2017-11-26T11:22:38Z</time>
      </trkpt>
      <trkpt lat="62.637867370031" lon="17.865618189352">
        <ele>126</ele>
        <time>2017-11-26T11:22:39Z</time>
      </trkpt>
      <trkpt lat="62.637867202393" lon="17.865673928987">
        <ele>126</ele>
        <time>2017-11-26T11:22:40Z</time>
      </trkpt>
      <trkpt lat="62.637868711135" lon="17.865714245926">
        <ele>126</ele>
        <time>2017-11-26T11:22:41Z</time>
      </trkpt>
      <trkpt lat="62.637869465506" lon="17.865776523443">
        <ele>126</ele>
        <time>2017-11-26T11:22:42Z</time>
      </trkpt>
      <trkpt lat="62.637868543497" lon="17.865824300273">
        <ele>126</ele>
        <time>2017-11-26T11:22:43Z</time>
      </trkpt>
      <trkpt lat="62.637869046411" lon="17.865868640524">
        <ele>126</ele>
        <time>2017-11-26T11:22:44Z</time>
      </trkpt>
      <trkpt lat="62.637867621488" lon="17.865930750403">
        <ele>126</ele>
        <time>2017-11-26T11:22:45Z</time>
      </trkpt>
      <trkpt lat="62.63786829204" lon="17.865975677387">
        <ele>126</ele>
        <time>2017-11-26T11:22:46Z</time>
      </trkpt>
      <trkpt lat="62.637866783298" lon="17.866022783665">
        <ele>126</ele>
        <time>2017-11-26T11:22:47Z</time>
      </trkpt>
      <trkpt lat="62.637866448022" lon="17.866080702594">
        <ele>126</ele>
        <time>2017-11-26T11:22:48Z</time>
      </trkpt>
      <trkpt lat="62.637865526013" lon="17.866122192999">
        <ele>126</ele>
        <time>2017-11-26T11:22:49Z</time>
      </trkpt>
      <trkpt lat="62.637863849633" lon="17.866180531023">
        <ele>126</ele>
        <time>2017-11-26T11:22:50Z</time>
      </trkpt>
      <trkpt lat="62.637863179081" lon="17.866227050568">
        <ele>126</ele>
        <time>2017-11-26T11:22:51Z</time>
      </trkpt>
      <trkpt lat="62.637861083606" lon="17.866279772719">
        <ele>126</ele>
        <time>2017-11-26T11:22:52Z</time>
      </trkpt>
      <trkpt lat="62.637857479389" lon="17.866329812662">
        <ele>126</ele>
        <time>2017-11-26T11:22:53Z</time>
      </trkpt>
      <trkpt lat="62.637855300095" lon="17.866376248388">
        <ele>126</ele>
        <time>2017-11-26T11:22:54Z</time>
      </trkpt>
      <trkpt lat="62.637851947335" lon="17.866436262792">
        <ele>126.2</ele>
        <time>2017-11-26T11:22:55Z</time>
      </trkpt>
      <trkpt lat="62.637850857688" lon="17.866491331875">
        <ele>126.2</ele>
        <time>2017-11-26T11:22:56Z</time>
      </trkpt>
      <trkpt lat="62.637850270955" lon="17.866537767601">
        <ele>126.2</ele>
        <time>2017-11-26T11:22:57Z</time>
      </trkpt>
      <trkpt lat="62.637847924023" lon="17.866592249951">
        <ele>126.2</ele>
        <time>2017-11-26T11:22:58Z</time>
      </trkpt>
      <trkpt lat="62.63784733729" lon="17.866632315433">
        <ele>126.2</ele>
        <time>2017-11-26T11:22:59Z</time>
      </trkpt>
      <trkpt lat="62.637843397797" lon="17.866693838579">
        <ele>126.2</ele>
        <time>2017-11-26T11:23:00Z</time>
      </trkpt>
      <trkpt lat="62.637839123028" lon="17.866751673689">
        <ele>126.4</ele>
        <time>2017-11-26T11:23:01Z</time>
      </trkpt>
      <trkpt lat="62.637837781924" lon="17.866804563478">
        <ele>126.4</ele>
        <time>2017-11-26T11:23:02Z</time>
      </trkpt>
      <trkpt lat="62.637830992585" lon="17.866857872362">
        <ele>126.4</ele>
        <time>2017-11-26T11:23:03Z</time>
      </trkpt>
      <trkpt lat="62.637827053092" lon="17.866906319744">
        <ele>126.4</ele>
        <time>2017-11-26T11:23:04Z</time>
      </trkpt>
      <trkpt lat="62.637822862142" lon="17.866952671651">
        <ele>126.4</ele>
        <time>2017-11-26T11:23:05Z</time>
      </trkpt>
      <trkpt lat="62.637815821346" lon="17.867014446254">
        <ele>126.2</ele>
        <time>2017-11-26T11:23:06Z</time>
      </trkpt>
      <trkpt lat="62.637809534921" lon="17.867063228912">
        <ele>126.2</ele>
        <time>2017-11-26T11:23:07Z</time>
      </trkpt>
      <trkpt lat="62.637802829401" lon="17.867112598303">
        <ele>126.2</ele>
        <time>2017-11-26T11:23:08Z</time>
      </trkpt>
      <trkpt lat="62.637795620967" lon="17.867157692925">
        <ele>126.2</ele>
        <time>2017-11-26T11:23:09Z</time>
      </trkpt>
      <trkpt lat="62.637789166904" lon="17.867203625737">
        <ele>126.2</ele>
        <time>2017-11-26T11:23:10Z</time>
      </trkpt>
      <trkpt lat="62.637781455556" lon="17.867251737843">
        <ele>126.2</ele>
        <time>2017-11-26T11:23:11Z</time>
      </trkpt>
      <trkpt lat="62.637768463611" lon="17.867302951252">
        <ele>126.2</ele>
        <time>2017-11-26T11:23:12Z</time>
      </trkpt>
      <trkpt lat="62.637760752263" lon="17.86735173391">
        <ele>126.2</ele>
        <time>2017-11-26T11:23:13Z</time>
      </trkpt>
      <trkpt lat="62.637751113078" lon="17.867395068333">
        <ele>126.2</ele>
        <time>2017-11-26T11:23:14Z</time>
      </trkpt>
      <trkpt lat="62.637738288771" lon="17.867446868475">
        <ele>126.2</ele>
        <time>2017-11-26T11:23:15Z</time>
      </trkpt>
      <trkpt lat="62.637728062853" lon="17.867490370536">
        <ele>126.2</ele>
        <time>2017-11-26T11:23:16Z</time>
      </trkpt>
      <trkpt lat="62.637714567994" lon="17.867530016923">
        <ele>126.4</ele>
        <time>2017-11-26T11:23:17Z</time>
      </trkpt>
      <trkpt lat="62.637705264085" lon="17.867575614459">
        <ele>126.4</ele>
        <time>2017-11-26T11:23:18Z</time>
      </trkpt>
      <trkpt lat="62.637696043995" lon="17.867615512303">
        <ele>126.2</ele>
        <time>2017-11-26T11:23:19Z</time>
      </trkpt>
      <trkpt lat="62.637683303507" lon="17.867661109839">
        <ele>126.2</ele>
        <time>2017-11-26T11:23:20Z</time>
      </trkpt>
      <trkpt lat="62.637674167236" lon="17.867695643267">
        <ele>126.2</ele>
        <time>2017-11-26T11:23:21Z</time>
      </trkpt>
      <trkpt lat="62.637658073988" lon="17.867749287427">
        <ele>126</ele>
        <time>2017-11-26T11:23:22Z</time>
      </trkpt>
      <trkpt lat="62.637643238025" lon="17.867788514719">
        <ele>126</ele>
        <time>2017-11-26T11:23:23Z</time>
      </trkpt>
      <trkpt lat="62.637628988795" lon="17.867828077287">
        <ele>126</ele>
        <time>2017-11-26T11:23:24Z</time>
      </trkpt>
      <trkpt lat="62.637611051529" lon="17.867883314008">
        <ele>126</ele>
        <time>2017-11-26T11:23:25Z</time>
      </trkpt>
      <trkpt lat="62.637597808127" lon="17.867923128033">
        <ele>126</ele>
        <time>2017-11-26T11:23:26Z</time>
      </trkpt>
      <trkpt lat="62.637582553069" lon="17.867963025877">
        <ele>126</ele>
        <time>2017-11-26T11:23:27Z</time>
      </trkpt>
      <trkpt lat="62.637564783441" lon="17.867998397495">
        <ele>125.8</ele>
        <time>2017-11-26T11:23:28Z</time>
      </trkpt>
      <trkpt lat="62.637552797324" lon="17.868027063593">
        <ele>125.8</ele>
        <time>2017-11-26T11:23:29Z</time>
      </trkpt>
      <trkpt lat="62.637533099859" lon="17.86807090093">
        <ele>125.8</ele>
        <time>2017-11-26T11:23:30Z</time>
      </trkpt>
      <trkpt lat="62.637517341887" lon="17.868104093254">
        <ele>125.6</ele>
        <time>2017-11-26T11:23:31Z</time>
      </trkpt>
      <trkpt lat="62.637502086829" lon="17.868139297234">
        <ele>125.6</ele>
        <time>2017-11-26T11:23:32Z</time>
      </trkpt>
      <trkpt lat="62.637486664133" lon="17.868177099603">
        <ele>125.6</ele>
        <time>2017-11-26T11:23:33Z</time>
      </trkpt>
      <trkpt lat="62.637470738523" lon="17.868208615547">
        <ele>125.6</ele>
        <time>2017-11-26T11:23:34Z</time>
      </trkpt>
      <trkpt lat="62.637453220352" lon="17.868244238622">
        <ele>125.4</ele>
        <time>2017-11-26T11:23:35Z</time>
      </trkpt>
      <trkpt lat="62.637433355249" lon="17.868278688231">
        <ele>125.4</ele>
        <time>2017-11-26T11:23:36Z</time>
      </trkpt>
      <trkpt lat="62.637412568137" lon="17.868322190292">
        <ele>125.4</ele>
        <time>2017-11-26T11:23:37Z</time>
      </trkpt>
      <trkpt lat="62.637398151269" lon="17.868352197494">
        <ele>125.4</ele>
        <time>2017-11-26T11:23:38Z</time>
      </trkpt>
      <trkpt lat="62.637380549279" lon="17.868383210524">
        <ele>125.4</ele>
        <time>2017-11-26T11:23:39Z</time>
      </trkpt>
      <trkpt lat="62.637361773823" lon="17.868419001237">
        <ele>125.4</ele>
        <time>2017-11-26T11:23:40Z</time>
      </trkpt>
      <trkpt lat="62.637344171833" lon="17.868446326231">
        <ele>125.4</ele>
        <time>2017-11-26T11:23:41Z</time>
      </trkpt>
      <trkpt lat="62.637322881807" lon="17.86848496679">
        <ele>125.2</ele>
        <time>2017-11-26T11:23:42Z</time>
      </trkpt>
      <trkpt lat="62.637305279817" lon="17.868518242933">
        <ele>125.2</ele>
        <time>2017-11-26T11:23:43Z</time>
      </trkpt>
      <trkpt lat="62.637290443854" lon="17.86854866923">
        <ele>125.2</ele>
        <time>2017-11-26T11:23:44Z</time>
      </trkpt>
      <trkpt lat="62.637270075837" lon="17.8685847114">
        <ele>125.2</ele>
        <time>2017-11-26T11:23:45Z</time>
      </trkpt>
      <trkpt lat="62.637252306209" lon="17.868622262312">
        <ele>125</ele>
        <time>2017-11-26T11:23:46Z</time>
      </trkpt>
      <trkpt lat="62.637233446934" lon="17.868651347505">
        <ele>125.2</ele>
        <time>2017-11-26T11:23:47Z</time>
      </trkpt>
      <trkpt lat="62.637213749469" lon="17.868678923956">
        <ele>125.2</ele>
        <time>2017-11-26T11:23:48Z</time>
      </trkpt>
      <trkpt lat="62.63719941642" lon="17.868703818199">
        <ele>125.2</ele>
        <time>2017-11-26T11:23:49Z</time>
      </trkpt>
      <trkpt lat="62.637179383679" lon="17.868739357455">
        <ele>125.2</ele>
        <time>2017-11-26T11:23:50Z</time>
      </trkpt>
      <trkpt lat="62.63716588882" lon="17.86876576044">
        <ele>125.2</ele>
        <time>2017-11-26T11:23:51Z</time>
      </trkpt>
      <trkpt lat="62.637143425328" lon="17.868808675768">
        <ele>125</ele>
        <time>2017-11-26T11:23:52Z</time>
      </trkpt>
      <trkpt lat="62.637123811682" lon="17.868835665486">
        <ele>125</ele>
        <time>2017-11-26T11:23:53Z</time>
      </trkpt>
      <trkpt lat="62.637107969891" lon="17.868862739023">
        <ele>125</ele>
        <time>2017-11-26T11:23:54Z</time>
      </trkpt>
      <trkpt lat="62.637086931322" lon="17.868896434261">
        <ele>125.2</ele>
        <time>2017-11-26T11:23:55Z</time>
      </trkpt>
      <trkpt lat="62.637068491142" lon="17.868927195834">
        <ele>125.2</ele>
        <time>2017-11-26T11:23:56Z</time>
      </trkpt>
      <trkpt lat="62.637049967143" lon="17.868958376502">
        <ele>125.2</ele>
        <time>2017-11-26T11:23:57Z</time>
      </trkpt>
      <trkpt lat="62.637029850583" lon="17.868979247433">
        <ele>125.2</ele>
        <time>2017-11-26T11:23:58Z</time>
      </trkpt>
      <trkpt lat="62.637015098439" lon="17.869002716753">
        <ele>125.2</ele>
        <time>2017-11-26T11:23:59Z</time>
      </trkpt>
      <trkpt lat="62.636995652431" lon="17.869034232697">
        <ele>125.4</ele>
        <time>2017-11-26T11:24:00Z</time>
      </trkpt>
      <trkpt lat="62.636976206423" lon="17.869070693962">
        <ele>125.4</ele>
        <time>2017-11-26T11:24:01Z</time>
      </trkpt>
      <trkpt lat="62.63695969408" lon="17.869102461363">
        <ele>125.4</ele>
        <time>2017-11-26T11:24:02Z</time>
      </trkpt>
      <trkpt lat="62.636942343547" lon="17.869123499932">
        <ele>125.4</ele>
        <time>2017-11-26T11:24:03Z</time>
      </trkpt>
      <trkpt lat="62.636924909195" lon="17.869146717795">
        <ele>125.6</ele>
        <time>2017-11-26T11:24:04Z</time>
      </trkpt>
      <trkpt lat="62.636910995241" lon="17.869171025305">
        <ele>125.6</ele>
        <time>2017-11-26T11:24:05Z</time>
      </trkpt>
      <trkpt lat="62.636890040491" lon="17.869208576217">
        <ele>125.4</ele>
        <time>2017-11-26T11:24:06Z</time>
      </trkpt>
      <trkpt lat="62.636870510664" lon="17.869239673066">
        <ele>125.6</ele>
        <time>2017-11-26T11:24:07Z</time>
      </trkpt>
      <trkpt lat="62.636858105452" lon="17.869258867617">
        <ele>125.6</ele>
        <time>2017-11-26T11:24:08Z</time>
      </trkpt>
      <trkpt lat="62.636839749091" lon="17.869288791">
        <ele>125.6</ele>
        <time>2017-11-26T11:24:09Z</time>
      </trkpt>
      <trkpt lat="62.636822985291" lon="17.869317038003">
        <ele>125.6</ele>
        <time>2017-11-26T11:24:10Z</time>
      </trkpt>
      <trkpt lat="62.63680546712" lon="17.869336735468">
        <ele>125.8</ele>
        <time>2017-11-26T11:24:11Z</time>
      </trkpt>
      <trkpt lat="62.636785182922" lon="17.869370598344">
        <ele>125.8</ele>
        <time>2017-11-26T11:24:12Z</time>
      </trkpt>
      <trkpt lat="62.636768754398" lon="17.869405467048">
        <ele>126</ele>
        <time>2017-11-26T11:24:13Z</time>
      </trkpt>
      <trkpt lat="62.63675266115" lon="17.86943295968">
        <ele>126</ele>
        <time>2017-11-26T11:24:14Z</time>
      </trkpt>
      <trkpt lat="62.636731874038" lon="17.869468079841">
        <ele>126</ele>
        <time>2017-11-26T11:24:15Z</time>
      </trkpt>
      <trkpt lat="62.636717960084" lon="17.869496829758">
        <ele>126.2</ele>
        <time>2017-11-26T11:24:16Z</time>
      </trkpt>
      <trkpt lat="62.636701112465" lon="17.869521137268">
        <ele>126.2</ele>
        <time>2017-11-26T11:24:17Z</time>
      </trkpt>
      <trkpt lat="62.636682588466" lon="17.869551647384">
        <ele>126.4</ele>
        <time>2017-11-26T11:24:18Z</time>
      </trkpt>
      <trkpt lat="62.636666746675" lon="17.869590455581">
        <ele>126.4</ele>
        <time>2017-11-26T11:24:19Z</time>
      </trkpt>
      <trkpt lat="62.63664453464" lon="17.869630521063">
        <ele>126.4</ele>
        <time>2017-11-26T11:24:20Z</time>
      </trkpt>
      <trkpt lat="62.636628860487" lon="17.869660444446">
        <ele>126.6</ele>
        <time>2017-11-26T11:24:21Z</time>
      </trkpt>
      <trkpt lat="62.636609582117" lon="17.869696738073">
        <ele>126.8</ele>
        <time>2017-11-26T11:24:22Z</time>
      </trkpt>
      <trkpt lat="62.636592231584" lon="17.869726158542">
        <ele>126.8</ele>
        <time>2017-11-26T11:24:23Z</time>
      </trkpt>
      <trkpt lat="62.63657831763" lon="17.869755830468">
        <ele>127</ele>
        <time>2017-11-26T11:24:24Z</time>
      </trkpt>
      <trkpt lat="62.636557111423" lon="17.869796398864">
        <ele>127</ele>
        <time>2017-11-26T11:24:25Z</time>
      </trkpt>
      <trkpt lat="62.63654143727" lon="17.869826741342">
        <ele>127.2</ele>
        <time>2017-11-26T11:24:26Z</time>
      </trkpt>
      <trkpt lat="62.636527439497" lon="17.86985708382">
        <ele>127.2</ele>
        <time>2017-11-26T11:24:27Z</time>
      </trkpt>
      <trkpt lat="62.636509837507" lon="17.869890695239">
        <ele>127.4</ele>
        <time>2017-11-26T11:24:28Z</time>
      </trkpt>
      <trkpt lat="62.636497432295" lon="17.86991575712">
        <ele>127.4</ele>
        <time>2017-11-26T11:24:29Z</time>
      </trkpt>
      <trkpt lat="62.636480081762" lon="17.869952469842">
        <ele>127.6</ele>
        <time>2017-11-26T11:24:30Z</time>
      </trkpt>
      <trkpt lat="62.63646432379" lon="17.869982393225">
        <ele>127.6</ele>
        <time>2017-11-26T11:24:31Z</time>
      </trkpt>
      <trkpt lat="62.63645007456" lon="17.870019022128">
        <ele>127.8</ele>
        <time>2017-11-26T11:24:32Z</time>
      </trkpt>
      <trkpt lat="62.636435573873" lon="17.870057746506">
        <ele>127.8</ele>
        <time>2017-11-26T11:24:33Z</time>
      </trkpt>
      <trkpt lat="62.636419983539" lon="17.870087334613">
        <ele>128</ele>
        <time>2017-11-26T11:24:34Z</time>
      </trkpt>
      <trkpt lat="62.636407494508" lon="17.87012530462">
        <ele>128.2</ele>
        <time>2017-11-26T11:24:35Z</time>
      </trkpt>
      <trkpt lat="62.636394334925" lon="17.870162436437">
        <ele>128.4</ele>
        <time>2017-11-26T11:24:36Z</time>
      </trkpt>
      <trkpt lat="62.636379247505" lon="17.87019822715">
        <ele>128.6</ele>
        <time>2017-11-26T11:24:37Z</time>
      </trkpt>
      <trkpt lat="62.636368351035" lon="17.870229826913">
        <ele>128.8</ele>
        <time>2017-11-26T11:24:38Z</time>
      </trkpt>
      <trkpt lat="62.636357454565" lon="17.870259834115">
        <ele>129</ele>
        <time>2017-11-26T11:24:39Z</time>
      </trkpt>
      <trkpt lat="62.636343456792" lon="17.870295205733">
        <ele>129.2</ele>
        <time>2017-11-26T11:24:40Z</time>
      </trkpt>
      <trkpt lat="62.636333063236" lon="17.87032395565">
        <ele>129.4</ele>
        <time>2017-11-26T11:24:41Z</time>
      </trkpt>
      <trkpt lat="62.636317221445" lon="17.870363434399">
        <ele>129.6</ele>
        <time>2017-11-26T11:24:42Z</time>
      </trkpt>
      <trkpt lat="62.636304732414" lon="17.870398638379">
        <ele>129.8</ele>
        <time>2017-11-26T11:24:43Z</time>
      </trkpt>
      <trkpt lat="62.636294003582" lon="17.870432668893">
        <ele>129.8</ele>
        <time>2017-11-26T11:24:44Z</time>
      </trkpt>
      <trkpt lat="62.6362790838" lon="17.870471560909">
        <ele>130</ele>
        <time>2017-11-26T11:24:45Z</time>
      </trkpt>
      <trkpt lat="62.636267432959" lon="17.87050751926">
        <ele>130.4</ele>
        <time>2017-11-26T11:24:46Z</time>
      </trkpt>
      <trkpt lat="62.636257207041" lon="17.870541214498">
        <ele>130.4</ele>
        <time>2017-11-26T11:24:47Z</time>
      </trkpt>
      <trkpt lat="62.6362455562" lon="17.870574406822">
        <ele>130.6</ele>
        <time>2017-11-26T11:24:48Z</time>
      </trkpt>
      <trkpt lat="62.63623382154" lon="17.870616232503">
        <ele>130.6</ele>
        <time>2017-11-26T11:24:49Z</time>
      </trkpt>
      <trkpt lat="62.636221500147" lon="17.870659566926">
        <ele>131</ele>
        <time>2017-11-26T11:24:50Z</time>
      </trkpt>
      <trkpt lat="62.636211274229" lon="17.870696782562">
        <ele>131.2</ele>
        <time>2017-11-26T11:24:51Z</time>
      </trkpt>
      <trkpt lat="62.636201383587" lon="17.870737518596">
        <ele>131.2</ele>
        <time>2017-11-26T11:24:52Z</time>
      </trkpt>
      <trkpt lat="62.636195097162" lon="17.870760485002">
        <ele>131.4</ele>
        <time>2017-11-26T11:24:53Z</time>
      </trkpt>
      <trkpt lat="62.636180093561" lon="17.870814380619">
        <ele>131.4</ele>
        <time>2017-11-26T11:24:54Z</time>
      </trkpt>
      <trkpt lat="62.636170538195" lon="17.870860229612">
        <ele>131.6</ele>
        <time>2017-11-26T11:24:55Z</time>
      </trkpt>
      <trkpt lat="62.636158300621" lon="17.870905743329">
        <ele>131.8</ele>
        <time>2017-11-26T11:24:56Z</time>
      </trkpt>
      <trkpt lat="62.636150170178" lon="17.870946311725">
        <ele>132.2</ele>
        <time>2017-11-26T11:24:57Z</time>
      </trkpt>
      <trkpt lat="62.636142291192" lon="17.87098612575">
        <ele>132.4</ele>
        <time>2017-11-26T11:24:58Z</time>
      </trkpt>
      <trkpt lat="62.636132819645" lon="17.871021832644">
        <ele>132.6</ele>
        <time>2017-11-26T11:24:59Z</time>
      </trkpt>
      <trkpt lat="62.636122929003" lon="17.87106407742">
        <ele>132.8</ele>
        <time>2017-11-26T11:25:00Z</time>
      </trkpt>
      <trkpt lat="62.636113457456" lon="17.871107076567">
        <ele>133</ele>
        <time>2017-11-26T11:25:01Z</time>
      </trkpt>
      <trkpt lat="62.636101052244" lon="17.871149908076">
        <ele>133</ele>
        <time>2017-11-26T11:25:02Z</time>
      </trkpt>
      <trkpt lat="62.636093424715" lon="17.871187626626">
        <ele>133.2</ele>
        <time>2017-11-26T11:25:03Z</time>
      </trkpt>
      <trkpt lat="62.636082779702" lon="17.871229368488">
        <ele>133.4</ele>
        <time>2017-11-26T11:25:04Z</time>
      </trkpt>
      <trkpt lat="62.636073308155" lon="17.871272032359">
        <ele>133.4</ele>
        <time>2017-11-26T11:25:05Z</time>
      </trkpt>
      <trkpt lat="62.63606366897" lon="17.871312433117">
        <ele>133.6</ele>
        <time>2017-11-26T11:25:06Z</time>
      </trkpt>
      <trkpt lat="62.636050928482" lon="17.871358701205">
        <ele>133.8</ele>
        <time>2017-11-26T11:25:07Z</time>
      </trkpt>
      <trkpt lat="62.636041959849" lon="17.871395581565">
        <ele>133.8</ele>
        <time>2017-11-26T11:25:08Z</time>
      </trkpt>
      <trkpt lat="62.636033158854" lon="17.871430450269">
        <ele>134</ele>
        <time>2017-11-26T11:25:09Z</time>
      </trkpt>
      <trkpt lat="62.636021591832" lon="17.871477137452">
        <ele>134</ele>
        <time>2017-11-26T11:25:10Z</time>
      </trkpt>
      <trkpt lat="62.636013964303" lon="17.87150747993">
        <ele>134.2</ele>
        <time>2017-11-26T11:25:11Z</time>
      </trkpt>
      <trkpt lat="62.636003486928" lon="17.871550814353">
        <ele>134.2</ele>
        <time>2017-11-26T11:25:12Z</time>
      </trkpt>
      <trkpt lat="62.635991249354" lon="17.871594232595">
        <ele>134.4</ele>
        <time>2017-11-26T11:25:13Z</time>
      </trkpt>
      <trkpt lat="62.635984627653" lon="17.871625161806">
        <ele>134.4</ele>
        <time>2017-11-26T11:25:14Z</time>
      </trkpt>
      <trkpt lat="62.635972557717" lon="17.871671597532">
        <ele>134.6</ele>
        <time>2017-11-26T11:25:15Z</time>
      </trkpt>
      <trkpt lat="62.635962164161" lon="17.87171032191">
        <ele>134.8</ele>
        <time>2017-11-26T11:25:16Z</time>
      </trkpt>
      <trkpt lat="62.63595554246" lon="17.87174133494">
        <ele>135.2</ele>
        <time>2017-11-26T11:25:17Z</time>
      </trkpt>
      <trkpt lat="62.635944226895" lon="17.871791039607">
        <ele>135.4</ele>
        <time>2017-11-26T11:25:18Z</time>
      </trkpt>
      <trkpt lat="62.635934755348" lon="17.87182766851">
        <ele>135.4</ele>
        <time>2017-11-26T11:25:19Z</time>
      </trkpt>
      <trkpt lat="62.635924780887" lon="17.871875864435">
        <ele>135.6</ele>
        <time>2017-11-26T11:25:20Z</time>
      </trkpt>
      <trkpt lat="62.635913046227" lon="17.871916851926">
        <ele>135.8</ele>
        <time>2017-11-26T11:25:21Z</time>
      </trkpt>
      <trkpt lat="62.63590608925" lon="17.871954402838">
        <ele>136</ele>
        <time>2017-11-26T11:25:22Z</time>
      </trkpt>
      <trkpt lat="62.635894438409" lon="17.871997569623">
        <ele>136</ele>
        <time>2017-11-26T11:25:23Z</time>
      </trkpt>
      <trkpt lat="62.63588178174" lon="17.872040065856">
        <ele>136</ele>
        <time>2017-11-26T11:25:24Z</time>
      </trkpt>
      <trkpt lat="62.635872813107" lon="17.872084741383">
        <ele>136.2</ele>
        <time>2017-11-26T11:25:25Z</time>
      </trkpt>
      <trkpt lat="62.635861329904" lon="17.872128746358">
        <ele>136.4</ele>
        <time>2017-11-26T11:25:26Z</time>
      </trkpt>
      <trkpt lat="62.635850098158" lon="17.872167554555">
        <ele>136.4</ele>
        <time>2017-11-26T11:25:27Z</time>
      </trkpt>
      <trkpt lat="62.635842889724" lon="17.872203848182">
        <ele>136.6</ele>
        <time>2017-11-26T11:25:28Z</time>
      </trkpt>
      <trkpt lat="62.635833334358" lon="17.872242069646">
        <ele>136.6</ele>
        <time>2017-11-26T11:25:29Z</time>
      </trkpt>
      <trkpt lat="62.635820761508" lon="17.872293115417">
        <ele>136.8</ele>
        <time>2017-11-26T11:25:30Z</time>
      </trkpt>
      <trkpt lat="62.635811541418" lon="17.872335108736">
        <ele>136.8</ele>
        <time>2017-11-26T11:25:31Z</time>
      </trkpt>
      <trkpt lat="62.635798717111" lon="17.872383053204">
        <ele>137</ele>
        <time>2017-11-26T11:25:32Z</time>
      </trkpt>
      <trkpt lat="62.635790670487" lon="17.872422951048">
        <ele>137</ele>
        <time>2017-11-26T11:25:33Z</time>
      </trkpt>
      <trkpt lat="62.635781115121" lon="17.872462262159">
        <ele>137.2</ele>
        <time>2017-11-26T11:25:34Z</time>
      </trkpt>
      <trkpt lat="62.635768877547" lon="17.872508027333">
        <ele>137.4</ele>
        <time>2017-11-26T11:25:35Z</time>
      </trkpt>
      <trkpt lat="62.635758400172" lon="17.872548260453">
        <ele>137.4</ele>
        <time>2017-11-26T11:25:36Z</time>
      </trkpt>
      <trkpt lat="62.635747168426" lon="17.872597462206">
        <ele>137.6</ele>
        <time>2017-11-26T11:25:37Z</time>
      </trkpt>
      <trkpt lat="62.635734679395" lon="17.872644819941">
        <ele>137.8</ele>
        <time>2017-11-26T11:25:38Z</time>
      </trkpt>
      <trkpt lat="62.6357258784" lon="17.872682119396">
        <ele>137.8</ele>
        <time>2017-11-26T11:25:39Z</time>
      </trkpt>
      <trkpt lat="62.635715903939" lon="17.872736769384">
        <ele>138</ele>
        <time>2017-11-26T11:25:40Z</time>
      </trkpt>
      <trkpt lat="62.635705007469" lon="17.872779097979">
        <ele>138</ele>
        <time>2017-11-26T11:25:41Z</time>
      </trkpt>
      <trkpt lat="62.635694446275" lon="17.872826874809">
        <ele>138.2</ele>
        <time>2017-11-26T11:25:42Z</time>
      </trkpt>
      <trkpt lat="62.635682963072" lon="17.872873226716">
        <ele>138.2</ele>
        <time>2017-11-26T11:25:43Z</time>
      </trkpt>
      <trkpt lat="62.635672485697" lon="17.872914298026">
        <ele>138.2</ele>
        <time>2017-11-26T11:25:44Z</time>
      </trkpt>
      <trkpt lat="62.635662511236" lon="17.872960482295">
        <ele>138.2</ele>
        <time>2017-11-26T11:25:45Z</time>
      </trkpt>
      <trkpt lat="62.635652369137" lon="17.873009767867">
        <ele>138.2</ele>
        <time>2017-11-26T11:25:46Z</time>
      </trkpt>
      <trkpt lat="62.635640885934" lon="17.873049665711">
        <ele>138.4</ele>
        <time>2017-11-26T11:25:47Z</time>
      </trkpt>
      <trkpt lat="62.63562864836" lon="17.873098783645">
        <ele>138.4</ele>
        <time>2017-11-26T11:25:48Z</time>
      </trkpt>
      <trkpt lat="62.635616997519" lon="17.87314195043">
        <ele>138.4</ele>
        <time>2017-11-26T11:25:49Z</time>
      </trkpt>
      <trkpt lat="62.635604173212" lon="17.873192744744">
        <ele>138.6</ele>
        <time>2017-11-26T11:25:50Z</time>
      </trkpt>
      <trkpt lat="62.63559595895" lon="17.873234738063">
        <ele>138.6</ele>
        <time>2017-11-26T11:25:51Z</time>
      </trkpt>
      <trkpt lat="62.635582464091" lon="17.873289220413">
        <ele>138.6</ele>
        <time>2017-11-26T11:25:52Z</time>
      </trkpt>
      <trkpt lat="62.635572908725" lon="17.873325933135">
        <ele>138.8</ele>
        <time>2017-11-26T11:25:53Z</time>
      </trkpt>
      <trkpt lat="62.635562012255" lon="17.873369267558">
        <ele>138.8</ele>
        <time>2017-11-26T11:25:54Z</time>
      </trkpt>
      <trkpt lat="62.635547511568" lon="17.873422324985">
        <ele>139</ele>
        <time>2017-11-26T11:25:55Z</time>
      </trkpt>
      <trkpt lat="62.635536866555" lon="17.87346465358">
        <ele>139</ele>
        <time>2017-11-26T11:25:56Z</time>
      </trkpt>
      <trkpt lat="62.635527478827" lon="17.873511089306">
        <ele>139.2</ele>
        <time>2017-11-26T11:25:57Z</time>
      </trkpt>
      <trkpt lat="62.635515408891" lon="17.873555345738">
        <ele>139.2</ele>
        <time>2017-11-26T11:25:58Z</time>
      </trkpt>
      <trkpt lat="62.635508535733" lon="17.873587699872">
        <ele>139.4</ele>
        <time>2017-11-26T11:25:59Z</time>
      </trkpt>
      <trkpt lat="62.635496549616" lon="17.873638242729">
        <ele>139.4</ele>
        <time>2017-11-26T11:26:00Z</time>
      </trkpt>
      <trkpt lat="62.635486239879" lon="17.873680487505">
        <ele>139.4</ele>
        <time>2017-11-26T11:26:01Z</time>
      </trkpt>
      <trkpt lat="62.635476768332" lon="17.873719798616">
        <ele>139.6</ele>
        <time>2017-11-26T11:26:02Z</time>
      </trkpt>
      <trkpt lat="62.635465788043" lon="17.873764893238">
        <ele>139.6</ele>
        <time>2017-11-26T11:26:03Z</time>
      </trkpt>
      <trkpt lat="62.635455394487" lon="17.873804288168">
        <ele>139.6</ele>
        <time>2017-11-26T11:26:04Z</time>
      </trkpt>
      <trkpt lat="62.635448605148" lon="17.873831026429">
        <ele>139.6</ele>
        <time>2017-11-26T11:26:05Z</time>
      </trkpt>
      <trkpt lat="62.635433433909" lon="17.873888358625">
        <ele>139.6</ele>
        <time>2017-11-26T11:26:06Z</time>
      </trkpt>
      <trkpt lat="62.635421531611" lon="17.873927166822">
        <ele>139.8</ele>
        <time>2017-11-26T11:26:07Z</time>
      </trkpt>
      <trkpt lat="62.635412227702" lon="17.873966897028">
        <ele>140</ele>
        <time>2017-11-26T11:26:08Z</time>
      </trkpt>
      <trkpt lat="62.635401079775" lon="17.874006459596">
        <ele>140</ele>
        <time>2017-11-26T11:26:09Z</time>
      </trkpt>
      <trkpt lat="62.635390686219" lon="17.874043675232">
        <ele>140.2</ele>
        <time>2017-11-26T11:26:10Z</time>
      </trkpt>
      <trkpt lat="62.635382891052" lon="17.874074688262">
        <ele>140.4</ele>
        <time>2017-11-26T11:26:11Z</time>
      </trkpt>
      <trkpt lat="62.635371743125" lon="17.874116681581">
        <ele>140.4</ele>
        <time>2017-11-26T11:26:12Z</time>
      </trkpt>
      <trkpt lat="62.635365205243" lon="17.87415280757">
        <ele>140.6</ele>
        <time>2017-11-26T11:26:13Z</time>
      </trkpt>
      <trkpt lat="62.635357996809" lon="17.874188430645">
        <ele>140.8</ele>
        <time>2017-11-26T11:26:14Z</time>
      </trkpt>
      <trkpt lat="62.6353486929" lon="17.874221790607">
        <ele>140.8</ele>
        <time>2017-11-26T11:26:15Z</time>
      </trkpt>
      <trkpt lat="62.635343915217" lon="17.874251546352">
        <ele>141</ele>
        <time>2017-11-26T11:26:16Z</time>
      </trkpt>
      <trkpt lat="62.635333773118" lon="17.874283984305">
        <ele>141.2</ele>
        <time>2017-11-26T11:26:17Z</time>
      </trkpt>
      <trkpt lat="62.63532438539" lon="17.874325726167">
        <ele>141.2</ele>
        <time>2017-11-26T11:26:18Z</time>
      </trkpt>
      <trkpt lat="62.635320781173" lon="17.874356068645">
        <ele>141.2</ele>
        <time>2017-11-26T11:26:19Z</time>
      </trkpt>
      <trkpt lat="62.635311477264" lon="17.874396972317">
        <ele>141.4</ele>
        <time>2017-11-26T11:26:20Z</time>
      </trkpt>
      <trkpt lat="62.635302760088" lon="17.874431254288">
        <ele>141.4</ele>
        <time>2017-11-26T11:26:21Z</time>
      </trkpt>
      <trkpt lat="62.635294713464" lon="17.874472577055">
        <ele>141.6</ele>
        <time>2017-11-26T11:26:22Z</time>
      </trkpt>
      <trkpt lat="62.635286834478" lon="17.874506859026">
        <ele>141.8</ele>
        <time>2017-11-26T11:26:23Z</time>
      </trkpt>
      <trkpt lat="62.635279290768" lon="17.874541979187">
        <ele>141.8</ele>
        <time>2017-11-26T11:26:24Z</time>
      </trkpt>
      <trkpt lat="62.635270657411" lon="17.8745861518">
        <ele>142</ele>
        <time>2017-11-26T11:26:25Z</time>
      </trkpt>
      <trkpt lat="62.635267891384" lon="17.874623199798">
        <ele>142.2</ele>
        <time>2017-11-26T11:26:26Z</time>
      </trkpt>
      <trkpt lat="62.635257162552" lon="17.87467080899">
        <ele>142.2</ele>
        <time>2017-11-26T11:26:27Z</time>
      </trkpt>
      <trkpt lat="62.635250708489" lon="17.874700480916">
        <ele>142.4</ele>
        <time>2017-11-26T11:26:28Z</time>
      </trkpt>
      <trkpt lat="62.635241320761" lon="17.874741133131">
        <ele>142.6</ele>
        <time>2017-11-26T11:26:29Z</time>
      </trkpt>
      <trkpt lat="62.635233106499" lon="17.874783294088">
        <ele>142.8</ele>
        <time>2017-11-26T11:26:30Z</time>
      </trkpt>
      <trkpt lat="62.635228161178" lon="17.874822772837">
        <ele>143.2</ele>
        <time>2017-11-26T11:26:31Z</time>
      </trkpt>
      <trkpt lat="62.635218270536" lon="17.87486694545">
        <ele>143.4</ele>
        <time>2017-11-26T11:26:32Z</time>
      </trkpt>
      <trkpt lat="62.635211732654" lon="17.874904580181">
        <ele>143.8</ele>
        <time>2017-11-26T11:26:33Z</time>
      </trkpt>
      <trkpt lat="62.635205278591" lon="17.874942131093">
        <ele>144</ele>
        <time>2017-11-26T11:26:34Z</time>
      </trkpt>
      <trkpt lat="62.635195723225" lon="17.874984543507">
        <ele>144.2</ele>
        <time>2017-11-26T11:26:35Z</time>
      </trkpt>
      <trkpt lat="62.635188430972" lon="17.875018825478">
        <ele>144.4</ele>
        <time>2017-11-26T11:26:36Z</time>
      </trkpt>
      <trkpt lat="62.635179797615" lon="17.875056544028">
        <ele>144.6</ele>
        <time>2017-11-26T11:26:37Z</time>
      </trkpt>
      <trkpt lat="62.63517183481" lon="17.875098788804">
        <ele>144.8</ele>
        <time>2017-11-26T11:26:38Z</time>
      </trkpt>
      <trkpt lat="62.63516596748" lon="17.87513265168">
        <ele>145</ele>
        <time>2017-11-26T11:26:39Z</time>
      </trkpt>
      <trkpt lat="62.635156328295" lon="17.875178835949">
        <ele>145</ele>
        <time>2017-11-26T11:26:40Z</time>
      </trkpt>
      <trkpt lat="62.635146856748" lon="17.875217644146">
        <ele>145</ele>
        <time>2017-11-26T11:26:41Z</time>
      </trkpt>
      <trkpt lat="62.635140570323" lon="17.875257709628">
        <ele>145.2</ele>
        <time>2017-11-26T11:26:42Z</time>
      </trkpt>
      <trkpt lat="62.635132356061" lon="17.875297523653">
        <ele>145.2</ele>
        <time>2017-11-26T11:26:43Z</time>
      </trkpt>
      <trkpt lat="62.635125147627" lon="17.875340187524">
        <ele>145.4</ele>
        <time>2017-11-26T11:26:44Z</time>
      </trkpt>
      <trkpt lat="62.635113077691" lon="17.875387293802">
        <ele>145.4</ele>
        <time>2017-11-26T11:26:45Z</time>
      </trkpt>
      <trkpt lat="62.635102516497" lon="17.87543020913">
        <ele>145.6</ele>
        <time>2017-11-26T11:26:46Z</time>
      </trkpt>
      <trkpt lat="62.635091787665" lon="17.875473208277">
        <ele>145.8</ele>
        <time>2017-11-26T11:26:47Z</time>
      </trkpt>
      <trkpt lat="62.635081058833" lon="17.875517297071">
        <ele>145.8</ele>
        <time>2017-11-26T11:26:48Z</time>
      </trkpt>
      <trkpt lat="62.635069659449" lon="17.875562475512">
        <ele>146.2</ele>
        <time>2017-11-26T11:26:49Z</time>
      </trkpt>
      <trkpt lat="62.635062702472" lon="17.875605055564">
        <ele>146.4</ele>
        <time>2017-11-26T11:26:50Z</time>
      </trkpt>
      <trkpt lat="62.635054907305" lon="17.875648473806">
        <ele>146.8</ele>
        <time>2017-11-26T11:26:51Z</time>
      </trkpt>
      <trkpt lat="62.635045687215" lon="17.875698849025">
        <ele>147</ele>
        <time>2017-11-26T11:26:52Z</time>
      </trkpt>
      <trkpt lat="62.635039736066" lon="17.875735226471">
        <ele>147.2</ele>
        <time>2017-11-26T11:26:53Z</time>
      </trkpt>
      <trkpt lat="62.635030264519" lon="17.875778644713">
        <ele>147.4</ele>
        <time>2017-11-26T11:26:54Z</time>
      </trkpt>
      <trkpt lat="62.635020457696" lon="17.875822398231">
        <ele>147.6</ele>
        <time>2017-11-26T11:26:55Z</time>
      </trkpt>
      <trkpt lat="62.635010399416" lon="17.875867073758">
        <ele>147.6</ele>
        <time>2017-11-26T11:26:56Z</time>
      </trkpt>
      <trkpt lat="62.635000592593" lon="17.875910408181">
        <ele>147.8</ele>
        <time>2017-11-26T11:26:57Z</time>
      </trkpt>
      <trkpt lat="62.634994389987" lon="17.875953742604">
        <ele>148</ele>
        <time>2017-11-26T11:26:58Z</time>
      </trkpt>
      <trkpt lat="62.634987684467" lon="17.875990790602">
        <ele>148</ele>
        <time>2017-11-26T11:26:59Z</time>
      </trkpt>
      <trkpt lat="62.634975782169" lon="17.876043428934">
        <ele>148.2</ele>
        <time>2017-11-26T11:27:00Z</time>
      </trkpt>
      <trkpt lat="62.634966981174" lon="17.876083242959">
        <ele>148.2</ele>
        <time>2017-11-26T11:27:01Z</time>
      </trkpt>
      <trkpt lat="62.634958012541" lon="17.876121967337">
        <ele>148.4</ele>
        <time>2017-11-26T11:27:02Z</time>
      </trkpt>
      <trkpt lat="62.634947618985" lon="17.876160356439">
        <ele>148.6</ele>
        <time>2017-11-26T11:27:03Z</time>
      </trkpt>
      <trkpt lat="62.63493965618" lon="17.876198577903">
        <ele>148.6</ele>
        <time>2017-11-26T11:27:04Z</time>
      </trkpt>
      <trkpt lat="62.634929178805" lon="17.876236715548">
        <ele>148.8</ele>
        <time>2017-11-26T11:27:05Z</time>
      </trkpt>
      <trkpt lat="62.634920210172" lon="17.876276697211">
        <ele>149</ele>
        <time>2017-11-26T11:27:06Z</time>
      </trkpt>
      <trkpt lat="62.634913420833" lon="17.876317517064">
        <ele>149.2</ele>
        <time>2017-11-26T11:27:07Z</time>
      </trkpt>
      <trkpt lat="62.634901183259" lon="17.876362108772">
        <ele>149.4</ele>
        <time>2017-11-26T11:27:08Z</time>
      </trkpt>
      <trkpt lat="62.634893052816" lon="17.876392954164">
        <ele>149.6</ele>
        <time>2017-11-26T11:27:09Z</time>
      </trkpt>
      <trkpt lat="62.634884503278" lon="17.876435282759">
        <ele>149.8</ele>
        <time>2017-11-26T11:27:10Z</time>
      </trkpt>
      <trkpt lat="62.634874947912" lon="17.876479874467">
        <ele>150</ele>
        <time>2017-11-26T11:27:11Z</time>
      </trkpt>
      <trkpt lat="62.634868661487" lon="17.876511893325">
        <ele>150.2</ele>
        <time>2017-11-26T11:27:12Z</time>
      </trkpt>
      <trkpt lat="62.634859525216" lon="17.876549025142">
        <ele>150.4</ele>
        <time>2017-11-26T11:27:13Z</time>
      </trkpt>
      <trkpt lat="62.634852316782" lon="17.87658188219">
        <ele>150.4</ele>
        <time>2017-11-26T11:27:14Z</time>
      </trkpt>
      <trkpt lat="62.634843851063" lon="17.876618930188">
        <ele>150.6</ele>
        <time>2017-11-26T11:27:15Z</time>
      </trkpt>
      <trkpt lat="62.634835888258" lon="17.876665114457">
        <ele>150.8</ele>
        <time>2017-11-26T11:27:16Z</time>
      </trkpt>
      <trkpt lat="62.634827925453" lon="17.876695540754">
        <ele>150.8</ele>
        <time>2017-11-26T11:27:17Z</time>
      </trkpt>
      <trkpt lat="62.634821303752" lon="17.876734265132">
        <ele>151</ele>
        <time>2017-11-26T11:27:18Z</time>
      </trkpt>
      <trkpt lat="62.634812586576" lon="17.876768547103">
        <ele>151</ele>
        <time>2017-11-26T11:27:19Z</time>
      </trkpt>
      <trkpt lat="62.63480135483" lon="17.876816323933">
        <ele>151.2</ele>
        <time>2017-11-26T11:27:20Z</time>
      </trkpt>
      <trkpt lat="62.634792050921" lon="17.876849935352">
        <ele>151.2</ele>
        <time>2017-11-26T11:27:21Z</time>
      </trkpt>
      <trkpt lat="62.634783249926" lon="17.87688782154">
        <ele>151.4</ele>
        <time>2017-11-26T11:27:22Z</time>
      </trkpt>
      <trkpt lat="62.63477369456" lon="17.876930736868">
        <ele>151.6</ele>
        <time>2017-11-26T11:27:23Z</time>
      </trkpt>
      <trkpt lat="62.634763217185" lon="17.87696577321">
        <ele>151.6</ele>
        <time>2017-11-26T11:27:24Z</time>
      </trkpt>
      <trkpt lat="62.63475944533" lon="17.877002905027">
        <ele>151.8</ele>
        <time>2017-11-26T11:27:25Z</time>
      </trkpt>
      <trkpt lat="62.634749135593" lon="17.877045568898">
        <ele>152</ele>
        <time>2017-11-26T11:27:26Z</time>
      </trkpt>
      <trkpt lat="62.634741927159" lon="17.877082197801">
        <ele>152</ele>
        <time>2017-11-26T11:27:27Z</time>
      </trkpt>
      <trkpt lat="62.63473178506" lon="17.877126286595">
        <ele>152.4</ele>
        <time>2017-11-26T11:27:28Z</time>
      </trkpt>
      <trkpt lat="62.634723738436" lon="17.877164005145">
        <ele>152.4</ele>
        <time>2017-11-26T11:27:29Z</time>
      </trkpt>
      <trkpt lat="62.63471502126" lon="17.877201639876">
        <ele>152.6</ele>
        <time>2017-11-26T11:27:30Z</time>
      </trkpt>
      <trkpt lat="62.63470496298" lon="17.877247069774">
        <ele>152.8</ele>
        <time>2017-11-26T11:27:31Z</time>
      </trkpt>
      <trkpt lat="62.634701023487" lon="17.877281687021">
        <ele>153</ele>
        <time>2017-11-26T11:27:32Z</time>
      </trkpt>
      <trkpt lat="62.634690462293" lon="17.8773270331">
        <ele>153.2</ele>
        <time>2017-11-26T11:27:33Z</time>
      </trkpt>
      <trkpt lat="62.63468149366" lon="17.877370870437">
        <ele>153.4</ele>
        <time>2017-11-26T11:27:34Z</time>
      </trkpt>
      <trkpt lat="62.634672860303" lon="17.877409762453">
        <ele>153.4</ele>
        <time>2017-11-26T11:27:35Z</time>
      </trkpt>
      <trkpt lat="62.634664226946" lon="17.87745359979">
        <ele>153.6</ele>
        <time>2017-11-26T11:27:36Z</time>
      </trkpt>
      <trkpt lat="62.634658946349" lon="17.877503136819">
        <ele>153.6</ele>
        <time>2017-11-26T11:27:37Z</time>
      </trkpt>
      <trkpt lat="62.634654839218" lon="17.87753909517">
        <ele>153.8</ele>
        <time>2017-11-26T11:27:38Z</time>
      </trkpt>
      <trkpt lat="62.634646457318" lon="17.877578322462">
        <ele>153.8</ele>
        <time>2017-11-26T11:27:39Z</time>
      </trkpt>
      <trkpt lat="62.634640589988" lon="17.877619058496">
        <ele>153.8</ele>
        <time>2017-11-26T11:27:40Z</time>
      </trkpt>
      <trkpt lat="62.634634052106" lon="17.877663231109">
        <ele>154</ele>
        <time>2017-11-26T11:27:41Z</time>
      </trkpt>
      <trkpt lat="62.634628268595" lon="17.877708577188">
        <ele>154</ele>
        <time>2017-11-26T11:27:42Z</time>
      </trkpt>
      <trkpt lat="62.634623407093" lon="17.877746044281">
        <ele>154.2</ele>
        <time>2017-11-26T11:27:43Z</time>
      </trkpt>
      <trkpt lat="62.634619216143" lon="17.877787283229">
        <ele>154.4</ele>
        <time>2017-11-26T11:27:44Z</time>
      </trkpt>
      <trkpt lat="62.634610582786" lon="17.877840089199">
        <ele>154.4</ele>
        <time>2017-11-26T11:27:45Z</time>
      </trkpt>
      <trkpt lat="62.634606643293" lon="17.877878478301">
        <ele>154.6</ele>
        <time>2017-11-26T11:27:46Z</time>
      </trkpt>
      <trkpt lat="62.634598931945" lon="17.877921058353">
        <ele>154.8</ele>
        <time>2017-11-26T11:27:47Z</time>
      </trkpt>
      <trkpt lat="62.634589963312" lon="17.877966488251">
        <ele>155</ele>
        <time>2017-11-26T11:27:48Z</time>
      </trkpt>
      <trkpt lat="62.634584347439" lon="17.878008313932">
        <ele>155.2</ele>
        <time>2017-11-26T11:27:49Z</time>
      </trkpt>
      <trkpt lat="62.634575965539" lon="17.878062461006">
        <ele>155.4</ele>
        <time>2017-11-26T11:27:50Z</time>
      </trkpt>
      <trkpt lat="62.63456833801" lon="17.8781065498">
        <ele>155.6</ele>
        <time>2017-11-26T11:27:51Z</time>
      </trkpt>
      <trkpt lat="62.634562135404" lon="17.878158685218">
        <ele>155.8</ele>
        <time>2017-11-26T11:27:52Z</time>
      </trkpt>
      <trkpt lat="62.634556770988" lon="17.878207635514">
        <ele>155.8</ele>
        <time>2017-11-26T11:27:53Z</time>
      </trkpt>
      <trkpt lat="62.634550652201" lon="17.87825155667">
        <ele>155.8</ele>
        <time>2017-11-26T11:27:54Z</time>
      </trkpt>
      <trkpt lat="62.634545036328" lon="17.878310146151">
        <ele>156</ele>
        <time>2017-11-26T11:27:55Z</time>
      </trkpt>
      <trkpt lat="62.634540007188" lon="17.87836471232">
        <ele>156</ele>
        <time>2017-11-26T11:27:56Z</time>
      </trkpt>
      <trkpt lat="62.634535061867" lon="17.878413997892">
        <ele>156</ele>
        <time>2017-11-26T11:27:57Z</time>
      </trkpt>
      <trkpt lat="62.634530284184" lon="17.87846613331">
        <ele>156.2</ele>
        <time>2017-11-26T11:27:58Z</time>
      </trkpt>
      <trkpt lat="62.634526177053" lon="17.878514077778">
        <ele>156.2</ele>
        <time>2017-11-26T11:27:59Z</time>
      </trkpt>
      <trkpt lat="62.63452307575" lon="17.878574092182">
        <ele>156.2</ele>
        <time>2017-11-26T11:28:00Z</time>
      </trkpt>
      <trkpt lat="62.634518800981" lon="17.878636621156">
        <ele>156.4</ele>
        <time>2017-11-26T11:28:01Z</time>
      </trkpt>
      <trkpt lat="62.634515112945" lon="17.878686325823">
        <ele>156.4</ele>
        <time>2017-11-26T11:28:02Z</time>
      </trkpt>
      <trkpt lat="62.634512598375" lon="17.878740389078">
        <ele>156.4</ele>
        <time>2017-11-26T11:28:03Z</time>
      </trkpt>
      <trkpt lat="62.63450882652" lon="17.878795039066">
        <ele>156.4</ele>
        <time>2017-11-26T11:28:04Z</time>
      </trkpt>
      <trkpt lat="62.634505054665" lon="17.878846587751">
        <ele>156.4</ele>
        <time>2017-11-26T11:28:05Z</time>
      </trkpt>
      <trkpt lat="62.634502204819" lon="17.878901321558">
        <ele>156.4</ele>
        <time>2017-11-26T11:28:06Z</time>
      </trkpt>
      <trkpt lat="62.634498684421" lon="17.878961587419">
        <ele>156.4</ele>
        <time>2017-11-26T11:28:07Z</time>
      </trkpt>
      <trkpt lat="62.634497594774" lon="17.879011124448">
        <ele>156.4</ele>
        <time>2017-11-26T11:28:08Z</time>
      </trkpt>
      <trkpt lat="62.634498516783" lon="17.879061667305">
        <ele>156.4</ele>
        <time>2017-11-26T11:28:09Z</time>
      </trkpt>
      <trkpt lat="62.634498013869" lon="17.879123944822">
        <ele>156.4</ele>
        <time>2017-11-26T11:28:10Z</time>
      </trkpt>
      <trkpt lat="62.634498013869" lon="17.879175074412">
        <ele>156.2</ele>
        <time>2017-11-26T11:28:11Z</time>
      </trkpt>
      <trkpt lat="62.63449793005" lon="17.87923559173">
        <ele>156.2</ele>
        <time>2017-11-26T11:28:12Z</time>
      </trkpt>
      <trkpt lat="62.634496337489" lon="17.879294181211">
        <ele>156</ele>
        <time>2017-11-26T11:28:13Z</time>
      </trkpt>
      <trkpt lat="62.634497510955" lon="17.879346651905">
        <ele>156</ele>
        <time>2017-11-26T11:28:14Z</time>
      </trkpt>
      <trkpt lat="62.634497846231" lon="17.879407001585">
        <ele>156</ele>
        <time>2017-11-26T11:28:15Z</time>
      </trkpt>
      <trkpt lat="62.634495666937" lon="17.879467937998">
        <ele>155.8</ele>
        <time>2017-11-26T11:28:16Z</time>
      </trkpt>
      <trkpt lat="62.634496337489" lon="17.879515631009">
        <ele>155.8</ele>
        <time>2017-11-26T11:28:17Z</time>
      </trkpt>
      <trkpt lat="62.634495666937" lon="17.879577992345">
        <ele>155.6</ele>
        <time>2017-11-26T11:28:18Z</time>
      </trkpt>
      <trkpt lat="62.63449290091" lon="17.879634486351">
        <ele>155.6</ele>
        <time>2017-11-26T11:28:19Z</time>
      </trkpt>
      <trkpt lat="62.634492565634" lon="17.879690142167">
        <ele>155.4</ele>
        <time>2017-11-26T11:28:20Z</time>
      </trkpt>
      <trkpt lat="62.634490637797" lon="17.879746971449">
        <ele>155.2</ele>
        <time>2017-11-26T11:28:21Z</time>
      </trkpt>
      <trkpt lat="62.63449038634" lon="17.879805728568">
        <ele>155</ele>
        <time>2017-11-26T11:28:22Z</time>
      </trkpt>
      <trkpt lat="62.634490973073" lon="17.87985249957">
        <ele>155</ele>
        <time>2017-11-26T11:28:23Z</time>
      </trkpt>
      <trkpt lat="62.634490470159" lon="17.879909831766">
        <ele>154.8</ele>
        <time>2017-11-26T11:28:24Z</time>
      </trkpt>
      <trkpt lat="62.634488877598" lon="17.87996816979">
        <ele>154.8</ele>
        <time>2017-11-26T11:28:25Z</time>
      </trkpt>
      <trkpt lat="62.634487368856" lon="17.880019383199">
        <ele>154.6</ele>
        <time>2017-11-26T11:28:26Z</time>
      </trkpt>
      <trkpt lat="62.634483261725" lon="17.880078643232">
        <ele>154.4</ele>
        <time>2017-11-26T11:28:27Z</time>
      </trkpt>
      <trkpt lat="62.634481333888" lon="17.880132874125">
        <ele>154.2</ele>
        <time>2017-11-26T11:28:28Z</time>
      </trkpt>
      <trkpt lat="62.634479825146" lon="17.880181405326">
        <ele>154.2</ele>
        <time>2017-11-26T11:28:29Z</time>
      </trkpt>
      <trkpt lat="62.634476472386" lon="17.880251561829">
        <ele>154</ele>
        <time>2017-11-26T11:28:30Z</time>
      </trkpt>
      <trkpt lat="62.634475466558" lon="17.880306547093">
        <ele>153.8</ele>
        <time>2017-11-26T11:28:31Z</time>
      </trkpt>
      <trkpt lat="62.634473287264" lon="17.880364801298">
        <ele>153.8</ele>
        <time>2017-11-26T11:28:32Z</time>
      </trkpt>
      <trkpt lat="62.634468844857" lon="17.880427246453">
        <ele>153.6</ele>
        <time>2017-11-26T11:28:33Z</time>
      </trkpt>
      <trkpt lat="62.63446440245" lon="17.880480136242">
        <ele>153.6</ele>
        <time>2017-11-26T11:28:34Z</time>
      </trkpt>
      <trkpt lat="62.6344602115" lon="17.880535037687">
        <ele>153.6</ele>
        <time>2017-11-26T11:28:35Z</time>
      </trkpt>
      <trkpt lat="62.634453673618" lon="17.880596560833">
        <ele>153.4</ele>
        <time>2017-11-26T11:28:36Z</time>
      </trkpt>
      <trkpt lat="62.634448644478" lon="17.880652300468">
        <ele>153.4</ele>
        <time>2017-11-26T11:28:37Z</time>
      </trkpt>
      <trkpt lat="62.634442022777" lon="17.88070829156">
        <ele>153.4</ele>
        <time>2017-11-26T11:28:38Z</time>
      </trkpt>
      <trkpt lat="62.634434311429" lon="17.880761684263">
        <ele>153.4</ele>
        <time>2017-11-26T11:28:39Z</time>
      </trkpt>
      <trkpt lat="62.634427689728" lon="17.880819267916">
        <ele>153.2</ele>
        <time>2017-11-26T11:28:40Z</time>
      </trkpt>
      <trkpt lat="62.634420229837" lon="17.880876348655">
        <ele>153.2</ele>
        <time>2017-11-26T11:28:41Z</time>
      </trkpt>
      <trkpt lat="62.634411261204" lon="17.880939380543">
        <ele>153.2</ele>
        <time>2017-11-26T11:28:42Z</time>
      </trkpt>
      <trkpt lat="62.634404974779" lon="17.880988666115">
        <ele>153</ele>
        <time>2017-11-26T11:28:43Z</time>
      </trkpt>
      <trkpt lat="62.634394748861" lon="17.88104943489">
        <ele>153</ele>
        <time>2017-11-26T11:28:44Z</time>
      </trkpt>
      <trkpt lat="62.634387372789" lon="17.881109114018">
        <ele>152.8</ele>
        <time>2017-11-26T11:28:45Z</time>
      </trkpt>
      <trkpt lat="62.634378404156" lon="17.881161584712">
        <ele>152.8</ele>
        <time>2017-11-26T11:28:46Z</time>
      </trkpt>
      <trkpt lat="62.634366920953" lon="17.881213301035">
        <ele>152.6</ele>
        <time>2017-11-26T11:28:47Z</time>
      </trkpt>
      <trkpt lat="62.63435711413" lon="17.881269459765">
        <ele>152.6</ele>
        <time>2017-11-26T11:28:48Z</time>
      </trkpt>
      <trkpt lat="62.634349989515" lon="17.88131849388">
        <ele>152.2</ele>
        <time>2017-11-26T11:28:49Z</time>
      </trkpt>
      <trkpt lat="62.634339093045" lon="17.881379765569">
        <ele>152.2</ele>
        <time>2017-11-26T11:28:50Z</time>
      </trkpt>
      <trkpt lat="62.634328783308" lon="17.881433912643">
        <ele>152</ele>
        <time>2017-11-26T11:28:51Z</time>
      </trkpt>
      <trkpt lat="62.634322077788" lon="17.881489568459">
        <ele>151.8</ele>
        <time>2017-11-26T11:28:52Z</time>
      </trkpt>
      <trkpt lat="62.63431017549" lon="17.881542458248">
        <ele>151.8</ele>
        <time>2017-11-26T11:28:53Z</time>
      </trkpt>
      <trkpt lat="62.634299111382" lon="17.881592162915">
        <ele>151.8</ele>
        <time>2017-11-26T11:28:54Z</time>
      </trkpt>
      <trkpt lat="62.63428586798" lon="17.881651171491">
        <ele>151.8</ele>
        <time>2017-11-26T11:28:55Z</time>
      </trkpt>
      <trkpt lat="62.634271870207" lon="17.881701379072">
        <ele>151.8</ele>
        <time>2017-11-26T11:28:56Z</time>
      </trkpt>
      <trkpt lat="62.634261141375" lon="17.881750748463">
        <ele>151.8</ele>
        <time>2017-11-26T11:28:57Z</time>
      </trkpt>
      <trkpt lat="62.634246892145" lon="17.881803722071">
        <ele>151.8</ele>
        <time>2017-11-26T11:28:58Z</time>
      </trkpt>
      <trkpt lat="62.634234067838" lon="17.881848649055">
        <ele>151.8</ele>
        <time>2017-11-26T11:28:59Z</time>
      </trkpt>
      <trkpt lat="62.634218477504" lon="17.881900700654">
        <ele>151.6</ele>
        <time>2017-11-26T11:29:00Z</time>
      </trkpt>
      <trkpt lat="62.634204228274" lon="17.881956691746">
        <ele>151.6</ele>
        <time>2017-11-26T11:29:01Z</time>
      </trkpt>
      <trkpt lat="62.634189140854" lon="17.882007066965">
        <ele>151.4</ele>
        <time>2017-11-26T11:29:02Z</time>
      </trkpt>
      <trkpt lat="62.634175394538" lon="17.882056436356">
        <ele>151.4</ele>
        <time>2017-11-26T11:29:03Z</time>
      </trkpt>
      <trkpt lat="62.634162821688" lon="17.882105386652">
        <ele>151.2</ele>
        <time>2017-11-26T11:29:04Z</time>
      </trkpt>
      <trkpt lat="62.634149410648" lon="17.882151822378">
        <ele>151</ele>
        <time>2017-11-26T11:29:05Z</time>
      </trkpt>
      <trkpt lat="62.63413834654" lon="17.88219272605">
        <ele>151</ele>
        <time>2017-11-26T11:29:06Z</time>
      </trkpt>
      <trkpt lat="62.634119235808" lon="17.882255255024">
        <ele>150.8</ele>
        <time>2017-11-26T11:29:07Z</time>
      </trkpt>
      <trkpt lat="62.634106662958" lon="17.88230671989">
        <ele>150.6</ele>
        <time>2017-11-26T11:29:08Z</time>
      </trkpt>
      <trkpt lat="62.634094509203" lon="17.882351563055">
        <ele>150.4</ele>
        <time>2017-11-26T11:29:09Z</time>
      </trkpt>
      <trkpt lat="62.634077326308" lon="17.882406632138">
        <ele>150.2</ele>
        <time>2017-11-26T11:29:10Z</time>
      </trkpt>
      <trkpt lat="62.634065088734" lon="17.882451056208">
        <ele>150.2</ele>
        <time>2017-11-26T11:29:11Z</time>
      </trkpt>
      <trkpt lat="62.634048408753" lon="17.882506376748">
        <ele>150</ele>
        <time>2017-11-26T11:29:12Z</time>
      </trkpt>
      <trkpt lat="62.63403189641" lon="17.882552393379">
        <ele>149.8</ele>
        <time>2017-11-26T11:29:13Z</time>
      </trkpt>
      <trkpt lat="62.634020664664" lon="17.882601427494">
        <ele>149.8</ele>
        <time>2017-11-26T11:29:14Z</time>
      </trkpt>
      <trkpt lat="62.634003481769" lon="17.88265959788">
        <ele>149.8</ele>
        <time>2017-11-26T11:29:15Z</time>
      </trkpt>
      <trkpt lat="62.633990741281" lon="17.882711733298">
        <ele>149.6</ele>
        <time>2017-11-26T11:29:16Z</time>
      </trkpt>
      <trkpt lat="62.63397825225" lon="17.882758588119">
        <ele>149.6</ele>
        <time>2017-11-26T11:29:17Z</time>
      </trkpt>
      <trkpt lat="62.633960985536" lon="17.882812819012">
        <ele>149.6</ele>
        <time>2017-11-26T11:29:18Z</time>
      </trkpt>
      <trkpt lat="62.633949083238" lon="17.882855901978">
        <ele>149.4</ele>
        <time>2017-11-26T11:29:19Z</time>
      </trkpt>
      <trkpt lat="62.633935588379" lon="17.882908205034">
        <ele>149.4</ele>
        <time>2017-11-26T11:29:20Z</time>
      </trkpt>
      <trkpt lat="62.633917567294" lon="17.882961597737">
        <ele>149.4</ele>
        <time>2017-11-26T11:29:21Z</time>
      </trkpt>
      <trkpt lat="62.633904407711" lon="17.88300577035">
        <ele>149.2</ele>
        <time>2017-11-26T11:29:22Z</time>
      </trkpt>
      <trkpt lat="62.633890996671" lon="17.883054133913">
        <ele>149.2</ele>
        <time>2017-11-26T11:29:23Z</time>
      </trkpt>
      <trkpt lat="62.63387850764" lon="17.883101407829">
        <ele>149</ele>
        <time>2017-11-26T11:29:24Z</time>
      </trkpt>
      <trkpt lat="62.633864845143" lon="17.883151866867">
        <ele>149</ele>
        <time>2017-11-26T11:29:25Z</time>
      </trkpt>
      <trkpt lat="62.633850763551" lon="17.883204672837">
        <ele>149</ele>
        <time>2017-11-26T11:29:26Z</time>
      </trkpt>
      <trkpt lat="62.633837017235" lon="17.883251695296">
        <ele>148.8</ele>
        <time>2017-11-26T11:29:27Z</time>
      </trkpt>
      <trkpt lat="62.633825785489" lon="17.883295281176">
        <ele>148.8</ele>
        <time>2017-11-26T11:29:28Z</time>
      </trkpt>
      <trkpt lat="62.633812793544" lon="17.883341716902">
        <ele>148.8</ele>
        <time>2017-11-26T11:29:29Z</time>
      </trkpt>
      <trkpt lat="62.633797706124" lon="17.883395193424">
        <ele>148.8</ele>
        <time>2017-11-26T11:29:30Z</time>
      </trkpt>
      <trkpt lat="62.633783959808" lon="17.88344414372">
        <ele>148.8</ele>
        <time>2017-11-26T11:29:31Z</time>
      </trkpt>
      <trkpt lat="62.63376786656" lon="17.883496530595">
        <ele>148.6</ele>
        <time>2017-11-26T11:29:32Z</time>
      </trkpt>
      <trkpt lat="62.633756467176" lon="17.883545313253">
        <ele>148.6</ele>
        <time>2017-11-26T11:29:33Z</time>
      </trkpt>
      <trkpt lat="62.633743810507" lon="17.883591832798">
        <ele>148.6</ele>
        <time>2017-11-26T11:29:34Z</time>
      </trkpt>
      <trkpt lat="62.633729058363" lon="17.883643968216">
        <ele>148.8</ele>
        <time>2017-11-26T11:29:35Z</time>
      </trkpt>
      <trkpt lat="62.633715814961" lon="17.883694678711">
        <ele>148.8</ele>
        <time>2017-11-26T11:29:36Z</time>
      </trkpt>
      <trkpt lat="62.633702571559" lon="17.883747149405">
        <ele>148.6</ele>
        <time>2017-11-26T11:29:37Z</time>
      </trkpt>
      <trkpt lat="62.633687735596" lon="17.883796602615">
        <ele>148.6</ele>
        <time>2017-11-26T11:29:38Z</time>
      </trkpt>
      <trkpt lat="62.633677090583" lon="17.883839098848">
        <ele>148.6</ele>
        <time>2017-11-26T11:29:39Z</time>
      </trkpt>
      <trkpt lat="62.633661835525" lon="17.883890228438">
        <ele>148.6</ele>
        <time>2017-11-26T11:29:40Z</time>
      </trkpt>
      <trkpt lat="62.633648759761" lon="17.883934820146">
        <ele>148.6</ele>
        <time>2017-11-26T11:29:41Z</time>
      </trkpt>
      <trkpt lat="62.633635097264" lon="17.883986955564">
        <ele>148.4</ele>
        <time>2017-11-26T11:29:42Z</time>
      </trkpt>
      <trkpt lat="62.633620428939" lon="17.884034145661">
        <ele>148.4</ele>
        <time>2017-11-26T11:29:43Z</time>
      </trkpt>
      <trkpt lat="62.633609281012" lon="17.88408116812">
        <ele>148.2</ele>
        <time>2017-11-26T11:29:44Z</time>
      </trkpt>
      <trkpt lat="62.633597797809" lon="17.88412894495">
        <ele>148.2</ele>
        <time>2017-11-26T11:29:45Z</time>
      </trkpt>
      <trkpt lat="62.633582375113" lon="17.884179655445">
        <ele>148.2</ele>
        <time>2017-11-26T11:29:46Z</time>
      </trkpt>
      <trkpt lat="62.633570388996" lon="17.884224163334">
        <ele>148</ele>
        <time>2017-11-26T11:29:47Z</time>
      </trkpt>
      <trkpt lat="62.633557229413" lon="17.884276634028">
        <ele>148</ele>
        <time>2017-11-26T11:29:48Z</time>
      </trkpt>
      <trkpt lat="62.63354406983" lon="17.884326590152">
        <ele>148</ele>
        <time>2017-11-26T11:29:49Z</time>
      </trkpt>
      <trkpt lat="62.633533927731" lon="17.884375456629">
        <ele>147.8</ele>
        <time>2017-11-26T11:29:50Z</time>
      </trkpt>
      <trkpt lat="62.633520097596" lon="17.884426418581">
        <ele>147.8</ele>
        <time>2017-11-26T11:29:51Z</time>
      </trkpt>
      <trkpt lat="62.633507105651" lon="17.884479727465">
        <ele>147.8</ele>
        <time>2017-11-26T11:29:52Z</time>
      </trkpt>
      <trkpt lat="62.633497801742" lon="17.884523816259">
        <ele>147.6</ele>
        <time>2017-11-26T11:29:53Z</time>
      </trkpt>
      <trkpt lat="62.633484977435" lon="17.884578047152">
        <ele>147.6</ele>
        <time>2017-11-26T11:29:54Z</time>
      </trkpt>
      <trkpt lat="62.633470979662" lon="17.884634457339">
        <ele>147.6</ele>
        <time>2017-11-26T11:29:55Z</time>
      </trkpt>
      <trkpt lat="62.633458406812" lon="17.884682569445">
        <ele>147.6</ele>
        <time>2017-11-26T11:29:56Z</time>
      </trkpt>
      <trkpt lat="62.633444660496" lon="17.884735459234">
        <ele>147.6</ele>
        <time>2017-11-26T11:29:57Z</time>
      </trkpt>
      <trkpt lat="62.63343259056" lon="17.884780470037">
        <ele>147.4</ele>
        <time>2017-11-26T11:29:58Z</time>
      </trkpt>
      <trkpt lat="62.633424376298" lon="17.884823133908">
        <ele>147.4</ele>
        <time>2017-11-26T11:29:59Z</time>
      </trkpt>
      <trkpt lat="62.633409037421" lon="17.884882729217">
        <ele>147.4</ele>
        <time>2017-11-26T11:30:00Z</time>
      </trkpt>
      <trkpt lat="62.633395123467" lon="17.884930338409">
        <ele>147.2</ele>
        <time>2017-11-26T11:30:01Z</time>
      </trkpt>
      <trkpt lat="62.633382885893" lon="17.884984569302">
        <ele>147.2</ele>
        <time>2017-11-26T11:30:02Z</time>
      </trkpt>
      <trkpt lat="62.633370145405" lon="17.885035531254">
        <ele>147.2</ele>
        <time>2017-11-26T11:30:03Z</time>
      </trkpt>
      <trkpt lat="62.633357656374" lon="17.885081799342">
        <ele>147</ele>
        <time>2017-11-26T11:30:04Z</time>
      </trkpt>
      <trkpt lat="62.633345083524" lon="17.885130414362">
        <ele>146.8</ele>
        <time>2017-11-26T11:30:05Z</time>
      </trkpt>
      <trkpt lat="62.633329660828" lon="17.885183555608">
        <ele>146.8</ele>
        <time>2017-11-26T11:30:06Z</time>
      </trkpt>
      <trkpt lat="62.633318345263" lon="17.885231500076">
        <ele>146.6</ele>
        <time>2017-11-26T11:30:07Z</time>
      </trkpt>
      <trkpt lat="62.633305856232" lon="17.885280701829">
        <ele>146.8</ele>
        <time>2017-11-26T11:30:08Z</time>
      </trkpt>
      <trkpt lat="62.633292864287" lon="17.885328813935">
        <ele>146.6</ele>
        <time>2017-11-26T11:30:09Z</time>
      </trkpt>
      <trkpt lat="62.633279704704" lon="17.885377177498">
        <ele>146.6</ele>
        <time>2017-11-26T11:30:10Z</time>
      </trkpt>
      <trkpt lat="62.633268892053" lon="17.885424283776">
        <ele>146.6</ele>
        <time>2017-11-26T11:30:11Z</time>
      </trkpt>
      <trkpt lat="62.633253553176" lon="17.885479688135">
        <ele>146.6</ele>
        <time>2017-11-26T11:30:12Z</time>
      </trkpt>
      <trkpt lat="62.63324315962" lon="17.885523190196">
        <ele>146.6</ele>
        <time>2017-11-26T11:30:13Z</time>
      </trkpt>
      <trkpt lat="62.633227736924" lon="17.885574403605">
        <ele>146.6</ele>
        <time>2017-11-26T11:30:14Z</time>
      </trkpt>
      <trkpt lat="62.633211559857" lon="17.885629053593">
        <ele>146.4</ele>
        <time>2017-11-26T11:30:15Z</time>
      </trkpt>
      <trkpt lat="62.633199909016" lon="17.885675656957">
        <ele>146.4</ele>
        <time>2017-11-26T11:30:16Z</time>
      </trkpt>
      <trkpt lat="62.633185659786" lon="17.885727457099">
        <ele>146.4</ele>
        <time>2017-11-26T11:30:17Z</time>
      </trkpt>
      <trkpt lat="62.633171410556" lon="17.885779676336">
        <ele>146.2</ele>
        <time>2017-11-26T11:30:18Z</time>
      </trkpt>
      <trkpt lat="62.633160514086" lon="17.885824435682">
        <ele>146.2</ele>
        <time>2017-11-26T11:30:19Z</time>
      </trkpt>
      <trkpt lat="62.633143750286" lon="17.885878666575">
        <ele>146.2</ele>
        <time>2017-11-26T11:30:20Z</time>
      </trkpt>
      <trkpt lat="62.633132015626" lon="17.88592518612">
        <ele>146</ele>
        <time>2017-11-26T11:30:21Z</time>
      </trkpt>
      <trkpt lat="62.633119861871" lon="17.88597128657">
        <ele>146</ele>
        <time>2017-11-26T11:30:22Z</time>
      </trkpt>
      <trkpt lat="62.633103517166" lon="17.886019147219">
        <ele>146</ele>
        <time>2017-11-26T11:30:23Z</time>
      </trkpt>
      <trkpt lat="62.633088345927" lon="17.886067929877">
        <ele>145.8</ele>
        <time>2017-11-26T11:30:24Z</time>
      </trkpt>
      <trkpt lat="62.633077030362" lon="17.886120316752">
        <ele>145.8</ele>
        <time>2017-11-26T11:30:25Z</time>
      </trkpt>
      <trkpt lat="62.633061859123" lon="17.886172955084">
        <ele>145.8</ele>
        <time>2017-11-26T11:30:26Z</time>
      </trkpt>
      <trkpt lat="62.633050208282" lon="17.886220899552">
        <ele>145.8</ele>
        <time>2017-11-26T11:30:27Z</time>
      </trkpt>
      <trkpt lat="62.633038976536" lon="17.886267335278">
        <ele>145.8</ele>
        <time>2017-11-26T11:30:28Z</time>
      </trkpt>
      <trkpt lat="62.633026822781" lon="17.88631578266">
        <ele>145.8</ele>
        <time>2017-11-26T11:30:29Z</time>
      </trkpt>
      <trkpt lat="62.633012238275" lon="17.886370013553">
        <ele>145.6</ele>
        <time>2017-11-26T11:30:30Z</time>
      </trkpt>
      <trkpt lat="62.632997234674" lon="17.8864213946">
        <ele>145.6</ele>
        <time>2017-11-26T11:30:31Z</time>
      </trkpt>
      <trkpt lat="62.632983655996" lon="17.886472105095">
        <ele>145.6</ele>
        <time>2017-11-26T11:30:32Z</time>
      </trkpt>
      <trkpt lat="62.632972927164" lon="17.886517032079">
        <ele>145.4</ele>
        <time>2017-11-26T11:30:33Z</time>
      </trkpt>
      <trkpt lat="62.632958594115" lon="17.886565395642">
        <ele>145.4</ele>
        <time>2017-11-26T11:30:34Z</time>
      </trkpt>
      <trkpt lat="62.632944512523" lon="17.886612753377">
        <ele>145.2</ele>
        <time>2017-11-26T11:30:35Z</time>
      </trkpt>
      <trkpt lat="62.632931855854" lon="17.886662122768">
        <ele>145.2</ele>
        <time>2017-11-26T11:30:36Z</time>
      </trkpt>
      <trkpt lat="62.632915762606" lon="17.886715683109">
        <ele>145</ele>
        <time>2017-11-26T11:30:37Z</time>
      </trkpt>
      <trkpt lat="62.632902267747" lon="17.886765387776">
        <ele>145</ele>
        <time>2017-11-26T11:30:38Z</time>
      </trkpt>
      <trkpt lat="62.632894891675" lon="17.88681115295">
        <ele>145</ele>
        <time>2017-11-26T11:30:39Z</time>
      </trkpt>
      <trkpt lat="62.632880810083" lon="17.886872759915">
        <ele>144.8</ele>
        <time>2017-11-26T11:30:40Z</time>
      </trkpt>
      <trkpt lat="62.632870416527" lon="17.886921207297">
        <ele>144.8</ele>
        <time>2017-11-26T11:30:41Z</time>
      </trkpt>
      <trkpt lat="62.632857005487" lon="17.886978539493">
        <ele>144.8</ele>
        <time>2017-11-26T11:30:42Z</time>
      </trkpt>
      <trkpt lat="62.632844097361" lon="17.887033860033">
        <ele>144.6</ele>
        <time>2017-11-26T11:30:43Z</time>
      </trkpt>
      <trkpt lat="62.632835128728" lon="17.887084067614">
        <ele>144.6</ele>
        <time>2017-11-26T11:30:44Z</time>
      </trkpt>
      <trkpt lat="62.632821801507" lon="17.887142154181">
        <ele>144.6</ele>
        <time>2017-11-26T11:30:45Z</time>
      </trkpt>
      <trkpt lat="62.632810234485" lon="17.887195965979">
        <ele>144.4</ele>
        <time>2017-11-26T11:30:46Z</time>
      </trkpt>
      <trkpt lat="62.632800008567" lon="17.887236450556">
        <ele>144.4</ele>
        <time>2017-11-26T11:30:47Z</time>
      </trkpt>
      <trkpt lat="62.632787770993" lon="17.887292357829">
        <ele>144.2</ele>
        <time>2017-11-26T11:30:48Z</time>
      </trkpt>
      <trkpt lat="62.632777628894" lon="17.887338877374">
        <ele>144.2</ele>
        <time>2017-11-26T11:30:49Z</time>
      </trkpt>
      <trkpt lat="62.632767654433" lon="17.887392605353">
        <ele>144.2</ele>
        <time>2017-11-26T11:30:50Z</time>
      </trkpt>
      <trkpt lat="62.632756757963" lon="17.887447087703">
        <ele>144</ele>
        <time>2017-11-26T11:30:51Z</time>
      </trkpt>
      <trkpt lat="62.632747370235" lon="17.887499642216">
        <ele>144</ele>
        <time>2017-11-26T11:30:52Z</time>
      </trkpt>
      <trkpt lat="62.632739323611" lon="17.887547251408">
        <ele>143.8</ele>
        <time>2017-11-26T11:30:53Z</time>
      </trkpt>
      <trkpt lat="62.632727253675" lon="17.887602739586">
        <ele>143.8</ele>
        <time>2017-11-26T11:30:54Z</time>
      </trkpt>
      <trkpt lat="62.632717865947" lon="17.887657138117">
        <ele>143.8</ele>
        <time>2017-11-26T11:30:55Z</time>
      </trkpt>
      <trkpt lat="62.632707472391" lon="17.88770885444">
        <ele>143.6</ele>
        <time>2017-11-26T11:30:56Z</time>
      </trkpt>
      <trkpt lat="62.632696827378" lon="17.887763504428">
        <ele>143.6</ele>
        <time>2017-11-26T11:30:57Z</time>
      </trkpt>
      <trkpt lat="62.632688613116" lon="17.887810443068">
        <ele>143.6</ele>
        <time>2017-11-26T11:30:58Z</time>
      </trkpt>
      <trkpt lat="62.632680398854" lon="17.887857716984">
        <ele>143.4</ele>
        <time>2017-11-26T11:30:59Z</time>
      </trkpt>
      <trkpt lat="62.632667239271" lon="17.88792343108">
        <ele>143.4</ele>
        <time>2017-11-26T11:31:00Z</time>
      </trkpt>
      <trkpt lat="62.632660366113" lon="17.887973890118">
        <ele>143.2</ele>
        <time>2017-11-26T11:31:01Z</time>
      </trkpt>
      <trkpt lat="62.632650643109" lon="17.888028623925">
        <ele>143</ele>
        <time>2017-11-26T11:31:02Z</time>
      </trkpt>
      <trkpt lat="62.632640752467" lon="17.888085872302">
        <ele>142.8</ele>
        <time>2017-11-26T11:31:03Z</time>
      </trkpt>
      <trkpt lat="62.632633627852" lon="17.888135409331">
        <ele>142.6</ele>
        <time>2017-11-26T11:31:04Z</time>
      </trkpt>
      <trkpt lat="62.632621474097" lon="17.888190646052">
        <ele>142.6</ele>
        <time>2017-11-26T11:31:05Z</time>
      </trkpt>
      <trkpt lat="62.63261032617" lon="17.888249570809">
        <ele>142.4</ele>
        <time>2017-11-26T11:31:06Z</time>
      </trkpt>
      <trkpt lat="62.632602028089" lon="17.888303801702">
        <ele>142.2</ele>
        <time>2017-11-26T11:31:07Z</time>
      </trkpt>
      <trkpt lat="62.632589539058" lon="17.88835677531">
        <ele>142.2</ele>
        <time>2017-11-26T11:31:08Z</time>
      </trkpt>
      <trkpt lat="62.63258098952" lon="17.888407150529">
        <ele>142</ele>
        <time>2017-11-26T11:31:09Z</time>
      </trkpt>
      <trkpt lat="62.632568500489" lon="17.888463393078">
        <ele>142</ele>
        <time>2017-11-26T11:31:10Z</time>
      </trkpt>
      <trkpt lat="62.632557939295" lon="17.888514606487">
        <ele>141.8</ele>
        <time>2017-11-26T11:31:11Z</time>
      </trkpt>
      <trkpt lat="62.632549222119" lon="17.888570681398">
        <ele>141.8</ele>
        <time>2017-11-26T11:31:12Z</time>
      </trkpt>
      <trkpt lat="62.632537655097" lon="17.888623152092">
        <ele>141.6</ele>
        <time>2017-11-26T11:31:13Z</time>
      </trkpt>
      <trkpt lat="62.632525585161" lon="17.888680484288">
        <ele>141.6</ele>
        <time>2017-11-26T11:31:14Z</time>
      </trkpt>
      <trkpt lat="62.632514185777" lon="17.888735972466">
        <ele>141.6</ele>
        <time>2017-11-26T11:31:15Z</time>
      </trkpt>
      <trkpt lat="62.632502954031" lon="17.888792215015">
        <ele>141.4</ele>
        <time>2017-11-26T11:31:16Z</time>
      </trkpt>
      <trkpt lat="62.63249297957" lon="17.888843093148">
        <ele>141.4</ele>
        <time>2017-11-26T11:31:17Z</time>
      </trkpt>
      <trkpt lat="62.632484681489" lon="17.888898497507">
        <ele>141.4</ele>
        <time>2017-11-26T11:31:18Z</time>
      </trkpt>
      <trkpt lat="62.632475712856" lon="17.888953985685">
        <ele>141.2</ele>
        <time>2017-11-26T11:31:19Z</time>
      </trkpt>
      <trkpt lat="62.632467079499" lon="17.889011485519">
        <ele>141.2</ele>
        <time>2017-11-26T11:31:20Z</time>
      </trkpt>
      <trkpt lat="62.632460206341" lon="17.889058675616">
        <ele>141</ele>
        <time>2017-11-26T11:31:21Z</time>
      </trkpt>
      <trkpt lat="62.63245023188" lon="17.889117348916">
        <ele>141</ele>
        <time>2017-11-26T11:31:22Z</time>
      </trkpt>
      <trkpt lat="62.632442771989" lon="17.88916981961">
        <ele>141</ele>
        <time>2017-11-26T11:31:23Z</time>
      </trkpt>
      <trkpt lat="62.632436401745" lon="17.889225056331">
        <ele>140.8</ele>
        <time>2017-11-26T11:31:24Z</time>
      </trkpt>
      <trkpt lat="62.632427684569" lon="17.889288758771">
        <ele>140.8</ele>
        <time>2017-11-26T11:31:25Z</time>
      </trkpt>
      <trkpt lat="62.632418799755" lon="17.889343157302">
        <ele>140.8</ele>
        <time>2017-11-26T11:31:26Z</time>
      </trkpt>
      <trkpt lat="62.632412010416" lon="17.889396633824">
        <ele>140.8</ele>
        <time>2017-11-26T11:31:27Z</time>
      </trkpt>
      <trkpt lat="62.632402035955" lon="17.889448853061">
        <ele>140.8</ele>
        <time>2017-11-26T11:31:28Z</time>
      </trkpt>
      <trkpt lat="62.632395581892" lon="17.889492774217">
        <ele>140.8</ele>
        <time>2017-11-26T11:31:29Z</time>
      </trkpt>
      <trkpt lat="62.632388038182" lon="17.889561170521">
        <ele>140.8</ele>
        <time>2017-11-26T11:31:30Z</time>
      </trkpt>
      <trkpt lat="62.632379069549" lon="17.889615066138">
        <ele>140.6</ele>
        <time>2017-11-26T11:31:31Z</time>
      </trkpt>
      <trkpt lat="62.632374543323" lon="17.889666111909">
        <ele>140.6</ele>
        <time>2017-11-26T11:31:32Z</time>
      </trkpt>
      <trkpt lat="62.63236725107" lon="17.889721180992">
        <ele>140.6</ele>
        <time>2017-11-26T11:31:33Z</time>
      </trkpt>
      <trkpt lat="62.632359539722" lon="17.889774238419">
        <ele>140.6</ele>
        <time>2017-11-26T11:31:34Z</time>
      </trkpt>
      <trkpt lat="62.632353420935" lon="17.889825368009">
        <ele>140.6</ele>
        <time>2017-11-26T11:31:35Z</time>
      </trkpt>
      <trkpt lat="62.632344033207" lon="17.889893848132">
        <ele>140.4</ele>
        <time>2017-11-26T11:31:36Z</time>
      </trkpt>
      <trkpt lat="62.63233791442" lon="17.889949587767">
        <ele>140.4</ele>
        <time>2017-11-26T11:31:37Z</time>
      </trkpt>
      <trkpt lat="62.6323312089" lon="17.889996610226">
        <ele>140.4</ele>
        <time>2017-11-26T11:31:38Z</time>
      </trkpt>
      <trkpt lat="62.632324419561" lon="17.890053104232">
        <ele>140.4</ele>
        <time>2017-11-26T11:31:39Z</time>
      </trkpt>
      <trkpt lat="62.632318719869" lon="17.890112112808">
        <ele>140.2</ele>
        <time>2017-11-26T11:31:40Z</time>
      </trkpt>
      <trkpt lat="62.632313690729" lon="17.890156117783">
        <ele>140.2</ele>
        <time>2017-11-26T11:31:41Z</time>
      </trkpt>
      <trkpt lat="62.632306733752" lon="17.890215210178">
        <ele>140.2</ele>
        <time>2017-11-26T11:31:42Z</time>
      </trkpt>
      <trkpt lat="62.632299692956" lon="17.890261729723">
        <ele>140.2</ele>
        <time>2017-11-26T11:31:43Z</time>
      </trkpt>
      <trkpt lat="62.632294412359" lon="17.890313781322">
        <ele>140.2</ele>
        <time>2017-11-26T11:31:44Z</time>
      </trkpt>
      <trkpt lat="62.632284940812" lon="17.890372706079">
        <ele>140</ele>
        <time>2017-11-26T11:31:45Z</time>
      </trkpt>
      <trkpt lat="62.632283096794" lon="17.89041788452">
        <ele>140</ele>
        <time>2017-11-26T11:31:46Z</time>
      </trkpt>
      <trkpt lat="62.63227588836" lon="17.890472953603">
        <ele>140</ele>
        <time>2017-11-26T11:31:47Z</time>
      </trkpt>
      <trkpt lat="62.632268260831" lon="17.89052768741">
        <ele>140</ele>
        <time>2017-11-26T11:31:48Z</time>
      </trkpt>
      <trkpt lat="62.632262896415" lon="17.890575212783">
        <ele>140</ele>
        <time>2017-11-26T11:31:49Z</time>
      </trkpt>
      <trkpt lat="62.632257112904" lon="17.890633550807">
        <ele>140</ele>
        <time>2017-11-26T11:31:50Z</time>
      </trkpt>
      <trkpt lat="62.632251832307" lon="17.890687278786">
        <ele>140</ele>
        <time>2017-11-26T11:31:51Z</time>
      </trkpt>
      <trkpt lat="62.632246970805" lon="17.890737905462">
        <ele>140</ele>
        <time>2017-11-26T11:31:52Z</time>
      </trkpt>
      <trkpt lat="62.632236996344" lon="17.890791381984">
        <ele>140</ele>
        <time>2017-11-26T11:31:53Z</time>
      </trkpt>
      <trkpt lat="62.632231296652" lon="17.890840835194">
        <ele>140</ele>
        <time>2017-11-26T11:31:54Z</time>
      </trkpt>
      <trkpt lat="62.632223585304" lon="17.890897999752">
        <ele>139.8</ele>
        <time>2017-11-26T11:31:55Z</time>
      </trkpt>
      <trkpt lat="62.632215035766" lon="17.890956924509">
        <ele>139.8</ele>
        <time>2017-11-26T11:31:56Z</time>
      </trkpt>
      <trkpt lat="62.63220631859" lon="17.891006042443">
        <ele>139.8</ele>
        <time>2017-11-26T11:31:57Z</time>
      </trkpt>
      <trkpt lat="62.632200702717" lon="17.891057842585">
        <ele>139.8</ele>
        <time>2017-11-26T11:31:58Z</time>
      </trkpt>
      <trkpt lat="62.632194332473" lon="17.891113079306">
        <ele>139.8</ele>
        <time>2017-11-26T11:31:59Z</time>
      </trkpt>
      <trkpt lat="62.632185447659" lon="17.891168986579">
        <ele>139.8</ele>
        <time>2017-11-26T11:32:00Z</time>
      </trkpt>
      <trkpt lat="62.632176730483" lon="17.89122589968">
        <ele>139.6</ele>
        <time>2017-11-26T11:32:01Z</time>
      </trkpt>
      <trkpt lat="62.63216608547" lon="17.891280465849">
        <ele>139.6</ele>
        <time>2017-11-26T11:32:02Z</time>
      </trkpt>
      <trkpt lat="62.632158038846" lon="17.891329332326">
        <ele>139.6</ele>
        <time>2017-11-26T11:32:03Z</time>
      </trkpt>
      <trkpt lat="62.632149908403" lon="17.891377528251">
        <ele>139.6</ele>
        <time>2017-11-26T11:32:04Z</time>
      </trkpt>
      <trkpt lat="62.632141945598" lon="17.89142455071">
        <ele>139.6</ele>
        <time>2017-11-26T11:32:05Z</time>
      </trkpt>
      <trkpt lat="62.632136245906" lon="17.89146646021">
        <ele>139.6</ele>
        <time>2017-11-26T11:32:06Z</time>
      </trkpt>
      <trkpt lat="62.632123505418" lon="17.891532844858">
        <ele>139.6</ele>
        <time>2017-11-26T11:32:07Z</time>
      </trkpt>
      <trkpt lat="62.632115458794" lon="17.891581711335">
        <ele>139.6</ele>
        <time>2017-11-26T11:32:08Z</time>
      </trkpt>
      <trkpt lat="62.632108669455" lon="17.891621273903">
        <ele>139.6</ele>
        <time>2017-11-26T11:32:09Z</time>
      </trkpt>
      <trkpt lat="62.632100874288" lon="17.891680953031">
        <ele>139.6</ele>
        <time>2017-11-26T11:32:10Z</time>
      </trkpt>
      <trkpt lat="62.632095509872" lon="17.891722611074">
        <ele>139.6</ele>
        <time>2017-11-26T11:32:11Z</time>
      </trkpt>
      <trkpt lat="62.63209148656" lon="17.891777177243">
        <ele>139.6</ele>
        <time>2017-11-26T11:32:12Z</time>
      </trkpt>
      <trkpt lat="62.632082853203" lon="17.891827384824">
        <ele>139.6</ele>
        <time>2017-11-26T11:32:13Z</time>
      </trkpt>
      <trkpt lat="62.632074471303" lon="17.891871054523">
        <ele>139.6</ele>
        <time>2017-11-26T11:32:14Z</time>
      </trkpt>
      <trkpt lat="62.632066676136" lon="17.891929476366">
        <ele>139.8</ele>
        <time>2017-11-26T11:32:15Z</time>
      </trkpt>
      <trkpt lat="62.632057623684" lon="17.89198194706">
        <ele>139.8</ele>
        <time>2017-11-26T11:32:16Z</time>
      </trkpt>
      <trkpt lat="62.632053600372" lon="17.892026874044">
        <ele>139.8</ele>
        <time>2017-11-26T11:32:17Z</time>
      </trkpt>
      <trkpt lat="62.632045721386" lon="17.892085714982">
        <ele>140</ele>
        <time>2017-11-26T11:32:18Z</time>
      </trkpt>
      <trkpt lat="62.63204119516" lon="17.892135587287">
        <ele>140</ele>
        <time>2017-11-26T11:32:19Z</time>
      </trkpt>
      <trkpt lat="62.632035076373" lon="17.892187974162">
        <ele>140</ele>
        <time>2017-11-26T11:32:20Z</time>
      </trkpt>
      <trkpt lat="62.632028957586" lon="17.892245306358">
        <ele>140</ele>
        <time>2017-11-26T11:32:21Z</time>
      </trkpt>
      <trkpt lat="62.632023676989" lon="17.892299453432">
        <ele>140</ele>
        <time>2017-11-26T11:32:22Z</time>
      </trkpt>
      <trkpt lat="62.63201856403" lon="17.892347146443">
        <ele>140</ele>
        <time>2017-11-26T11:32:23Z</time>
      </trkpt>
      <trkpt lat="62.63201185851" lon="17.892404311001">
        <ele>140</ele>
        <time>2017-11-26T11:32:24Z</time>
      </trkpt>
      <trkpt lat="62.632003895705" lon="17.892460972645">
        <ele>140.2</ele>
        <time>2017-11-26T11:32:25Z</time>
      </trkpt>
      <trkpt lat="62.63199844747" lon="17.892514532986">
        <ele>140.2</ele>
        <time>2017-11-26T11:32:26Z</time>
      </trkpt>
      <trkpt lat="62.631992244864" lon="17.892570440259">
        <ele>140.2</ele>
        <time>2017-11-26T11:32:27Z</time>
      </trkpt>
      <trkpt lat="62.631986964267" lon="17.892618720003">
        <ele>140.2</ele>
        <time>2017-11-26T11:32:28Z</time>
      </trkpt>
      <trkpt lat="62.631981264575" lon="17.892674459638">
        <ele>140.2</ele>
        <time>2017-11-26T11:32:29Z</time>
      </trkpt>
      <trkpt lat="62.631972295942" lon="17.892733384395">
        <ele>140.4</ele>
        <time>2017-11-26T11:32:30Z</time>
      </trkpt>
      <trkpt lat="62.631966847707" lon="17.892784346347">
        <ele>140.4</ele>
        <time>2017-11-26T11:32:31Z</time>
      </trkpt>
      <trkpt lat="62.631962992033" lon="17.89284360638">
        <ele>140.4</ele>
        <time>2017-11-26T11:32:32Z</time>
      </trkpt>
      <trkpt lat="62.631957711436" lon="17.892891550848">
        <ele>140.4</ele>
        <time>2017-11-26T11:32:33Z</time>
      </trkpt>
      <trkpt lat="62.631954274857" lon="17.892940417325">
        <ele>140.4</ele>
        <time>2017-11-26T11:32:34Z</time>
      </trkpt>
      <trkpt lat="62.631948575165" lon="17.892992217467">
        <ele>140.4</ele>
        <time>2017-11-26T11:32:35Z</time>
      </trkpt>
      <trkpt lat="62.631944132758" lon="17.893044604342">
        <ele>140.4</ele>
        <time>2017-11-26T11:32:36Z</time>
      </trkpt>
      <trkpt lat="62.631940444722" lon="17.893099086692">
        <ele>140.4</ele>
        <time>2017-11-26T11:32:37Z</time>
      </trkpt>
      <trkpt lat="62.631934912668" lon="17.893162034761">
        <ele>140.4</ele>
        <time>2017-11-26T11:32:38Z</time>
      </trkpt>
      <trkpt lat="62.631930889356" lon="17.893204782451">
        <ele>140.2</ele>
        <time>2017-11-26T11:32:39Z</time>
      </trkpt>
      <trkpt lat="62.631926446949" lon="17.893263288113">
        <ele>140.2</ele>
        <time>2017-11-26T11:32:40Z</time>
      </trkpt>
      <trkpt lat="62.631920998714" lon="17.893317351368">
        <ele>140.2</ele>
        <time>2017-11-26T11:32:41Z</time>
      </trkpt>
      <trkpt lat="62.631917478316" lon="17.893373174822">
        <ele>140.2</ele>
        <time>2017-11-26T11:32:42Z</time>
      </trkpt>
      <trkpt lat="62.631912868271" lon="17.89342111929">
        <ele>140.2</ele>
        <time>2017-11-26T11:32:43Z</time>
      </trkpt>
      <trkpt lat="62.63190876114" lon="17.893482558617">
        <ele>140.2</ele>
        <time>2017-11-26T11:32:44Z</time>
      </trkpt>
      <trkpt lat="62.631905659837" lon="17.893536621872">
        <ele>140</ele>
        <time>2017-11-26T11:32:45Z</time>
      </trkpt>
      <trkpt lat="62.631899038136" lon="17.893589679299">
        <ele>140</ele>
        <time>2017-11-26T11:32:46Z</time>
      </trkpt>
      <trkpt lat="62.631893589901" lon="17.893639551604">
        <ele>140</ele>
        <time>2017-11-26T11:32:47Z</time>
      </trkpt>
      <trkpt lat="62.63189032096" lon="17.89370107475">
        <ele>140</ele>
        <time>2017-11-26T11:32:48Z</time>
      </trkpt>
      <trkpt lat="62.631885627096" lon="17.893753964539">
        <ele>139.8</ele>
        <time>2017-11-26T11:32:49Z</time>
      </trkpt>
      <trkpt lat="62.6318785863" lon="17.893808446889">
        <ele>139.8</ele>
        <time>2017-11-26T11:32:50Z</time>
      </trkpt>
      <trkpt lat="62.631876574644" lon="17.893861001402">
        <ele>139.8</ele>
        <time>2017-11-26T11:32:51Z</time>
      </trkpt>
      <trkpt lat="62.631870455857" lon="17.893917914503">
        <ele>139.8</ele>
        <time>2017-11-26T11:32:52Z</time>
      </trkpt>
      <trkpt lat="62.631867857468" lon="17.893965607514">
        <ele>139.6</ele>
        <time>2017-11-26T11:32:53Z</time>
      </trkpt>
      <trkpt lat="62.631862409233" lon="17.894022269158">
        <ele>139.8</ele>
        <time>2017-11-26T11:32:54Z</time>
      </trkpt>
      <trkpt lat="62.631856122808" lon="17.894080942458">
        <ele>139.8</ele>
        <time>2017-11-26T11:32:55Z</time>
      </trkpt>
      <trkpt lat="62.631850255478" lon="17.894125701804">
        <ele>139.8</ele>
        <time>2017-11-26T11:32:56Z</time>
      </trkpt>
      <trkpt lat="62.631844723424" lon="17.894183536914">
        <ele>139.8</ele>
        <time>2017-11-26T11:32:57Z</time>
      </trkpt>
      <trkpt lat="62.63184002956" lon="17.894235337056">
        <ele>139.8</ele>
        <time>2017-11-26T11:32:58Z</time>
      </trkpt>
      <trkpt lat="62.631836844438" lon="17.894282862429">
        <ele>139.8</ele>
        <time>2017-11-26T11:32:59Z</time>
      </trkpt>
      <trkpt lat="62.631833910773" lon="17.894347486878">
        <ele>139.8</ele>
        <time>2017-11-26T11:33:00Z</time>
      </trkpt>
      <trkpt lat="62.631829300728" lon="17.894403310332">
        <ele>139.8</ele>
        <time>2017-11-26T11:33:01Z</time>
      </trkpt>
      <trkpt lat="62.631828546357" lon="17.89445628394">
        <ele>140</ele>
        <time>2017-11-26T11:33:02Z</time>
      </trkpt>
      <trkpt lat="62.631822679027" lon="17.894515711611">
        <ele>140</ele>
        <time>2017-11-26T11:33:03Z</time>
      </trkpt>
      <trkpt lat="62.631820332095" lon="17.894563069346">
        <ele>140</ele>
        <time>2017-11-26T11:33:04Z</time>
      </trkpt>
      <trkpt lat="62.631815554412" lon="17.894611432909">
        <ele>140</ele>
        <time>2017-11-26T11:33:05Z</time>
      </trkpt>
      <trkpt lat="62.631812285471" lon="17.894665999078">
        <ele>140</ele>
        <time>2017-11-26T11:33:06Z</time>
      </trkpt>
      <trkpt lat="62.631810609091" lon="17.894717715401">
        <ele>140</ele>
        <time>2017-11-26T11:33:07Z</time>
      </trkpt>
      <trkpt lat="62.631807926883" lon="17.894766749516">
        <ele>140</ele>
        <time>2017-11-26T11:33:08Z</time>
      </trkpt>
      <trkpt lat="62.631802897743" lon="17.894814861622">
        <ele>140</ele>
        <time>2017-11-26T11:33:09Z</time>
      </trkpt>
      <trkpt lat="62.63180231101" lon="17.894867751411">
        <ele>140</ele>
        <time>2017-11-26T11:33:10Z</time>
      </trkpt>
      <trkpt lat="62.631796695137" lon="17.894919635372">
        <ele>140</ele>
        <time>2017-11-26T11:33:11Z</time>
      </trkpt>
      <trkpt lat="62.631795354033" lon="17.894979230681">
        <ele>140</ele>
        <time>2017-11-26T11:33:12Z</time>
      </trkpt>
      <trkpt lat="62.631794012929" lon="17.895025247312">
        <ele>140</ele>
        <time>2017-11-26T11:33:13Z</time>
      </trkpt>
      <trkpt lat="62.631789570522" lon="17.89507654454">
        <ele>140</ele>
        <time>2017-11-26T11:33:14Z</time>
      </trkpt>
      <trkpt lat="62.631786050124" lon="17.895139241152">
        <ele>140.2</ele>
        <time>2017-11-26T11:33:15Z</time>
      </trkpt>
      <trkpt lat="62.631782529726" lon="17.895184587231">
        <ele>140.2</ele>
        <time>2017-11-26T11:33:16Z</time>
      </trkpt>
      <trkpt lat="62.631778422595" lon="17.895238985762">
        <ele>140.2</ele>
        <time>2017-11-26T11:33:17Z</time>
      </trkpt>
      <trkpt lat="62.63177465074" lon="17.895294976854">
        <ele>140.2</ele>
        <time>2017-11-26T11:33:18Z</time>
      </trkpt>
      <trkpt lat="62.631772387627" lon="17.895342921322">
        <ele>140.2</ele>
        <time>2017-11-26T11:33:19Z</time>
      </trkpt>
      <trkpt lat="62.631767861401" lon="17.895404193011">
        <ele>140.2</ele>
        <time>2017-11-26T11:33:20Z</time>
      </trkpt>
      <trkpt lat="62.631763502813" lon="17.895458675361">
        <ele>140.2</ele>
        <time>2017-11-26T11:33:21Z</time>
      </trkpt>
      <trkpt lat="62.631760569148" lon="17.895506033096">
        <ele>140.2</ele>
        <time>2017-11-26T11:33:22Z</time>
      </trkpt>
      <trkpt lat="62.63175537237" lon="17.895556743591">
        <ele>140.2</ele>
        <time>2017-11-26T11:33:23Z</time>
      </trkpt>
      <trkpt lat="62.631750175592" lon="17.89560963338">
        <ele>140.2</ele>
        <time>2017-11-26T11:33:24Z</time>
      </trkpt>
      <trkpt lat="62.63174866685" lon="17.895665708291">
        <ele>140.2</ele>
        <time>2017-11-26T11:33:25Z</time>
      </trkpt>
      <trkpt lat="62.631744978814" lon="17.895723124306">
        <ele>140.2</ele>
        <time>2017-11-26T11:33:26Z</time>
      </trkpt>
      <trkpt lat="62.631744224443" lon="17.895780456502">
        <ele>140.2</ele>
        <time>2017-11-26T11:33:27Z</time>
      </trkpt>
      <trkpt lat="62.631742883339" lon="17.895833849205">
        <ele>140.2</ele>
        <time>2017-11-26T11:33:28Z</time>
      </trkpt>
      <trkpt lat="62.631744140624" lon="17.895894031247">
        <ele>140.2</ele>
        <time>2017-11-26T11:33:29Z</time>
      </trkpt>
      <trkpt lat="62.631744140624" lon="17.895957985144">
        <ele>140.2</ele>
        <time>2017-11-26T11:33:30Z</time>
      </trkpt>
      <trkpt lat="62.63174363771" lon="17.89601112639">
        <ele>140.2</ele>
        <time>2017-11-26T11:33:31Z</time>
      </trkpt>
      <trkpt lat="62.631743050977" lon="17.896074242097">
        <ele>140.2</ele>
        <time>2017-11-26T11:33:32Z</time>
      </trkpt>
      <trkpt lat="62.631745481728" lon="17.896127299524">
        <ele>140.2</ele>
        <time>2017-11-26T11:33:33Z</time>
      </trkpt>
      <trkpt lat="62.631746571375" lon="17.896186224281">
        <ele>140.2</ele>
        <time>2017-11-26T11:33:34Z</time>
      </trkpt>
      <trkpt lat="62.631746068461" lon="17.896244562305">
        <ele>140.2</ele>
        <time>2017-11-26T11:33:35Z</time>
      </trkpt>
      <trkpt lat="62.631749002126" lon="17.896303151786">
        <ele>140.4</ele>
        <time>2017-11-26T11:33:36Z</time>
      </trkpt>
      <trkpt lat="62.631749924135" lon="17.896364423475">
        <ele>140.4</ele>
        <time>2017-11-26T11:33:37Z</time>
      </trkpt>
      <trkpt lat="62.631749588859" lon="17.896414882513">
        <ele>140.2</ele>
        <time>2017-11-26T11:33:38Z</time>
      </trkpt>
      <trkpt lat="62.631753109257" lon="17.89646710175">
        <ele>140.2</ele>
        <time>2017-11-26T11:33:39Z</time>
      </trkpt>
      <trkpt lat="62.631753276895" lon="17.896527702887">
        <ele>140.2</ele>
        <time>2017-11-26T11:33:40Z</time>
      </trkpt>
      <trkpt lat="62.631754701818" lon="17.896564750885">
        <ele>140.2</ele>
        <time>2017-11-26T11:33:41Z</time>
      </trkpt>
      <trkpt lat="62.631758306035" lon="17.896638763062">
        <ele>140.2</ele>
        <time>2017-11-26T11:33:42Z</time>
      </trkpt>
      <trkpt lat="62.63176207789" lon="17.896693329231">
        <ele>140.2</ele>
        <time>2017-11-26T11:33:43Z</time>
      </trkpt>
      <trkpt lat="62.631766520297" lon="17.896753175997">
        <ele>140.2</ele>
        <time>2017-11-26T11:33:44Z</time>
      </trkpt>
      <trkpt lat="62.631771046523" lon="17.896811430202">
        <ele>140.2</ele>
        <time>2017-11-26T11:33:45Z</time>
      </trkpt>
      <trkpt lat="62.631772387627" lon="17.896872282796">
        <ele>140.2</ele>
        <time>2017-11-26T11:33:46Z</time>
      </trkpt>
      <trkpt lat="62.631775405111" lon="17.89692140073">
        <ele>140.2</ele>
        <time>2017-11-26T11:33:47Z</time>
      </trkpt>
      <trkpt lat="62.63177716531" lon="17.896983259152">
        <ele>140.2</ele>
        <time>2017-11-26T11:33:48Z</time>
      </trkpt>
      <trkpt lat="62.631779344604" lon="17.897042770642">
        <ele>140.2</ele>
        <time>2017-11-26T11:33:49Z</time>
      </trkpt>
      <trkpt lat="62.631784541382" lon="17.897098510277">
        <ele>140.2</ele>
        <time>2017-11-26T11:33:50Z</time>
      </trkpt>
      <trkpt lat="62.631788564694" lon="17.897159111414">
        <ele>140.2</ele>
        <time>2017-11-26T11:33:51Z</time>
      </trkpt>
      <trkpt lat="62.631792839463" lon="17.897216108334">
        <ele>140.2</ele>
        <time>2017-11-26T11:33:52Z</time>
      </trkpt>
      <trkpt lat="62.631796611318" lon="17.897261873508">
        <ele>140.2</ele>
        <time>2017-11-26T11:33:53Z</time>
      </trkpt>
      <trkpt lat="62.631799712621" lon="17.897320043894">
        <ele>140.2</ele>
        <time>2017-11-26T11:33:54Z</time>
      </trkpt>
      <trkpt lat="62.631801137544" lon="17.897379555384">
        <ele>140.2</ele>
        <time>2017-11-26T11:33:55Z</time>
      </trkpt>
      <trkpt lat="62.631802730105" lon="17.897430768793">
        <ele>140.2</ele>
        <time>2017-11-26T11:33:56Z</time>
      </trkpt>
      <trkpt lat="62.631805328494" lon="17.897488603903">
        <ele>140.2</ele>
        <time>2017-11-26T11:33:57Z</time>
      </trkpt>
      <trkpt lat="62.631807423969" lon="17.89753830857">
        <ele>140.2</ele>
        <time>2017-11-26T11:33:58Z</time>
      </trkpt>
      <trkpt lat="62.631809687082" lon="17.897586336857">
        <ele>140.2</ele>
        <time>2017-11-26T11:33:59Z</time>
      </trkpt>
      <trkpt lat="62.631812117833" lon="17.89765146422">
        <ele>140.2</ele>
        <time>2017-11-26T11:34:00Z</time>
      </trkpt>
      <trkpt lat="62.631817733706" lon="17.897707287674">
        <ele>140.2</ele>
        <time>2017-11-26T11:34:01Z</time>
      </trkpt>
      <trkpt lat="62.631820248276" lon="17.897759423092">
        <ele>140.2</ele>
        <time>2017-11-26T11:34:02Z</time>
      </trkpt>
      <trkpt lat="62.631822092294" lon="17.897816420012">
        <ele>140.4</ele>
        <time>2017-11-26T11:34:03Z</time>
      </trkpt>
      <trkpt lat="62.63182661852" lon="17.897865537946">
        <ele>140.4</ele>
        <time>2017-11-26T11:34:04Z</time>
      </trkpt>
      <trkpt lat="62.631830138918" lon="17.89791800864">
        <ele>140.4</ele>
        <time>2017-11-26T11:34:05Z</time>
      </trkpt>
      <trkpt lat="62.631833072583" lon="17.897980789071">
        <ele>140.4</ele>
        <time>2017-11-26T11:34:06Z</time>
      </trkpt>
      <trkpt lat="62.631833659316" lon="17.898032756851">
        <ele>140.4</ele>
        <time>2017-11-26T11:34:07Z</time>
      </trkpt>
      <trkpt lat="62.6318366768" lon="17.898083886441">
        <ele>140.4</ele>
        <time>2017-11-26T11:34:08Z</time>
      </trkpt>
      <trkpt lat="62.631838436999" lon="17.898133591108">
        <ele>140.6</ele>
        <time>2017-11-26T11:34:09Z</time>
      </trkpt>
      <trkpt lat="62.631840448655" lon="17.898188324915">
        <ele>140.6</ele>
        <time>2017-11-26T11:34:10Z</time>
      </trkpt>
      <trkpt lat="62.631844136691" lon="17.898242891084">
        <ele>140.6</ele>
        <time>2017-11-26T11:34:11Z</time>
      </trkpt>
      <trkpt lat="62.631847321813" lon="17.898301815841">
        <ele>140.6</ele>
        <time>2017-11-26T11:34:12Z</time>
      </trkpt>
      <trkpt lat="62.63185260241" lon="17.898352777793">
        <ele>140.6</ele>
        <time>2017-11-26T11:34:13Z</time>
      </trkpt>
      <trkpt lat="62.63185511698" lon="17.898410696722">
        <ele>140.6</ele>
        <time>2017-11-26T11:34:14Z</time>
      </trkpt>
      <trkpt lat="62.631858385921" lon="17.898476410818">
        <ele>140.8</ele>
        <time>2017-11-26T11:34:15Z</time>
      </trkpt>
      <trkpt lat="62.63186349888" lon="17.89852904915">
        <ele>140.8</ele>
        <time>2017-11-26T11:34:16Z</time>
      </trkpt>
      <trkpt lat="62.631867773649" lon="17.898583950595">
        <ele>140.8</ele>
        <time>2017-11-26T11:34:17Z</time>
      </trkpt>
      <trkpt lat="62.631870539676" lon="17.898641701886">
        <ele>140.8</ele>
        <time>2017-11-26T11:34:18Z</time>
      </trkpt>
      <trkpt lat="62.631872970427" lon="17.89868998163">
        <ele>140.8</ele>
        <time>2017-11-26T11:34:19Z</time>
      </trkpt>
      <trkpt lat="62.63187690992" lon="17.898759383762">
        <ele>141</ele>
        <time>2017-11-26T11:34:20Z</time>
      </trkpt>
      <trkpt lat="62.631878670119" lon="17.898811854456">
        <ele>141</ele>
        <time>2017-11-26T11:34:21Z</time>
      </trkpt>
      <trkpt lat="62.631881771422" lon="17.898865917711">
        <ele>141</ele>
        <time>2017-11-26T11:34:22Z</time>
      </trkpt>
      <trkpt lat="62.631883866897" lon="17.898924591011">
        <ele>141</ele>
        <time>2017-11-26T11:34:23Z</time>
      </trkpt>
      <trkpt lat="62.631888979856" lon="17.898975133868">
        <ele>141</ele>
        <time>2017-11-26T11:34:24Z</time>
      </trkpt>
      <trkpt lat="62.63189199734" lon="17.899029113304">
        <ele>141.2</ele>
        <time>2017-11-26T11:34:25Z</time>
      </trkpt>
      <trkpt lat="62.631893757539" lon="17.899087954242">
        <ele>141.2</ele>
        <time>2017-11-26T11:34:26Z</time>
      </trkpt>
      <trkpt lat="62.631896942661" lon="17.899141849859">
        <ele>141.2</ele>
        <time>2017-11-26T11:34:27Z</time>
      </trkpt>
      <trkpt lat="62.631899373412" lon="17.899191303069">
        <ele>141.2</ele>
        <time>2017-11-26T11:34:28Z</time>
      </trkpt>
      <trkpt lat="62.631902139439" lon="17.899245450143">
        <ele>141.2</ele>
        <time>2017-11-26T11:34:29Z</time>
      </trkpt>
      <trkpt lat="62.631904318733" lon="17.899302949977">
        <ele>141.2</ele>
        <time>2017-11-26T11:34:30Z</time>
      </trkpt>
      <trkpt lat="62.631905659837" lon="17.8993546663">
        <ele>141.2</ele>
        <time>2017-11-26T11:34:31Z</time>
      </trkpt>
      <trkpt lat="62.631911191891" lon="17.899412920505">
        <ele>141.2</ele>
        <time>2017-11-26T11:34:32Z</time>
      </trkpt>
      <trkpt lat="62.631913622642" lon="17.89945608729">
        <ele>141.4</ele>
        <time>2017-11-26T11:34:33Z</time>
      </trkpt>
      <trkpt lat="62.631914544651" lon="17.89951224602">
        <ele>141.4</ele>
        <time>2017-11-26T11:34:34Z</time>
      </trkpt>
      <trkpt lat="62.631913035909" lon="17.899564884352">
        <ele>141.6</ele>
        <time>2017-11-26T11:34:35Z</time>
      </trkpt>
      <trkpt lat="62.631915299022" lon="17.899619366702">
        <ele>141.6</ele>
        <time>2017-11-26T11:34:36Z</time>
      </trkpt>
      <trkpt lat="62.631920328162" lon="17.899671166844">
        <ele>141.6</ele>
        <time>2017-11-26T11:34:37Z</time>
      </trkpt>
      <trkpt lat="62.631923764741" lon="17.899723553719">
        <ele>141.8</ele>
        <time>2017-11-26T11:34:38Z</time>
      </trkpt>
      <trkpt lat="62.631924519112" lon="17.899770324721">
        <ele>141.8</ele>
        <time>2017-11-26T11:34:39Z</time>
      </trkpt>
      <trkpt lat="62.631924854388" lon="17.899829333297">
        <ele>141.8</ele>
        <time>2017-11-26T11:34:40Z</time>
      </trkpt>
      <trkpt lat="62.631926195492" lon="17.899877780679">
        <ele>142</ele>
        <time>2017-11-26T11:34:41Z</time>
      </trkpt>
      <trkpt lat="62.631929045338" lon="17.899932095391">
        <ele>142</ele>
        <time>2017-11-26T11:34:42Z</time>
      </trkpt>
      <trkpt lat="62.631930134985" lon="17.899991606881">
        <ele>142</ele>
        <time>2017-11-26T11:34:43Z</time>
      </trkpt>
      <trkpt lat="62.63193223046" lon="17.900035611856">
        <ele>142</ele>
        <time>2017-11-26T11:34:44Z</time>
      </trkpt>
      <trkpt lat="62.631932733374" lon="17.900090261844">
        <ele>142</ele>
        <time>2017-11-26T11:34:45Z</time>
      </trkpt>
      <trkpt lat="62.631933571564" lon="17.900144660375">
        <ele>142.2</ele>
        <time>2017-11-26T11:34:46Z</time>
      </trkpt>
      <trkpt lat="62.631936924324" lon="17.900193526852">
        <ele>142.2</ele>
        <time>2017-11-26T11:34:47Z</time>
      </trkpt>
      <trkpt lat="62.631937678695" lon="17.900250775229">
        <ele>142.2</ele>
        <time>2017-11-26T11:34:48Z</time>
      </trkpt>
      <trkpt lat="62.631939857989" lon="17.900308861796">
        <ele>142.4</ele>
        <time>2017-11-26T11:34:49Z</time>
      </trkpt>
      <trkpt lat="62.631942204921" lon="17.900360997214">
        <ele>142.4</ele>
        <time>2017-11-26T11:34:50Z</time>
      </trkpt>
      <trkpt lat="62.631943546025" lon="17.90041749122">
        <ele>142.6</ele>
        <time>2017-11-26T11:34:51Z</time>
      </trkpt>
      <trkpt lat="62.631947820794" lon="17.900478846728">
        <ele>142.6</ele>
        <time>2017-11-26T11:34:52Z</time>
      </trkpt>
      <trkpt lat="62.631953017572" lon="17.900526372101">
        <ele>142.6</ele>
        <time>2017-11-26T11:34:53Z</time>
      </trkpt>
      <trkpt lat="62.631955448323" lon="17.900585883591">
        <ele>142.6</ele>
        <time>2017-11-26T11:34:54Z</time>
      </trkpt>
      <trkpt lat="62.63195989073" lon="17.900649166936">
        <ele>142.6</ele>
        <time>2017-11-26T11:34:55Z</time>
      </trkpt>
      <trkpt lat="62.631965171327" lon="17.900702559639">
        <ele>142.8</ele>
        <time>2017-11-26T11:34:56Z</time>
      </trkpt>
      <trkpt lat="62.631971457752" lon="17.90075695817">
        <ele>142.8</ele>
        <time>2017-11-26T11:34:57Z</time>
      </trkpt>
      <trkpt lat="62.631974642874" lon="17.900812530167">
        <ele>142.6</ele>
        <time>2017-11-26T11:34:58Z</time>
      </trkpt>
      <trkpt lat="62.631977827996" lon="17.900858714436">
        <ele>142.8</ele>
        <time>2017-11-26T11:34:59Z</time>
      </trkpt>
      <trkpt lat="62.631982605679" lon="17.900920908134">
        <ele>142.8</ele>
        <time>2017-11-26T11:35:00Z</time>
      </trkpt>
      <trkpt lat="62.631986628991" lon="17.900983101832">
        <ele>142.6</ele>
        <time>2017-11-26T11:35:01Z</time>
      </trkpt>
      <trkpt lat="62.63199425652" lon="17.901030962481">
        <ele>142.6</ele>
        <time>2017-11-26T11:35:02Z</time>
      </trkpt>
      <trkpt lat="62.632000375307" lon="17.901091312161">
        <ele>142.6</ele>
        <time>2017-11-26T11:35:03Z</time>
      </trkpt>
      <trkpt lat="62.632004650076" lon="17.901145459235">
        <ele>142.6</ele>
        <time>2017-11-26T11:35:04Z</time>
      </trkpt>
      <trkpt lat="62.632011942329" lon="17.901191811142">
        <ele>142.6</ele>
        <time>2017-11-26T11:35:05Z</time>
      </trkpt>
      <trkpt lat="62.632017390564" lon="17.901242102542">
        <ele>142.6</ele>
        <time>2017-11-26T11:35:06Z</time>
      </trkpt>
      <trkpt lat="62.632021665333" lon="17.90131100176">
        <ele>142.6</ele>
        <time>2017-11-26T11:35:07Z</time>
      </trkpt>
      <trkpt lat="62.632025604826" lon="17.901361544617">
        <ele>142.4</ele>
        <time>2017-11-26T11:35:08Z</time>
      </trkpt>
      <trkpt lat="62.632031053061" lon="17.9014166137">
        <ele>142.4</ele>
        <time>2017-11-26T11:35:09Z</time>
      </trkpt>
      <trkpt lat="62.632036668934" lon="17.90147361062">
        <ele>142.2</ele>
        <time>2017-11-26T11:35:10Z</time>
      </trkpt>
      <trkpt lat="62.632041530436" lon="17.901519962527">
        <ele>142.2</ele>
        <time>2017-11-26T11:35:11Z</time>
      </trkpt>
      <trkpt lat="62.632047230128" lon="17.901580479845">
        <ele>142.2</ele>
        <time>2017-11-26T11:35:12Z</time>
      </trkpt>
      <trkpt lat="62.632049325603" lon="17.901631274159">
        <ele>142</ele>
        <time>2017-11-26T11:35:13Z</time>
      </trkpt>
      <trkpt lat="62.632053432734" lon="17.901677709885">
        <ele>142</ele>
        <time>2017-11-26T11:35:14Z</time>
      </trkpt>
      <trkpt lat="62.63205795896" lon="17.901730432036">
        <ele>142</ele>
        <time>2017-11-26T11:35:15Z</time>
      </trkpt>
      <trkpt lat="62.632063239557" lon="17.901781142531">
        <ele>142</ele>
        <time>2017-11-26T11:35:16Z</time>
      </trkpt>
      <trkpt lat="62.632067849602" lon="17.901823890221">
        <ele>141.8</ele>
        <time>2017-11-26T11:35:17Z</time>
      </trkpt>
      <trkpt lat="62.632075896226" lon="17.901882228245">
        <ele>141.8</ele>
        <time>2017-11-26T11:35:18Z</time>
      </trkpt>
      <trkpt lat="62.632081009185" lon="17.901931346179">
        <ele>141.6</ele>
        <time>2017-11-26T11:35:19Z</time>
      </trkpt>
      <trkpt lat="62.632085954506" lon="17.90198323014">
        <ele>141.6</ele>
        <time>2017-11-26T11:35:20Z</time>
      </trkpt>
      <trkpt lat="62.632090061637" lon="17.902044250372">
        <ele>141.4</ele>
        <time>2017-11-26T11:35:21Z</time>
      </trkpt>
      <trkpt lat="62.632094923139" lon="17.902097894532">
        <ele>141.4</ele>
        <time>2017-11-26T11:35:22Z</time>
      </trkpt>
      <trkpt lat="62.632100287555" lon="17.902148102113">
        <ele>141.4</ele>
        <time>2017-11-26T11:35:23Z</time>
      </trkpt>
      <trkpt lat="62.632108669455" lon="17.902206775413">
        <ele>141.4</ele>
        <time>2017-11-26T11:35:24Z</time>
      </trkpt>
      <trkpt lat="62.632116045527" lon="17.902262515048">
        <ele>141.2</ele>
        <time>2017-11-26T11:35:25Z</time>
      </trkpt>
      <trkpt lat="62.632121577581" lon="17.902314147552">
        <ele>141.4</ele>
        <time>2017-11-26T11:35:26Z</time>
      </trkpt>
      <trkpt lat="62.632124762703" lon="17.902368965178">
        <ele>141.2</ele>
        <time>2017-11-26T11:35:27Z</time>
      </trkpt>
      <trkpt lat="62.632128618377" lon="17.90241657437">
        <ele>141.2</ele>
        <time>2017-11-26T11:35:28Z</time>
      </trkpt>
      <trkpt lat="62.632133731336" lon="17.902464015924">
        <ele>141.2</ele>
        <time>2017-11-26T11:35:29Z</time>
      </trkpt>
      <trkpt lat="62.632137754648" lon="17.902527466907">
        <ele>141.2</ele>
        <time>2017-11-26T11:35:30Z</time>
      </trkpt>
      <trkpt lat="62.632141945598" lon="17.902578680316">
        <ele>141.2</ele>
        <time>2017-11-26T11:35:31Z</time>
      </trkpt>
      <trkpt lat="62.632147226195" lon="17.902631402467">
        <ele>141.4</ele>
        <time>2017-11-26T11:35:32Z</time>
      </trkpt>
      <trkpt lat="62.632150746593" lon="17.902689237577">
        <ele>141.4</ele>
        <time>2017-11-26T11:35:33Z</time>
      </trkpt>
      <trkpt lat="62.632155272819" lon="17.902734667475">
        <ele>141.4</ele>
        <time>2017-11-26T11:35:34Z</time>
      </trkpt>
      <trkpt lat="62.632156949199" lon="17.902782779581">
        <ele>141.4</ele>
        <time>2017-11-26T11:35:35Z</time>
      </trkpt>
      <trkpt lat="62.632163319443" lon="17.90283399299">
        <ele>141.4</ele>
        <time>2017-11-26T11:35:36Z</time>
      </trkpt>
      <trkpt lat="62.632167007479" lon="17.902888307702">
        <ele>141.4</ele>
        <time>2017-11-26T11:35:37Z</time>
      </trkpt>
      <trkpt lat="62.632175221741" lon="17.902940862215">
        <ele>141.4</ele>
        <time>2017-11-26T11:35:38Z</time>
      </trkpt>
      <trkpt lat="62.6321803347" lon="17.902997188583">
        <ele>141.2</ele>
        <time>2017-11-26T11:35:39Z</time>
      </trkpt>
      <trkpt lat="62.632189303333" lon="17.903044797775">
        <ele>141.2</ele>
        <time>2017-11-26T11:35:40Z</time>
      </trkpt>
      <trkpt lat="62.632194081016" lon="17.903096765555">
        <ele>141.4</ele>
        <time>2017-11-26T11:35:41Z</time>
      </trkpt>
      <trkpt lat="62.632198691061" lon="17.903155438855">
        <ele>141.4</ele>
        <time>2017-11-26T11:35:42Z</time>
      </trkpt>
      <trkpt lat="62.632201457088" lon="17.9032019584">
        <ele>141.4</ele>
        <time>2017-11-26T11:35:43Z</time>
      </trkpt>
      <trkpt lat="62.632206905323" lon="17.90325727894">
        <ele>141.4</ele>
        <time>2017-11-26T11:35:44Z</time>
      </trkpt>
      <trkpt lat="62.632212018282" lon="17.903315616964">
        <ele>141.6</ele>
        <time>2017-11-26T11:35:45Z</time>
      </trkpt>
      <trkpt lat="62.63221637687" lon="17.903363309975">
        <ele>141.6</ele>
        <time>2017-11-26T11:35:46Z</time>
      </trkpt>
      <trkpt lat="62.63221637687" lon="17.903416283583">
        <ele>141.6</ele>
        <time>2017-11-26T11:35:47Z</time>
      </trkpt>
      <trkpt lat="62.63221972963" lon="17.90347520834">
        <ele>141.8</ele>
        <time>2017-11-26T11:35:48Z</time>
      </trkpt>
      <trkpt lat="62.632224423494" lon="17.903519045677">
        <ele>141.8</ele>
        <time>2017-11-26T11:35:49Z</time>
      </trkpt>
      <trkpt lat="62.632228698263" lon="17.903573611846">
        <ele>141.8</ele>
        <time>2017-11-26T11:35:50Z</time>
      </trkpt>
      <trkpt lat="62.632233895041" lon="17.903628178015">
        <ele>141.8</ele>
        <time>2017-11-26T11:35:51Z</time>
      </trkpt>
      <trkpt lat="62.63223816981" lon="17.903680481071">
        <ele>141.8</ele>
        <time>2017-11-26T11:35:52Z</time>
      </trkpt>
      <trkpt lat="62.632245629701" lon="17.90373588543">
        <ele>141.8</ele>
        <time>2017-11-26T11:35:53Z</time>
      </trkpt>
      <trkpt lat="62.632252921954" lon="17.903794391092">
        <ele>141.8</ele>
        <time>2017-11-26T11:35:54Z</time>
      </trkpt>
      <trkpt lat="62.632257951094" lon="17.903847616157">
        <ele>141.8</ele>
        <time>2017-11-26T11:35:55Z</time>
      </trkpt>
      <trkpt lat="62.632264069881" lon="17.903907295285">
        <ele>141.8</ele>
        <time>2017-11-26T11:35:56Z</time>
      </trkpt>
      <trkpt lat="62.632268847564" lon="17.903961274721">
        <ele>142</ele>
        <time>2017-11-26T11:35:57Z</time>
      </trkpt>
      <trkpt lat="62.632275301627" lon="17.904011985216">
        <ele>142</ele>
        <time>2017-11-26T11:35:58Z</time>
      </trkpt>
      <trkpt lat="62.632279073482" lon="17.904065461738">
        <ele>142</ele>
        <time>2017-11-26T11:35:59Z</time>
      </trkpt>
      <trkpt lat="62.632284689355" lon="17.904124889409">
        <ele>142</ele>
        <time>2017-11-26T11:36:00Z</time>
      </trkpt>
      <trkpt lat="62.632289969952" lon="17.904177695379">
        <ele>142</ele>
        <time>2017-11-26T11:36:01Z</time>
      </trkpt>
      <trkpt lat="62.632293909445" lon="17.904237709783">
        <ele>142</ele>
        <time>2017-11-26T11:36:02Z</time>
      </trkpt>
      <trkpt lat="62.632298351852" lon="17.904294203789">
        <ele>142.2</ele>
        <time>2017-11-26T11:36:03Z</time>
      </trkpt>
      <trkpt lat="62.632302458983" lon="17.904345081922">
        <ele>142.2</ele>
        <time>2017-11-26T11:36:04Z</time>
      </trkpt>
      <trkpt lat="62.632304638277" lon="17.904405766878">
        <ele>142.4</ele>
        <time>2017-11-26T11:36:05Z</time>
      </trkpt>
      <trkpt lat="62.632310337969" lon="17.904463099074">
        <ele>142.4</ele>
        <time>2017-11-26T11:36:06Z</time>
      </trkpt>
      <trkpt lat="62.632312936358" lon="17.904515150673">
        <ele>142.6</ele>
        <time>2017-11-26T11:36:07Z</time>
      </trkpt>
      <trkpt lat="62.632315786204" lon="17.904573823973">
        <ele>142.6</ele>
        <time>2017-11-26T11:36:08Z</time>
      </trkpt>
      <trkpt lat="62.632321653534" lon="17.904623612459">
        <ele>142.6</ele>
        <time>2017-11-26T11:36:09Z</time>
      </trkpt>
      <trkpt lat="62.63232450338" lon="17.904678681542">
        <ele>142.6</ele>
        <time>2017-11-26T11:36:10Z</time>
      </trkpt>
      <trkpt lat="62.632326012122" lon="17.904734504996">
        <ele>142.6</ele>
        <time>2017-11-26T11:36:11Z</time>
      </trkpt>
      <trkpt lat="62.632327939959" lon="17.904788065337">
        <ele>142.6</ele>
        <time>2017-11-26T11:36:12Z</time>
      </trkpt>
      <trkpt lat="62.63233037071" lon="17.904846068085">
        <ele>142.6</ele>
        <time>2017-11-26T11:36:13Z</time>
      </trkpt>
      <trkpt lat="62.632330454529" lon="17.904906753041">
        <ele>142.6</ele>
        <time>2017-11-26T11:36:14Z</time>
      </trkpt>
      <trkpt lat="62.632331963271" lon="17.904964001418">
        <ele>142.8</ele>
        <time>2017-11-26T11:36:15Z</time>
      </trkpt>
      <trkpt lat="62.632329700158" lon="17.90501496337">
        <ele>142.8</ele>
        <time>2017-11-26T11:36:16Z</time>
      </trkpt>
      <trkpt lat="62.632326263579" lon="17.905064835675">
        <ele>142.8</ele>
        <time>2017-11-26T11:36:17Z</time>
      </trkpt>
      <trkpt lat="62.632323749009" lon="17.905119234206">
        <ele>142.8</ele>
        <time>2017-11-26T11:36:18Z</time>
      </trkpt>
      <trkpt lat="62.632320647706" lon="17.905170699072">
        <ele>142.8</ele>
        <time>2017-11-26T11:36:19Z</time>
      </trkpt>
      <trkpt lat="62.632321318258" lon="17.90523373096">
        <ele>142.8</ele>
        <time>2017-11-26T11:36:20Z</time>
      </trkpt>
      <trkpt lat="62.632315702385" lon="17.905283016532">
        <ele>142.8</ele>
        <time>2017-11-26T11:36:21Z</time>
      </trkpt>
      <trkpt lat="62.632312265806" lon="17.905339510538">
        <ele>142.6</ele>
        <time>2017-11-26T11:36:22Z</time>
      </trkpt>
      <trkpt lat="62.632305811743" lon="17.905393909069">
        <ele>142.4</ele>
        <time>2017-11-26T11:36:23Z</time>
      </trkpt>
      <trkpt lat="62.632296759291" lon="17.905444619564">
        <ele>142.4</ele>
        <time>2017-11-26T11:36:24Z</time>
      </trkpt>
      <trkpt lat="62.632288964124" lon="17.90550278995">
        <ele>142.2</ele>
        <time>2017-11-26T11:36:25Z</time>
      </trkpt>
      <trkpt lat="62.632281252776" lon="17.905553332807">
        <ele>142.2</ele>
        <time>2017-11-26T11:36:26Z</time>
      </trkpt>
      <trkpt lat="62.632275553084" lon="17.905604713854">
        <ele>142.2</ele>
        <time>2017-11-26T11:36:27Z</time>
      </trkpt>
      <trkpt lat="62.632266835908" lon="17.905657519824">
        <ele>142.2</ele>
        <time>2017-11-26T11:36:28Z</time>
      </trkpt>
      <trkpt lat="62.632258454008" lon="17.905707140672">
        <ele>142</ele>
        <time>2017-11-26T11:36:29Z</time>
      </trkpt>
      <trkpt lat="62.632252251402" lon="17.905763131764">
        <ele>142</ele>
        <time>2017-11-26T11:36:30Z</time>
      </trkpt>
      <trkpt lat="62.63224403714" lon="17.905817697933">
        <ele>141.8</ele>
        <time>2017-11-26T11:36:31Z</time>
      </trkpt>
      <trkpt lat="62.632236241973" lon="17.905870000989">
        <ele>141.8</ele>
        <time>2017-11-26T11:36:32Z</time>
      </trkpt>
      <trkpt lat="62.63222811153" lon="17.905924986253">
        <ele>141.8</ele>
        <time>2017-11-26T11:36:33Z</time>
      </trkpt>
      <trkpt lat="62.632219226716" lon="17.905973601273">
        <ele>141.6</ele>
        <time>2017-11-26T11:36:34Z</time>
      </trkpt>
      <trkpt lat="62.632211263911" lon="17.906023976492">
        <ele>141.4</ele>
        <time>2017-11-26T11:36:35Z</time>
      </trkpt>
      <trkpt lat="62.632204726029" lon="17.906066808001">
        <ele>141.2</ele>
        <time>2017-11-26T11:36:36Z</time>
      </trkpt>
      <trkpt lat="62.632196427948" lon="17.906123721102">
        <ele>141.2</ele>
        <time>2017-11-26T11:36:37Z</time>
      </trkpt>
      <trkpt lat="62.6321887166" lon="17.906176024158">
        <ele>141</ele>
        <time>2017-11-26T11:36:38Z</time>
      </trkpt>
      <trkpt lat="62.632180921433" lon="17.906223549531">
        <ele>141</ele>
        <time>2017-11-26T11:36:39Z</time>
      </trkpt>
      <trkpt lat="62.632169270592" lon="17.90628398303">
        <ele>140.8</ele>
        <time>2017-11-26T11:36:40Z</time>
      </trkpt>
      <trkpt lat="62.632161223968" lon="17.906331089308">
        <ele>140.6</ele>
        <time>2017-11-26T11:36:41Z</time>
      </trkpt>
      <trkpt lat="62.632157200656" lon="17.906382805631">
        <ele>140.8</ele>
        <time>2017-11-26T11:36:42Z</time>
      </trkpt>
      <trkpt lat="62.632147896747" lon="17.906433264669">
        <ele>140.6</ele>
        <time>2017-11-26T11:36:43Z</time>
      </trkpt>
      <trkpt lat="62.632137838467" lon="17.90648431044">
        <ele>140.6</ele>
        <time>2017-11-26T11:36:44Z</time>
      </trkpt>
      <trkpt lat="62.63213171968" lon="17.906534350383">
        <ele>140.6</ele>
        <time>2017-11-26T11:36:45Z</time>
      </trkpt>
      <trkpt lat="62.632122751047" lon="17.906588246">
        <ele>140.4</ele>
        <time>2017-11-26T11:36:46Z</time>
      </trkpt>
      <trkpt lat="62.632117805726" lon="17.90663350826">
        <ele>140.4</ele>
        <time>2017-11-26T11:36:47Z</time>
      </trkpt>
      <trkpt lat="62.632110513473" lon="17.906690421361">
        <ele>140.4</ele>
        <time>2017-11-26T11:36:48Z</time>
      </trkpt>
      <trkpt lat="62.632101963935" lon="17.90674331115">
        <ele>140.4</ele>
        <time>2017-11-26T11:36:49Z</time>
      </trkpt>
      <trkpt lat="62.632094755501" lon="17.906800224251">
        <ele>140.4</ele>
        <time>2017-11-26T11:36:50Z</time>
      </trkpt>
      <trkpt lat="62.632087379429" lon="17.906847833443">
        <ele>140.2</ele>
        <time>2017-11-26T11:36:51Z</time>
      </trkpt>
      <trkpt lat="62.632077991701" lon="17.906904746544">
        <ele>140.4</ele>
        <time>2017-11-26T11:36:52Z</time>
      </trkpt>
      <trkpt lat="62.632070028896" lon="17.906949924985">
        <ele>140.2</ele>
        <time>2017-11-26T11:36:53Z</time>
      </trkpt>
      <trkpt lat="62.632061563177" lon="17.907005077887">
        <ele>140.2</ele>
        <time>2017-11-26T11:36:54Z</time>
      </trkpt>
      <trkpt lat="62.632053348915" lon="17.907067355404">
        <ele>140.2</ele>
        <time>2017-11-26T11:36:55Z</time>
      </trkpt>
      <trkpt lat="62.6320462243" lon="17.90711127656">
        <ele>140</ele>
        <time>2017-11-26T11:36:56Z</time>
      </trkpt>
      <trkpt lat="62.632042284807" lon="17.907161400322">
        <ele>140</ele>
        <time>2017-11-26T11:36:57Z</time>
      </trkpt>
      <trkpt lat="62.632034573459" lon="17.907205321478">
        <ele>140</ele>
        <time>2017-11-26T11:36:58Z</time>
      </trkpt>
      <trkpt lat="62.632028538491" lon="17.907248320625">
        <ele>140</ele>
        <time>2017-11-26T11:36:59Z</time>
      </trkpt>
      <trkpt lat="62.632018312573" lon="17.907313447988">
        <ele>140</ele>
        <time>2017-11-26T11:37:00Z</time>
      </trkpt>
      <trkpt lat="62.632012529062" lon="17.907365331949">
        <ele>139.8</ele>
        <time>2017-11-26T11:37:01Z</time>
      </trkpt>
      <trkpt lat="62.632004566257" lon="17.907418724652">
        <ele>139.8</ele>
        <time>2017-11-26T11:37:02Z</time>
      </trkpt>
      <trkpt lat="62.631994675615" lon="17.907475218658">
        <ele>139.8</ele>
        <time>2017-11-26T11:37:03Z</time>
      </trkpt>
      <trkpt lat="62.631986377534" lon="17.907526851162">
        <ele>139.6</ele>
        <time>2017-11-26T11:37:04Z</time>
      </trkpt>
      <trkpt lat="62.631979923471" lon="17.907584099539">
        <ele>139.6</ele>
        <time>2017-11-26T11:37:05Z</time>
      </trkpt>
      <trkpt lat="62.631968943182" lon="17.90764268902">
        <ele>139.4</ele>
        <time>2017-11-26T11:37:06Z</time>
      </trkpt>
      <trkpt lat="62.631958549626" lon="17.907704547442">
        <ele>139.4</ele>
        <time>2017-11-26T11:37:07Z</time>
      </trkpt>
      <trkpt lat="62.631954442495" lon="17.907754503566">
        <ele>139.4</ele>
        <time>2017-11-26T11:37:08Z</time>
      </trkpt>
      <trkpt lat="62.631948239889" lon="17.907808147726">
        <ele>139.2</ele>
        <time>2017-11-26T11:37:09Z</time>
      </trkpt>
      <trkpt lat="62.631940444722" lon="17.907866401931">
        <ele>139.2</ele>
        <time>2017-11-26T11:37:10Z</time>
      </trkpt>
      <trkpt lat="62.63193055408" lon="17.907915771322">
        <ele>139.2</ele>
        <time>2017-11-26T11:37:11Z</time>
      </trkpt>
      <trkpt lat="62.631919825248" lon="17.907973606432">
        <ele>139</ele>
        <time>2017-11-26T11:37:12Z</time>
      </trkpt>
      <trkpt lat="62.631911862443" lon="17.908022975823">
        <ele>139</ele>
        <time>2017-11-26T11:37:13Z</time>
      </trkpt>
      <trkpt lat="62.631903061448" lon="17.908077039078">
        <ele>139</ele>
        <time>2017-11-26T11:37:14Z</time>
      </trkpt>
      <trkpt lat="62.631892919349" lon="17.908133449265">
        <ele>139</ele>
        <time>2017-11-26T11:37:15Z</time>
      </trkpt>
      <trkpt lat="62.631882693431" lon="17.908182734837">
        <ele>139</ele>
        <time>2017-11-26T11:37:16Z</time>
      </trkpt>
      <trkpt lat="62.631872970427" lon="17.908234954074">
        <ele>139</ele>
        <time>2017-11-26T11:37:17Z</time>
      </trkpt>
      <trkpt lat="62.631867438373" lon="17.908294968478">
        <ele>139</ele>
        <time>2017-11-26T11:37:18Z</time>
      </trkpt>
      <trkpt lat="62.631862241595" lon="17.90834593043">
        <ele>138.8</ele>
        <time>2017-11-26T11:37:19Z</time>
      </trkpt>
      <trkpt lat="62.63185260241" lon="17.90841047106">
        <ele>138.8</ele>
        <time>2017-11-26T11:37:20Z</time>
      </trkpt>
      <trkpt lat="62.631846232166" lon="17.90846746798">
        <ele>138.6</ele>
        <time>2017-11-26T11:37:21Z</time>
      </trkpt>
      <trkpt lat="62.631838520818" lon="17.908522872339">
        <ele>138.6</ele>
        <time>2017-11-26T11:37:22Z</time>
      </trkpt>
      <trkpt lat="62.631833072583" lon="17.908578025241">
        <ele>138.6</ele>
        <time>2017-11-26T11:37:23Z</time>
      </trkpt>
      <trkpt lat="62.631823936312" lon="17.908636447084">
        <ele>138.6</ele>
        <time>2017-11-26T11:37:24Z</time>
      </trkpt>
      <trkpt lat="62.631815889688" lon="17.908697802592">
        <ele>138.6</ele>
        <time>2017-11-26T11:37:25Z</time>
      </trkpt>
      <trkpt lat="62.631806334322" lon="17.908754631874">
        <ele>138.6</ele>
        <time>2017-11-26T11:37:26Z</time>
      </trkpt>
      <trkpt lat="62.63179812006" lon="17.908807689301">
        <ele>138.6</ele>
        <time>2017-11-26T11:37:27Z</time>
      </trkpt>
      <trkpt lat="62.631791246902" lon="17.908860495271">
        <ele>138.6</ele>
        <time>2017-11-26T11:37:28Z</time>
      </trkpt>
      <trkpt lat="62.631784876658" lon="17.908913301241">
        <ele>138.4</ele>
        <time>2017-11-26T11:37:29Z</time>
      </trkpt>
      <trkpt lat="62.631777668224" lon="17.908977338957">
        <ele>138.2</ele>
        <time>2017-11-26T11:37:30Z</time>
      </trkpt>
      <trkpt lat="62.63176878341" lon="17.909041795768">
        <ele>138</ele>
        <time>2017-11-26T11:37:31Z</time>
      </trkpt>
      <trkpt lat="62.631763083718" lon="17.909099966154">
        <ele>138</ele>
        <time>2017-11-26T11:37:32Z</time>
      </trkpt>
      <trkpt lat="62.631754869456" lon="17.909158723273">
        <ele>137.8</ele>
        <time>2017-11-26T11:37:33Z</time>
      </trkpt>
      <trkpt lat="62.63174531409" lon="17.909215552555">
        <ele>137.8</ele>
        <time>2017-11-26T11:37:34Z</time>
      </trkpt>
      <trkpt lat="62.631737602742" lon="17.909271711285">
        <ele>137.8</ele>
        <time>2017-11-26T11:37:35Z</time>
      </trkpt>
      <trkpt lat="62.631729137023" lon="17.909331893327">
        <ele>137.6</ele>
        <time>2017-11-26T11:37:36Z</time>
      </trkpt>
      <trkpt lat="62.631720252209" lon="17.909393165016">
        <ele>137.6</ele>
        <time>2017-11-26T11:37:37Z</time>
      </trkpt>
      <trkpt lat="62.631714133422" lon="17.909445300434">
        <ele>137.6</ele>
        <time>2017-11-26T11:37:38Z</time>
      </trkpt>
      <trkpt lat="62.631704661875" lon="17.909502464992">
        <ele>137.6</ele>
        <time>2017-11-26T11:37:39Z</time>
      </trkpt>
      <trkpt lat="62.631694100681" lon="17.909562311758">
        <ele>137.6</ele>
        <time>2017-11-26T11:37:40Z</time>
      </trkpt>
      <trkpt lat="62.631687143704" lon="17.909609585674">
        <ele>137.6</ele>
        <time>2017-11-26T11:37:41Z</time>
      </trkpt>
      <trkpt lat="62.631677755976" lon="17.909673288114">
        <ele>137.4</ele>
        <time>2017-11-26T11:37:42Z</time>
      </trkpt>
      <trkpt lat="62.631670882818" lon="17.909724585342">
        <ele>137.4</ele>
        <time>2017-11-26T11:37:43Z</time>
      </trkpt>
      <trkpt lat="62.631659902529" lon="17.909783007185">
        <ele>137.4</ele>
        <time>2017-11-26T11:37:44Z</time>
      </trkpt>
      <trkpt lat="62.631648586964" lon="17.909844362693">
        <ele>137.2</ele>
        <time>2017-11-26T11:37:45Z</time>
      </trkpt>
      <trkpt lat="62.631640288883" lon="17.90989825831">
        <ele>137.2</ele>
        <time>2017-11-26T11:37:46Z</time>
      </trkpt>
      <trkpt lat="62.631633248087" lon="17.909951986289">
        <ele>137</ele>
        <time>2017-11-26T11:37:47Z</time>
      </trkpt>
      <trkpt lat="62.631622183979" lon="17.910016526919">
        <ele>136.8</ele>
        <time>2017-11-26T11:37:48Z</time>
      </trkpt>
      <trkpt lat="62.631613215346" lon="17.910064471387">
        <ele>136.8</ele>
        <time>2017-11-26T11:37:49Z</time>
      </trkpt>
      <trkpt lat="62.631600810134" lon="17.910128006189">
        <ele>136.8</ele>
        <time>2017-11-26T11:37:50Z</time>
      </trkpt>
      <trkpt lat="62.631591170949" lon="17.910184416376">
        <ele>136.8</ele>
        <time>2017-11-26T11:37:51Z</time>
      </trkpt>
      <trkpt lat="62.631581196488" lon="17.910239234002">
        <ele>136.6</ele>
        <time>2017-11-26T11:37:52Z</time>
      </trkpt>
      <trkpt lat="62.63157097057" lon="17.910293213438">
        <ele>136.6</ele>
        <time>2017-11-26T11:37:53Z</time>
      </trkpt>
      <trkpt lat="62.631559990281" lon="17.910346522322">
        <ele>136.6</ele>
        <time>2017-11-26T11:37:54Z</time>
      </trkpt>
      <trkpt lat="62.631552446571" lon="17.910402261957">
        <ele>136.6</ele>
        <time>2017-11-26T11:37:55Z</time>
      </trkpt>
      <trkpt lat="62.631544399947" lon="17.910455570841">
        <ele>136.4</ele>
        <time>2017-11-26T11:37:56Z</time>
      </trkpt>
      <trkpt lat="62.631534676943" lon="17.910506616612">
        <ele>136.2</ele>
        <time>2017-11-26T11:37:57Z</time>
      </trkpt>
      <trkpt lat="62.631528139061" lon="17.910555147813">
        <ele>136.2</ele>
        <time>2017-11-26T11:37:58Z</time>
      </trkpt>
      <trkpt lat="62.631520846808" lon="17.910608289059">
        <ele>136.2</ele>
        <time>2017-11-26T11:37:59Z</time>
      </trkpt>
      <trkpt lat="62.631513303098" lon="17.910672410594">
        <ele>136.2</ele>
        <time>2017-11-26T11:38:00Z</time>
      </trkpt>
      <trkpt lat="62.631508022501" lon="17.910729994247">
        <ele>136.2</ele>
        <time>2017-11-26T11:38:01Z</time>
      </trkpt>
      <trkpt lat="62.631501149343" lon="17.910778190172">
        <ele>136.2</ele>
        <time>2017-11-26T11:38:02Z</time>
      </trkpt>
      <trkpt lat="62.631493270357" lon="17.910830744685">
        <ele>136.2</ele>
        <time>2017-11-26T11:38:03Z</time>
      </trkpt>
      <trkpt lat="62.631483547353" lon="17.910875755488">
        <ele>136.2</ele>
        <time>2017-11-26T11:38:04Z</time>
      </trkpt>
      <trkpt lat="62.631472818521" lon="17.910928058544">
        <ele>136</ele>
        <time>2017-11-26T11:38:05Z</time>
      </trkpt>
      <trkpt lat="62.631461083861" lon="17.910983881998">
        <ele>136</ele>
        <time>2017-11-26T11:38:06Z</time>
      </trkpt>
      <trkpt lat="62.631453121056" lon="17.911024366575">
        <ele>136</ele>
        <time>2017-11-26T11:38:07Z</time>
      </trkpt>
      <trkpt lat="62.631444487699" lon="17.911094774535">
        <ele>136</ele>
        <time>2017-11-26T11:38:08Z</time>
      </trkpt>
      <trkpt lat="62.631436524894" lon="17.911148418695">
        <ele>136</ele>
        <time>2017-11-26T11:38:09Z</time>
      </trkpt>
      <trkpt lat="62.631425209329" lon="17.911209355108">
        <ele>136.2</ele>
        <time>2017-11-26T11:38:10Z</time>
      </trkpt>
      <trkpt lat="62.631417749438" lon="17.911260652336">
        <ele>136.2</ele>
        <time>2017-11-26T11:38:11Z</time>
      </trkpt>
      <trkpt lat="62.63140836171" lon="17.911321002016">
        <ele>136.2</ele>
        <time>2017-11-26T11:38:12Z</time>
      </trkpt>
      <trkpt lat="62.631399057801" lon="17.911373891805">
        <ele>136.2</ele>
        <time>2017-11-26T11:38:13Z</time>
      </trkpt>
      <trkpt lat="62.631390927358" lon="17.91142879325">
        <ele>136.2</ele>
        <time>2017-11-26T11:38:14Z</time>
      </trkpt>
      <trkpt lat="62.631380785259" lon="17.911487634188">
        <ele>136.2</ele>
        <time>2017-11-26T11:38:15Z</time>
      </trkpt>
      <trkpt lat="62.631369972608" lon="17.911541026891">
        <ele>136</ele>
        <time>2017-11-26T11:38:16Z</time>
      </trkpt>
      <trkpt lat="62.631360501061" lon="17.911591150653">
        <ele>136</ele>
        <time>2017-11-26T11:38:17Z</time>
      </trkpt>
      <trkpt lat="62.631348598763" lon="17.911653511989">
        <ele>136.2</ele>
        <time>2017-11-26T11:38:18Z</time>
      </trkpt>
      <trkpt lat="62.631339294854" lon="17.911697936059">
        <ele>136.2</ele>
        <time>2017-11-26T11:38:19Z</time>
      </trkpt>
      <trkpt lat="62.631331918782" lon="17.911757782825">
        <ele>136.2</ele>
        <time>2017-11-26T11:38:20Z</time>
      </trkpt>
      <trkpt lat="62.631321776683" lon="17.911812181356">
        <ele>136.2</ele>
        <time>2017-11-26T11:38:21Z</time>
      </trkpt>
      <trkpt lat="62.631311550765" lon="17.911862640394">
        <ele>136.2</ele>
        <time>2017-11-26T11:38:22Z</time>
      </trkpt>
      <trkpt lat="62.631301157209" lon="17.911913937622">
        <ele>136.2</ele>
        <time>2017-11-26T11:38:23Z</time>
      </trkpt>
      <trkpt lat="62.631293194404" lon="17.91196774942">
        <ele>136.2</ele>
        <time>2017-11-26T11:38:24Z</time>
      </trkpt>
      <trkpt lat="62.631287159436" lon="17.912024662521">
        <ele>136.2</ele>
        <time>2017-11-26T11:38:25Z</time>
      </trkpt>
      <trkpt lat="62.63127592769" lon="17.912081240346">
        <ele>136.2</ele>
        <time>2017-11-26T11:38:26Z</time>
      </trkpt>
      <trkpt lat="62.631266959057" lon="17.912129855366">
        <ele>136.2</ele>
        <time>2017-11-26T11:38:27Z</time>
      </trkpt>
      <trkpt lat="62.631256900777" lon="17.912177045463">
        <ele>136.2</ele>
        <time>2017-11-26T11:38:28Z</time>
      </trkpt>
      <trkpt lat="62.631245669031" lon="17.912225409026">
        <ele>136.2</ele>
        <time>2017-11-26T11:38:29Z</time>
      </trkpt>
      <trkpt lat="62.63123485638" lon="17.912281651575">
        <ele>136.2</ele>
        <time>2017-11-26T11:38:30Z</time>
      </trkpt>
      <trkpt lat="62.631224211367" lon="17.912328422577">
        <ele>136.2</ele>
        <time>2017-11-26T11:38:31Z</time>
      </trkpt>
      <trkpt lat="62.63121306344" lon="17.912379468348">
        <ele>136.4</ele>
        <time>2017-11-26T11:38:32Z</time>
      </trkpt>
      <trkpt lat="62.631203256617" lon="17.912436632906">
        <ele>136.4</ele>
        <time>2017-11-26T11:38:33Z</time>
      </trkpt>
      <trkpt lat="62.63119210869" lon="17.912483152451">
        <ele>136.4</ele>
        <time>2017-11-26T11:38:34Z</time>
      </trkpt>
      <trkpt lat="62.631183140057" lon="17.9125310131">
        <ele>136.4</ele>
        <time>2017-11-26T11:38:35Z</time>
      </trkpt>
      <trkpt lat="62.63117366851" lon="17.912582226509">
        <ele>136.4</ele>
        <time>2017-11-26T11:38:36Z</time>
      </trkpt>
      <trkpt lat="62.631164951334" lon="17.91263411047">
        <ele>136.2</ele>
        <time>2017-11-26T11:38:37Z</time>
      </trkpt>
      <trkpt lat="62.631157575262" lon="17.912681132929">
        <ele>136.2</ele>
        <time>2017-11-26T11:38:38Z</time>
      </trkpt>
      <trkpt lat="62.631153049036" lon="17.912738213668">
        <ele>136.2</ele>
        <time>2017-11-26T11:38:39Z</time>
      </trkpt>
      <trkpt lat="62.631151121199" lon="17.912789510896">
        <ele>136.4</ele>
        <time>2017-11-26T11:38:40Z</time>
      </trkpt>
      <trkpt lat="62.631152462303" lon="17.912841730133">
        <ele>136.4</ele>
        <time>2017-11-26T11:38:41Z</time>
      </trkpt>
      <trkpt lat="62.631151959389" lon="17.91290149308">
        <ele>136.4</ele>
        <time>2017-11-26T11:38:42Z</time>
      </trkpt>
      <trkpt lat="62.631151372656" lon="17.91294004982">
        <ele>136.4</ele>
        <time>2017-11-26T11:38:43Z</time>
      </trkpt>
      <trkpt lat="62.631159670737" lon="17.912966955719">
        <ele>136.4</ele>
        <time>2017-11-26T11:38:44Z</time>
      </trkpt>
      <trkpt lat="62.631186660455" lon="17.912984809166">
        <ele>136.6</ele>
        <time>2017-11-26T11:38:45Z</time>
      </trkpt>
      <trkpt lat="62.63121473982" lon="17.912994699808">
        <ele>136.6</ele>
        <time>2017-11-26T11:38:46Z</time>
      </trkpt>
      <trkpt lat="62.631233682914" lon="17.912990257401">
        <ele>136.6</ele>
        <time>2017-11-26T11:38:47Z</time>
      </trkpt>
      <trkpt lat="62.631264695944" lon="17.912999226034">
        <ele>136.6</ele>
        <time>2017-11-26T11:38:48Z</time>
      </trkpt>
      <trkpt lat="62.631282381753" lon="17.913005261002">
        <ele>136.6</ele>
        <time>2017-11-26T11:38:49Z</time>
      </trkpt>
      <trkpt lat="62.631305767254" lon="17.91301213416">
        <ele>136.6</ele>
        <time>2017-11-26T11:38:50Z</time>
      </trkpt>
      <trkpt lat="62.631327811651" lon="17.913021605707">
        <ele>136.6</ele>
        <time>2017-11-26T11:38:51Z</time>
      </trkpt>
      <trkpt lat="62.631349939867" lon="17.913025880476">
        <ele>136.6</ele>
        <time>2017-11-26T11:38:52Z</time>
      </trkpt>
      <trkpt lat="62.631373325368" lon="17.913032921272">
        <ele>136.8</ele>
        <time>2017-11-26T11:38:53Z</time>
      </trkpt>
      <trkpt lat="62.631395621222" lon="17.913036190213">
        <ele>136.8</ele>
        <time>2017-11-26T11:38:54Z</time>
      </trkpt>
      <trkpt lat="62.631422275664" lon="17.913052451099">
        <ele>137</ele>
        <time>2017-11-26T11:38:55Z</time>
      </trkpt>
      <trkpt lat="62.631445577346" lon="17.913065694501">
        <ele>137</ele>
        <time>2017-11-26T11:38:56Z</time>
      </trkpt>
      <trkpt lat="62.631468124657" lon="17.913066029777">
        <ele>137</ele>
        <time>2017-11-26T11:38:57Z</time>
      </trkpt>
      <trkpt lat="62.631491593977" lon="17.913058821343">
        <ele>137.2</ele>
        <time>2017-11-26T11:38:58Z</time>
      </trkpt>
      <trkpt lat="62.63151397365" lon="17.91306661651">
        <ele>137.2</ele>
        <time>2017-11-26T11:38:59Z</time>
      </trkpt>
      <trkpt lat="62.631537191513" lon="17.913091594572">
        <ele>137.2</ele>
        <time>2017-11-26T11:39:00Z</time>
      </trkpt>
      <trkpt lat="62.631564432688" lon="17.913086984527">
        <ele>137.2</ele>
        <time>2017-11-26T11:39:01Z</time>
      </trkpt>
      <trkpt lat="62.631588069646" lon="17.913095785522">
        <ele>137.4</ele>
        <time>2017-11-26T11:39:02Z</time>
      </trkpt>
      <trkpt lat="62.631610114043" lon="17.913099725015">
        <ele>137.4</ele>
        <time>2017-11-26T11:39:03Z</time>
      </trkpt>
      <trkpt lat="62.631630565879" lon="17.913109280381">
        <ele>137.4</ele>
        <time>2017-11-26T11:39:04Z</time>
      </trkpt>
      <trkpt lat="62.631653364647" lon="17.913119590118">
        <ele>137.4</ele>
        <time>2017-11-26T11:39:05Z</time>
      </trkpt>
      <trkpt lat="62.631674319397" lon="17.913128894027">
        <ele>137.4</ele>
        <time>2017-11-26T11:39:06Z</time>
      </trkpt>
      <trkpt lat="62.631699632735" lon="17.913142556524">
        <ele>137.4</ele>
        <time>2017-11-26T11:39:07Z</time>
      </trkpt>
      <trkpt lat="62.631722934417" lon="17.913144316723">
        <ele>137.4</ele>
        <time>2017-11-26T11:39:08Z</time>
      </trkpt>
      <trkpt lat="62.63174112314" lon="17.91315043551">
        <ele>137.4</ele>
        <time>2017-11-26T11:39:09Z</time>
      </trkpt>
      <trkpt lat="62.631768364315" lon="17.913166025844">
        <ele>137.6</ele>
        <time>2017-11-26T11:39:10Z</time>
      </trkpt>
      <trkpt lat="62.631790743988" lon="17.913175245934">
        <ele>137.6</ele>
        <time>2017-11-26T11:39:11Z</time>
      </trkpt>
      <trkpt lat="62.631814297127" lon="17.913183460196">
        <ele>137.6</ele>
        <time>2017-11-26T11:39:12Z</time>
      </trkpt>
      <trkpt lat="62.631839359008" lon="17.913204834041">
        <ele>137.6</ele>
        <time>2017-11-26T11:39:13Z</time>
      </trkpt>
      <trkpt lat="62.631865594355" lon="17.913214557045">
        <ele>137.8</ele>
        <time>2017-11-26T11:39:14Z</time>
      </trkpt>
      <trkpt lat="62.631892919349" lon="17.913217742167">
        <ele>137.8</ele>
        <time>2017-11-26T11:39:15Z</time>
      </trkpt>
      <trkpt lat="62.631920160524" lon="17.91323593089">
        <ele>137.8</ele>
        <time>2017-11-26T11:39:16Z</time>
      </trkpt>
      <trkpt lat="62.631943462206" lon="17.913246575903">
        <ele>137.8</ele>
        <time>2017-11-26T11:39:17Z</time>
      </trkpt>
      <trkpt lat="62.631968104992" lon="17.913258310563">
        <ele>137.8</ele>
        <time>2017-11-26T11:39:18Z</time>
      </trkpt>
      <trkpt lat="62.631990149389" lon="17.913277421295">
        <ele>137.8</ele>
        <time>2017-11-26T11:39:19Z</time>
      </trkpt>
      <trkpt lat="62.632016133279" lon="17.913292424896">
        <ele>137.8</ele>
        <time>2017-11-26T11:39:20Z</time>
      </trkpt>
      <trkpt lat="62.632039015866" lon="17.913306590307">
        <ele>137.8</ele>
        <time>2017-11-26T11:39:21Z</time>
      </trkpt>
      <trkpt lat="62.63206382629" lon="17.913317822053">
        <ele>138</ele>
        <time>2017-11-26T11:39:22Z</time>
      </trkpt>
      <trkpt lat="62.632088888171" lon="17.913324695211">
        <ele>138</ele>
        <time>2017-11-26T11:39:23Z</time>
      </trkpt>
      <trkpt lat="62.632113447138" lon="17.913334334396">
        <ele>138</ele>
        <time>2017-11-26T11:39:24Z</time>
      </trkpt>
      <trkpt lat="62.632142280874" lon="17.913354702413">
        <ele>138</ele>
        <time>2017-11-26T11:39:25Z</time>
      </trkpt>
      <trkpt lat="62.632159296131" lon="17.913373561688">
        <ele>138</ele>
        <time>2017-11-26T11:39:26Z</time>
      </trkpt>
      <trkpt lat="62.632186453487" lon="17.913384877253">
        <ele>138</ele>
        <time>2017-11-26T11:39:27Z</time>
      </trkpt>
      <trkpt lat="62.632211431549" lon="17.913396528094">
        <ele>138</ele>
        <time>2017-11-26T11:39:28Z</time>
      </trkpt>
      <trkpt lat="62.632233475946" lon="17.913404742356">
        <ele>138</ele>
        <time>2017-11-26T11:39:29Z</time>
      </trkpt>
      <trkpt lat="62.632263650786" lon="17.913425110373">
        <ele>138</ele>
        <time>2017-11-26T11:39:30Z</time>
      </trkpt>
      <trkpt lat="62.632288796486" lon="17.913440952164">
        <ele>138</ele>
        <time>2017-11-26T11:39:31Z</time>
      </trkpt>
      <trkpt lat="62.632312098168" lon="17.913452519186">
        <ele>138</ele>
        <time>2017-11-26T11:39:32Z</time>
      </trkpt>
      <trkpt lat="62.63233623804" lon="17.913474563583">
        <ele>138</ele>
        <time>2017-11-26T11:39:33Z</time>
      </trkpt>
      <trkpt lat="62.632361299921" lon="17.913487639347">
        <ele>138</ele>
        <time>2017-11-26T11:39:34Z</time>
      </trkpt>
      <trkpt lat="62.632385858888" lon="17.913500379835">
        <ele>138</ele>
        <time>2017-11-26T11:39:35Z</time>
      </trkpt>
      <trkpt lat="62.632414608805" lon="17.913519825843">
        <ele>138.2</ele>
        <time>2017-11-26T11:39:36Z</time>
      </trkpt>
      <trkpt lat="62.632438664858" lon="17.913536924919">
        <ele>138.2</ele>
        <time>2017-11-26T11:39:37Z</time>
      </trkpt>
      <trkpt lat="62.632461715083" lon="17.913553437262">
        <ele>138.2</ele>
        <time>2017-11-26T11:39:38Z</time>
      </trkpt>
      <trkpt lat="62.632484765308" lon="17.913570033424">
        <ele>138.2</ele>
        <time>2017-11-26T11:39:39Z</time>
      </trkpt>
      <trkpt lat="62.632512677035" lon="17.913584115016">
        <ele>138.2</ele>
        <time>2017-11-26T11:39:40Z</time>
      </trkpt>
      <trkpt lat="62.632535811079" lon="17.913599202436">
        <ele>138.2</ele>
        <time>2017-11-26T11:39:41Z</time>
      </trkpt>
      <trkpt lat="62.632563806625" lon="17.913622001204">
        <ele>138.4</ele>
        <time>2017-11-26T11:39:42Z</time>
      </trkpt>
      <trkpt lat="62.632586437755" lon="17.913632227122">
        <ele>138.4</ele>
        <time>2017-11-26T11:39:43Z</time>
      </trkpt>
      <trkpt lat="62.632611331998" lon="17.913647146904">
        <ele>138.4</ele>
        <time>2017-11-26T11:39:44Z</time>
      </trkpt>
      <trkpt lat="62.63263714825" lon="17.913661647591">
        <ele>138.4</ele>
        <time>2017-11-26T11:39:45Z</time>
      </trkpt>
      <trkpt lat="62.632661623398" lon="17.913671957328">
        <ele>138.4</ele>
        <time>2017-11-26T11:39:46Z</time>
      </trkpt>
      <trkpt lat="62.632685092718" lon="17.913695426648">
        <ele>138.4</ele>
        <time>2017-11-26T11:39:47Z</time>
      </trkpt>
      <trkpt lat="62.632713255902" lon="17.913710178792">
        <ele>138.4</ele>
        <time>2017-11-26T11:39:48Z</time>
      </trkpt>
      <trkpt lat="62.632736222308" lon="17.913722584004">
        <ele>138.4</ele>
        <time>2017-11-26T11:39:49Z</time>
      </trkpt>
      <trkpt lat="62.632764804587" lon="17.91374052127">
        <ele>138.4</ele>
        <time>2017-11-26T11:39:50Z</time>
      </trkpt>
      <trkpt lat="62.632786178432" lon="17.91375728507">
        <ele>138.4</ele>
        <time>2017-11-26T11:39:51Z</time>
      </trkpt>
      <trkpt lat="62.632811072675" lon="17.913770360834">
        <ele>138.4</ele>
        <time>2017-11-26T11:39:52Z</time>
      </trkpt>
      <trkpt lat="62.632834625814" lon="17.913793830154">
        <ele>138.4</ele>
        <time>2017-11-26T11:39:53Z</time>
      </trkpt>
      <trkpt lat="62.632858095134" lon="17.913808749936">
        <ele>138.4</ele>
        <time>2017-11-26T11:39:54Z</time>
      </trkpt>
      <trkpt lat="62.632884079024" lon="17.913827525392">
        <ele>138.6</ele>
        <time>2017-11-26T11:39:55Z</time>
      </trkpt>
      <trkpt lat="62.632910314371" lon="17.913846468486">
        <ele>138.6</ele>
        <time>2017-11-26T11:39:56Z</time>
      </trkpt>
      <trkpt lat="62.632933532234" lon="17.913863316105">
        <ele>138.6</ele>
        <time>2017-11-26T11:39:57Z</time>
      </trkpt>
      <trkpt lat="62.632959599943" lon="17.91387798443">
        <ele>138.6</ele>
        <time>2017-11-26T11:39:58Z</time>
      </trkpt>
      <trkpt lat="62.632983907453" lon="17.913902375759">
        <ele>138.4</ele>
        <time>2017-11-26T11:39:59Z</time>
      </trkpt>
      <trkpt lat="62.633011986818" lon="17.91392659945">
        <ele>138.6</ele>
        <time>2017-11-26T11:40:00Z</time>
      </trkpt>
      <trkpt lat="62.633039311812" lon="17.913950404046">
        <ele>138.6</ele>
        <time>2017-11-26T11:40:01Z</time>
      </trkpt>
      <trkpt lat="62.633065882435" lon="17.913970101511">
        <ele>138.6</ele>
        <time>2017-11-26T11:40:02Z</time>
      </trkpt>
      <trkpt lat="62.633089519393" lon="17.913992229727">
        <ele>138.6</ele>
        <time>2017-11-26T11:40:03Z</time>
      </trkpt>
      <trkpt lat="62.633116257654" lon="17.914011508097">
        <ele>138.6</ele>
        <time>2017-11-26T11:40:04Z</time>
      </trkpt>
      <trkpt lat="62.633138134413" lon="17.91403388777">
        <ele>138.6</ele>
        <time>2017-11-26T11:40:05Z</time>
      </trkpt>
      <trkpt lat="62.633163447751" lon="17.914049310466">
        <ele>138.8</ele>
        <time>2017-11-26T11:40:06Z</time>
      </trkpt>
      <trkpt lat="62.633189264003" lon="17.914070265216">
        <ele>138.6</ele>
        <time>2017-11-26T11:40:07Z</time>
      </trkpt>
      <trkpt lat="62.633211559857" lon="17.914088118663">
        <ele>138.6</ele>
        <time>2017-11-26T11:40:08Z</time>
      </trkpt>
      <trkpt lat="62.633237040833" lon="17.914102451712">
        <ele>138.8</ele>
        <time>2017-11-26T11:40:09Z</time>
      </trkpt>
      <trkpt lat="62.633265874569" lon="17.914120975711">
        <ele>138.8</ele>
        <time>2017-11-26T11:40:10Z</time>
      </trkpt>
      <trkpt lat="62.633287835147" lon="17.91413279419">
        <ele>138.8</ele>
        <time>2017-11-26T11:40:11Z</time>
      </trkpt>
      <trkpt lat="62.633319267272" lon="17.914159280994">
        <ele>138.8</ele>
        <time>2017-11-26T11:40:12Z</time>
      </trkpt>
      <trkpt lat="62.633343071868" lon="17.914180990115">
        <ele>139</ele>
        <time>2017-11-26T11:40:13Z</time>
      </trkpt>
      <trkpt lat="62.633367630835" lon="17.914200939037">
        <ele>139</ele>
        <time>2017-11-26T11:40:14Z</time>
      </trkpt>
      <trkpt lat="62.633396967485" lon="17.914220887959">
        <ele>139</ele>
        <time>2017-11-26T11:40:15Z</time>
      </trkpt>
      <trkpt lat="62.633421023538" lon="17.914242848537">
        <ele>139</ele>
        <time>2017-11-26T11:40:16Z</time>
      </trkpt>
      <trkpt lat="62.633442397383" lon="17.914262043088">
        <ele>139</ele>
        <time>2017-11-26T11:40:17Z</time>
      </trkpt>
      <trkpt lat="62.633469638558" lon="17.914290625367">
        <ele>139</ele>
        <time>2017-11-26T11:40:18Z</time>
      </trkpt>
      <trkpt lat="62.633493946068" lon="17.914304036407">
        <ele>139</ele>
        <time>2017-11-26T11:40:19Z</time>
      </trkpt>
      <trkpt lat="62.63352227689" lon="17.914327841003">
        <ele>139</ele>
        <time>2017-11-26T11:40:20Z</time>
      </trkpt>
      <trkpt lat="62.633548512237" lon="17.914351729418">
        <ele>139</ele>
        <time>2017-11-26T11:40:21Z</time>
      </trkpt>
      <trkpt lat="62.6335717301" lon="17.914366481562">
        <ele>139</ele>
        <time>2017-11-26T11:40:22Z</time>
      </trkpt>
      <trkpt lat="62.633594947963" lon="17.914394141832">
        <ele>139</ele>
        <time>2017-11-26T11:40:23Z</time>
      </trkpt>
      <trkpt lat="62.633616573265" lon="17.914416437686">
        <ele>138.8</ele>
        <time>2017-11-26T11:40:24Z</time>
      </trkpt>
      <trkpt lat="62.633640210223" lon="17.914438062988">
        <ele>138.8</ele>
        <time>2017-11-26T11:40:25Z</time>
      </trkpt>
      <trkpt lat="62.633669211597" lon="17.914465471801">
        <ele>138.8</ele>
        <time>2017-11-26T11:40:26Z</time>
      </trkpt>
      <trkpt lat="62.633692597098" lon="17.914484498714">
        <ele>138.8</ele>
        <time>2017-11-26T11:40:27Z</time>
      </trkpt>
      <trkpt lat="62.633715563504" lon="17.914510985518">
        <ele>138.8</ele>
        <time>2017-11-26T11:40:28Z</time>
      </trkpt>
      <trkpt lat="62.633740457747" lon="17.914534454838">
        <ele>138.6</ele>
        <time>2017-11-26T11:40:29Z</time>
      </trkpt>
      <trkpt lat="62.63376535199" lon="17.914558510891">
        <ele>138.8</ele>
        <time>2017-11-26T11:40:30Z</time>
      </trkpt>
      <trkpt lat="62.633792509346" lon="17.914579884736">
        <ele>138.8</ele>
        <time>2017-11-26T11:40:31Z</time>
      </trkpt>
      <trkpt lat="62.633814721381" lon="17.914605868626">
        <ele>138.8</ele>
        <time>2017-11-26T11:40:32Z</time>
      </trkpt>
      <trkpt lat="62.633838106882" lon="17.914626991014">
        <ele>138.8</ele>
        <time>2017-11-26T11:40:33Z</time>
      </trkpt>
      <trkpt lat="62.633863252582" lon="17.914651382343">
        <ele>138.8</ele>
        <time>2017-11-26T11:40:34Z</time>
      </trkpt>
      <trkpt lat="62.633886721902" lon="17.914676695681">
        <ele>138.8</ele>
        <time>2017-11-26T11:40:35Z</time>
      </trkpt>
      <trkpt lat="62.633913460163" lon="17.91470527796">
        <ele>138.8</ele>
        <time>2017-11-26T11:40:36Z</time>
      </trkpt>
      <trkpt lat="62.6339405337" lon="17.914732686773">
        <ele>138.8</ele>
        <time>2017-11-26T11:40:37Z</time>
      </trkpt>
      <trkpt lat="62.63396232664" lon="17.914756491369">
        <ele>138.8</ele>
        <time>2017-11-26T11:40:38Z</time>
      </trkpt>
      <trkpt lat="62.633985293046" lon="17.914782726716">
        <ele>138.8</ele>
        <time>2017-11-26T11:40:39Z</time>
      </trkpt>
      <trkpt lat="62.634013037135" lon="17.914813907384">
        <ele>138.8</ele>
        <time>2017-11-26T11:40:40Z</time>
      </trkpt>
      <trkpt lat="62.63403357279" lon="17.914835700324">
        <ele>138.8</ele>
        <time>2017-11-26T11:40:41Z</time>
      </trkpt>
      <trkpt lat="62.63405955668" lon="17.91487040139">
        <ele>138.6</ele>
        <time>2017-11-26T11:40:42Z</time>
      </trkpt>
      <trkpt lat="62.634083780371" lon="17.914893619253">
        <ele>138.8</ele>
        <time>2017-11-26T11:40:43Z</time>
      </trkpt>
      <trkpt lat="62.634107249691" lon="17.914923374998">
        <ele>138.6</ele>
        <time>2017-11-26T11:40:44Z</time>
      </trkpt>
      <trkpt lat="62.634135999608" lon="17.914960674453">
        <ele>138.6</ele>
        <time>2017-11-26T11:40:45Z</time>
      </trkpt>
      <trkpt lat="62.634159720385" lon="17.914988837637">
        <ele>138.6</ele>
        <time>2017-11-26T11:40:46Z</time>
      </trkpt>
      <trkpt lat="62.634181513325" lon="17.915013480423">
        <ele>138.4</ele>
        <time>2017-11-26T11:40:47Z</time>
      </trkpt>
      <trkpt lat="62.634209173595" lon="17.915047091842">
        <ele>138.4</ele>
        <time>2017-11-26T11:40:48Z</time>
      </trkpt>
      <trkpt lat="62.634228284327" lon="17.915078691605">
        <ele>138.2</ele>
        <time>2017-11-26T11:40:49Z</time>
      </trkpt>
      <trkpt lat="62.634253681484" lon="17.91511012373">
        <ele>138.2</ele>
        <time>2017-11-26T11:40:50Z</time>
      </trkpt>
      <trkpt lat="62.63427916246" lon="17.915139125104">
        <ele>138</ele>
        <time>2017-11-26T11:40:51Z</time>
      </trkpt>
      <trkpt lat="62.634303050875" lon="17.915154883076">
        <ele>138</ele>
        <time>2017-11-26T11:40:52Z</time>
      </trkpt>
      <trkpt lat="62.63432693929" lon="17.915184806459">
        <ele>137.8</ele>
        <time>2017-11-26T11:40:53Z</time>
      </trkpt>
      <trkpt lat="62.634350492429" lon="17.915215232756">
        <ele>137.8</ele>
        <time>2017-11-26T11:40:54Z</time>
      </trkpt>
      <trkpt lat="62.634375638129" lon="17.915241635741">
        <ele>137.6</ele>
        <time>2017-11-26T11:40:55Z</time>
      </trkpt>
      <trkpt lat="62.634399358906" lon="17.915274995703">
        <ele>137.6</ele>
        <time>2017-11-26T11:40:56Z</time>
      </trkpt>
      <trkpt lat="62.634419056371" lon="17.915305924914">
        <ele>137.6</ele>
        <time>2017-11-26T11:40:57Z</time>
      </trkpt>
      <trkpt lat="62.634443363881" lon="17.915332076442">
        <ele>137.6</ele>
        <time>2017-11-26T11:40:58Z</time>
      </trkpt>
      <trkpt lat="62.63446607883" lon="17.915365017309">
        <ele>137.6</ele>
        <time>2017-11-26T11:40:59Z</time>
      </trkpt>
      <trkpt lat="62.634492230358" lon="17.915397539081">
        <ele>137.6</ele>
        <time>2017-11-26T11:41:00Z</time>
      </trkpt>
      <trkpt lat="62.63451804661" lon="17.915427713921">
        <ele>137.6</ele>
        <time>2017-11-26T11:41:01Z</time>
      </trkpt>
      <trkpt lat="62.63454067774" lon="17.915456715295">
        <ele>137.6</ele>
        <time>2017-11-26T11:41:02Z</time>
      </trkpt>
      <trkpt lat="62.634561883947" lon="17.915484040289">
        <ele>137.6</ele>
        <time>2017-11-26T11:41:03Z</time>
      </trkpt>
      <trkpt lat="62.634587029647" lon="17.915519663364">
        <ele>137.4</ele>
        <time>2017-11-26T11:41:04Z</time>
      </trkpt>
      <trkpt lat="62.63460940932" lon="17.915549083833">
        <ele>137.4</ele>
        <time>2017-11-26T11:41:05Z</time>
      </trkpt>
      <trkpt lat="62.634633884468" lon="17.915584287813">
        <ele>137.4</ele>
        <time>2017-11-26T11:41:06Z</time>
      </trkpt>
      <trkpt lat="62.634654084847" lon="17.915616222852">
        <ele>137.2</ele>
        <time>2017-11-26T11:41:07Z</time>
      </trkpt>
      <trkpt lat="62.634668585534" lon="17.91563399248">
        <ele>137.2</ele>
        <time>2017-11-26T11:41:08Z</time>
      </trkpt>
      <trkpt lat="62.63469658108" lon="17.915670705202">
        <ele>137.2</ele>
        <time>2017-11-26T11:41:09Z</time>
      </trkpt>
      <trkpt lat="62.634721894418" lon="17.915706160639">
        <ele>137.2</ele>
        <time>2017-11-26T11:41:10Z</time>
      </trkpt>
      <trkpt lat="62.634741340426" lon="17.9157328989">
        <ele>137</ele>
        <time>2017-11-26T11:41:11Z</time>
      </trkpt>
      <trkpt lat="62.634766821402" lon="17.915770198355">
        <ele>137</ele>
        <time>2017-11-26T11:41:12Z</time>
      </trkpt>
      <trkpt lat="62.634786854143" lon="17.915799786462">
        <ele>137</ele>
        <time>2017-11-26T11:41:13Z</time>
      </trkpt>
      <trkpt lat="62.634809485273" lon="17.915824177791">
        <ele>137</ele>
        <time>2017-11-26T11:41:14Z</time>
      </trkpt>
      <trkpt lat="62.634832200222" lon="17.915862902169">
        <ele>137.2</ele>
        <time>2017-11-26T11:41:15Z</time>
      </trkpt>
      <trkpt lat="62.634848796384" lon="17.915896094493">
        <ele>137.2</ele>
        <time>2017-11-26T11:41:16Z</time>
      </trkpt>
      <trkpt lat="62.63486841003" lon="17.91592149165">
        <ele>137.2</ele>
        <time>2017-11-26T11:41:17Z</time>
      </trkpt>
      <trkpt lat="62.634896573214" lon="17.915961221856">
        <ele>137.2</ele>
        <time>2017-11-26T11:41:18Z</time>
      </trkpt>
      <trkpt lat="62.634917108869" lon="17.915989887954">
        <ele>137.2</ele>
        <time>2017-11-26T11:41:19Z</time>
      </trkpt>
      <trkpt lat="62.634943930949" lon="17.916028277056">
        <ele>137.2</ele>
        <time>2017-11-26T11:41:20Z</time>
      </trkpt>
      <trkpt lat="62.634967903183" lon="17.916060044457">
        <ele>137.2</ele>
        <time>2017-11-26T11:41:21Z</time>
      </trkpt>
      <trkpt lat="62.634990618132" lon="17.916097176274">
        <ele>137.2</ele>
        <time>2017-11-26T11:41:22Z</time>
      </trkpt>
      <trkpt lat="62.635011572882" lon="17.916136403566">
        <ele>137.4</ele>
        <time>2017-11-26T11:41:23Z</time>
      </trkpt>
      <trkpt lat="62.635035964211" lon="17.916168087148">
        <ele>137.4</ele>
        <time>2017-11-26T11:41:24Z</time>
      </trkpt>
      <trkpt lat="62.635056080771" lon="17.916202369119">
        <ele>137.4</ele>
        <time>2017-11-26T11:41:25Z</time>
      </trkpt>
      <trkpt lat="62.635082316118" lon="17.916233549787">
        <ele>137.4</ele>
        <time>2017-11-26T11:41:26Z</time>
      </trkpt>
      <trkpt lat="62.635104947248" lon="17.916262467342">
        <ele>137.2</ele>
        <time>2017-11-26T11:41:27Z</time>
      </trkpt>
      <trkpt lat="62.635125482903" lon="17.916292306906">
        <ele>137.2</ele>
        <time>2017-11-26T11:41:28Z</time>
      </trkpt>
      <trkpt lat="62.635145683282" lon="17.916331785655">
        <ele>137.2</ele>
        <time>2017-11-26T11:41:29Z</time>
      </trkpt>
      <trkpt lat="62.635168817326" lon="17.916368917472">
        <ele>137.2</ele>
        <time>2017-11-26T11:41:30Z</time>
      </trkpt>
      <trkpt lat="62.635193376293" lon="17.916400181959">
        <ele>137.2</ele>
        <time>2017-11-26T11:41:31Z</time>
      </trkpt>
      <trkpt lat="62.635215672147" lon="17.916439912165">
        <ele>137</ele>
        <time>2017-11-26T11:41:32Z</time>
      </trkpt>
      <trkpt lat="62.63523721363" lon="17.916473439765">
        <ele>137</ele>
        <time>2017-11-26T11:41:33Z</time>
      </trkpt>
      <trkpt lat="62.635255737629" lon="17.916503530786">
        <ele>137</ele>
        <time>2017-11-26T11:41:34Z</time>
      </trkpt>
      <trkpt lat="62.635278871673" lon="17.916541416974">
        <ele>136.8</ele>
        <time>2017-11-26T11:41:35Z</time>
      </trkpt>
      <trkpt lat="62.63530007788" lon="17.916574274022">
        <ele>136.8</ele>
        <time>2017-11-26T11:41:36Z</time>
      </trkpt>
      <trkpt lat="62.63532187082" lon="17.91660713107">
        <ele>136.8</ele>
        <time>2017-11-26T11:41:37Z</time>
      </trkpt>
      <trkpt lat="62.635345256321" lon="17.916635964806">
        <ele>136.8</ele>
        <time>2017-11-26T11:41:38Z</time>
      </trkpt>
      <trkpt lat="62.635362858311" lon="17.916669492406">
        <ele>136.6</ele>
        <time>2017-11-26T11:41:39Z</time>
      </trkpt>
      <trkpt lat="62.635387082002" lon="17.916699667246">
        <ele>136.6</ele>
        <time>2017-11-26T11:41:40Z</time>
      </trkpt>
      <trkpt lat="62.635406276553" lon="17.916732943389">
        <ele>136.4</ele>
        <time>2017-11-26T11:41:41Z</time>
      </trkpt>
      <trkpt lat="62.635425554923" lon="17.916762112401">
        <ele>136.2</ele>
        <time>2017-11-26T11:41:42Z</time>
      </trkpt>
      <trkpt lat="62.635443576008" lon="17.916783821522">
        <ele>136</ele>
        <time>2017-11-26T11:41:43Z</time>
      </trkpt>
      <trkpt lat="62.635459166342" lon="17.916792873974">
        <ele>135.8</ele>
        <time>2017-11-26T11:41:44Z</time>
      </trkpt>
      <trkpt lat="62.635476768332" lon="17.916772422138">
        <ele>135.6</ele>
        <time>2017-11-26T11:41:45Z</time>
      </trkpt>
      <trkpt lat="62.635492442485" lon="17.916742331117">
        <ele>135.4</ele>
        <time>2017-11-26T11:41:46Z</time>
      </trkpt>
      <trkpt lat="62.635508116638" lon="17.916708719698">
        <ele>135.2</ele>
        <time>2017-11-26T11:41:47Z</time>
      </trkpt>
      <trkpt lat="62.635513732511" lon="17.916659350307">
        <ele>135</ele>
        <time>2017-11-26T11:41:48Z</time>
      </trkpt>
      <trkpt lat="62.635526472999" lon="17.916614507142">
        <ele>135</ele>
        <time>2017-11-26T11:41:49Z</time>
      </trkpt>
      <trkpt lat="62.635532759424" lon="17.916566311217">
        <ele>135</ele>
        <time>2017-11-26T11:41:50Z</time>
      </trkpt>
      <trkpt lat="62.635542733885" lon="17.916508979021">
        <ele>135</ele>
        <time>2017-11-26T11:41:51Z</time>
      </trkpt>
      <trkpt lat="62.635558743314" lon="17.916467237159">
        <ele>135</ele>
        <time>2017-11-26T11:41:52Z</time>
      </trkpt>
      <trkpt lat="62.63556829868" lon="17.916423735098">
        <ele>135.2</ele>
        <time>2017-11-26T11:41:53Z</time>
      </trkpt>
      <trkpt lat="62.635580955349" lon="17.916370007119">
        <ele>135.2</ele>
        <time>2017-11-26T11:41:54Z</time>
      </trkpt>
      <trkpt lat="62.635591348905" lon="17.916316949692">
        <ele>135.4</ele>
        <time>2017-11-26T11:41:55Z</time>
      </trkpt>
      <trkpt lat="62.635601742461" lon="17.916268921405">
        <ele>135.4</ele>
        <time>2017-11-26T11:41:56Z</time>
      </trkpt>
      <trkpt lat="62.635619931184" lon="17.916230867579">
        <ele>135.6</ele>
        <time>2017-11-26T11:41:57Z</time>
      </trkpt>
      <trkpt lat="62.635629318912" lon="17.91619474159">
        <ele>135.8</ele>
        <time>2017-11-26T11:41:58Z</time>
      </trkpt>
      <trkpt lat="62.635641472667" lon="17.916155262841">
        <ele>135.8</ele>
        <time>2017-11-26T11:41:59Z</time>
      </trkpt>
      <trkpt lat="62.635657733553" lon="17.916107066916">
        <ele>136</ele>
        <time>2017-11-26T11:42:00Z</time>
      </trkpt>
      <trkpt lat="62.635668546204" lon="17.916065911787">
        <ele>136.2</ele>
        <time>2017-11-26T11:42:01Z</time>
      </trkpt>
      <trkpt lat="62.635680951416" lon="17.916013524912">
        <ele>136.4</ele>
        <time>2017-11-26T11:42:02Z</time>
      </trkpt>
      <trkpt lat="62.635692769895" lon="17.915970358127">
        <ele>136.6</ele>
        <time>2017-11-26T11:42:03Z</time>
      </trkpt>
      <trkpt lat="62.635705175107" lon="17.915923084211">
        <ele>136.8</ele>
        <time>2017-11-26T11:42:04Z</time>
      </trkpt>
      <trkpt lat="62.635722860916" lon="17.915877486675">
        <ele>137</ele>
        <time>2017-11-26T11:42:05Z</time>
      </trkpt>
      <trkpt lat="62.635738199793" lon="17.915828955474">
        <ele>137.2</ele>
        <time>2017-11-26T11:42:06Z</time>
      </trkpt>
      <trkpt lat="62.635752616661" lon="17.915779586083">
        <ele>137.4</ele>
        <time>2017-11-26T11:42:07Z</time>
      </trkpt>
      <trkpt lat="62.635765021873" lon="17.915732395986">
        <ele>137.6</ele>
        <time>2017-11-26T11:42:08Z</time>
      </trkpt>
      <trkpt lat="62.635774325782" lon="17.91568931302">
        <ele>137.6</ele>
        <time>2017-11-26T11:42:09Z</time>
      </trkpt>
      <trkpt lat="62.635791424858" lon="17.915641200914">
        <ele>137.8</ele>
        <time>2017-11-26T11:42:10Z</time>
      </trkpt>
      <trkpt lat="62.635800728767" lon="17.915601470708">
        <ele>138</ele>
        <time>2017-11-26T11:42:11Z</time>
      </trkpt>
    </trkseg>
  </trk>
</gpx>